
Distance (Route):
Temperature : 25.2°C
Humidity : 49.4%
Pressure : 0hPa| Receiver | Frames | First received | Last received |
|---|---|---|---|
| IW2NTF | 1803 | 2026-09-05 23:02:23 | 2026-09-06 02:56:03 |
| DO3MHA-11 | 592 | 2026-09-05 23:50:26 | 2026-09-06 01:46:27 |
| DB0UT-7 | 201 | 2026-09-05 23:47:10 | 2026-09-06 01:45:07 |
| NBG1-10 | 108 | 2026-09-06 00:05:36 | 2026-09-06 01:34:02 |
| OE5DRO-10 | 108 | 2026-09-06 00:30:27 | 2026-09-06 01:20:15 |
| DB0ND-19 | 86 | 2026-09-05 23:58:53 | 2026-09-06 01:39:18 |
| HARRO8 | 61 | 2026-09-06 00:37:27 | 2026-09-06 01:18:20 |
| DF1GD-15 | 43 | 2026-09-06 01:14:11 | 2026-09-06 01:33:20 |
| IN3HCDX | 29 | 2026-09-06 00:43:15 | 2026-09-06 01:10:41 |
| S52SK | 23 | 2026-09-06 00:46:22 | 2026-09-06 01:09:43 |
| DK5PH-5 | 22 | 2026-09-06 00:53:10 | 2026-09-06 01:10:28 |
| PG1ADW-2 | 8 | 2026-09-06 01:02:30 | 2026-09-06 01:10:50 |
| BAUMI2-15 | 5 | 2026-09-06 00:47:37 | 2026-09-06 00:48:48 |
| OE3JTB-15 | 1 | 2026-09-06 00:53:50 | 2026-09-06 00:53:50 |
| DH7VM-15 | 1 | 2026-09-06 01:30:32 | 2026-09-06 01:30:32 |
| Receiver | Date | Latitude | Longitude | Direction | Speed | Altitude | Climb | Temperature | Humidity | Pressure | Voltage | Killtimer | Uptime | BKT | XDATA |
|---|---|---|---|---|---|---|---|---|---|---|---|---|---|---|---|
| IW2NTF | 2026-09-06 02:56:03 | 45.01743 | 9.88726 | 302° | 37km/h | 549m | -2.1m/s | 25.2°C | 49.4% | 0hPa | 2.8V | 06:44:06 | 04:22:13 | 00:00:00 | |
| IW2NTF | 2026-09-06 02:56:03 | 45.01733 | 9.88748 | 295° | 38km/h | 554m | -1.6m/s | 25.2°C | 49.8% | 0hPa | 2.8V | 06:44:08 | 04:22:11 | 00:00:00 | |
| IW2NTF | 2026-09-06 02:56:03 | 45.01724 | 9.88773 | 295° | 38km/h | 558m | -1.5m/s | 25.2°C | 49.9% | 0hPa | 2.8V | 06:44:10 | 04:22:09 | 00:00:00 | |
| IW2NTF | 2026-09-06 02:55:57 | 45.01715 | 9.88799 | 295° | 42km/h | 561m | -1.7m/s | 25.1°C | 49.9% | 0hPa | 2.8V | 06:44:12 | 04:22:07 | 00:00:00 | |
| IW2NTF | 2026-09-06 02:55:57 | 45.01707 | 9.88827 | 287° | 44km/h | 565m | -1.3m/s | 25.1°C | 49.9% | 0hPa | 2.8V | 06:44:14 | 04:22:05 | 00:00:00 | |
| IW2NTF | 2026-09-06 02:55:57 | 45.01701 | 9.88856 | 283° | 44km/h | 568m | -1.6m/s | 25.1°C | 50.2% | 0hPa | 2.8V | 06:44:16 | 04:22:03 | 00:00:00 | |
| IW2NTF | 2026-09-06 02:55:51 | 45.01696 | 9.88885 | 282° | 42km/h | 572m | -1.8m/s | 25.1°C | 50.4% | 0hPa | 2.8V | 06:44:18 | 04:22:01 | 00:00:00 | |
| IW2NTF | 2026-09-06 02:55:51 | 45.01693 | 9.88913 | 278° | 38km/h | 576m | -2m/s | 25°C | 50.7% | 0hPa | 2.8V | 06:44:20 | 04:21:59 | 00:00:00 | |
| IW2NTF | 2026-09-06 02:55:51 | 45.01691 | 9.88938 | 275° | 33km/h | 580m | -1.6m/s | 25°C | 50.8% | 0hPa | 2.8V | 06:44:22 | 04:21:57 | 00:00:00 | |
| IW2NTF | 2026-09-06 02:55:45 | 45.01689 | 9.88961 | 281° | 31km/h | 584m | -2m/s | 25°C | 50.8% | 0hPa | 2.8V | 06:44:24 | 04:21:55 | 00:00:00 | |
| IW2NTF | 2026-09-06 02:55:45 | 45.01680 | 9.89000 | 295° | 31km/h | 592m | -1.8m/s | 24.9°C | 50.8% | 0hPa | 2.8V | 06:44:28 | 04:21:51 | 00:00:00 | |
| IW2NTF | 2026-09-06 02:55:38 | 45.01673 | 9.89020 | 298° | 33km/h | 595m | -1.9m/s | 24.9°C | 51% | 0hPa | 2.8V | 06:44:30 | 04:21:49 | 00:00:00 | |
| IW2NTF | 2026-09-06 02:55:38 | 45.01665 | 9.89040 | 299° | 33km/h | 599m | -1.9m/s | 24.9°C | 51.2% | 0hPa | 2.8V | 06:44:32 | 04:21:47 | 00:00:00 | |
| IW2NTF | 2026-09-06 02:55:38 | 45.01651 | 9.89073 | 298° | 38km/h | 606m | -2.1m/s | 24.8°C | 52% | 0hPa | 2.8V | 06:44:35 | 04:21:44 | 00:00:00 | |
| IW2NTF | 2026-09-06 02:55:32 | 45.01641 | 9.89098 | 294° | 40km/h | 610m | -1.7m/s | 24.8°C | 52.5% | 0hPa | 2.8V | 06:44:37 | 04:21:42 | 00:00:00 | |
| IW2NTF | 2026-09-06 02:55:32 | 45.01633 | 9.89125 | 291° | 42km/h | 614m | -1.4m/s | 24.7°C | 52.7% | 0hPa | 2.8V | 06:44:39 | 04:21:40 | 00:00:00 | |
| IW2NTF | 2026-09-06 02:55:32 | 45.01625 | 9.89154 | 287° | 44km/h | 618m | -1.3m/s | 24.7°C | 52.7% | 0hPa | 2.8V | 06:44:41 | 04:21:38 | 00:00:00 | |
| IW2NTF | 2026-09-06 02:55:26 | 45.01619 | 9.89184 | 283° | 44km/h | 620m | -1.5m/s | 24.6°C | 53.2% | 0hPa | 2.8V | 06:44:43 | 04:21:36 | 00:00:00 | |
| IW2NTF | 2026-09-06 02:55:26 | 45.01614 | 9.89215 | 278° | 44km/h | 624m | -1.8m/s | 24.6°C | 53.4% | 0hPa | 2.8V | 06:44:45 | 04:21:34 | 00:00:00 | |
| IW2NTF | 2026-09-06 02:55:26 | 45.01612 | 9.89244 | 275° | 38km/h | 628m | -1.4m/s | 24.6°C | 53.4% | 0hPa | 2.8V | 06:44:47 | 04:21:32 | 00:00:00 | |
| IW2NTF | 2026-09-06 02:55:20 | 45.01610 | 9.89271 | 278° | 37km/h | 631m | -1.8m/s | 24.5°C | 53.9% | 0hPa | 2.8V | 06:44:49 | 04:21:30 | 00:00:00 | |
| IW2NTF | 2026-09-06 02:55:20 | 45.01608 | 9.89296 | 274° | 31km/h | 635m | -1.8m/s | 24.5°C | 54.5% | 0hPa | 2.8V | 06:44:51 | 04:21:28 | 00:00:00 | |
| IW2NTF | 2026-09-06 02:55:20 | 45.01606 | 9.89318 | 277° | 29km/h | 639m | -1.8m/s | 24.4°C | 54.8% | 0hPa | 2.8V | 06:44:53 | 04:21:26 | 00:00:00 | |
| IW2NTF | 2026-09-06 02:55:14 | 45.01603 | 9.89339 | 282° | 29km/h | 643m | -1.7m/s | 24.4°C | 55.1% | 0hPa | 2.8V | 06:44:55 | 04:21:24 | 00:00:00 | |
| IW2NTF | 2026-09-06 02:55:14 | 45.01598 | 9.89359 | 289° | 29km/h | 646m | -1.7m/s | 24.4°C | 55.6% | 0hPa | 2.8V | 06:44:57 | 04:21:22 | 00:00:00 | |
| IW2NTF | 2026-09-06 02:55:14 | 45.01591 | 9.89380 | 297° | 31km/h | 650m | -1.8m/s | 24.3°C | 56.6% | 0hPa | 2.8V | 06:44:59 | 04:21:20 | 00:00:00 | |
| IW2NTF | 2026-09-06 02:55:08 | 45.01583 | 9.89402 | 299° | 38km/h | 653m | -1.7m/s | 24.3°C | 57% | 0hPa | 2.8V | 06:45:01 | 04:21:18 | 00:00:00 | |
| IW2NTF | 2026-09-06 02:55:08 | 45.01574 | 9.89426 | 298° | 38km/h | 656m | -2.1m/s | 24.3°C | 57.1% | 0hPa | 2.8V | 06:45:03 | 04:21:16 | 00:00:00 | |
| IW2NTF | 2026-09-06 02:55:08 | 45.01564 | 9.89452 | 296° | 42km/h | 660m | -2.4m/s | 24.2°C | 57.6% | 0hPa | 2.8V | 06:45:05 | 04:21:14 | 00:00:00 | |
| IW2NTF | 2026-09-06 02:55:02 | 45.01555 | 9.89479 | 293° | 44km/h | 664m | -2m/s | 24.2°C | 57.8% | 0hPa | 2.8V | 06:45:07 | 04:21:12 | 00:00:00 | |
| IW2NTF | 2026-09-06 02:55:02 | 45.01542 | 9.89538 | 282° | 44km/h | 672m | -1.9m/s | 24.1°C | 58.4% | 0hPa | 2.8V | 06:45:11 | 04:21:08 | 00:00:00 | |
| IW2NTF | 2026-09-06 02:54:57 | 45.01538 | 9.89568 | 278° | 42km/h | 676m | -2m/s | 24.1°C | 58.6% | 0hPa | 2.8V | 06:45:13 | 04:21:06 | 00:00:00 | |
| IW2NTF | 2026-09-06 02:54:57 | 45.01535 | 9.89596 | 275° | 38km/h | 680m | -1.9m/s | 24.1°C | 58.8% | 0hPa | 2.8V | 06:45:15 | 04:21:04 | 00:00:00 | |
| IW2NTF | 2026-09-06 02:54:57 | 45.01534 | 9.89622 | 275° | 35km/h | 683m | -2m/s | 24°C | 58.8% | 0hPa | 2.8V | 06:45:17 | 04:21:02 | 00:00:00 | |
| IW2NTF | 2026-09-06 02:54:50 | 45.01531 | 9.89645 | 280° | 31km/h | 687m | -1.8m/s | 24°C | 59.2% | 0hPa | 2.8V | 06:45:19 | 04:21:00 | 00:00:00 | |
| IW2NTF | 2026-09-06 02:54:50 | 45.01527 | 9.89666 | 289° | 31km/h | 691m | -1.9m/s | 23.9°C | 60% | 0hPa | 2.8V | 06:45:21 | 04:20:58 | 00:00:00 | |
| IW2NTF | 2026-09-06 02:54:50 | 45.01521 | 9.89687 | 295° | 35km/h | 694m | -2.1m/s | 23.9°C | 60% | 0hPa | 2.8V | 06:45:23 | 04:20:56 | 00:00:00 | |
| IW2NTF | 2026-09-06 02:54:44 | 45.01513 | 9.89711 | 295° | 38km/h | 698m | -2.2m/s | 23.9°C | 60.1% | 0hPa | 2.8V | 06:45:25 | 04:20:54 | 00:00:00 | |
| IW2NTF | 2026-09-06 02:54:44 | 45.01505 | 9.89738 | 291° | 42km/h | 702m | -2.3m/s | 23.8°C | 60.1% | 0hPa | 2.8V | 06:45:27 | 04:20:52 | 00:00:00 | |
| IW2NTF | 2026-09-06 02:54:44 | 45.01498 | 9.89767 | 287° | 44km/h | 706m | -2.2m/s | 23.8°C | 60.4% | 0hPa | 2.8V | 06:45:29 | 04:20:50 | 00:00:00 | |
| IW2NTF | 2026-09-06 02:54:39 | 45.01492 | 9.89798 | 280° | 44km/h | 710m | -1.8m/s | 23.8°C | 60.4% | 0hPa | 2.8V | 06:45:31 | 04:20:48 | 00:00:00 | |
| IW2NTF | 2026-09-06 02:54:39 | 45.01488 | 9.89827 | 280° | 42km/h | 714m | -2.2m/s | 23.7°C | 60.7% | 0hPa | 2.8V | 06:45:33 | 04:20:46 | 00:00:00 | |
| IW2NTF | 2026-09-06 02:54:39 | 45.01485 | 9.89856 | 275° | 38km/h | 718m | -2m/s | 23.7°C | 60.6% | 0hPa | 2.8V | 06:45:35 | 04:20:44 | 00:00:00 | |
| IW2NTF | 2026-09-06 02:54:32 | 45.01484 | 9.89883 | 277° | 37km/h | 722m | -2.3m/s | 23.7°C | 60.9% | 0hPa | 2.8V | 06:45:37 | 04:20:42 | 00:00:00 | |
| IW2NTF | 2026-09-06 02:54:32 | 45.01482 | 9.89907 | 273° | 33km/h | 726m | -1.8m/s | 23.6°C | 61.2% | 0hPa | 2.8V | 06:45:39 | 04:20:40 | 00:00:00 | |
| IW2NTF | 2026-09-06 02:54:32 | 45.01479 | 9.89929 | 281° | 29km/h | 729m | -2.4m/s | 23.6°C | 61.2% | 0hPa | 2.8V | 06:45:41 | 04:20:38 | 00:00:00 | |
| IW2NTF | 2026-09-06 02:54:26 | 45.01476 | 9.89950 | 280° | 29km/h | 734m | -1.9m/s | 23.6°C | 61.5% | 0hPa | 2.8V | 06:45:43 | 04:20:36 | 00:00:00 | |
| IW2NTF | 2026-09-06 02:54:26 | 45.01472 | 9.89970 | 282° | 29km/h | 738m | -2m/s | 23.6°C | 61.8% | 0hPa | 2.8V | 06:45:45 | 04:20:34 | 00:00:00 | |
| IW2NTF | 2026-09-06 02:54:26 | 45.01468 | 9.89990 | 286° | 27km/h | 741m | -2.3m/s | 23.5°C | 62.1% | 0hPa | 2.8V | 06:45:47 | 04:20:32 | 00:00:00 | |
| IW2NTF | 2026-09-06 02:54:20 | 45.01464 | 9.90009 | 286° | 29km/h | 746m | -2.2m/s | 23.5°C | 62.3% | 0hPa | 2.8V | 06:45:49 | 04:20:30 | 00:00:00 | |
| IW2NTF | 2026-09-06 02:54:20 | 45.01460 | 9.90029 | 281° | 27km/h | 750m | -2m/s | 23.5°C | 62.9% | 0hPa | 2.8V | 06:45:51 | 04:20:28 | 00:00:00 | |
| IW2NTF | 2026-09-06 02:54:20 | 45.01457 | 9.90049 | 283° | 29km/h | 754m | -2.1m/s | 23.5°C | 63% | 0hPa | 2.8V | 06:45:53 | 04:20:26 | 00:00:00 | |
| IW2NTF | 2026-09-06 02:54:14 | 45.01453 | 9.90068 | 288° | 27km/h | 758m | -2.3m/s | 23.4°C | 63.3% | 0hPa | 2.8V | 06:45:55 | 04:20:24 | 00:00:00 | |
| IW2NTF | 2026-09-06 02:54:14 | 45.01448 | 9.90087 | 287° | 29km/h | 763m | -2.3m/s | 23.4°C | 63.3% | 0hPa | 2.8V | 06:45:57 | 04:20:22 | 00:00:00 | |
| IW2NTF | 2026-09-06 02:54:14 | 45.01443 | 9.90106 | 289° | 29km/h | 767m | -2.3m/s | 23.4°C | 64.4% | 0hPa | 2.8V | 06:45:59 | 04:20:20 | 00:00:00 | |
| IW2NTF | 2026-09-06 02:54:08 | 45.01439 | 9.90125 | 290° | 31km/h | 772m | -2m/s | 23.4°C | 65.4% | 0hPa | 2.8V | 06:46:01 | 04:20:18 | 00:00:00 | |
| IW2NTF | 2026-09-06 02:54:08 | 45.01434 | 9.90144 | 293° | 29km/h | 776m | -2.3m/s | 23.3°C | 66% | 0hPa | 2.8V | 06:46:03 | 04:20:16 | 00:00:00 | |
| IW2NTF | 2026-09-06 02:54:08 | 45.01429 | 9.90162 | 295° | 27km/h | 781m | -2.4m/s | 23.3°C | 66.6% | 0hPa | 2.8V | 06:46:05 | 04:20:14 | 00:00:00 | |
| IW2NTF | 2026-09-06 02:54:02 | 45.01423 | 9.90181 | 287° | 27km/h | 785m | -2.3m/s | 23.3°C | 66.9% | 0hPa | 2.8V | 06:46:07 | 04:20:12 | 00:00:00 | |
| IW2NTF | 2026-09-06 02:54:02 | 45.01419 | 9.90199 | 293° | 27km/h | 789m | -2.6m/s | 23.2°C | 67% | 0hPa | 2.8V | 06:46:09 | 04:20:10 | 00:00:00 | |
| IW2NTF | 2026-09-06 02:54:02 | 45.01413 | 9.90217 | 296° | 29km/h | 794m | -2m/s | 23.2°C | 67.2% | 0hPa | 2.8V | 06:46:11 | 04:20:08 | 00:00:00 | |
| IW2NTF | 2026-09-06 02:53:56 | 45.01406 | 9.90235 | 298° | 27km/h | 797m | -2.1m/s | 23.2°C | 67.1% | 0hPa | 2.8V | 06:46:13 | 04:20:06 | 00:00:00 | |
| IW2NTF | 2026-09-06 02:53:56 | 45.01399 | 9.90253 | 301° | 31km/h | 801m | -2.1m/s | 23.2°C | 66.9% | 0hPa | 2.8V | 06:46:15 | 04:20:04 | 00:00:00 | |
| IW2NTF | 2026-09-06 02:53:56 | 45.01390 | 9.90273 | 299° | 35km/h | 805m | -1.8m/s | 23.1°C | 67.2% | 0hPa | 2.8V | 06:46:17 | 04:20:02 | 00:00:00 | |
| IW2NTF | 2026-09-06 02:53:50 | 45.01382 | 9.90296 | 294° | 38km/h | 808m | -1.9m/s | 23.1°C | 67% | 0hPa | 2.8V | 06:46:19 | 04:20:00 | 00:00:00 | |
| IW2NTF | 2026-09-06 02:53:50 | 45.01376 | 9.90321 | 285° | 37km/h | 812m | -1.9m/s | 23.1°C | 67.1% | 0hPa | 2.8V | 06:46:21 | 04:19:58 | 00:00:00 | |
| IW2NTF | 2026-09-06 02:53:50 | 45.01372 | 9.90345 | 280° | 33km/h | 816m | -2.2m/s | 23°C | 67.2% | 0hPa | 2.8V | 06:46:23 | 04:19:56 | 00:00:00 | |
| IW2NTF | 2026-09-06 02:53:45 | 45.01369 | 9.90366 | 281° | 27km/h | 821m | -1.9m/s | 23°C | 67.1% | 0hPa | 2.8V | 06:46:25 | 04:19:54 | 00:00:00 | |
| IW2NTF | 2026-09-06 02:53:45 | 45.01366 | 9.90384 | 285° | 26km/h | 824m | -1.9m/s | 23°C | 67.1% | 0hPa | 2.8V | 06:46:27 | 04:19:52 | 00:00:00 | |
| IW2NTF | 2026-09-06 02:53:45 | 45.01363 | 9.90403 | 282° | 26km/h | 828m | -2.2m/s | 22.9°C | 67.3% | 0hPa | 2.8V | 06:46:29 | 04:19:50 | 00:00:00 | |
| IW2NTF | 2026-09-06 02:53:39 | 45.01360 | 9.90421 | 281° | 26km/h | 831m | -2.2m/s | 22.9°C | 67.5% | 0hPa | 2.8V | 06:46:31 | 04:19:48 | 00:00:00 | |
| IW2NTF | 2026-09-06 02:53:39 | 45.01356 | 9.90438 | 288° | 24km/h | 835m | -2.1m/s | 22.9°C | 67.5% | 0hPa | 2.8V | 06:46:33 | 04:19:46 | 00:00:00 | |
| IW2NTF | 2026-09-06 02:53:39 | 45.01353 | 9.90454 | 284° | 26km/h | 839m | -2.3m/s | 22.9°C | 67.9% | 0hPa | 2.8V | 06:46:35 | 04:19:44 | 00:00:00 | |
| IW2NTF | 2026-09-06 02:53:32 | 45.01350 | 9.90471 | 290° | 26km/h | 844m | -2.1m/s | 22.9°C | 67.4% | 0hPa | 2.8V | 06:46:37 | 04:19:42 | 00:00:00 | |
| IW2NTF | 2026-09-06 02:53:32 | 45.01345 | 9.90489 | 290° | 26km/h | 847m | -2.4m/s | 22.9°C | 66.2% | 0hPa | 2.8V | 06:46:39 | 04:19:40 | 00:00:00 | |
| IW2NTF | 2026-09-06 02:53:32 | 45.01341 | 9.90506 | 287° | 26km/h | 851m | -2.6m/s | 22.9°C | 64.6% | 0hPa | 2.8V | 06:46:41 | 04:19:38 | 00:00:00 | |
| IW2NTF | 2026-09-06 02:53:26 | 45.01338 | 9.90523 | 284° | 22km/h | 856m | -2.3m/s | 22.9°C | 64.7% | 0hPa | 2.8V | 06:46:43 | 04:19:36 | 00:00:00 | |
| IW2NTF | 2026-09-06 02:53:26 | 45.01334 | 9.90538 | 284° | 24km/h | 860m | -2.5m/s | 22.9°C | 64% | 0hPa | 2.8V | 06:46:45 | 04:19:34 | 00:00:00 | |
| IW2NTF | 2026-09-06 02:53:26 | 45.01331 | 9.90553 | 289° | 24km/h | 865m | -2.3m/s | 22.9°C | 64.4% | 0hPa | 2.8V | 06:46:47 | 04:19:32 | 00:00:00 | |
| IW2NTF | 2026-09-06 02:53:20 | 45.01328 | 9.90569 | 290° | 24km/h | 869m | -2.4m/s | 22.9°C | 64.3% | 0hPa | 2.8V | 06:46:49 | 04:19:30 | 00:00:00 | |
| IW2NTF | 2026-09-06 02:53:20 | 45.01325 | 9.90585 | 290° | 26km/h | 873m | -2.3m/s | 22.9°C | 63.6% | 0hPa | 2.8V | 06:46:51 | 04:19:28 | 00:00:00 | |
| IW2NTF | 2026-09-06 02:53:20 | 45.01321 | 9.90600 | 283° | 24km/h | 878m | -2.4m/s | 22.9°C | 61.6% | 0hPa | 2.8V | 06:46:53 | 04:19:26 | 00:00:00 | |
| IW2NTF | 2026-09-06 02:53:14 | 45.01318 | 9.90616 | 281° | 20km/h | 881m | -2.2m/s | 22.9°C | 61.5% | 0hPa | 2.8V | 06:46:55 | 04:19:24 | 00:00:00 | |
| IW2NTF | 2026-09-06 02:53:14 | 45.01315 | 9.90631 | 281° | 20km/h | 885m | -2.4m/s | 23°C | 55.1% | 0hPa | 2.8V | 06:46:57 | 04:19:22 | 00:00:00 | |
| IW2NTF | 2026-09-06 02:53:14 | 45.01312 | 9.90647 | 283° | 20km/h | 890m | -2.7m/s | 23°C | 55.5% | 0hPa | 2.8V | 06:46:59 | 04:19:20 | 00:00:00 | |
| IW2NTF | 2026-09-06 02:53:08 | 45.01309 | 9.90663 | 285° | 22km/h | 895m | -2.5m/s | 23°C | 55.5% | 0hPa | 2.8V | 06:47:01 | 04:19:18 | 00:00:00 | |
| IW2NTF | 2026-09-06 02:53:08 | 45.01307 | 9.90679 | 285° | 24km/h | 899m | -2.5m/s | 23°C | 52.7% | 0hPa | 2.8V | 06:47:03 | 04:19:16 | 00:00:00 | |
| IW2NTF | 2026-09-06 02:53:08 | 45.01304 | 9.90693 | 275° | 20km/h | 904m | -2.6m/s | 23.1°C | 51.8% | 0hPa | 2.8V | 06:47:05 | 04:19:14 | 00:00:00 | |
| IW2NTF | 2026-09-06 02:53:02 | 45.01302 | 9.90708 | 283° | 24km/h | 909m | -2.6m/s | 23.1°C | 50.9% | 0hPa | 2.8V | 06:47:07 | 04:19:12 | 00:00:00 | |
| IW2NTF | 2026-09-06 02:53:02 | 45.01300 | 9.90723 | 284° | 20km/h | 914m | -2.5m/s | 23.1°C | 50.6% | 0hPa | 2.8V | 06:47:09 | 04:19:10 | 00:00:00 | |
| IW2NTF | 2026-09-06 02:53:02 | 45.01298 | 9.90737 | 275° | 20km/h | 918m | -2.2m/s | 23.1°C | 50.4% | 0hPa | 2.8V | 06:47:11 | 04:19:08 | 00:00:00 | |
| IW2NTF | 2026-09-06 02:52:56 | 45.01297 | 9.90752 | 279° | 22km/h | 923m | -2.7m/s | 23.1°C | 50.3% | 0hPa | 2.8V | 06:47:13 | 04:19:06 | 00:00:00 | |
| IW2NTF | 2026-09-06 02:52:56 | 45.01295 | 9.90766 | 282° | 18km/h | 928m | -2.5m/s | 23.1°C | 49.8% | 0hPa | 2.8V | 06:47:15 | 04:19:04 | 00:00:00 | |
| IW2NTF | 2026-09-06 02:52:56 | 45.01294 | 9.90779 | 271° | 20km/h | 933m | -2.3m/s | 23°C | 49.9% | 0hPa | 2.8V | 06:47:17 | 04:19:02 | 00:00:00 | |
| IW2NTF | 2026-09-06 02:52:50 | 45.01292 | 9.90794 | 281° | 20km/h | 938m | -2.1m/s | 23°C | 50.1% | 0hPa | 2.8V | 06:47:19 | 04:19:00 | 00:00:00 | |
| IW2NTF | 2026-09-06 02:52:50 | 45.01291 | 9.90808 | 282° | 22km/h | 942m | -2.4m/s | 22.9°C | 50.4% | 0hPa | 2.8V | 06:47:21 | 04:18:58 | 00:00:00 | |
| IW2NTF | 2026-09-06 02:52:50 | 45.01290 | 9.90823 | 273° | 20km/h | 946m | -2.4m/s | 22.9°C | 50.7% | 0hPa | 2.8V | 06:47:23 | 04:18:56 | 00:00:00 | |
| IW2NTF | 2026-09-06 02:52:45 | 45.01289 | 9.90837 | 276° | 18km/h | 951m | -2.3m/s | 22.9°C | 51% | 0hPa | 2.8V | 06:47:25 | 04:18:54 | 00:00:00 | |
| IW2NTF | 2026-09-06 02:52:45 | 45.01287 | 9.90848 | 286° | 15km/h | 955m | -1.9m/s | 22.9°C | 50.9% | 0hPa | 2.8V | 06:47:27 | 04:18:52 | 00:00:00 | |
| IW2NTF | 2026-09-06 02:52:45 | 45.01284 | 9.90858 | 302° | 16km/h | 959m | -2.2m/s | 22.9°C | 50.9% | 0hPa | 2.8V | 06:47:29 | 04:18:50 | 00:00:00 | |
| IW2NTF | 2026-09-06 02:52:38 | 45.01271 | 9.90882 | 304° | 26km/h | 967m | -2m/s | 22.8°C | 51.3% | 0hPa | 2.8V | 06:47:33 | 04:18:46 | 00:00:00 | |
| IW2NTF | 2026-09-06 02:52:38 | 45.01264 | 9.90899 | 293° | 27km/h | 971m | -2.4m/s | 22.8°C | 51.4% | 0hPa | 2.8V | 06:47:35 | 04:18:44 | 00:00:00 | |
| IW2NTF | 2026-09-06 02:52:32 | 45.01260 | 9.90918 | 283° | 26km/h | 975m | -2.1m/s | 22.8°C | 51.6% | 0hPa | 2.8V | 06:47:37 | 04:18:42 | 00:00:00 | |
| IW2NTF | 2026-09-06 02:52:32 | 45.01257 | 9.90936 | 281° | 26km/h | 979m | -2.6m/s | 22.7°C | 51.9% | 0hPa | 2.8V | 06:47:39 | 04:18:40 | 00:00:00 | |
| IW2NTF | 2026-09-06 02:52:32 | 45.01255 | 9.90952 | 279° | 22km/h | 984m | -2.4m/s | 22.7°C | 52.3% | 0hPa | 2.8V | 06:47:41 | 04:18:38 | 00:00:00 | |
| IW2NTF | 2026-09-06 02:52:26 | 45.01254 | 9.90967 | 272° | 20km/h | 988m | -2.3m/s | 22.7°C | 52.7% | 0hPa | 2.8V | 06:47:43 | 04:18:36 | 00:00:00 | |
| IW2NTF | 2026-09-06 02:52:26 | 45.01253 | 9.90980 | 283° | 18km/h | 993m | -2.4m/s | 22.7°C | 53.4% | 0hPa | 2.8V | 06:47:45 | 04:18:34 | 00:00:00 | |
| IW2NTF | 2026-09-06 02:52:26 | 45.01251 | 9.90990 | 285° | 15km/h | 997m | -2.7m/s | 22.6°C | 53.8% | 0hPa | 2.8V | 06:47:47 | 04:18:32 | 00:00:00 | |
| IW2NTF | 2026-09-06 02:52:20 | 45.01249 | 9.90999 | 292° | 11km/h | 1002m | -2.3m/s | 22.6°C | 54.5% | 0hPa | 2.8V | 06:47:49 | 04:18:30 | 00:00:00 | |
| IW2NTF | 2026-09-06 02:52:20 | 45.01246 | 9.91008 | 295° | 15km/h | 1007m | -2.4m/s | 22.6°C | 54.6% | 0hPa | 2.8V | 06:47:51 | 04:18:28 | 00:00:00 | |
| IW2NTF | 2026-09-06 02:52:20 | 45.01243 | 9.91016 | 297° | 11km/h | 1012m | -2m/s | 22.5°C | 54.7% | 0hPa | 2.8V | 06:47:53 | 04:18:26 | 00:00:00 | |
| IW2NTF | 2026-09-06 02:52:15 | 45.01241 | 9.91024 | 288° | 11km/h | 1016m | -2.1m/s | 22.5°C | 55% | 0hPa | 2.8V | 06:47:55 | 04:18:24 | 00:00:00 | |
| IW2NTF | 2026-09-06 02:52:15 | 45.01238 | 9.91032 | 303° | 13km/h | 1020m | -2.3m/s | 22.4°C | 55.1% | 0hPa | 2.8V | 06:47:57 | 04:18:22 | 00:00:00 | |
| IW2NTF | 2026-09-06 02:52:15 | 45.01235 | 9.91039 | 305° | 13km/h | 1025m | -2.1m/s | 22.4°C | 55.4% | 0hPa | 2.8V | 06:47:59 | 04:18:20 | 00:00:00 | |
| IW2NTF | 2026-09-06 02:52:08 | 45.01231 | 9.91046 | 301° | 13km/h | 1030m | -1.9m/s | 22.4°C | 55.5% | 0hPa | 2.8V | 06:48:01 | 04:18:18 | 00:00:00 | |
| IW2NTF | 2026-09-06 02:52:08 | 45.01227 | 9.91053 | 318° | 15km/h | 1034m | -2.2m/s | 22.4°C | 55.3% | 0hPa | 2.8V | 06:48:03 | 04:18:16 | 00:00:00 | |
| IW2NTF | 2026-09-06 02:52:08 | 45.01221 | 9.91061 | 317° | 18km/h | 1038m | -2.3m/s | 22.4°C | 55.5% | 0hPa | 2.8V | 06:48:05 | 04:18:14 | 00:00:00 | |
| IW2NTF | 2026-09-06 02:52:02 | 45.01214 | 9.91071 | 311° | 20km/h | 1042m | -1.9m/s | 22.4°C | 55.5% | 0hPa | 2.8V | 06:48:07 | 04:18:12 | 00:00:00 | |
| IW2NTF | 2026-09-06 02:52:02 | 45.01207 | 9.91082 | 308° | 24km/h | 1047m | -2.2m/s | 22.3°C | 55.6% | 0hPa | 2.8V | 06:48:09 | 04:18:10 | 00:00:00 | |
| IW2NTF | 2026-09-06 02:52:02 | 45.01200 | 9.91096 | 303° | 24km/h | 1051m | -2.3m/s | 22.3°C | 55.5% | 0hPa | 2.8V | 06:48:11 | 04:18:08 | 00:00:00 | |
| IW2NTF | 2026-09-06 02:51:56 | 45.01193 | 9.91111 | 297° | 24km/h | 1055m | -2.2m/s | 22.3°C | 55% | 0hPa | 2.8V | 06:48:13 | 04:18:06 | 00:00:00 | |
| IW2NTF | 2026-09-06 02:51:56 | 45.01188 | 9.91127 | 289° | 24km/h | 1059m | -2.4m/s | 22.3°C | 54.9% | 0hPa | 2.8V | 06:48:15 | 04:18:04 | 00:00:00 | |
| IW2NTF | 2026-09-06 02:51:56 | 45.01185 | 9.91143 | 279° | 22km/h | 1063m | -2m/s | 22.2°C | 54.8% | 0hPa | 2.8V | 06:48:17 | 04:18:02 | 00:00:00 | |
| IW2NTF | 2026-09-06 02:51:50 | 45.01183 | 9.91158 | 273° | 20km/h | 1068m | -2m/s | 22.2°C | 54.9% | 0hPa | 2.8V | 06:48:19 | 04:18:00 | 00:00:00 | |
| IW2NTF | 2026-09-06 02:51:50 | 45.01183 | 9.91171 | 278° | 16km/h | 1072m | -2.5m/s | 22.2°C | 54.9% | 0hPa | 2.8V | 06:48:21 | 04:17:58 | 00:00:00 | |
| IW2NTF | 2026-09-06 02:51:50 | 45.01181 | 9.91182 | 278° | 13km/h | 1077m | -2m/s | 22.1°C | 54.7% | 0hPa | 2.8V | 06:48:23 | 04:17:56 | 00:00:00 | |
| IW2NTF | 2026-09-06 02:51:44 | 45.01180 | 9.91190 | 291° | 9km/h | 1081m | -2.3m/s | 22.1°C | 54.7% | 0hPa | 2.8V | 06:48:25 | 04:17:54 | 00:00:00 | |
| IW2NTF | 2026-09-06 02:51:44 | 45.01176 | 9.91196 | 322° | 13km/h | 1085m | -2.4m/s | 22.1°C | 54.4% | 0hPa | 2.8V | 06:48:27 | 04:17:52 | 00:00:00 | |
| IW2NTF | 2026-09-06 02:51:44 | 45.01171 | 9.91202 | 323° | 18km/h | 1090m | -2.2m/s | 22.1°C | 54.4% | 0hPa | 2.8V | 06:48:29 | 04:17:50 | 00:00:00 | |
| IW2NTF | 2026-09-06 02:51:38 | 45.01163 | 9.91212 | 311° | 22km/h | 1094m | -2.4m/s | 22°C | 54.5% | 0hPa | 2.8V | 06:48:31 | 04:17:48 | 00:00:00 | |
| IW2NTF | 2026-09-06 02:51:38 | 45.01157 | 9.91225 | 298° | 24km/h | 1098m | -2.1m/s | 22°C | 54.5% | 0hPa | 2.8V | 06:48:33 | 04:17:46 | 00:00:00 | |
| IW2NTF | 2026-09-06 02:51:38 | 45.01152 | 9.91240 | 283° | 22km/h | 1102m | -2m/s | 22°C | 54.6% | 0hPa | 2.8V | 06:48:35 | 04:17:44 | 00:00:00 | |
| IW2NTF | 2026-09-06 02:51:32 | 45.01150 | 9.91255 | 281° | 18km/h | 1106m | -2.7m/s | 21.9°C | 54.7% | 0hPa | 2.8V | 06:48:37 | 04:17:42 | 00:00:00 | |
| IW2NTF | 2026-09-06 02:51:32 | 45.01149 | 9.91267 | 274° | 16km/h | 1111m | -2.2m/s | 21.9°C | 54.7% | 0hPa | 2.8V | 06:48:39 | 04:17:40 | 00:00:00 | |
| IW2NTF | 2026-09-06 02:51:32 | 45.01149 | 9.91278 | 273° | 13km/h | 1115m | -2.8m/s | 21.9°C | 54.6% | 0hPa | 2.8V | 06:48:41 | 04:17:38 | 00:00:00 | |
| IW2NTF | 2026-09-06 02:51:26 | 45.01148 | 9.91286 | 278° | 11km/h | 1120m | -2.4m/s | 21.9°C | 54.3% | 0hPa | 2.8V | 06:48:43 | 04:17:36 | 00:00:00 | |
| IW2NTF | 2026-09-06 02:51:26 | 45.01146 | 9.91293 | 299° | 9km/h | 1125m | -2.2m/s | 21.9°C | 54.2% | 0hPa | 2.8V | 06:48:45 | 04:17:34 | 00:00:00 | |
| IW2NTF | 2026-09-06 02:51:26 | 45.01143 | 9.91299 | 320° | 13km/h | 1129m | -2.1m/s | 21.9°C | 54.1% | 0hPa | 2.8V | 06:48:47 | 04:17:32 | 00:00:00 | |
| IW2NTF | 2026-09-06 02:51:20 | 45.01137 | 9.91305 | 322° | 16km/h | 1133m | -2m/s | 21.8°C | 54.1% | 0hPa | 2.8V | 06:48:49 | 04:17:30 | 00:00:00 | |
| IW2NTF | 2026-09-06 02:51:20 | 45.01130 | 9.91314 | 314° | 20km/h | 1138m | -2.3m/s | 21.8°C | 54.1% | 0hPa | 2.8V | 06:48:51 | 04:17:28 | 00:00:00 | |
| IW2NTF | 2026-09-06 02:51:20 | 45.01123 | 9.91326 | 301° | 22km/h | 1142m | -2m/s | 21.8°C | 54.2% | 0hPa | 2.8V | 06:48:53 | 04:17:26 | 00:00:00 | |
| IW2NTF | 2026-09-06 02:51:14 | 45.01117 | 9.91340 | 295° | 22km/h | 1146m | -2.1m/s | 21.7°C | 54.3% | 0hPa | 2.8V | 06:48:55 | 04:17:24 | 00:00:00 | |
| IW2NTF | 2026-09-06 02:51:14 | 45.01114 | 9.91355 | 286° | 20km/h | 1149m | -2.3m/s | 21.7°C | 54.5% | 0hPa | 2.8V | 06:48:57 | 04:17:22 | 00:00:00 | |
| IW2NTF | 2026-09-06 02:51:14 | 45.01112 | 9.91368 | 280° | 18km/h | 1154m | -2m/s | 21.6°C | 54.5% | 0hPa | 2.8V | 06:48:59 | 04:17:20 | 00:00:00 | |
| IW2NTF | 2026-09-06 02:51:09 | 45.01111 | 9.91381 | 272° | 16km/h | 1158m | -1.7m/s | 21.6°C | 54.7% | 0hPa | 2.8V | 06:49:01 | 04:17:18 | 00:00:00 | |
| IW2NTF | 2026-09-06 02:51:09 | 45.01110 | 9.91392 | 276° | 15km/h | 1162m | -2.2m/s | 21.6°C | 54.8% | 0hPa | 2.8V | 06:49:03 | 04:17:16 | 00:00:00 | |
| IW2NTF | 2026-09-06 02:51:09 | 45.01110 | 9.91402 | 266° | 11km/h | 1166m | -1.9m/s | 21.5°C | 55% | 0hPa | 2.8V | 06:49:05 | 04:17:14 | 00:00:00 | |
| IW2NTF | 2026-09-06 02:51:02 | 45.01109 | 9.91410 | 265° | 11km/h | 1170m | -2.1m/s | 21.5°C | 55.1% | 0hPa | 2.8V | 06:49:07 | 04:17:12 | 00:00:00 | |
| IW2NTF | 2026-09-06 02:51:02 | 45.01109 | 9.91415 | 293° | 9km/h | 1174m | -2.5m/s | 21.4°C | 55.3% | 0hPa | 2.8V | 06:49:09 | 04:17:10 | 00:00:00 | |
| IW2NTF | 2026-09-06 02:51:02 | 45.01107 | 9.91421 | 310° | 9km/h | 1179m | -2.2m/s | 21.4°C | 56.2% | 0hPa | 2.8V | 06:49:11 | 04:17:08 | 00:00:00 | |
| IW2NTF | 2026-09-06 02:50:56 | 45.01103 | 9.91425 | 328° | 11km/h | 1183m | -2.5m/s | 21.4°C | 56.7% | 0hPa | 2.8V | 06:49:13 | 04:17:06 | 00:00:00 | |
| IW2NTF | 2026-09-06 02:50:56 | 45.01098 | 9.91429 | 326° | 15km/h | 1187m | -1.9m/s | 21.3°C | 56.8% | 0hPa | 2.8V | 06:49:15 | 04:17:04 | 00:00:00 | |
| IW2NTF | 2026-09-06 02:50:56 | 45.01092 | 9.91437 | 314° | 18km/h | 1190m | -1.8m/s | 21.3°C | 57.1% | 0hPa | 2.8V | 06:49:17 | 04:17:02 | 00:00:00 | |
| IW2NTF | 2026-09-06 02:50:50 | 45.01086 | 9.91448 | 300° | 20km/h | 1193m | -2m/s | 21.3°C | 57.1% | 0hPa | 2.8V | 06:49:19 | 04:17:00 | 00:00:00 | |
| IW2NTF | 2026-09-06 02:50:50 | 45.01082 | 9.91461 | 290° | 18km/h | 1197m | -2.1m/s | 21.2°C | 57.3% | 0hPa | 2.8V | 06:49:21 | 04:16:58 | 00:00:00 | |
| IW2NTF | 2026-09-06 02:50:50 | 45.01079 | 9.91474 | 281° | 18km/h | 1202m | -2.1m/s | 21.2°C | 57.3% | 0hPa | 2.8V | 06:49:23 | 04:16:56 | 00:00:00 | |
| IW2NTF | 2026-09-06 02:50:45 | 45.01077 | 9.91495 | 277° | 13km/h | 1210m | -2.7m/s | 21.1°C | 57.9% | 0hPa | 2.8V | 06:49:27 | 04:16:52 | 00:00:00 | |
| IW2NTF | 2026-09-06 02:50:45 | 45.01077 | 9.91503 | 267° | 9km/h | 1215m | -2.3m/s | 21.1°C | 58.8% | 0hPa | 2.8V | 06:49:29 | 04:16:50 | 00:00:00 | |
| IW2NTF | 2026-09-06 02:50:39 | 45.01077 | 9.91509 | 280° | 7km/h | 1220m | -2.9m/s | 21°C | 59.1% | 0hPa | 2.8V | 06:49:31 | 04:16:48 | 00:00:00 | |
| IW2NTF | 2026-09-06 02:50:39 | 45.01076 | 9.91513 | 284° | 7km/h | 1225m | -2.7m/s | 21°C | 59.3% | 0hPa | 2.8V | 06:49:33 | 04:16:46 | 00:00:00 | |
| IW2NTF | 2026-09-06 02:50:39 | 45.01075 | 9.91517 | 296° | 5km/h | 1229m | -2.6m/s | 20.9°C | 59.2% | 0hPa | 2.8V | 06:49:35 | 04:16:44 | 00:00:00 | |
| IW2NTF | 2026-09-06 02:50:32 | 45.01072 | 9.91519 | 315° | 7km/h | 1234m | -2.4m/s | 20.9°C | 59.5% | 0hPa | 2.8V | 06:49:37 | 04:16:42 | 00:00:00 | |
| IW2NTF | 2026-09-06 02:50:32 | 45.01069 | 9.91522 | 336° | 11km/h | 1238m | -2.4m/s | 20.8°C | 59.7% | 0hPa | 2.8V | 06:49:39 | 04:16:40 | 00:00:00 | |
| IW2NTF | 2026-09-06 02:50:32 | 45.01063 | 9.91525 | 336° | 15km/h | 1243m | -2.4m/s | 20.8°C | 59.7% | 0hPa | 2.8V | 06:49:41 | 04:16:38 | 00:00:00 | |
| IW2NTF | 2026-09-06 02:50:26 | 45.01056 | 9.91530 | 329° | 18km/h | 1247m | -2.2m/s | 20.8°C | 59.7% | 0hPa | 2.8V | 06:49:43 | 04:16:36 | 00:00:00 | |
| IW2NTF | 2026-09-06 02:50:26 | 45.01049 | 9.91538 | 315° | 18km/h | 1251m | -2.4m/s | 20.7°C | 60.4% | 0hPa | 2.8V | 06:49:45 | 04:16:34 | 00:00:00 | |
| IW2NTF | 2026-09-06 02:50:26 | 45.01043 | 9.91549 | 300° | 18km/h | 1255m | -2.4m/s | 20.7°C | 60.3% | 0hPa | 2.8V | 06:49:47 | 04:16:32 | 00:00:00 | |
| IW2NTF | 2026-09-06 02:50:20 | 45.01040 | 9.91560 | 286° | 15km/h | 1260m | -2.4m/s | 20.7°C | 61.1% | 0hPa | 2.8V | 06:49:49 | 04:16:30 | 00:00:00 | |
| IW2NTF | 2026-09-06 02:50:20 | 45.01038 | 9.91570 | 283° | 15km/h | 1265m | -2.5m/s | 20.6°C | 61.3% | 0hPa | 2.8V | 06:49:51 | 04:16:28 | 00:00:00 | |
| IW2NTF | 2026-09-06 02:50:20 | 45.01036 | 9.91579 | 269° | 11km/h | 1269m | -2.1m/s | 20.6°C | 61.6% | 0hPa | 2.7V | 06:49:53 | 04:16:26 | 00:00:00 | |
| IW2NTF | 2026-09-06 02:50:14 | 45.01036 | 9.91586 | 276° | 11km/h | 1273m | -2.8m/s | 20.6°C | 59.3% | 0hPa | 2.8V | 06:49:55 | 04:16:24 | 00:00:00 | |
| IW2NTF | 2026-09-06 02:50:14 | 45.01036 | 9.91593 | 262° | 7km/h | 1279m | -2.3m/s | 20.6°C | 58.8% | 0hPa | 2.8V | 06:49:57 | 04:16:22 | 00:00:00 | |
| IW2NTF | 2026-09-06 02:50:14 | 45.01036 | 9.91597 | 288° | 5km/h | 1284m | -2.4m/s | 20.6°C | 58.3% | 0hPa | 2.8V | 06:49:59 | 04:16:20 | 00:00:00 | |
| IW2NTF | 2026-09-06 02:50:08 | 45.01035 | 9.91601 | 284° | 4km/h | 1288m | -2.5m/s | 20.6°C | 58.4% | 0hPa | 2.8V | 06:50:01 | 04:16:18 | 00:00:00 | |
| IW2NTF | 2026-09-06 02:50:08 | 45.01033 | 9.91603 | 350° | 4km/h | 1293m | -2.1m/s | 20.5°C | 58.4% | 0hPa | 2.8V | 06:50:03 | 04:16:16 | 00:00:00 | |
| IW2NTF | 2026-09-06 02:50:08 | 45.01030 | 9.91604 | 348° | 7km/h | 1297m | -2.1m/s | 20.5°C | 58.7% | 0hPa | 2.8V | 06:50:05 | 04:16:14 | 00:00:00 | |
| IW2NTF | 2026-09-06 02:50:02 | 45.01025 | 9.91606 | 339° | 13km/h | 1301m | -2.2m/s | 20.4°C | 59% | 0hPa | 2.8V | 06:50:07 | 04:16:12 | 00:00:00 | |
| IW2NTF | 2026-09-06 02:50:02 | 45.01018 | 9.91611 | 324° | 16km/h | 1305m | -2.3m/s | 20.4°C | 59.1% | 0hPa | 2.8V | 06:50:09 | 04:16:10 | 00:00:00 | |
| IW2NTF | 2026-09-06 02:50:02 | 45.01012 | 9.91620 | 303° | 18km/h | 1309m | -1.9m/s | 20.4°C | 59.2% | 0hPa | 2.8V | 06:50:11 | 04:16:08 | 00:00:00 | |
| IW2NTF | 2026-09-06 02:49:57 | 45.01009 | 9.91629 | 287° | 13km/h | 1313m | -2.3m/s | 20.4°C | 59.2% | 0hPa | 2.8V | 06:50:13 | 04:16:06 | 00:00:00 | |
| IW2NTF | 2026-09-06 02:49:57 | 45.01007 | 9.91636 | 291° | 9km/h | 1317m | -2.4m/s | 20.3°C | 59.6% | 0hPa | 2.8V | 06:50:15 | 04:16:04 | 00:00:00 | |
| IW2NTF | 2026-09-06 02:49:57 | 45.01005 | 9.91640 | 320° | 5km/h | 1322m | -2.9m/s | 20.3°C | 60.7% | 0hPa | 2.8V | 06:50:17 | 04:16:02 | 00:00:00 | |
| IW2NTF | 2026-09-06 02:49:51 | 45.01003 | 9.91642 | 353° | 5km/h | 1327m | -2.3m/s | 20.2°C | 60.8% | 0hPa | 2.8V | 06:50:19 | 04:16:00 | 00:00:00 | |
| IW2NTF | 2026-09-06 02:49:51 | 45.00999 | 9.91642 | 351° | 11km/h | 1331m | -2.7m/s | 20.2°C | 61.2% | 0hPa | 2.8V | 06:50:21 | 04:15:58 | 00:00:00 | |
| IW2NTF | 2026-09-06 02:49:51 | 45.00993 | 9.91643 | 352° | 11km/h | 1337m | -2.3m/s | 20.1°C | 63.5% | 0hPa | 2.8V | 06:50:23 | 04:15:56 | 00:00:00 | |
| IW2NTF | 2026-09-06 02:49:44 | 45.00987 | 9.91645 | 343° | 16km/h | 1341m | -2.4m/s | 20°C | 63.4% | 0hPa | 2.8V | 06:50:25 | 04:15:54 | 00:00:00 | |
| IW2NTF | 2026-09-06 02:49:44 | 45.00979 | 9.91649 | 338° | 16km/h | 1346m | -3m/s | 20°C | 63% | 0hPa | 2.8V | 06:50:27 | 04:15:52 | 00:00:00 | |
| IW2NTF | 2026-09-06 02:49:44 | 45.00971 | 9.91654 | 330° | 18km/h | 1351m | -2.5m/s | 19.9°C | 64.3% | 0hPa | 2.8V | 06:50:29 | 04:15:50 | 00:00:00 | |
| IW2NTF | 2026-09-06 02:49:38 | 45.00963 | 9.91662 | 323° | 18km/h | 1356m | -2.5m/s | 19.9°C | 64.8% | 0hPa | 2.8V | 06:50:31 | 04:15:48 | 00:00:00 | |
| IW2NTF | 2026-09-06 02:49:38 | 45.00957 | 9.91671 | 310° | 18km/h | 1360m | -2.4m/s | 19.9°C | 65.1% | 0hPa | 2.8V | 06:50:33 | 04:15:46 | 00:00:00 | |
| IW2NTF | 2026-09-06 02:49:38 | 45.00952 | 9.91681 | 297° | 16km/h | 1365m | -2.3m/s | 19.8°C | 65.2% | 0hPa | 2.8V | 06:50:35 | 04:15:44 | 00:00:00 | |
| IW2NTF | 2026-09-06 02:49:32 | 45.00949 | 9.91691 | 281° | 13km/h | 1369m | -2.2m/s | 19.8°C | 65.8% | 0hPa | 2.8V | 06:50:37 | 04:15:42 | 00:00:00 | |
| IW2NTF | 2026-09-06 02:49:32 | 45.00948 | 9.91697 | 285° | 5km/h | 1373m | -2.2m/s | 19.7°C | 66.3% | 0hPa | 2.8V | 06:50:39 | 04:15:40 | 00:00:00 | |
| IW2NTF | 2026-09-06 02:49:32 | 45.00947 | 9.91700 | 314° | 4km/h | 1378m | -2.3m/s | 19.7°C | 66.7% | 0hPa | 2.8V | 06:50:41 | 04:15:38 | 00:00:00 | |
| IW2NTF | 2026-09-06 02:49:26 | 45.00945 | 9.91702 | 350° | 5km/h | 1382m | -2.1m/s | 19.6°C | 67.2% | 0hPa | 2.8V | 06:50:43 | 04:15:36 | 00:00:00 | |
| IW2NTF | 2026-09-06 02:49:26 | 45.00941 | 9.91703 | 357° | 11km/h | 1386m | -2.1m/s | 19.6°C | 67.7% | 0hPa | 2.8V | 06:50:45 | 04:15:34 | 00:00:00 | |
| IW2NTF | 2026-09-06 02:49:26 | 45.00935 | 9.91704 | 351° | 13km/h | 1390m | -2.2m/s | 19.6°C | 68.1% | 0hPa | 2.8V | 06:50:47 | 04:15:32 | 00:00:00 | |
| IW2NTF | 2026-09-06 02:49:20 | 45.00928 | 9.91705 | 350° | 15km/h | 1395m | -2.4m/s | 19.6°C | 68.1% | 0hPa | 2.8V | 06:50:49 | 04:15:30 | 00:00:00 | |
| IW2NTF | 2026-09-06 02:49:20 | 45.00922 | 9.91708 | 342° | 16km/h | 1399m | -2.5m/s | 19.5°C | 68.1% | 0hPa | 2.8V | 06:50:51 | 04:15:28 | 00:00:00 | |
| IW2NTF | 2026-09-06 02:49:20 | 45.00913 | 9.91712 | 335° | 18km/h | 1404m | -2.4m/s | 19.5°C | 68.2% | 0hPa | 2.8V | 06:50:53 | 04:15:26 | 00:00:00 | |
| IW2NTF | 2026-09-06 02:49:14 | 45.00905 | 9.91718 | 329° | 18km/h | 1408m | -2.4m/s | 19.5°C | 68.1% | 0hPa | 2.8V | 06:50:55 | 04:15:24 | 00:00:00 | |
| IW2NTF | 2026-09-06 02:49:14 | 45.00898 | 9.91726 | 317° | 18km/h | 1413m | -2.5m/s | 19.4°C | 68.3% | 0hPa | 2.8V | 06:50:57 | 04:15:22 | 00:00:00 | |
| IW2NTF | 2026-09-06 02:49:14 | 45.00891 | 9.91736 | 310° | 18km/h | 1418m | -2.5m/s | 19.4°C | 68.5% | 0hPa | 2.8V | 06:50:59 | 04:15:20 | 00:00:00 | |
| IW2NTF | 2026-09-06 02:49:08 | 45.00886 | 9.91746 | 303° | 16km/h | 1422m | -2.3m/s | 19.3°C | 68.6% | 0hPa | 2.8V | 06:51:01 | 04:15:18 | 00:00:00 | |
| IW2NTF | 2026-09-06 02:49:08 | 45.00882 | 9.91756 | 283° | 15km/h | 1426m | -2.1m/s | 19.3°C | 68.8% | 0hPa | 2.8V | 06:51:03 | 04:15:16 | 00:00:00 | |
| IW2NTF | 2026-09-06 02:49:08 | 45.00881 | 9.91764 | 285° | 11km/h | 1431m | -2.2m/s | 19.2°C | 69.2% | 0hPa | 2.8V | 06:51:05 | 04:15:14 | 00:00:00 | |
| IW2NTF | 2026-09-06 02:49:02 | 45.00880 | 9.91770 | 290° | 5km/h | 1435m | -2.2m/s | 19.2°C | 69.3% | 0hPa | 2.8V | 06:51:07 | 04:15:12 | 00:00:00 | |
| IW2NTF | 2026-09-06 02:49:02 | 45.00877 | 9.91772 | 343° | 7km/h | 1440m | -2.4m/s | 19.1°C | 69.8% | 0hPa | 2.8V | 06:51:09 | 04:15:10 | 00:00:00 | |
| IW2NTF | 2026-09-06 02:49:02 | 45.00873 | 9.91773 | 355° | 9km/h | 1444m | -2.1m/s | 19.1°C | 69.9% | 0hPa | 2.8V | 06:51:11 | 04:15:08 | 00:00:00 | |
| IW2NTF | 2026-09-06 02:48:56 | 45.00867 | 9.91774 | 349° | 15km/h | 1448m | -2.3m/s | 19.1°C | 70.2% | 0hPa | 2.8V | 06:51:13 | 04:15:06 | 00:00:00 | |
| IW2NTF | 2026-09-06 02:48:56 | 45.00859 | 9.91778 | 337° | 16km/h | 1452m | -2.6m/s | 19°C | 70.5% | 0hPa | 2.8V | 06:51:15 | 04:15:04 | 00:00:00 | |
| IW2NTF | 2026-09-06 02:48:56 | 45.00852 | 9.91784 | 322° | 16km/h | 1456m | -2.2m/s | 19°C | 70.7% | 0hPa | 2.8V | 06:51:17 | 04:15:02 | 00:00:00 | |
| IW2NTF | 2026-09-06 02:48:50 | 45.00845 | 9.91792 | 313° | 18km/h | 1461m | -2.7m/s | 18.9°C | 70.8% | 0hPa | 2.8V | 06:51:19 | 04:15:00 | 00:00:00 | |
| IW2NTF | 2026-09-06 02:48:50 | 45.00840 | 9.91802 | 299° | 16km/h | 1465m | -2.3m/s | 18.9°C | 70.9% | 0hPa | 2.8V | 06:51:21 | 04:14:58 | 00:00:00 | |
| IW2NTF | 2026-09-06 02:48:50 | 45.00836 | 9.91811 | 297° | 13km/h | 1470m | -2.3m/s | 18.9°C | 71.3% | 0hPa | 2.8V | 06:51:23 | 04:14:56 | 00:00:00 | |
| IW2NTF | 2026-09-06 02:48:45 | 45.00834 | 9.91820 | 283° | 11km/h | 1474m | -2.1m/s | 18.8°C | 71.7% | 0hPa | 2.8V | 06:51:25 | 04:14:54 | 00:00:00 | |
| IW2NTF | 2026-09-06 02:48:45 | 45.00833 | 9.91826 | 286° | 7km/h | 1478m | -1.9m/s | 18.8°C | 72% | 0hPa | 2.8V | 06:51:27 | 04:14:52 | 00:00:00 | |
| IW2NTF | 2026-09-06 02:48:45 | 45.00832 | 9.91831 | 279° | 5km/h | 1482m | -2.7m/s | 18.7°C | 72.8% | 0hPa | 2.8V | 06:51:29 | 04:14:50 | 00:00:00 | |
| IW2NTF | 2026-09-06 02:48:38 | 45.00830 | 9.91833 | 350° | 2km/h | 1487m | -2.4m/s | 18.7°C | 73% | 0hPa | 2.8V | 06:51:31 | 04:14:48 | 00:00:00 | |
| IW2NTF | 2026-09-06 02:48:38 | 45.00829 | 9.91834 | 334° | 4km/h | 1491m | -2.8m/s | 18.6°C | 73.4% | 0hPa | 2.8V | 06:51:33 | 04:14:46 | 00:00:00 | |
| IW2NTF | 2026-09-06 02:48:38 | 45.00827 | 9.91834 | 14° | 4km/h | 1496m | -2.3m/s | 18.6°C | 74.1% | 0hPa | 2.8V | 06:51:35 | 04:14:44 | 00:00:00 | |
| IW2NTF | 2026-09-06 02:48:32 | 45.00824 | 9.91834 | 11° | 5km/h | 1501m | -2.3m/s | 18.6°C | 74.6% | 0hPa | 2.8V | 06:51:37 | 04:14:42 | 00:00:00 | |
| IW2NTF | 2026-09-06 02:48:32 | 45.00820 | 9.91833 | 6° | 9km/h | 1505m | -2.4m/s | 18.5°C | 74.6% | 0hPa | 2.8V | 06:51:39 | 04:14:40 | 00:00:00 | |
| IW2NTF | 2026-09-06 02:48:32 | 45.00814 | 9.91833 | 350° | 15km/h | 1509m | -2.2m/s | 18.5°C | 74.7% | 0hPa | 2.8V | 06:51:41 | 04:14:38 | 00:00:00 | |
| IW2NTF | 2026-09-06 02:48:26 | 45.00807 | 9.91837 | 333° | 16km/h | 1513m | -2m/s | 18.4°C | 74.6% | 0hPa | 2.8V | 06:51:43 | 04:14:36 | 00:00:00 | |
| IW2NTF | 2026-09-06 02:48:26 | 45.00800 | 9.91845 | 314° | 16km/h | 1517m | -2.3m/s | 18.4°C | 74.6% | 0hPa | 2.8V | 06:51:45 | 04:14:34 | 00:00:00 | |
| IW2NTF | 2026-09-06 02:48:26 | 45.00796 | 9.91853 | 301° | 13km/h | 1521m | -2.3m/s | 18.4°C | 74.6% | 0hPa | 2.8V | 06:51:47 | 04:14:32 | 00:00:00 | |
| IW2NTF | 2026-09-06 02:48:21 | 45.00793 | 9.91860 | 297° | 11km/h | 1525m | -2.7m/s | 18.4°C | 74.2% | 0hPa | 2.8V | 06:51:49 | 04:14:30 | 00:00:00 | |
| IW2NTF | 2026-09-06 02:48:21 | 45.00790 | 9.91867 | 288° | 9km/h | 1530m | -2.6m/s | 18.4°C | 73.8% | 0hPa | 2.8V | 06:51:51 | 04:14:28 | 00:00:00 | |
| IW2NTF | 2026-09-06 02:48:21 | 45.00789 | 9.91873 | 293° | 7km/h | 1535m | -2.7m/s | 18.4°C | 72.2% | 0hPa | 2.8V | 06:51:53 | 04:14:26 | 00:00:00 | |
| IW2NTF | 2026-09-06 02:48:14 | 45.00788 | 9.91876 | 278° | 4km/h | 1540m | -1.9m/s | 18.3°C | 72% | 0hPa | 2.8V | 06:51:55 | 04:14:24 | 00:00:00 | |
| IW2NTF | 2026-09-06 02:48:14 | 45.00788 | 9.91879 | 249° | 2km/h | 1544m | -2.1m/s | 18.3°C | 71.4% | 0hPa | 2.8V | 06:51:57 | 04:14:22 | 00:00:00 | |
| IW2NTF | 2026-09-06 02:48:14 | 45.00788 | 9.91879 | 4° | 2km/h | 1548m | -2.6m/s | 18.3°C | 71.3% | 0hPa | 2.8V | 06:51:59 | 04:14:20 | 00:00:00 | |
| IW2NTF | 2026-09-06 02:48:08 | 45.00787 | 9.91881 | 313° | 4km/h | 1553m | -2.7m/s | 18.3°C | 69.1% | 0hPa | 2.8V | 06:52:01 | 04:14:18 | 00:00:00 | |
| IW2NTF | 2026-09-06 02:48:08 | 45.00787 | 9.91881 | 130° | 2km/h | 1558m | -2.4m/s | 18.3°C | 69.2% | 0hPa | 2.8V | 06:52:03 | 04:14:16 | 00:00:00 | |
| IW2NTF | 2026-09-06 02:48:08 | 45.00786 | 9.91879 | 48° | 5km/h | 1563m | -2.2m/s | 18.2°C | 69.6% | 0hPa | 2.8V | 06:52:05 | 04:14:14 | 00:00:00 | |
| IW2NTF | 2026-09-06 02:48:02 | 45.00784 | 9.91876 | 45° | 7km/h | 1567m | -2.2m/s | 18.2°C | 68% | 0hPa | 2.8V | 06:52:07 | 04:14:12 | 00:00:00 | |
| IW2NTF | 2026-09-06 02:48:02 | 45.00780 | 9.91873 | 29° | 9km/h | 1571m | -2.2m/s | 18.2°C | 66.8% | 0hPa | 2.8V | 06:52:09 | 04:14:10 | 00:00:00 | |
| IW2NTF | 2026-09-06 02:48:02 | 45.00775 | 9.91870 | 8° | 15km/h | 1576m | -2.2m/s | 18.2°C | 67.2% | 0hPa | 2.8V | 06:52:11 | 04:14:08 | 00:00:00 | |
| IW2NTF | 2026-09-06 02:47:56 | 45.00767 | 9.91870 | 352° | 15km/h | 1580m | -2.1m/s | 18.2°C | 66.9% | 0hPa | 2.8V | 06:52:13 | 04:14:06 | 00:00:00 | |
| IW2NTF | 2026-09-06 02:47:56 | 45.00760 | 9.91874 | 327° | 15km/h | 1584m | -1.9m/s | 18.2°C | 66% | 0hPa | 2.8V | 06:52:15 | 04:14:04 | 00:00:00 | |
| IW2NTF | 2026-09-06 02:47:56 | 45.00756 | 9.91879 | 316° | 9km/h | 1587m | -2.3m/s | 18.2°C | 64.5% | 0hPa | 2.8V | 06:52:17 | 04:14:02 | 00:00:00 | |
| IW2NTF | 2026-09-06 02:47:50 | 45.00754 | 9.91883 | 302° | 5km/h | 1591m | -2.3m/s | 18.1°C | 64.3% | 0hPa | 2.8V | 06:52:19 | 04:14:00 | 00:00:00 | |
| IW2NTF | 2026-09-06 02:47:50 | 45.00753 | 9.91885 | 272° | 0km/h | 1596m | -2.1m/s | 18.1°C | 63.8% | 0hPa | 2.8V | 06:52:21 | 04:13:58 | 00:00:00 | |
| IW2NTF | 2026-09-06 02:47:50 | 45.00753 | 9.91884 | 47° | 2km/h | 1600m | -2.2m/s | 18.1°C | 63.6% | 0hPa | 2.8V | 06:52:23 | 04:13:56 | 00:00:00 | |
| IW2NTF | 2026-09-06 02:47:44 | 45.00751 | 9.91885 | 333° | 2km/h | 1604m | -2.6m/s | 18.1°C | 64% | 0hPa | 2.8V | 06:52:25 | 04:13:54 | 00:00:00 | |
| IW2NTF | 2026-09-06 02:47:44 | 45.00751 | 9.91885 | 64° | 2km/h | 1608m | -2.1m/s | 18.1°C | 63.6% | 0hPa | 2.8V | 06:52:27 | 04:13:52 | 00:00:00 | |
| IW2NTF | 2026-09-06 02:47:44 | 45.00751 | 9.91885 | 94° | 2km/h | 1612m | -2.2m/s | 18.1°C | 63.4% | 0hPa | 2.8V | 06:52:29 | 04:13:50 | 00:00:00 | |
| IW2NTF | 2026-09-06 02:47:39 | 45.00751 | 9.91883 | 77° | 4km/h | 1616m | -2.3m/s | 18.2°C | 57.6% | 0hPa | 2.8V | 06:52:31 | 04:13:48 | 00:00:00 | |
| IW2NTF | 2026-09-06 02:47:39 | 45.00751 | 9.91881 | 65° | 4km/h | 1620m | -2.7m/s | 18.3°C | 57% | 0hPa | 2.8V | 06:52:33 | 04:13:46 | 00:00:00 | |
| IW2NTF | 2026-09-06 02:47:39 | 45.00750 | 9.91876 | 61° | 7km/h | 1624m | -2.2m/s | 18.3°C | 54.2% | 0hPa | 2.8V | 06:52:35 | 04:13:44 | 00:00:00 | |
| IW2NTF | 2026-09-06 02:47:32 | 45.00747 | 9.91871 | 49° | 9km/h | 1627m | -2.3m/s | 18.3°C | 53.5% | 0hPa | 2.8V | 06:52:37 | 04:13:42 | 00:00:00 | |
| IW2NTF | 2026-09-06 02:47:32 | 45.00743 | 9.91867 | 15° | 11km/h | 1631m | -2m/s | 18.3°C | 52.7% | 0hPa | 2.8V | 06:52:39 | 04:13:40 | 00:00:00 | |
| IW2NTF | 2026-09-06 02:47:32 | 45.00737 | 9.91867 | 342° | 11km/h | 1634m | -2m/s | 18.3°C | 52.5% | 0hPa | 2.8V | 06:52:41 | 04:13:38 | 00:00:00 | |
| IW2NTF | 2026-09-06 02:47:26 | 45.00734 | 9.91870 | 313° | 7km/h | 1638m | -2.1m/s | 18.3°C | 52.4% | 0hPa | 2.8V | 06:52:43 | 04:13:36 | 00:00:00 | |
| IW2NTF | 2026-09-06 02:47:26 | 45.00732 | 9.91874 | 307° | 7km/h | 1641m | -2.7m/s | 18.3°C | 51.6% | 0hPa | 2.8V | 06:52:45 | 04:13:34 | 00:00:00 | |
| IW2NTF | 2026-09-06 02:47:26 | 45.00730 | 9.91878 | 310° | 4km/h | 1646m | -2.6m/s | 18.3°C | 50.7% | 0hPa | 2.8V | 06:52:47 | 04:13:32 | 00:00:00 | |
| IW2NTF | 2026-09-06 02:47:20 | 45.00729 | 9.91880 | 314° | 5km/h | 1650m | -2.9m/s | 18.4°C | 50.1% | 0hPa | 2.8V | 06:52:49 | 04:13:30 | 00:00:00 | |
| IW2NTF | 2026-09-06 02:47:20 | 45.00728 | 9.91883 | 226° | 4km/h | 1655m | -2.3m/s | 18.4°C | 49.5% | 0hPa | 2.8V | 06:52:51 | 04:13:28 | 00:00:00 | |
| IW2NTF | 2026-09-06 02:47:20 | 45.00729 | 9.91884 | 274° | 2km/h | 1659m | -2.8m/s | 18.4°C | 48.8% | 0hPa | 2.8V | 06:52:53 | 04:13:26 | 00:00:00 | |
| IW2NTF | 2026-09-06 02:47:12 | 45.00731 | 9.91883 | 149° | 4km/h | 1667m | -2.4m/s | 18.4°C | 48.7% | 0hPa | 2.8V | 06:52:57 | 04:13:22 | 00:00:00 | |
| IW2NTF | 2026-09-06 02:47:12 | 45.00732 | 9.91883 | 116° | 0km/h | 1672m | -2.4m/s | 18.4°C | 48.7% | 0hPa | 2.8V | 06:52:59 | 04:13:20 | 00:00:00 | |
| IW2NTF | 2026-09-06 02:47:12 | 45.00733 | 9.91881 | 136° | 5km/h | 1676m | -2.5m/s | 18.3°C | 49% | 0hPa | 2.8V | 06:53:01 | 04:13:18 | 00:00:00 | |
| IW2NTF | 2026-09-06 02:47:06 | 45.00735 | 9.91879 | 152° | 4km/h | 1681m | -2.9m/s | 18.3°C | 48.7% | 0hPa | 2.8V | 06:53:03 | 04:13:16 | 00:00:00 | |
| IW2NTF | 2026-09-06 02:47:06 | 45.00736 | 9.91877 | 106° | 4km/h | 1686m | -2.5m/s | 18.3°C | 48.6% | 0hPa | 2.8V | 06:53:05 | 04:13:14 | 00:00:00 | |
| IW2NTF | 2026-09-06 02:47:06 | 45.00738 | 9.91874 | 135° | 9km/h | 1690m | -2.4m/s | 18.4°C | 48.5% | 0hPa | 2.7V | 06:53:07 | 04:13:12 | 00:00:00 | |
| IW2NTF | 2026-09-06 02:47:00 | 45.00741 | 9.91871 | 157° | 5km/h | 1695m | -2.8m/s | 18.3°C | 48.7% | 0hPa | 2.8V | 06:53:09 | 04:13:10 | 00:00:00 | |
| IW2NTF | 2026-09-06 02:47:00 | 45.00744 | 9.91870 | 162° | 4km/h | 1700m | -2.5m/s | 18.2°C | 48.7% | 0hPa | 2.8V | 06:53:11 | 04:13:08 | 00:00:00 | |
| IW2NTF | 2026-09-06 02:47:00 | 45.00745 | 9.91869 | 133° | 5km/h | 1704m | -2m/s | 18.2°C | 48.9% | 0hPa | 2.8V | 06:53:13 | 04:13:06 | 00:00:00 | |
| IW2NTF | 2026-09-06 02:46:54 | 45.00748 | 9.91867 | 157° | 7km/h | 1708m | -2m/s | 18.2°C | 49.1% | 0hPa | 2.8V | 06:53:15 | 04:13:04 | 00:00:00 | |
| IW2NTF | 2026-09-06 02:46:54 | 45.00751 | 9.91866 | 166° | 7km/h | 1712m | -2.5m/s | 18.2°C | 48.9% | 0hPa | 2.8V | 06:53:17 | 04:13:02 | 00:00:00 | |
| IW2NTF | 2026-09-06 02:46:54 | 45.00755 | 9.91865 | 175° | 5km/h | 1717m | -3.1m/s | 18.2°C | 48.7% | 0hPa | 2.8V | 06:53:19 | 04:13:00 | 00:00:00 | |
| IW2NTF | 2026-09-06 02:46:48 | 45.00758 | 9.91864 | 142° | 7km/h | 1722m | -2.2m/s | 18.2°C | 48% | 0hPa | 2.8V | 06:53:21 | 04:12:58 | 00:00:00 | |
| IW2NTF | 2026-09-06 02:46:48 | 45.00761 | 9.91860 | 146° | 9km/h | 1727m | -2.2m/s | 18.2°C | 48% | 0hPa | 2.8V | 06:53:23 | 04:12:56 | 00:00:00 | |
| IW2NTF | 2026-09-06 02:46:48 | 45.00765 | 9.91858 | 156° | 7km/h | 1731m | -2.8m/s | 18.2°C | 48.1% | 0hPa | 2.8V | 06:53:25 | 04:12:54 | 00:00:00 | |
| IW2NTF | 2026-09-06 02:46:42 | 45.00768 | 9.91855 | 146° | 7km/h | 1736m | -3.2m/s | 18.1°C | 48.1% | 0hPa | 2.7V | 06:53:27 | 04:12:52 | 00:00:00 | |
| IW2NTF | 2026-09-06 02:46:42 | 45.00772 | 9.91850 | 119° | 11km/h | 1742m | -2.2m/s | 18.1°C | 47.8% | 0hPa | 2.8V | 06:53:29 | 04:12:50 | 00:00:00 | |
| IW2NTF | 2026-09-06 02:46:42 | 45.00774 | 9.91843 | 107° | 11km/h | 1746m | -2m/s | 18.1°C | 47.8% | 0hPa | 2.8V | 06:53:31 | 04:12:48 | 00:00:00 | |
| IW2NTF | 2026-09-06 02:46:37 | 45.00774 | 9.91837 | 70° | 7km/h | 1750m | -2.1m/s | 18.2°C | 46.6% | 0hPa | 2.8V | 06:53:33 | 04:12:46 | 00:00:00 | |
| IW2NTF | 2026-09-06 02:46:37 | 45.00772 | 9.91833 | 25° | 4km/h | 1754m | -2m/s | 18.2°C | 46.6% | 0hPa | 2.8V | 06:53:35 | 04:12:44 | 00:00:00 | |
| IW2NTF | 2026-09-06 02:46:37 | 45.00771 | 9.91833 | 267° | 2km/h | 1757m | -1.6m/s | 18.2°C | 46.8% | 0hPa | 2.8V | 06:53:37 | 04:12:42 | 00:00:00 | |
| IW2NTF | 2026-09-06 02:46:31 | 45.00771 | 9.91834 | 274° | 2km/h | 1761m | -2.4m/s | 18.2°C | 45.1% | 0hPa | 2.8V | 06:53:39 | 04:12:40 | 00:00:00 | |
| IW2NTF | 2026-09-06 02:46:31 | 45.00772 | 9.91836 | 245° | 4km/h | 1764m | -2.4m/s | 18.2°C | 45% | 0hPa | 2.8V | 06:53:41 | 04:12:38 | 00:00:00 | |
| IW2NTF | 2026-09-06 02:46:31 | 45.00774 | 9.91838 | 186° | 4km/h | 1769m | -2.3m/s | 18.2°C | 44.8% | 0hPa | 2.8V | 06:53:43 | 04:12:36 | 00:00:00 | |
| IW2NTF | 2026-09-06 02:46:24 | 45.00777 | 9.91838 | 178° | 5km/h | 1773m | -2.4m/s | 18.3°C | 43.4% | 0hPa | 2.7V | 06:53:45 | 04:12:34 | 00:00:00 | |
| IW2NTF | 2026-09-06 02:46:24 | 45.00780 | 9.91838 | 183° | 5km/h | 1778m | -2.5m/s | 18.3°C | 42% | 0hPa | 2.8V | 06:53:47 | 04:12:32 | 00:00:00 | |
| IW2NTF | 2026-09-06 02:46:24 | 45.00783 | 9.91839 | 199° | 5km/h | 1783m | -2.8m/s | 18.4°C | 39.7% | 0hPa | 2.8V | 06:53:49 | 04:12:30 | 00:00:00 | |
| IW2NTF | 2026-09-06 02:46:18 | 45.00787 | 9.91840 | 188° | 11km/h | 1788m | -2.4m/s | 18.4°C | 38.3% | 0hPa | 2.8V | 06:53:51 | 04:12:28 | 00:00:00 | |
| IW2NTF | 2026-09-06 02:46:18 | 45.00793 | 9.91840 | 169° | 11km/h | 1793m | -2m/s | 18.4°C | 38% | 0hPa | 2.8V | 06:53:53 | 04:12:26 | 00:00:00 | |
| IW2NTF | 2026-09-06 02:46:18 | 45.00799 | 9.91838 | 168° | 15km/h | 1797m | -2.2m/s | 18.4°C | 37.4% | 0hPa | 2.8V | 06:53:55 | 04:12:24 | 00:00:00 | |
| IW2NTF | 2026-09-06 02:46:12 | 45.00805 | 9.91835 | 154° | 15km/h | 1801m | -2.1m/s | 18.4°C | 36.8% | 0hPa | 2.8V | 06:53:57 | 04:12:22 | 00:00:00 | |
| IW2NTF | 2026-09-06 02:46:12 | 45.00810 | 9.91829 | 131° | 13km/h | 1805m | -2.1m/s | 18.4°C | 36.8% | 0hPa | 2.8V | 06:53:59 | 04:12:20 | 00:00:00 | |
| IW2NTF | 2026-09-06 02:46:12 | 45.00814 | 9.91821 | 105° | 11km/h | 1809m | -2.1m/s | 18.4°C | 36.8% | 0hPa | 2.8V | 06:54:01 | 04:12:18 | 00:00:00 | |
| IW2NTF | 2026-09-06 02:46:06 | 45.00814 | 9.91814 | 86° | 7km/h | 1813m | -2.4m/s | 18.4°C | 36.1% | 0hPa | 2.8V | 06:54:03 | 04:12:16 | 00:00:00 | |
| IW2NTF | 2026-09-06 02:46:06 | 45.00813 | 9.91811 | 40° | 4km/h | 1818m | -2m/s | 18.4°C | 36.4% | 0hPa | 2.8V | 06:54:05 | 04:12:14 | 00:00:00 | |
| IW2NTF | 2026-09-06 02:46:06 | 45.00813 | 9.91811 | 244° | 2km/h | 1821m | -2.3m/s | 18.4°C | 36.7% | 0hPa | 2.8V | 06:54:07 | 04:12:12 | 00:00:00 | |
| IW2NTF | 2026-09-06 02:46:00 | 45.00814 | 9.91812 | 218° | 5km/h | 1825m | -2.2m/s | 18.4°C | 37% | 0hPa | 2.8V | 06:54:09 | 04:12:10 | 00:00:00 | |
| IW2NTF | 2026-09-06 02:46:00 | 45.00819 | 9.91814 | 179° | 11km/h | 1829m | -2.4m/s | 18.3°C | 37.6% | 0hPa | 2.8V | 06:54:11 | 04:12:08 | 00:00:00 | |
| IW2NTF | 2026-09-06 02:46:00 | 45.00824 | 9.91813 | 158° | 13km/h | 1834m | -2.5m/s | 18.3°C | 38.8% | 0hPa | 2.8V | 06:54:13 | 04:12:06 | 00:00:00 | |
| IW2NTF | 2026-09-06 02:45:55 | 45.00830 | 9.91809 | 136° | 13km/h | 1838m | -2m/s | 18.2°C | 39.4% | 0hPa | 2.8V | 06:54:15 | 04:12:04 | 00:00:00 | |
| IW2NTF | 2026-09-06 02:45:55 | 45.00834 | 9.91802 | 110° | 7km/h | 1842m | -2m/s | 18.2°C | 39.7% | 0hPa | 2.8V | 06:54:17 | 04:12:02 | 00:00:00 | |
| IW2NTF | 2026-09-06 02:45:55 | 45.00834 | 9.91798 | 101° | 4km/h | 1845m | -2.3m/s | 18.2°C | 40.3% | 0hPa | 2.7V | 06:54:19 | 04:12:00 | 00:00:00 | |
| IW2NTF | 2026-09-06 02:45:48 | 45.00835 | 9.91797 | 178° | 2km/h | 1850m | -2.5m/s | 18.1°C | 40.7% | 0hPa | 2.8V | 06:54:21 | 04:11:58 | 00:00:00 | |
| IW2NTF | 2026-09-06 02:45:48 | 45.00837 | 9.91799 | 200° | 5km/h | 1854m | -2.4m/s | 18.1°C | 41.3% | 0hPa | 2.8V | 06:54:23 | 04:11:56 | 00:00:00 | |
| IW2NTF | 2026-09-06 02:45:48 | 45.00839 | 9.91801 | 204° | 5km/h | 1859m | -2.7m/s | 18.1°C | 41.6% | 0hPa | 2.8V | 06:54:25 | 04:11:54 | 00:00:00 | |
| IW2NTF | 2026-09-06 02:45:42 | 45.00843 | 9.91804 | 204° | 11km/h | 1863m | -2.6m/s | 18°C | 41.8% | 0hPa | 2.8V | 06:54:27 | 04:11:52 | 00:00:00 | |
| IW2NTF | 2026-09-06 02:45:42 | 45.00849 | 9.91807 | 205° | 11km/h | 1868m | -2.5m/s | 18°C | 42% | 0hPa | 2.8V | 06:54:29 | 04:11:50 | 00:00:00 | |
| IW2NTF | 2026-09-06 02:45:42 | 45.00854 | 9.91809 | 184° | 13km/h | 1873m | -2.5m/s | 17.9°C | 42.2% | 0hPa | 2.8V | 06:54:31 | 04:11:48 | 00:00:00 | |
| IW2NTF | 2026-09-06 02:45:36 | 45.00861 | 9.91810 | 186° | 15km/h | 1878m | -2.2m/s | 17.9°C | 42.7% | 0hPa | 2.8V | 06:54:33 | 04:11:46 | 00:00:00 | |
| IW2NTF | 2026-09-06 02:45:36 | 45.00868 | 9.91811 | 176° | 15km/h | 1882m | -2.3m/s | 17.9°C | 42.8% | 0hPa | 2.8V | 06:54:35 | 04:11:44 | 00:00:00 | |
| IW2NTF | 2026-09-06 02:45:36 | 45.00875 | 9.91810 | 168° | 15km/h | 1887m | -2.2m/s | 17.8°C | 43.2% | 0hPa | 2.8V | 06:54:37 | 04:11:42 | 00:00:00 | |
| IW2NTF | 2026-09-06 02:45:30 | 45.00883 | 9.91807 | 158° | 15km/h | 1891m | -2.4m/s | 17.8°C | 45.1% | 0hPa | 2.8V | 06:54:39 | 04:11:40 | 00:00:00 | |
| IW2NTF | 2026-09-06 02:45:30 | 45.00889 | 9.91803 | 146° | 15km/h | 1895m | -2.4m/s | 17.7°C | 45.2% | 0hPa | 2.8V | 06:54:41 | 04:11:38 | 00:00:00 | |
| IW2NTF | 2026-09-06 02:45:30 | 45.00894 | 9.91797 | 129° | 9km/h | 1900m | -2.5m/s | 17.7°C | 45.6% | 0hPa | 2.8V | 06:54:43 | 04:11:36 | 00:00:00 | |
| IW2NTF | 2026-09-06 02:45:24 | 45.00896 | 9.91793 | 119° | 4km/h | 1905m | -2.4m/s | 17.6°C | 45.7% | 0hPa | 2.8V | 06:54:45 | 04:11:34 | 00:00:00 | |
| IW2NTF | 2026-09-06 02:45:24 | 45.00896 | 9.91792 | 173° | 2km/h | 1909m | -2.5m/s | 17.6°C | 46.1% | 0hPa | 2.8V | 06:54:47 | 04:11:32 | 00:00:00 | |
| IW2NTF | 2026-09-06 02:45:24 | 45.00897 | 9.91793 | 225° | 4km/h | 1914m | -2.8m/s | 17.5°C | 46.3% | 0hPa | 2.7V | 06:54:49 | 04:11:30 | 00:00:00 | |
| IW2NTF | 2026-09-06 02:45:19 | 45.00899 | 9.91795 | 214° | 5km/h | 1919m | -2.4m/s | 17.5°C | 46.5% | 0hPa | 2.8V | 06:54:51 | 04:11:28 | 00:00:00 | |
| IW2NTF | 2026-09-06 02:45:19 | 45.00902 | 9.91798 | 210° | 9km/h | 1924m | -2.5m/s | 17.4°C | 46.9% | 0hPa | 2.8V | 06:54:53 | 04:11:26 | 00:00:00 | |
| IW2NTF | 2026-09-06 02:45:19 | 45.00906 | 9.91802 | 205° | 13km/h | 1929m | -2.1m/s | 17.4°C | 47.5% | 0hPa | 2.8V | 06:54:55 | 04:11:24 | 00:00:00 | |
| IW2NTF | 2026-09-06 02:45:12 | 45.00911 | 9.91806 | 204° | 15km/h | 1933m | -2.6m/s | 17.4°C | 47.2% | 0hPa | 2.8V | 06:54:57 | 04:11:22 | 00:00:00 | |
| IW2NTF | 2026-09-06 02:45:12 | 45.00919 | 9.91809 | 186° | 15km/h | 1938m | -2.5m/s | 17.3°C | 47.5% | 0hPa | 2.8V | 06:54:59 | 04:11:20 | 00:00:00 | |
| IW2NTF | 2026-09-06 02:45:12 | 45.00927 | 9.91809 | 173° | 16km/h | 1942m | -2.1m/s | 17.3°C | 47.8% | 0hPa | 2.8V | 06:55:01 | 04:11:18 | 00:00:00 | |
| IW2NTF | 2026-09-06 02:45:07 | 45.00935 | 9.91807 | 164° | 16km/h | 1946m | -2.5m/s | 17.3°C | 47.3% | 0hPa | 2.8V | 06:55:03 | 04:11:16 | 00:00:00 | |
| IW2NTF | 2026-09-06 02:45:07 | 45.00941 | 9.91803 | 147° | 13km/h | 1951m | -2.2m/s | 17.2°C | 45.8% | 0hPa | 2.8V | 06:55:05 | 04:11:14 | 00:00:00 | |
| IW2NTF | 2026-09-06 02:45:07 | 45.00946 | 9.91798 | 132° | 11km/h | 1956m | -2.1m/s | 17.2°C | 45.8% | 0hPa | 2.8V | 06:55:07 | 04:11:12 | 00:00:00 | |
| IW2NTF | 2026-09-06 02:45:00 | 45.00949 | 9.91793 | 129° | 7km/h | 1960m | -2.3m/s | 17.2°C | 46% | 0hPa | 2.8V | 06:55:09 | 04:11:10 | 00:00:00 | |
| IW2NTF | 2026-09-06 02:45:00 | 45.00951 | 9.91791 | 131° | 4km/h | 1964m | -2.3m/s | 17.1°C | 45.9% | 0hPa | 2.8V | 06:55:11 | 04:11:08 | 00:00:00 | |
| IW2NTF | 2026-09-06 02:45:00 | 45.00951 | 9.91791 | 237° | 2km/h | 1968m | -2.7m/s | 17.1°C | 46% | 0hPa | 2.8V | 06:55:13 | 04:11:06 | 00:00:00 | |
| IW2NTF | 2026-09-06 02:44:54 | 45.00953 | 9.91793 | 224° | 4km/h | 1973m | -2.5m/s | 17°C | 46.2% | 0hPa | 2.8V | 06:55:15 | 04:11:04 | 00:00:00 | |
| IW2NTF | 2026-09-06 02:44:54 | 45.00955 | 9.91796 | 221° | 7km/h | 1977m | -2.5m/s | 17°C | 45.9% | 0hPa | 2.8V | 06:55:17 | 04:11:02 | 00:00:00 | |
| IW2NTF | 2026-09-06 02:44:54 | 45.00958 | 9.91801 | 216° | 13km/h | 1982m | -2.3m/s | 17°C | 45.6% | 0hPa | 2.8V | 06:55:19 | 04:11:00 | 00:00:00 | |
| IW2NTF | 2026-09-06 02:44:48 | 45.00964 | 9.91806 | 209° | 15km/h | 1987m | -2.6m/s | 16.9°C | 45.8% | 0hPa | 2.8V | 06:55:21 | 04:10:58 | 00:00:00 | |
| IW2NTF | 2026-09-06 02:44:48 | 45.00971 | 9.91809 | 189° | 16km/h | 1992m | -2.9m/s | 16.9°C | 45.9% | 0hPa | 2.8V | 06:55:23 | 04:10:56 | 00:00:00 | |
| IW2NTF | 2026-09-06 02:44:48 | 45.00979 | 9.91810 | 171° | 15km/h | 1997m | -2.7m/s | 16.8°C | 46% | 0hPa | 2.8V | 06:55:25 | 04:10:54 | 00:00:00 | |
| IW2NTF | 2026-09-06 02:44:42 | 45.00993 | 9.91799 | 134° | 5km/h | 2010m | -2.4m/s | 16.7°C | 46.4% | 0hPa | 2.7V | 06:55:31 | 04:10:48 | 00:00:00 | |
| IW2NTF | 2026-09-06 02:44:36 | 45.00998 | 9.91803 | 232° | 5km/h | 2024m | -2.5m/s | 16.6°C | 45.9% | 0hPa | 2.8V | 06:55:37 | 04:10:42 | 00:00:00 | |
| IW2NTF | 2026-09-06 02:44:30 | 45.01009 | 9.91819 | 226° | 13km/h | 2039m | -2.8m/s | 16.5°C | 45.5% | 0hPa | 2.8V | 06:55:43 | 04:10:36 | 00:00:00 | |
| IW2NTF | 2026-09-06 02:44:24 | 45.01029 | 9.91834 | 188° | 18km/h | 2054m | -2.3m/s | 16.4°C | 44.5% | 0hPa | 2.8V | 06:55:49 | 04:10:30 | 00:00:00 | |
| IW2NTF | 2026-09-06 02:44:18 | 45.01053 | 9.91830 | 154° | 13km/h | 2067m | -2.4m/s | 16.2°C | 45.2% | 0hPa | 2.8V | 06:55:55 | 04:10:24 | 00:00:00 | |
| IW2NTF | 2026-09-06 02:44:12 | 45.01061 | 9.91827 | 210° | 5km/h | 2080m | -2.4m/s | 16.1°C | 44.9% | 0hPa | 2.8V | 06:56:01 | 04:10:18 | 00:00:00 | |
| IW2NTF | 2026-09-06 02:44:06 | 45.01071 | 9.91841 | 222° | 15km/h | 2093m | -2.5m/s | 16°C | 43.6% | 0hPa | 2.8V | 06:56:07 | 04:10:12 | 00:00:00 | |
| IW2NTF | 2026-09-06 02:44:00 | 45.01093 | 9.91856 | 184° | 18km/h | 2107m | -2.5m/s | 15.9°C | 43.1% | 0hPa | 2.8V | 06:56:13 | 04:10:06 | 00:00:00 | |
| IW2NTF | 2026-09-06 02:43:54 | 45.01118 | 9.91852 | 162° | 15km/h | 2122m | -2.3m/s | 15.8°C | 42.2% | 0hPa | 2.8V | 06:56:19 | 04:10:00 | 00:00:00 | |
| IW2NTF | 2026-09-06 02:43:48 | 45.01131 | 9.91843 | 160° | 5km/h | 2136m | -2.3m/s | 15.7°C | 41.8% | 0hPa | 2.8V | 06:56:25 | 04:09:54 | 00:00:00 | |
| IW2NTF | 2026-09-06 02:43:42 | 45.01138 | 9.91850 | 233° | 9km/h | 2149m | -2.6m/s | 15.7°C | 40.2% | 0hPa | 2.8V | 06:56:31 | 04:09:48 | 00:00:00 | |
| IW2NTF | 2026-09-06 02:43:36 | 45.01157 | 9.91868 | 201° | 18km/h | 2163m | -2.7m/s | 15.5°C | 40.6% | 0hPa | 2.8V | 06:56:37 | 04:09:42 | 00:00:00 | |
| IW2NTF | 2026-09-06 02:43:30 | 45.01181 | 9.91870 | 165° | 15km/h | 2177m | -2.5m/s | 15.4°C | 41.9% | 0hPa | 2.8V | 06:56:43 | 04:09:36 | 00:00:00 | |
| IW2NTF | 2026-09-06 02:43:24 | 45.01196 | 9.91862 | 157° | 5km/h | 2192m | -2.6m/s | 15.2°C | 42.3% | 0hPa | 2.8V | 06:56:49 | 04:09:30 | 00:00:00 | |
| IW2NTF | 2026-09-06 02:43:18 | 45.01202 | 9.91865 | 222° | 9km/h | 2206m | -2.3m/s | 15.1°C | 42.6% | 0hPa | 2.7V | 06:56:55 | 04:09:24 | 00:00:00 | |
| IW2NTF | 2026-09-06 02:43:12 | 45.01215 | 9.91882 | 201° | 15km/h | 2219m | -2.4m/s | 15°C | 42.8% | 0hPa | 2.8V | 06:57:01 | 04:09:18 | 00:00:00 | |
| IW2NTF | 2026-09-06 02:43:04 | 45.01248 | 9.91883 | 165° | 16km/h | 2237m | -2.3m/s | 14.8°C | 43% | 0hPa | 2.8V | 06:57:09 | 04:09:10 | 00:00:00 | |
| IW2NTF | 2026-09-06 02:42:58 | 45.01267 | 9.91873 | 154° | 15km/h | 2251m | -2.8m/s | 14.7°C | 44% | 0hPa | 2.8V | 06:57:15 | 04:09:04 | 00:00:00 | |
| IW2NTF | 2026-09-06 02:42:52 | 45.01279 | 9.91862 | 133° | 7km/h | 2266m | -2.8m/s | 14.5°C | 43.7% | 0hPa | 2.8V | 06:57:21 | 04:08:58 | 00:00:00 | |
| IW2NTF | 2026-09-06 02:42:46 | 45.01284 | 9.91865 | 226° | 11km/h | 2279m | -2.4m/s | 14.4°C | 45.6% | 0hPa | 2.8V | 06:57:27 | 04:08:52 | 00:00:00 | |
| IW2NTF | 2026-09-06 02:42:40 | 45.01303 | 9.91872 | 166° | 16km/h | 2293m | -2.5m/s | 14.2°C | 46.4% | 0hPa | 2.8V | 06:57:33 | 04:08:46 | 00:00:00 | |
| IW2NTF | 2026-09-06 02:42:34 | 45.01319 | 9.91859 | 138° | 9km/h | 2308m | -2.4m/s | 14.1°C | 46.9% | 0hPa | 2.8V | 06:57:39 | 04:08:40 | 00:00:00 | |
| IW2NTF | 2026-09-06 02:42:28 | 45.01324 | 9.91853 | 202° | 4km/h | 2321m | -2.4m/s | 14°C | 46.9% | 0hPa | 2.8V | 06:57:45 | 04:08:34 | 00:00:00 | |
| IW2NTF | 2026-09-06 02:42:22 | 45.01332 | 9.91863 | 222° | 11km/h | 2334m | -2.2m/s | 13.8°C | 48.1% | 0hPa | 2.8V | 06:57:51 | 04:08:28 | 00:00:00 | |
| IW2NTF | 2026-09-06 02:42:16 | 45.01351 | 9.91870 | 174° | 16km/h | 2348m | -2.4m/s | 13.7°C | 50.6% | 0hPa | 2.8V | 06:57:57 | 04:08:22 | 00:00:00 | |
| IW2NTF | 2026-09-06 02:42:10 | 45.01371 | 9.91860 | 150° | 13km/h | 2364m | -2.6m/s | 13.4°C | 55% | 0hPa | 2.8V | 06:58:03 | 04:08:16 | 00:00:00 | |
| IW2NTF | 2026-09-06 02:42:04 | 45.01385 | 9.91843 | 130° | 13km/h | 2378m | -2.5m/s | 13.4°C | 55.4% | 0hPa | 2.8V | 06:58:09 | 04:08:10 | 00:00:00 | |
| IW2NTF | 2026-09-06 02:41:58 | 45.01396 | 9.91824 | 121° | 11km/h | 2394m | -2.5m/s | 13.4°C | 48.9% | 0hPa | 2.8V | 06:58:15 | 04:08:04 | 00:00:00 | |
| IW2NTF | 2026-09-06 02:41:50 | 45.01406 | 9.91800 | 84° | 5km/h | 2413m | -2.8m/s | 13.3°C | 47.2% | 0hPa | 2.8V | 06:58:23 | 04:07:56 | 00:00:00 | |
| IW2NTF | 2026-09-06 02:41:44 | 45.01409 | 9.91799 | 198° | 9km/h | 2427m | -2.5m/s | 13.2°C | 46.6% | 0hPa | 2.8V | 06:58:29 | 04:07:50 | 00:00:00 | |
| IW2NTF | 2026-09-06 02:41:38 | 45.01426 | 9.91794 | 151° | 15km/h | 2443m | -2.9m/s | 13.1°C | 46.9% | 0hPa | 2.8V | 06:58:35 | 04:07:44 | 00:00:00 | |
| IW2NTF | 2026-09-06 02:41:32 | 45.01435 | 9.91774 | 113° | 11km/h | 2459m | -2.8m/s | 12.9°C | 47.3% | 0hPa | 2.8V | 06:58:41 | 04:07:38 | 00:00:00 | |
| IW2NTF | 2026-09-06 02:41:26 | 45.01436 | 9.91755 | 81° | 9km/h | 2473m | -2.6m/s | 12.8°C | 47.8% | 0hPa | 2.8V | 06:58:47 | 04:07:32 | 00:00:00 | |
| IW2NTF | 2026-09-06 02:41:20 | 45.01435 | 9.91751 | 216° | 5km/h | 2488m | -2.4m/s | 12.7°C | 48% | 0hPa | 2.8V | 06:58:53 | 04:07:26 | 00:00:00 | |
| IW2NTF | 2026-09-06 02:41:14 | 45.01449 | 9.91749 | 153° | 15km/h | 2501m | -2.5m/s | 12.5°C | 48.6% | 0hPa | 2.8V | 06:58:59 | 04:07:20 | 00:00:00 | |
| IW2NTF | 2026-09-06 02:41:08 | 45.01463 | 9.91727 | 123° | 15km/h | 2517m | -2.7m/s | 12.4°C | 49% | 0hPa | 2.8V | 06:59:05 | 04:07:14 | 00:00:00 | |
| IW2NTF | 2026-09-06 02:41:02 | 45.01467 | 9.91701 | 82° | 11km/h | 2533m | -2.7m/s | 12.2°C | 49.4% | 0hPa | 2.8V | 06:59:11 | 04:07:08 | 00:00:00 | |
| IW2NTF | 2026-09-06 02:40:56 | 45.01464 | 9.91684 | 63° | 7km/h | 2548m | -2.8m/s | 12.1°C | 49.9% | 0hPa | 2.8V | 06:59:17 | 04:07:02 | 00:00:00 | |
| IW2NTF | 2026-09-06 02:40:50 | 45.01461 | 9.91680 | 185° | 2km/h | 2563m | -2.9m/s | 11.9°C | 50.3% | 0hPa | 2.8V | 06:59:23 | 04:06:56 | 00:00:00 | |
| IW2NTF | 2026-09-06 02:40:44 | 45.01473 | 9.91675 | 138° | 13km/h | 2577m | -2.7m/s | 11.8°C | 50.9% | 0hPa | 2.8V | 06:59:29 | 04:06:50 | 00:00:00 | |
| IW2NTF | 2026-09-06 02:40:33 | 45.01485 | 9.91653 | 112° | 15km/h | 2592m | -2.7m/s | 11.6°C | 51.2% | 0hPa | 2.8V | 06:59:35 | 04:06:44 | 00:00:00 | |
| IW2NTF | 2026-09-06 02:40:33 | 45.01489 | 9.91630 | 98° | 15km/h | 2605m | -3.2m/s | 11.5°C | 51.5% | 0hPa | 2.8V | 06:59:40 | 04:06:39 | 00:00:00 | |
| IW2NTF | 2026-09-06 02:40:27 | 45.01487 | 9.91607 | 69° | 9km/h | 2621m | -3m/s | 11.3°C | 52% | 0hPa | 2.8V | 06:59:46 | 04:06:33 | 00:00:00 | |
| IW2NTF | 2026-09-06 02:40:21 | 45.01482 | 9.91603 | 199° | 4km/h | 2635m | -2.6m/s | 11.2°C | 52.7% | 0hPa | 2.8V | 06:59:52 | 04:06:27 | 00:00:00 | |
| IW2NTF | 2026-09-06 02:40:15 | 45.01493 | 9.91598 | 142° | 11km/h | 2650m | -2.7m/s | 11.1°C | 53% | 0hPa | 2.8V | 06:59:58 | 04:06:21 | 00:00:00 | |
| IW2NTF | 2026-09-06 02:40:09 | 45.01505 | 9.91577 | 126° | 13km/h | 2665m | -2.6m/s | 10.9°C | 53.6% | 0hPa | 2.7V | 07:00:04 | 04:06:15 | 00:00:00 | |
| IW2NTF | 2026-09-06 02:40:03 | 45.01508 | 9.91549 | 78° | 13km/h | 2681m | -2.8m/s | 10.8°C | 53.6% | 0hPa | 2.8V | 07:00:10 | 04:06:09 | 00:00:00 | |
| IW2NTF | 2026-09-06 02:39:57 | 45.01501 | 9.91529 | 56° | 7km/h | 2695m | -2.9m/s | 10.6°C | 55% | 0hPa | 2.8V | 07:00:16 | 04:06:03 | 00:00:00 | |
| IW2NTF | 2026-09-06 02:39:51 | 45.01499 | 9.91525 | 227° | 0km/h | 2710m | -2.8m/s | 10.6°C | 54.9% | 0hPa | 2.8V | 07:00:22 | 04:05:57 | 00:00:00 | |
| IW2NTF | 2026-09-06 02:39:45 | 45.01504 | 9.91525 | 153° | 5km/h | 2725m | -3m/s | 10.4°C | 55.6% | 0hPa | 2.8V | 07:00:28 | 04:05:51 | 00:00:00 | |
| IW2NTF | 2026-09-06 02:39:39 | 45.01515 | 9.91512 | 122° | 11km/h | 2741m | -3m/s | 10.3°C | 57% | 0hPa | 2.8V | 07:00:34 | 04:05:45 | 00:00:00 | |
| IW2NTF | 2026-09-06 02:39:34 | 45.01514 | 9.91485 | 65° | 13km/h | 2756m | -2.7m/s | 10.2°C | 57.6% | 0hPa | 2.8V | 07:00:40 | 04:05:39 | 00:00:00 | |
| IW2NTF | 2026-09-06 02:39:27 | 45.01505 | 9.91472 | 14° | 7km/h | 2770m | -2.8m/s | 10°C | 60% | 0hPa | 2.8V | 07:00:46 | 04:05:33 | 00:00:00 | |
| IW2NTF | 2026-09-06 02:39:21 | 45.01503 | 9.91471 | 181° | 2km/h | 2785m | -3m/s | 9.9°C | 59.3% | 0hPa | 2.8V | 07:00:52 | 04:05:27 | 00:00:00 | |
| IW2NTF | 2026-09-06 02:39:15 | 45.01511 | 9.91464 | 128° | 11km/h | 2801m | -3.1m/s | 9.8°C | 57.6% | 0hPa | 2.8V | 07:00:58 | 04:05:21 | 00:00:00 | |
| IW2NTF | 2026-09-06 02:39:09 | 45.01514 | 9.91438 | 78° | 11km/h | 2816m | -2.6m/s | 9.7°C | 57.4% | 0hPa | 2.8V | 07:01:04 | 04:05:15 | 00:00:00 | |
| IW2NTF | 2026-09-06 02:39:03 | 45.01505 | 9.91426 | 342° | 4km/h | 2831m | -2.8m/s | 9.6°C | 57.7% | 0hPa | 2.8V | 07:01:10 | 04:05:09 | 00:00:00 | |
| IW2NTF | 2026-09-06 02:38:57 | 45.01511 | 9.91423 | 151° | 9km/h | 2846m | -2.9m/s | 9.4°C | 57.8% | 0hPa | 2.8V | 07:01:16 | 04:05:03 | 00:00:00 | |
| IW2NTF | 2026-09-06 02:38:52 | 45.01522 | 9.91411 | 131° | 13km/h | 2863m | -3m/s | 9.3°C | 58.3% | 0hPa | 2.8V | 07:01:22 | 04:04:57 | 00:00:00 | |
| IW2NTF | 2026-09-06 02:38:45 | 45.01536 | 9.91394 | 144° | 13km/h | 2881m | -3.1m/s | 9.1°C | 59.3% | 0hPa | 2.8V | 07:01:28 | 04:04:51 | 00:00:00 | |
| IW2NTF | 2026-09-06 02:38:39 | 45.01551 | 9.91377 | 144° | 11km/h | 2897m | -3m/s | 9°C | 59.7% | 0hPa | 2.8V | 07:01:34 | 04:04:45 | 00:00:00 | |
| IW2NTF | 2026-09-06 02:38:33 | 45.01564 | 9.91363 | 137° | 13km/h | 2913m | -2.7m/s | 8.9°C | 60.9% | 0hPa | 2.7V | 07:01:40 | 04:04:39 | 00:00:00 | |
| IW2NTF | 2026-09-06 02:38:27 | 45.01582 | 9.91343 | 141° | 18km/h | 2928m | -2.7m/s | 8.8°C | 61.8% | 0hPa | 2.8V | 07:01:46 | 04:04:33 | 00:00:00 | |
| IW2NTF | 2026-09-06 02:38:21 | 45.01603 | 9.91318 | 142° | 16km/h | 2943m | -3m/s | 8.7°C | 62.7% | 0hPa | 2.8V | 07:01:52 | 04:04:27 | 00:00:00 | |
| IW2NTF | 2026-09-06 02:38:16 | 45.01621 | 9.91292 | 130° | 16km/h | 2960m | -2.6m/s | 8.6°C | 63.5% | 0hPa | 2.8V | 07:01:58 | 04:04:21 | 00:00:00 | |
| IW2NTF | 2026-09-06 02:38:09 | 45.01641 | 9.91268 | 142° | 20km/h | 2973m | -2.6m/s | 8.6°C | 64.5% | 0hPa | 2.8V | 07:02:04 | 04:04:15 | 00:00:00 | |
| IW2NTF | 2026-09-06 02:38:03 | 45.01663 | 9.91251 | 150° | 15km/h | 2988m | -3.6m/s | 8.4°C | 65.1% | 0hPa | 2.7V | 07:02:10 | 04:04:09 | 00:00:00 | |
| IW2NTF | 2026-09-06 02:37:57 | 45.01687 | 9.91230 | 149° | 20km/h | 3005m | -3.5m/s | 8.3°C | 65.7% | 0hPa | 2.8V | 07:02:16 | 04:04:03 | 00:00:00 | |
| IW2NTF | 2026-09-06 02:37:51 | 45.01712 | 9.91210 | 155° | 15km/h | 3023m | -3.3m/s | 8.2°C | 66.7% | 0hPa | 2.8V | 07:02:22 | 04:03:57 | 00:00:00 | |
| IW2NTF | 2026-09-06 02:37:45 | 45.01736 | 9.91188 | 147° | 24km/h | 3040m | -3.5m/s | 8.1°C | 67.6% | 0hPa | 2.8V | 07:02:28 | 04:03:51 | 00:00:00 | |
| IW2NTF | 2026-09-06 02:37:39 | 45.01763 | 9.91162 | 148° | 22km/h | 3058m | -3.2m/s | 8°C | 68% | 0hPa | 2.8V | 07:02:34 | 04:03:45 | 00:00:00 | |
| IW2NTF | 2026-09-06 02:37:33 | 45.01793 | 9.91133 | 148° | 27km/h | 3076m | -3.3m/s | 7.8°C | 68.7% | 0hPa | 2.8V | 07:02:40 | 04:03:39 | 00:00:00 | |
| IW2NTF | 2026-09-06 02:37:27 | 45.01826 | 9.91102 | 148° | 27km/h | 3094m | -3.1m/s | 7.6°C | 69.5% | 0hPa | 2.7V | 07:02:46 | 04:03:33 | 00:00:00 | |
| IW2NTF | 2026-09-06 02:37:21 | 45.01862 | 9.91069 | 144° | 31km/h | 3112m | -3m/s | 7.6°C | 69.5% | 0hPa | 2.8V | 07:02:52 | 04:03:27 | 00:00:00 | |
| IW2NTF | 2026-09-06 02:37:15 | 45.01903 | 9.91024 | 137° | 33km/h | 3127m | -2.8m/s | 7.5°C | 70.2% | 0hPa | 2.8V | 07:02:58 | 04:03:21 | 00:00:00 | |
| IW2NTF | 2026-09-06 02:37:09 | 45.01942 | 9.90980 | 141° | 33km/h | 3143m | -3.1m/s | 7.4°C | 70.5% | 0hPa | 2.8V | 07:03:04 | 04:03:15 | 00:00:00 | |
| IW2NTF | 2026-09-06 02:37:03 | 45.01984 | 9.90932 | 139° | 38km/h | 3160m | -2.9m/s | 7.3°C | 70.5% | 0hPa | 2.8V | 07:03:10 | 04:03:09 | 00:00:00 | |
| IW2NTF | 2026-09-06 02:36:57 | 45.02026 | 9.90878 | 134° | 40km/h | 3179m | -2.9m/s | 7.3°C | 69.7% | 0hPa | 2.8V | 07:03:16 | 04:03:03 | 00:00:00 | |
| IW2NTF | 2026-09-06 02:36:49 | 45.02081 | 9.90795 | 134° | 42km/h | 3204m | -3m/s | 7.1°C | 70.4% | 0hPa | 2.8V | 07:03:24 | 04:02:55 | 00:00:00 | |
| IW2NTF | 2026-09-06 02:36:43 | 45.02125 | 9.90730 | 131° | 42km/h | 3221m | -2.9m/s | 7°C | 70.8% | 0hPa | 2.8V | 07:03:30 | 04:02:49 | 00:00:00 | |
| IW2NTF | 2026-09-06 02:36:38 | 45.02157 | 9.90672 | 124° | 40km/h | 3235m | -2.9m/s | 6.9°C | 71.3% | 0hPa | 2.8V | 07:03:35 | 04:02:44 | 00:00:00 | |
| IW2NTF | 2026-09-06 02:36:32 | 45.02187 | 9.90605 | 121° | 33km/h | 3253m | -2.7m/s | 7°C | 71.6% | 0hPa | 2.8V | 07:03:41 | 04:02:38 | 00:00:00 | |
| IW2NTF | 2026-09-06 02:36:26 | 45.02218 | 9.90558 | 142° | 31km/h | 3269m | -2.8m/s | 7°C | 73.1% | 0hPa | 2.7V | 07:03:47 | 04:02:32 | 00:00:00 | |
| IW2NTF | 2026-09-06 02:36:20 | 45.02262 | 9.90513 | 144° | 38km/h | 3288m | -2.9m/s | 6.9°C | 73.2% | 0hPa | 2.8V | 07:03:53 | 04:02:26 | 00:00:00 | |
| IW2NTF | 2026-09-06 02:36:14 | 45.02311 | 9.90460 | 141° | 44km/h | 3305m | -3m/s | 6.9°C | 69.2% | 0hPa | 2.8V | 07:03:59 | 04:02:20 | 00:00:00 | |
| IW2NTF | 2026-09-06 02:36:08 | 45.02363 | 9.90399 | 138° | 46km/h | 3323m | -3m/s | 6.8°C | 69.3% | 0hPa | 2.8V | 07:04:05 | 04:02:14 | 00:00:00 | |
| IW2NTF | 2026-09-06 02:36:02 | 45.02413 | 9.90328 | 130° | 47km/h | 3341m | -2.8m/s | 6.6°C | 69.2% | 0hPa | 2.8V | 07:04:11 | 04:02:08 | 00:00:00 | |
| IW2NTF | 2026-09-06 02:35:56 | 45.02452 | 9.90253 | 123° | 40km/h | 3358m | -2.8m/s | 6.5°C | 67.8% | 0hPa | 2.8V | 07:04:17 | 04:02:02 | 00:00:00 | |
| IW2NTF | 2026-09-06 02:35:50 | 45.02484 | 9.90188 | 127° | 33km/h | 3375m | -2.9m/s | 6.4°C | 66.1% | 0hPa | 2.8V | 07:04:23 | 04:01:56 | 00:00:00 | |
| IW2NTF | 2026-09-06 02:35:44 | 45.02515 | 9.90136 | 132° | 31km/h | 3392m | -3m/s | 6.4°C | 63.6% | 0hPa | 2.8V | 07:04:29 | 04:01:50 | 00:00:00 | |
| IW2NTF | 2026-09-06 02:35:39 | 45.02548 | 9.90086 | 131° | 31km/h | 3410m | -2.7m/s | 6.4°C | 55.1% | 0hPa | 2.8V | 07:04:35 | 04:01:44 | 00:00:00 | |
| IW2NTF | 2026-09-06 02:35:32 | 45.02578 | 9.90035 | 131° | 31km/h | 3427m | -2.8m/s | 6.3°C | 52.5% | 0hPa | 2.8V | 07:04:41 | 04:01:38 | 00:00:00 | |
| IW2NTF | 2026-09-06 02:35:26 | 45.02608 | 9.89988 | 131° | 29km/h | 3444m | -2.8m/s | 6.2°C | 51.9% | 0hPa | 2.8V | 07:04:47 | 04:01:32 | 00:00:00 | |
| IW2NTF | 2026-09-06 02:35:18 | 45.02645 | 9.89929 | 132° | 27km/h | 3465m | -2.6m/s | 6.1°C | 49.4% | 0hPa | 2.8V | 07:04:55 | 04:01:24 | 00:00:00 | |
| IW2NTF | 2026-09-06 02:35:12 | 45.02671 | 9.89885 | 127° | 26km/h | 3481m | -2.6m/s | 6.2°C | 44.9% | 0hPa | 2.7V | 07:05:01 | 04:01:18 | 00:00:00 | |
| IW2NTF | 2026-09-06 02:35:06 | 45.02694 | 9.89842 | 128° | 24km/h | 3497m | -2.6m/s | 6.1°C | 43.6% | 0hPa | 2.8V | 07:05:07 | 04:01:12 | 00:00:00 | |
| IW2NTF | 2026-09-06 02:35:00 | 45.02717 | 9.89806 | 137° | 22km/h | 3512m | -2.3m/s | 6.1°C | 42.3% | 0hPa | 2.8V | 07:05:13 | 04:01:06 | 00:00:00 | |
| IW2NTF | 2026-09-06 02:34:52 | 45.02758 | 9.89767 | 149° | 29km/h | 3531m | -2.4m/s | 6°C | 42.6% | 0hPa | 2.8V | 07:05:21 | 04:00:58 | 00:00:00 | |
| IW2NTF | 2026-09-06 02:34:46 | 45.02800 | 9.89725 | 138° | 37km/h | 3546m | -2.4m/s | 5.9°C | 43.2% | 0hPa | 2.7V | 07:05:27 | 04:00:52 | 00:00:00 | |
| IW2NTF | 2026-09-06 02:34:40 | 45.02838 | 9.89669 | 129° | 37km/h | 3561m | -2.6m/s | 5.9°C | 45.6% | 0hPa | 2.7V | 07:05:33 | 04:00:46 | 00:00:00 | |
| IW2NTF | 2026-09-06 02:34:34 | 45.02871 | 9.89609 | 125° | 35km/h | 3577m | -2.5m/s | 6°C | 45.3% | 0hPa | 2.8V | 07:05:39 | 04:00:40 | 00:00:00 | |
| IW2NTF | 2026-09-06 02:34:28 | 45.02900 | 9.89547 | 121° | 35km/h | 3591m | -2.5m/s | 5.9°C | 44.3% | 0hPa | 2.8V | 07:05:45 | 04:00:34 | 00:00:00 | |
| IW2NTF | 2026-09-06 02:34:22 | 45.02925 | 9.89484 | 116° | 31km/h | 3606m | -2.4m/s | 5.8°C | 42.2% | 0hPa | 2.7V | 07:05:51 | 04:00:28 | 00:00:00 | |
| IW2NTF | 2026-09-06 02:34:16 | 45.02944 | 9.89429 | 118° | 24km/h | 3620m | -2.2m/s | 5.8°C | 43.9% | 0hPa | 2.7V | 07:05:57 | 04:00:22 | 00:00:00 | |
| IW2NTF | 2026-09-06 02:34:10 | 45.02967 | 9.89392 | 141° | 26km/h | 3633m | -2.3m/s | 5.8°C | 41.1% | 0hPa | 2.7V | 07:06:03 | 04:00:16 | 00:00:00 | |
| IW2NTF | 2026-09-06 02:34:04 | 45.03003 | 9.89354 | 142° | 33km/h | 3647m | -2.5m/s | 5.8°C | 41.3% | 0hPa | 2.7V | 07:06:09 | 04:00:10 | 00:00:00 | |
| IW2NTF | 2026-09-06 02:33:58 | 45.03043 | 9.89305 | 136° | 37km/h | 3661m | -2.4m/s | 6°C | 41.9% | 0hPa | 2.7V | 07:06:15 | 04:00:04 | 00:00:00 | |
| IW2NTF | 2026-09-06 02:33:52 | 45.03082 | 9.89248 | 128° | 38km/h | 3676m | -2.4m/s | 6.1°C | 36.7% | 0hPa | 2.7V | 07:06:21 | 03:59:58 | 00:00:00 | |
| IW2NTF | 2026-09-06 02:33:46 | 45.03112 | 9.89179 | 116° | 37km/h | 3690m | -2.4m/s | 6°C | 36.5% | 0hPa | 2.7V | 07:06:27 | 03:59:52 | 00:00:00 | |
| IW2NTF | 2026-09-06 02:33:40 | 45.03132 | 9.89116 | 114° | 27km/h | 3704m | -2.3m/s | 6°C | 37.4% | 0hPa | 2.8V | 07:06:33 | 03:59:46 | 00:00:00 | |
| IW2NTF | 2026-09-06 02:33:34 | 45.03154 | 9.89071 | 133° | 26km/h | 3717m | -2.3m/s | 5.9°C | 37.6% | 0hPa | 2.8V | 07:06:39 | 03:59:40 | 00:00:00 | |
| IW2NTF | 2026-09-06 02:33:28 | 45.03184 | 9.89033 | 140° | 27km/h | 3732m | -2.6m/s | 5.8°C | 38.9% | 0hPa | 2.7V | 07:06:45 | 03:59:34 | 00:00:00 | |
| IW2NTF | 2026-09-06 02:33:22 | 45.03222 | 9.88991 | 140° | 35km/h | 3746m | -2.2m/s | 5.7°C | 38.6% | 0hPa | 2.8V | 07:06:51 | 03:59:28 | 00:00:00 | |
| IW2NTF | 2026-09-06 02:33:16 | 45.03262 | 9.88930 | 124° | 40km/h | 3760m | -2.4m/s | 5.7°C | 36.8% | 0hPa | 2.8V | 07:06:57 | 03:59:22 | 00:00:00 | |
| IW2NTF | 2026-09-06 02:33:10 | 45.03289 | 9.88860 | 115° | 35km/h | 3774m | -2.5m/s | 5.6°C | 32.9% | 0hPa | 2.7V | 07:07:03 | 03:59:16 | 00:00:00 | |
| IW2NTF | 2026-09-06 02:33:04 | 45.03310 | 9.88801 | 121° | 26km/h | 3788m | -2.3m/s | 5.5°C | 30.8% | 0hPa | 2.7V | 07:07:09 | 03:59:10 | 00:00:00 | |
| IW2NTF | 2026-09-06 02:32:58 | 45.03339 | 9.88760 | 143° | 31km/h | 3802m | -2.6m/s | 5.5°C | 24.1% | 0hPa | 2.7V | 07:07:15 | 03:59:04 | 00:00:00 | |
| IW2NTF | 2026-09-06 02:32:52 | 45.03381 | 9.88718 | 143° | 37km/h | 3817m | -2.6m/s | 5.6°C | 17.9% | 0hPa | 2.7V | 07:07:21 | 03:58:58 | 00:00:00 | |
| IW2NTF | 2026-09-06 02:32:46 | 45.03426 | 9.88668 | 142° | 38km/h | 3833m | -2.5m/s | 5.6°C | 17.5% | 0hPa | 2.7V | 07:07:27 | 03:58:52 | 00:00:00 | |
| IW2NTF | 2026-09-06 02:32:40 | 45.03473 | 9.88618 | 143° | 38km/h | 3849m | -2.5m/s | 5.5°C | 16.1% | 0hPa | 2.7V | 07:07:33 | 03:58:46 | 00:00:00 | |
| IW2NTF | 2026-09-06 02:32:34 | 45.03520 | 9.88567 | 142° | 42km/h | 3864m | -2.6m/s | 5.5°C | 18.5% | 0hPa | 2.6V | 07:07:39 | 03:58:40 | 00:00:00 | |
| IW2NTF | 2026-09-06 02:32:28 | 45.03570 | 9.88509 | 137° | 44km/h | 3879m | -2.5m/s | 5.4°C | 19.8% | 0hPa | 2.6V | 07:07:45 | 03:58:34 | 00:00:00 | |
| IW2NTF | 2026-09-06 02:32:22 | 45.03616 | 9.88438 | 126° | 44km/h | 3894m | -2.4m/s | 5.3°C | 21.1% | 0hPa | 2.7V | 07:07:51 | 03:58:28 | 00:00:00 | |
| IW2NTF | 2026-09-06 02:32:16 | 45.03651 | 9.88376 | 140° | 33km/h | 3908m | -2.2m/s | 5.3°C | 23.5% | 0hPa | 2.7V | 07:07:57 | 03:58:22 | 00:00:00 | |
| IW2NTF | 2026-09-06 02:32:10 | 45.03697 | 9.88331 | 146° | 40km/h | 3923m | -2.5m/s | 5.2°C | 23.9% | 0hPa | 2.7V | 07:08:03 | 03:58:16 | 00:00:00 | |
| IW2NTF | 2026-09-06 02:32:04 | 45.03750 | 9.88283 | 148° | 42km/h | 3939m | -2.7m/s | 5.1°C | 24.3% | 0hPa | 2.7V | 07:08:09 | 03:58:10 | 00:00:00 | |
| IW2NTF | 2026-09-06 02:31:58 | 45.03807 | 9.88233 | 146° | 47km/h | 3956m | -2.8m/s | 5°C | 23.7% | 0hPa | 2.7V | 07:08:15 | 03:58:04 | 00:00:00 | |
| IW2NTF | 2026-09-06 02:31:52 | 45.03866 | 9.88168 | 135° | 49km/h | 3971m | -2.5m/s | 4.9°C | 24.8% | 0hPa | 2.6V | 07:08:21 | 03:57:58 | 00:00:00 | |
| IW2NTF | 2026-09-06 02:31:46 | 45.03910 | 9.88094 | 127° | 40km/h | 3987m | -2.8m/s | 4.8°C | 30.9% | 0hPa | 2.7V | 07:08:27 | 03:57:52 | 00:00:00 | |
| IW2NTF | 2026-09-06 02:31:40 | 45.03947 | 9.88024 | 126° | 40km/h | 4004m | -3m/s | 4.7°C | 32.3% | 0hPa | 2.7V | 07:08:33 | 03:57:46 | 00:00:00 | |
| IW2NTF | 2026-09-06 02:31:34 | 45.03984 | 9.87955 | 127° | 38km/h | 4022m | -3.1m/s | 4.6°C | 34.2% | 0hPa | 2.7V | 07:08:39 | 03:57:40 | 00:00:00 | |
| IW2NTF | 2026-09-06 02:31:28 | 45.04020 | 9.87894 | 130° | 35km/h | 4040m | -2.9m/s | 4.7°C | 40.4% | 0hPa | 2.7V | 07:08:45 | 03:57:34 | 00:00:00 | |
| IW2NTF | 2026-09-06 02:31:22 | 45.04055 | 9.87844 | 139° | 31km/h | 4056m | -2.7m/s | 4.6°C | 41.2% | 0hPa | 2.6V | 07:08:51 | 03:57:28 | 00:00:00 | |
| IW2NTF | 2026-09-06 02:31:16 | 45.04096 | 9.87802 | 149° | 38km/h | 4073m | -2.6m/s | 4.5°C | 41.4% | 0hPa | 2.7V | 07:08:57 | 03:57:22 | 00:00:00 | |
| IW2NTF | 2026-09-06 02:31:10 | 45.04148 | 9.87744 | 133° | 46km/h | 4089m | -2.8m/s | 4.4°C | 43.1% | 0hPa | 2.7V | 07:09:03 | 03:57:16 | 00:00:00 | |
| IW2NTF | 2026-09-06 02:31:04 | 45.04193 | 9.87669 | 125° | 42km/h | 4106m | -2.9m/s | 4.3°C | 47.4% | 0hPa | 2.7V | 07:09:09 | 03:57:10 | 00:00:00 | |
| IW2NTF | 2026-09-06 02:30:58 | 45.04224 | 9.87601 | 123° | 35km/h | 4124m | -3m/s | 4.2°C | 48.1% | 0hPa | 2.7V | 07:09:15 | 03:57:04 | 00:00:00 | |
| IW2NTF | 2026-09-06 02:30:52 | 45.04256 | 9.87549 | 142° | 33km/h | 4140m | -2.8m/s | 4°C | 50.6% | 0hPa | 2.7V | 07:09:21 | 03:56:58 | 00:00:00 | |
| IW2NTF | 2026-09-06 02:30:46 | 45.04302 | 9.87505 | 144° | 42km/h | 4157m | -3m/s | 3.9°C | 50.6% | 0hPa | 2.7V | 07:09:27 | 03:56:52 | 00:00:00 | |
| IW2NTF | 2026-09-06 02:30:40 | 45.04354 | 9.87445 | 136° | 46km/h | 4175m | -2.8m/s | 3.9°C | 51.5% | 0hPa | 2.7V | 07:09:33 | 03:56:46 | 00:00:00 | |
| IW2NTF | 2026-09-06 02:30:34 | 45.04402 | 9.87372 | 128° | 46km/h | 4192m | -2.9m/s | 3.8°C | 52% | 0hPa | 2.7V | 07:09:39 | 03:56:40 | 00:00:00 | |
| IW2NTF | 2026-09-06 02:30:26 | 45.04451 | 9.87267 | 120° | 42km/h | 4215m | -3m/s | 3.8°C | 49.2% | 0hPa | 2.7V | 07:09:47 | 03:56:32 | 00:00:00 | |
| IW2NTF | 2026-09-06 02:30:20 | 45.04481 | 9.87193 | 119° | 37km/h | 4233m | -2.9m/s | 3.7°C | 47.4% | 0hPa | 2.7V | 07:09:53 | 03:56:26 | 00:00:00 | |
| IW2NTF | 2026-09-06 02:30:15 | 45.04508 | 9.87132 | 125° | 31km/h | 4250m | -2.9m/s | 3.6°C | 47.3% | 0hPa | 2.7V | 07:09:59 | 03:56:20 | 00:00:00 | |
| IW2NTF | 2026-09-06 02:30:08 | 45.04542 | 9.87082 | 141° | 37km/h | 4267m | -2.7m/s | 3.5°C | 44% | 0hPa | 2.6V | 07:10:05 | 03:56:14 | 00:00:00 | |
| IW2NTF | 2026-09-06 02:30:02 | 45.04589 | 9.87021 | 130° | 46km/h | 4284m | -2.8m/s | 3.5°C | 45.7% | 0hPa | 2.7V | 07:10:11 | 03:56:08 | 00:00:00 | |
| IW2NTF | 2026-09-06 02:29:56 | 45.04629 | 9.86941 | 121° | 46km/h | 4301m | -2.9m/s | 3.4°C | 45.1% | 0hPa | 2.7V | 07:10:17 | 03:56:02 | 00:00:00 | |
| IW2NTF | 2026-09-06 02:29:50 | 45.04662 | 9.86858 | 117° | 42km/h | 4318m | -2.6m/s | 3.3°C | 44.8% | 0hPa | 2.6V | 07:10:23 | 03:55:56 | 00:00:00 | |
| IW2NTF | 2026-09-06 02:29:44 | 45.04688 | 9.86786 | 117° | 33km/h | 4335m | -2.8m/s | 3.2°C | 45.1% | 0hPa | 2.6V | 07:10:29 | 03:55:50 | 00:00:00 | |
| IW2NTF | 2026-09-06 02:29:38 | 45.04713 | 9.86729 | 126° | 29km/h | 4352m | -2.6m/s | 3.1°C | 44.4% | 0hPa | 2.7V | 07:10:35 | 03:55:44 | 00:00:00 | |
| IW2NTF | 2026-09-06 02:29:32 | 45.04743 | 9.86681 | 135° | 31km/h | 4368m | -2.9m/s | 3°C | 43.1% | 0hPa | 2.7V | 07:10:41 | 03:55:38 | 00:00:00 | |
| IW2NTF | 2026-09-06 02:29:26 | 45.04778 | 9.86636 | 139° | 31km/h | 4385m | -2.9m/s | 3°C | 41.5% | 0hPa | 2.7V | 07:10:47 | 03:55:32 | 00:00:00 | |
| IW2NTF | 2026-09-06 02:29:20 | 45.04813 | 9.86594 | 140° | 29km/h | 4403m | -3m/s | 2.9°C | 43.3% | 0hPa | 2.7V | 07:10:53 | 03:55:26 | 00:00:00 | |
| IW2NTF | 2026-09-06 02:29:14 | 45.04852 | 9.86553 | 145° | 35km/h | 4419m | -2.5m/s | 2.7°C | 44.3% | 0hPa | 2.7V | 07:10:59 | 03:55:20 | 00:00:00 | |
| IW2NTF | 2026-09-06 02:29:08 | 45.04899 | 9.86505 | 141° | 42km/h | 4435m | -2.5m/s | 2.6°C | 45% | 0hPa | 2.7V | 07:11:05 | 03:55:14 | 00:00:00 | |
| IW2NTF | 2026-09-06 02:29:02 | 45.04946 | 9.86439 | 127° | 42km/h | 4450m | -2.5m/s | 2.7°C | 43.5% | 0hPa | 2.7V | 07:11:11 | 03:55:08 | 00:00:00 | |
| IW2NTF | 2026-09-06 02:28:56 | 45.04977 | 9.86375 | 124° | 31km/h | 4465m | -2.5m/s | 2.7°C | 41.8% | 0hPa | 2.7V | 07:11:17 | 03:55:02 | 00:00:00 | |
| IW2NTF | 2026-09-06 02:28:50 | 45.05004 | 9.86327 | 136° | 27km/h | 4481m | -2.6m/s | 2.6°C | 41.4% | 0hPa | 2.7V | 07:11:23 | 03:54:56 | 00:00:00 | |
| IW2NTF | 2026-09-06 02:28:44 | 45.05039 | 9.86292 | 150° | 31km/h | 4496m | -2.5m/s | 2.5°C | 41% | 0hPa | 2.7V | 07:11:29 | 03:54:50 | 00:00:00 | |
| IW2NTF | 2026-09-06 02:28:33 | 45.05082 | 9.86260 | 152° | 33km/h | 4512m | -2.7m/s | 2.5°C | 41.3% | 0hPa | 2.7V | 07:11:35 | 03:54:44 | 00:00:00 | |
| IW2NTF | 2026-09-06 02:28:33 | 45.05122 | 9.86232 | 152° | 37km/h | 4525m | -2.7m/s | 2.5°C | 41.7% | 0hPa | 2.7V | 07:11:40 | 03:54:39 | 00:00:00 | |
| IW2NTF | 2026-09-06 02:28:27 | 45.05174 | 9.86189 | 146° | 42km/h | 4541m | -2.4m/s | 2.4°C | 43.1% | 0hPa | 2.7V | 07:11:46 | 03:54:33 | 00:00:00 | |
| IW2NTF | 2026-09-06 02:28:21 | 45.05222 | 9.86129 | 131° | 38km/h | 4556m | -2.4m/s | 2.3°C | 43.7% | 0hPa | 2.7V | 07:11:52 | 03:54:27 | 00:00:00 | |
| IW2NTF | 2026-09-06 02:28:15 | 45.05255 | 9.86076 | 137° | 27km/h | 4570m | -2.3m/s | 2.2°C | 44.3% | 0hPa | 2.6V | 07:11:58 | 03:54:21 | 00:00:00 | |
| IW2NTF | 2026-09-06 02:28:09 | 45.05293 | 9.86043 | 154° | 31km/h | 4585m | -2.4m/s | 2.1°C | 44.6% | 0hPa | 2.7V | 07:12:04 | 03:54:15 | 00:00:00 | |
| IW2NTF | 2026-09-06 02:28:04 | 45.05341 | 9.86013 | 156° | 37km/h | 4600m | -2.6m/s | 2°C | 45.1% | 0hPa | 2.7V | 07:12:10 | 03:54:09 | 00:00:00 | |
| IW2NTF | 2026-09-06 02:27:57 | 45.05396 | 9.85978 | 155° | 42km/h | 4616m | -2.8m/s | 1.9°C | 45.8% | 0hPa | 2.7V | 07:12:16 | 03:54:03 | 00:00:00 | |
| IW2NTF | 2026-09-06 02:27:51 | 45.05455 | 9.85938 | 153° | 44km/h | 4631m | -2.5m/s | 1.8°C | 46.2% | 0hPa | 2.7V | 07:12:22 | 03:53:57 | 00:00:00 | |
| IW2NTF | 2026-09-06 02:27:45 | 45.05516 | 9.85894 | 151° | 47km/h | 4646m | -2.6m/s | 1.6°C | 46.7% | 0hPa | 2.7V | 07:12:28 | 03:53:51 | 00:00:00 | |
| IW2NTF | 2026-09-06 02:27:39 | 45.05574 | 9.85836 | 137° | 46km/h | 4660m | -2.2m/s | 1.5°C | 47% | 0hPa | 2.7V | 07:12:34 | 03:53:45 | 00:00:00 | |
| IW2NTF | 2026-09-06 02:27:33 | 45.05618 | 9.85772 | 135° | 37km/h | 4675m | -2.4m/s | 1.5°C | 47.5% | 0hPa | 2.7V | 07:12:40 | 03:53:39 | 00:00:00 | |
| IW2NTF | 2026-09-06 02:27:27 | 45.05659 | 9.85731 | 151° | 33km/h | 4689m | -2.5m/s | 1.4°C | 47.6% | 0hPa | 2.6V | 07:12:46 | 03:53:33 | 00:00:00 | |
| IW2NTF | 2026-09-06 02:27:21 | 45.05712 | 9.85696 | 154° | 44km/h | 4703m | -2.4m/s | 1.3°C | 47.4% | 0hPa | 2.7V | 07:12:52 | 03:53:27 | 00:00:00 | |
| IW2NTF | 2026-09-06 02:27:15 | 45.05775 | 9.85648 | 147° | 49km/h | 4718m | -2.4m/s | 1.4°C | 46.4% | 0hPa | 2.7V | 07:12:58 | 03:53:21 | 00:00:00 | |
| IW2NTF | 2026-09-06 02:27:09 | 45.05836 | 9.85584 | 139° | 49km/h | 4733m | -2.7m/s | 1.3°C | 46.3% | 0hPa | 2.7V | 07:13:04 | 03:53:15 | 00:00:00 | |
| IW2NTF | 2026-09-06 02:27:03 | 45.05890 | 9.85513 | 134° | 47km/h | 4749m | -2.6m/s | 1.3°C | 45.6% | 0hPa | 2.7V | 07:13:10 | 03:53:09 | 00:00:00 | |
| IW2NTF | 2026-09-06 02:26:55 | 45.05946 | 9.85430 | 143° | 35km/h | 4768m | -2.4m/s | 1.3°C | 44.8% | 0hPa | 2.7V | 07:13:18 | 03:53:01 | 00:00:00 | |
| IW2NTF | 2026-09-06 02:26:49 | 45.05998 | 9.85389 | 151° | 46km/h | 4782m | -2.4m/s | 1.4°C | 43.3% | 0hPa | 2.7V | 07:13:24 | 03:52:55 | 00:00:00 | |
| IW2NTF | 2026-09-06 02:26:43 | 45.06061 | 9.85335 | 146° | 51km/h | 4798m | -2.8m/s | 1.4°C | 41.8% | 0hPa | 2.7V | 07:13:30 | 03:52:49 | 00:00:00 | |
| IW2NTF | 2026-09-06 02:26:37 | 45.06123 | 9.85269 | 137° | 51km/h | 4813m | -2.4m/s | 1.4°C | 41% | 0hPa | 2.6V | 07:13:36 | 03:52:43 | 00:00:00 | |
| IW2NTF | 2026-09-06 02:26:31 | 45.06170 | 9.85195 | 130° | 40km/h | 4828m | -2.5m/s | 1.4°C | 40.2% | 0hPa | 2.7V | 07:13:42 | 03:52:37 | 00:00:00 | |
| IW2NTF | 2026-09-06 02:26:25 | 45.06209 | 9.85138 | 140° | 35km/h | 4844m | -2.5m/s | 1.4°C | 39.5% | 0hPa | 2.7V | 07:13:48 | 03:52:31 | 00:00:00 | |
| IW2NTF | 2026-09-06 02:26:19 | 45.06256 | 9.85095 | 151° | 40km/h | 4859m | -2.5m/s | 1.2°C | 39.6% | 0hPa | 2.7V | 07:13:54 | 03:52:25 | 00:00:00 | |
| IW2NTF | 2026-09-06 02:26:13 | 45.06317 | 9.85042 | 142° | 51km/h | 4874m | -2.5m/s | 1.1°C | 39.9% | 0hPa | 2.6V | 07:14:00 | 03:52:19 | 00:00:00 | |
| IW2NTF | 2026-09-06 02:26:07 | 45.06377 | 9.84969 | 137° | 53km/h | 4890m | -2.7m/s | 1.1°C | 39.9% | 0hPa | 2.7V | 07:14:06 | 03:52:13 | 00:00:00 | |
| IW2NTF | 2026-09-06 02:25:59 | 45.06449 | 9.84865 | 131° | 49km/h | 4912m | -2.8m/s | 0.9°C | 39.9% | 0hPa | 2.7V | 07:14:14 | 03:52:05 | 00:00:00 | |
| IW2NTF | 2026-09-06 02:25:53 | 45.06493 | 9.84791 | 132° | 38km/h | 4929m | -2.5m/s | 0.8°C | 40% | 0hPa | 2.7V | 07:14:20 | 03:51:59 | 00:00:00 | |
| IW2NTF | 2026-09-06 02:25:47 | 45.06538 | 9.84741 | 148° | 40km/h | 4944m | -2.6m/s | 0.7°C | 40.3% | 0hPa | 2.7V | 07:14:26 | 03:51:53 | 00:00:00 | |
| IW2NTF | 2026-09-06 02:25:41 | 45.06598 | 9.84689 | 146° | 51km/h | 4960m | -2.7m/s | 0.6°C | 40.1% | 0hPa | 2.6V | 07:14:32 | 03:51:47 | 00:00:00 | |
| IW2NTF | 2026-09-06 02:25:35 | 45.06662 | 9.84622 | 140° | 55km/h | 4977m | -3m/s | 0.6°C | 39.8% | 0hPa | 2.7V | 07:14:38 | 03:51:41 | 00:00:00 | |
| IW2NTF | 2026-09-06 02:25:28 | 45.06730 | 9.84529 | 131° | 53km/h | 4997m | -2.8m/s | 0.6°C | 37.8% | 0hPa | 2.6V | 07:14:45 | 03:51:34 | 00:00:00 | |
| IW2NTF | 2026-09-06 02:25:18 | 45.06802 | 9.84404 | 132° | 38km/h | 5025m | -2.8m/s | 0.5°C | 37.2% | 0hPa | 2.7V | 07:14:55 | 03:51:24 | 00:00:00 | |
| IW2NTF | 2026-09-06 02:25:08 | 45.06887 | 9.84314 | 146° | 49km/h | 5053m | -2.9m/s | 0.3°C | 37.4% | 0hPa | 2.7V | 07:15:05 | 03:51:14 | 00:00:00 | |
| IW2NTF | 2026-09-06 02:24:58 | 45.06990 | 9.84189 | 131° | 53km/h | 5081m | -2.8m/s | 0.2°C | 36.9% | 0hPa | 2.6V | 07:15:15 | 03:51:04 | 00:00:00 | |
| IW2NTF | 2026-09-06 02:24:48 | 45.07061 | 9.84071 | 136° | 38km/h | 5109m | -3m/s | -0°C | 37.1% | 0hPa | 2.7V | 07:15:25 | 03:50:54 | 00:00:00 | |
| IW2NTF | 2026-09-06 02:24:38 | 45.07147 | 9.83989 | 148° | 47km/h | 5138m | -2.9m/s | -0.2°C | 36.7% | 0hPa | 2.7V | 07:15:35 | 03:50:44 | 00:00:00 | |
| IW2NTF | 2026-09-06 02:24:28 | 45.07246 | 9.83865 | 130° | 51km/h | 5166m | -2.9m/s | -0.5°C | 36.8% | 0hPa | 2.6V | 07:15:45 | 03:50:34 | 00:00:00 | |
| IW2NTF | 2026-09-06 02:24:18 | 45.07319 | 9.83735 | 129° | 40km/h | 5195m | -2.9m/s | -0.7°C | 34.7% | 0hPa | 2.7V | 07:15:55 | 03:50:24 | 00:00:00 | |
| IW2NTF | 2026-09-06 02:24:08 | 45.07389 | 9.83645 | 147° | 40km/h | 5222m | -2.9m/s | -0.9°C | 36.3% | 0hPa | 2.7V | 07:16:05 | 03:50:14 | 00:00:00 | |
| IW2NTF | 2026-09-06 02:23:58 | 45.07491 | 9.83538 | 135° | 55km/h | 5250m | -2.8m/s | -1.1°C | 37.1% | 0hPa | 2.6V | 07:16:15 | 03:50:04 | 00:00:00 | |
| IW2NTF | 2026-09-06 02:23:48 | 45.07567 | 9.83410 | 133° | 38km/h | 5277m | -2.6m/s | -1.3°C | 36.2% | 0hPa | 2.7V | 07:16:25 | 03:49:54 | 00:00:00 | |
| IW2NTF | 2026-09-06 02:23:38 | 45.07654 | 9.83324 | 146° | 49km/h | 5304m | -2.8m/s | -1.5°C | 35.3% | 0hPa | 2.7V | 07:16:35 | 03:49:44 | 00:00:00 | |
| IW2NTF | 2026-09-06 02:23:28 | 45.07749 | 9.83199 | 126° | 47km/h | 5332m | -2.8m/s | -1.6°C | 37.1% | 0hPa | 2.7V | 07:16:45 | 03:49:34 | 00:00:00 | |
| IW2NTF | 2026-09-06 02:23:18 | 45.07815 | 9.83082 | 139° | 37km/h | 5358m | -2.6m/s | -1.7°C | 36.8% | 0hPa | 2.7V | 07:16:55 | 03:49:24 | 00:00:00 | |
| IW2NTF | 2026-09-06 02:23:08 | 45.07906 | 9.82994 | 143° | 51km/h | 5384m | -2.7m/s | -1.8°C | 35.1% | 0hPa | 2.6V | 07:17:05 | 03:49:14 | 00:00:00 | |
| IW2NTF | 2026-09-06 02:22:58 | 45.07999 | 9.82863 | 127° | 49km/h | 5411m | -2.7m/s | -1.8°C | 34.1% | 0hPa | 2.7V | 07:17:15 | 03:49:04 | 00:00:00 | |
| IW2NTF | 2026-09-06 02:22:48 | 45.08062 | 9.82742 | 133° | 37km/h | 5437m | -2.6m/s | -1.9°C | 34% | 0hPa | 2.6V | 07:17:25 | 03:48:54 | 00:00:00 | |
| IW2NTF | 2026-09-06 02:22:38 | 45.08144 | 9.82660 | 146° | 47km/h | 5464m | -2.6m/s | -2.1°C | 33.9% | 0hPa | 2.7V | 07:17:35 | 03:48:44 | 00:00:00 | |
| IW2NTF | 2026-09-06 02:22:28 | 45.08244 | 9.82542 | 132° | 51km/h | 5490m | -2.6m/s | -2.3°C | 33.8% | 0hPa | 2.7V | 07:17:45 | 03:48:34 | 00:00:00 | |
| IW2NTF | 2026-09-06 02:22:18 | 45.08323 | 9.82405 | 126° | 42km/h | 5517m | -2.6m/s | -2.4°C | 33.1% | 0hPa | 2.7V | 07:17:55 | 03:48:24 | 00:00:00 | |
| IW2NTF | 2026-09-06 02:22:08 | 45.08397 | 9.82314 | 148° | 42km/h | 5543m | -2.7m/s | -2.6°C | 33.8% | 0hPa | 2.7V | 07:18:05 | 03:48:14 | 00:00:00 | |
| IW2NTF | 2026-09-06 02:21:58 | 45.08500 | 9.82211 | 137° | 55km/h | 5570m | -2.6m/s | -2.9°C | 34.3% | 0hPa | 2.7V | 07:18:15 | 03:48:04 | 00:00:00 | |
| IW2NTF | 2026-09-06 02:21:48 | 45.08586 | 9.82074 | 127° | 44km/h | 5597m | -2.6m/s | -3.1°C | 34.5% | 0hPa | 2.7V | 07:18:25 | 03:47:54 | 00:00:00 | |
| IW2NTF | 2026-09-06 02:21:38 | 45.08655 | 9.81975 | 144° | 38km/h | 5624m | -2.8m/s | -3.3°C | 34.7% | 0hPa | 2.7V | 07:18:35 | 03:47:44 | 00:00:00 | |
| IW2NTF | 2026-09-06 02:21:28 | 45.08751 | 9.81885 | 141° | 53km/h | 5650m | -2.5m/s | -3.5°C | 34.3% | 0hPa | 2.7V | 07:18:45 | 03:47:34 | 00:00:00 | |
| IW2NTF | 2026-09-06 02:21:18 | 45.08846 | 9.81748 | 127° | 49km/h | 5677m | -2.7m/s | -3.7°C | 35.1% | 0hPa | 2.7V | 07:18:55 | 03:47:24 | 00:00:00 | |
| IW2NTF | 2026-09-06 02:21:06 | 45.08926 | 9.81605 | 140° | 38km/h | 5709m | -2.6m/s | -4°C | 35.7% | 0hPa | 2.6V | 07:19:07 | 03:47:12 | 00:00:00 | |
| IW2NTF | 2026-09-06 02:20:56 | 45.09022 | 9.81501 | 134° | 55km/h | 5735m | -2.6m/s | -4.2°C | 36.2% | 0hPa | 2.7V | 07:19:17 | 03:47:02 | 00:00:00 | |
| IW2NTF | 2026-09-06 02:20:46 | 45.09099 | 9.81355 | 122° | 46km/h | 5762m | -2.8m/s | -4.4°C | 37.2% | 0hPa | 2.7V | 07:19:27 | 03:46:52 | 00:00:00 | |
| IW2NTF | 2026-09-06 02:20:36 | 45.09162 | 9.81247 | 142° | 40km/h | 5788m | -2.6m/s | -4.6°C | 37.2% | 0hPa | 2.7V | 07:19:37 | 03:46:42 | 00:00:00 | |
| IW2NTF | 2026-09-06 02:20:25 | 45.09266 | 9.81112 | 127° | 53km/h | 5817m | -2.5m/s | -4.9°C | 38.7% | 0hPa | 2.7V | 07:19:48 | 03:46:31 | 00:00:00 | |
| IW2NTF | 2026-09-06 02:20:15 | 45.09327 | 9.80973 | 124° | 38km/h | 5844m | -2.8m/s | -5.1°C | 39.2% | 0hPa | 2.6V | 07:19:58 | 03:46:21 | 00:00:00 | |
| IW2NTF | 2026-09-06 02:20:05 | 45.09398 | 9.80875 | 142° | 46km/h | 5870m | -2.8m/s | -5.4°C | 39.7% | 0hPa | 2.7V | 07:20:08 | 03:46:11 | 00:00:00 | |
| IW2NTF | 2026-09-06 02:19:55 | 45.09492 | 9.80750 | 128° | 55km/h | 5896m | -2.6m/s | -5.6°C | 39.9% | 0hPa | 2.7V | 07:20:18 | 03:46:01 | 00:00:00 | |
| IW2NTF | 2026-09-06 02:19:45 | 45.09554 | 9.80611 | 123° | 38km/h | 5923m | -2.6m/s | -5.8°C | 40.4% | 0hPa | 2.6V | 07:20:28 | 03:45:51 | 00:00:00 | |
| IW2NTF | 2026-09-06 02:19:35 | 45.09622 | 9.80514 | 141° | 46km/h | 5949m | -2.6m/s | -6.1°C | 40.8% | 0hPa | 2.7V | 07:20:38 | 03:45:41 | 00:00:00 | |
| IW2NTF | 2026-09-06 02:19:25 | 45.09710 | 9.80378 | 123° | 53km/h | 5975m | -2.6m/s | -6.3°C | 41.4% | 0hPa | 2.6V | 07:20:48 | 03:45:31 | 00:00:00 | |
| IW2NTF | 2026-09-06 02:19:15 | 45.09767 | 9.80234 | 118° | 40km/h | 6001m | -2.6m/s | -6.5°C | 41.3% | 0hPa | 2.7V | 07:20:58 | 03:45:21 | 00:00:00 | |
| IW2NTF | 2026-09-06 02:19:05 | 45.09822 | 9.80129 | 136° | 38km/h | 6027m | -2.6m/s | -6.7°C | 41.3% | 0hPa | 2.7V | 07:21:08 | 03:45:11 | 00:00:00 | |
| IW2NTF | 2026-09-06 02:18:55 | 45.09906 | 9.80028 | 137° | 51km/h | 6054m | -2.7m/s | -6.8°C | 39.5% | 0hPa | 2.6V | 07:21:18 | 03:45:01 | 00:00:00 | |
| IW2NTF | 2026-09-06 02:18:45 | 45.09983 | 9.79886 | 117° | 42km/h | 6081m | -2.6m/s | -6.9°C | 39.2% | 0hPa | 2.7V | 07:21:28 | 03:44:51 | 00:00:00 | |
| IW2NTF | 2026-09-06 02:18:35 | 45.10045 | 9.79782 | 140° | 46km/h | 6107m | -2.5m/s | -7.1°C | 39.8% | 0hPa | 2.7V | 07:21:38 | 03:44:41 | 00:00:00 | |
| IW2NTF | 2026-09-06 02:18:25 | 45.10135 | 9.79650 | 127° | 53km/h | 6134m | -2.5m/s | -7.3°C | 40.4% | 0hPa | 2.6V | 07:21:48 | 03:44:31 | 00:00:00 | |
| IW2NTF | 2026-09-06 02:18:15 | 45.10201 | 9.79497 | 116° | 44km/h | 6161m | -2.8m/s | -7.5°C | 40.9% | 0hPa | 2.6V | 07:21:58 | 03:44:21 | 00:00:00 | |
| IW2NTF | 2026-09-06 02:18:05 | 45.10256 | 9.79383 | 136° | 38km/h | 6188m | -2.6m/s | -7.7°C | 39.6% | 0hPa | 2.7V | 07:22:08 | 03:44:11 | 00:00:00 | |
| IW2NTF | 2026-09-06 02:17:36 | 45.10464 | 9.79027 | 132° | 37km/h | 6266m | -2.8m/s | -8.3°C | 40.3% | 0hPa | 2.7V | 07:22:37 | 03:43:42 | 00:00:00 | |
| IW2NTF | 2026-09-06 02:17:26 | 45.10543 | 9.78933 | 140° | 47km/h | 6294m | -2.7m/s | -8.5°C | 40.4% | 0hPa | 2.7V | 07:22:47 | 03:43:32 | 00:00:00 | |
| IW2NTF | 2026-09-06 02:17:16 | 45.10629 | 9.78794 | 121° | 51km/h | 6322m | -2.8m/s | -8.6°C | 40.2% | 0hPa | 2.6V | 07:22:57 | 03:43:22 | 00:00:00 | |
| IW2NTF | 2026-09-06 02:16:42 | 45.10861 | 9.78351 | 115° | 44km/h | 6418m | -2.9m/s | -9.4°C | 40.9% | 0hPa | 2.5V | 07:23:31 | 03:42:48 | 00:00:00 | |
| IW2NTF | 2026-09-06 02:16:31 | 45.10922 | 9.78227 | 138° | 42km/h | 6449m | -2.7m/s | -9.7°C | 41.5% | 0hPa | 2.5V | 07:23:42 | 03:42:37 | 00:00:00 | |
| IW2NTF | 2026-09-06 02:15:01 | 45.11560 | 9.77020 | 135° | 53km/h | 6705m | -2.9m/s | -12°C | 47.8% | 0hPa | 2.6V | 07:25:12 | 03:41:07 | 00:00:00 | |
| IW2NTF | 2026-09-06 02:14:51 | 45.11646 | 9.76861 | 117° | 55km/h | 6735m | -2.8m/s | -12.2°C | 48.6% | 0hPa | 2.6V | 07:25:22 | 03:40:57 | 00:00:00 | |
| IW2NTF | 2026-09-06 02:14:41 | 45.11698 | 9.76718 | 128° | 40km/h | 6764m | -2.9m/s | -12.5°C | 49.3% | 0hPa | 2.6V | 07:25:32 | 03:40:47 | 00:00:00 | |
| IW2NTF | 2026-09-06 02:14:31 | 45.11781 | 9.76596 | 130° | 57km/h | 6793m | -3m/s | -12.8°C | 48.8% | 0hPa | 2.5V | 07:25:42 | 03:40:37 | 00:00:00 | |
| IW2NTF | 2026-09-06 02:14:21 | 45.11857 | 9.76426 | 115° | 53km/h | 6822m | -3.1m/s | -12.9°C | 47.7% | 0hPa | 2.5V | 07:25:52 | 03:40:27 | 00:00:00 | |
| IW2NTF | 2026-09-06 02:14:11 | 45.11906 | 9.76281 | 126° | 38km/h | 6852m | -2.9m/s | -13.1°C | 46.4% | 0hPa | 2.6V | 07:26:02 | 03:40:17 | 00:00:00 | |
| IW2NTF | 2026-09-06 02:14:01 | 45.11988 | 9.76157 | 129° | 57km/h | 6882m | -2.9m/s | -13.3°C | 46% | 0hPa | 2.6V | 07:26:12 | 03:40:07 | 00:00:00 | |
| IW2NTF | 2026-09-06 02:13:49 | 45.12064 | 9.75960 | 117° | 40km/h | 6917m | -2.9m/s | -13.7°C | 46.8% | 0hPa | 2.5V | 07:26:24 | 03:39:55 | 00:00:00 | |
| IW2NTF | 2026-09-06 02:13:39 | 45.12132 | 9.75843 | 133° | 53km/h | 6947m | -2.8m/s | -13.9°C | 47.5% | 0hPa | 2.5V | 07:26:34 | 03:39:45 | 00:00:00 | |
| IW2NTF | 2026-09-06 02:13:29 | 45.12214 | 9.75676 | 117° | 57km/h | 6977m | -3.2m/s | -14.2°C | 47.8% | 0hPa | 2.5V | 07:26:44 | 03:39:35 | 00:00:00 | |
| IW2NTF | 2026-09-06 02:13:19 | 45.12263 | 9.75513 | 116° | 40km/h | 7007m | -3m/s | -14.4°C | 47.9% | 0hPa | 2.5V | 07:26:54 | 03:39:25 | 00:00:00 | |
| IW2NTF | 2026-09-06 02:13:09 | 45.12338 | 9.75387 | 129° | 55km/h | 7036m | -2.9m/s | -14.7°C | 48.3% | 0hPa | 2.5V | 07:27:04 | 03:39:15 | 00:00:00 | |
| IW2NTF | 2026-09-06 02:12:59 | 45.12410 | 9.75211 | 111° | 51km/h | 7066m | -2.8m/s | -14.9°C | 48.6% | 0hPa | 2.5V | 07:27:14 | 03:39:05 | 00:00:00 | |
| IW2NTF | 2026-09-06 02:12:47 | 45.12466 | 9.75041 | 124° | 38km/h | 7101m | -3.1m/s | -15.2°C | 49.7% | 0hPa | 2.6V | 07:27:26 | 03:38:53 | 00:00:00 | |
| IW2NTF | 2026-09-06 02:12:37 | 45.12539 | 9.74921 | 131° | 55km/h | 7132m | -2.8m/s | -15.5°C | 49.7% | 0hPa | 2.5V | 07:27:36 | 03:38:43 | 00:00:00 | |
| IW2NTF | 2026-09-06 02:12:27 | 45.12609 | 9.74751 | 112° | 51km/h | 7160m | -3m/s | -15.7°C | 49.2% | 0hPa | 2.5V | 07:27:46 | 03:38:33 | 00:00:00 | |
| IW2NTF | 2026-09-06 02:12:17 | 45.12657 | 9.74617 | 125° | 38km/h | 7188m | -2.7m/s | -15.9°C | 49.5% | 0hPa | 2.6V | 07:27:56 | 03:38:23 | 00:00:00 | |
| IW2NTF | 2026-09-06 02:12:07 | 45.12727 | 9.74508 | 137° | 47km/h | 7217m | -2.8m/s | -16.2°C | 49.8% | 0hPa | 2.5V | 07:28:06 | 03:38:13 | 00:00:00 | |
| IW2NTF | 2026-09-06 02:11:57 | 45.12822 | 9.74371 | 131° | 58km/h | 7248m | -3m/s | -16.4°C | 49.1% | 0hPa | 2.5V | 07:28:16 | 03:38:03 | 00:00:00 | |
| IW2NTF | 2026-09-06 02:11:47 | 45.12899 | 9.74203 | 116° | 47km/h | 7277m | -2.8m/s | -16.6°C | 48.8% | 0hPa | 2.6V | 07:28:26 | 03:37:53 | 00:00:00 | |
| IW2NTF | 2026-09-06 02:11:37 | 45.12963 | 9.74084 | 138° | 44km/h | 7306m | -3.3m/s | -16.8°C | 47.7% | 0hPa | 2.5V | 07:28:36 | 03:37:43 | 00:00:00 | |
| IW2NTF | 2026-09-06 02:11:27 | 45.13061 | 9.73959 | 133° | 58km/h | 7337m | -3.1m/s | -17°C | 46.2% | 0hPa | 2.6V | 07:28:46 | 03:37:33 | 00:00:00 | |
| IW2NTF | 2026-09-06 02:11:17 | 45.13146 | 9.73793 | 117° | 51km/h | 7368m | -3.2m/s | -17.1°C | 44.5% | 0hPa | 2.5V | 07:28:56 | 03:37:23 | 00:00:00 | |
| IW2NTF | 2026-09-06 02:11:07 | 45.13210 | 9.73667 | 139° | 47km/h | 7398m | -2.9m/s | -17.4°C | 45% | 0hPa | 2.6V | 07:29:06 | 03:37:13 | 00:00:00 | |
| IW2NTF | 2026-09-06 02:10:57 | 45.13305 | 9.73521 | 126° | 60km/h | 7430m | -3.1m/s | -17.7°C | 45.7% | 0hPa | 2.6V | 07:29:16 | 03:37:03 | 00:00:00 | |
| IW2NTF | 2026-09-06 02:10:47 | 45.13377 | 9.73346 | 113° | 51km/h | 7461m | -3.1m/s | -17.9°C | 45% | 0hPa | 2.5V | 07:29:26 | 03:36:53 | 00:00:00 | |
| IW2NTF | 2026-09-06 02:10:37 | 45.13434 | 9.73214 | 134° | 47km/h | 7492m | -3m/s | -18.2°C | 45.6% | 0hPa | 2.6V | 07:29:36 | 03:36:43 | 00:00:00 | |
| IW2NTF | 2026-09-06 02:10:27 | 45.13527 | 9.73063 | 124° | 60km/h | 7524m | -3.4m/s | -18.4°C | 45.8% | 0hPa | 2.6V | 07:29:46 | 03:36:33 | 00:00:00 | |
| IW2NTF | 2026-09-06 02:10:17 | 45.13586 | 9.72892 | 115° | 42km/h | 7554m | -3m/s | -18.6°C | 45% | 0hPa | 2.5V | 07:29:56 | 03:36:23 | 00:00:00 | |
| IW2NTF | 2026-09-06 02:10:07 | 45.13651 | 9.72769 | 133° | 51km/h | 7586m | -3m/s | -18.9°C | 43.9% | 0hPa | 2.6V | 07:30:06 | 03:36:13 | 00:00:00 | |
| IW2NTF | 2026-09-06 02:09:57 | 45.13737 | 9.72603 | 118° | 58km/h | 7616m | -3.2m/s | -19.1°C | 43.9% | 0hPa | 2.6V | 07:30:16 | 03:36:03 | 00:00:00 | |
| IW2NTF | 2026-09-06 02:09:47 | 45.13790 | 9.72423 | 109° | 47km/h | 7649m | -3.2m/s | -19.3°C | 42.7% | 0hPa | 2.5V | 07:30:26 | 03:35:53 | 00:00:00 | |
| IW2NTF | 2026-09-06 02:09:37 | 45.13844 | 9.72290 | 131° | 49km/h | 7680m | -3.1m/s | -19.5°C | 42.2% | 0hPa | 2.6V | 07:30:36 | 03:35:43 | 00:00:00 | |
| IW2NTF | 2026-09-06 02:09:27 | 45.13921 | 9.72114 | 110° | 55km/h | 7711m | -3.1m/s | -19.7°C | 39% | 0hPa | 2.6V | 07:30:46 | 03:35:33 | 00:00:00 | |
| IW2NTF | 2026-09-06 02:09:17 | 45.13972 | 9.71971 | 127° | 44km/h | 7741m | -3.1m/s | -19.9°C | 39.2% | 0hPa | 2.6V | 07:30:56 | 03:35:23 | 00:00:00 | |
| IW2NTF | 2026-09-06 02:09:07 | 45.14051 | 9.71828 | 121° | 60km/h | 7773m | -3m/s | -20.1°C | 38.2% | 0hPa | 2.5V | 07:31:06 | 03:35:13 | 00:00:00 | |
| IW2NTF | 2026-09-06 02:08:57 | 45.14106 | 9.71646 | 108° | 51km/h | 7803m | -3.1m/s | -20.4°C | 36.3% | 0hPa | 2.5V | 07:31:16 | 03:35:03 | 00:00:00 | |
| IW2NTF | 2026-09-06 02:08:47 | 45.14148 | 9.71492 | 120° | 40km/h | 7835m | -3.1m/s | -20.6°C | 36.2% | 0hPa | 2.6V | 07:31:26 | 03:34:53 | 00:00:00 | |
| IW2NTF | 2026-09-06 02:08:37 | 45.14217 | 9.71371 | 132° | 51km/h | 7865m | -3.3m/s | -20.8°C | 37.4% | 0hPa | 2.6V | 07:31:36 | 03:34:43 | 00:00:00 | |
| IW2NTF | 2026-09-06 02:08:28 | 45.14300 | 9.71206 | 115° | 57km/h | 7897m | -2.9m/s | -21°C | 42.1% | 0hPa | 2.6V | 07:31:46 | 03:34:33 | 00:00:00 | |
| IW2NTF | 2026-09-06 02:08:17 | 45.14347 | 9.71055 | 120° | 38km/h | 7928m | -3.2m/s | -21.3°C | 41.9% | 0hPa | 2.5V | 07:31:56 | 03:34:23 | 00:00:00 | |
| IW2NTF | 2026-09-06 02:08:07 | 45.14414 | 9.70944 | 137° | 46km/h | 7960m | -3.4m/s | -21.4°C | 33.8% | 0hPa | 2.6V | 07:32:06 | 03:34:13 | 00:00:00 | |
| IW2NTF | 2026-09-06 02:07:57 | 45.14501 | 9.70793 | 117° | 57km/h | 7991m | -3.1m/s | -21.6°C | 32.8% | 0hPa | 2.5V | 07:32:16 | 03:34:03 | 00:00:00 | |
| IW2NTF | 2026-09-06 02:07:47 | 45.14553 | 9.70633 | 118° | 40km/h | 8024m | -3.1m/s | -21.9°C | 34.1% | 0hPa | 2.5V | 07:32:26 | 03:33:53 | 00:00:00 | |
| IW2NTF | 2026-09-06 02:07:37 | 45.14628 | 9.70521 | 136° | 53km/h | 8056m | -3.2m/s | -22.2°C | 35.2% | 0hPa | 2.6V | 07:32:36 | 03:33:43 | 00:00:00 | |
| IW2NTF | 2026-09-06 02:07:27 | 45.14709 | 9.70358 | 115° | 53km/h | 8088m | -3m/s | -22.5°C | 35.6% | 0hPa | 2.5V | 07:32:46 | 03:33:33 | 00:00:00 | |
| IW2NTF | 2026-09-06 02:07:17 | 45.14759 | 9.70216 | 121° | 38km/h | 8120m | -3.3m/s | -22.7°C | 32.8% | 0hPa | 2.5V | 07:32:56 | 03:33:23 | 00:00:00 | |
| IW2NTF | 2026-09-06 02:07:07 | 45.14829 | 9.70114 | 140° | 47km/h | 8153m | -3.1m/s | -22.9°C | 29% | 0hPa | 2.5V | 07:33:06 | 03:33:13 | 00:00:00 | |
| IW2NTF | 2026-09-06 02:06:57 | 45.14904 | 9.69966 | 114° | 47km/h | 8183m | -3.2m/s | -23°C | 26.7% | 0hPa | 2.6V | 07:33:16 | 03:33:03 | 00:00:00 | |
| IW2NTF | 2026-09-06 02:06:47 | 45.14949 | 9.69840 | 129° | 33km/h | 8215m | -3.2m/s | -23.3°C | 30.5% | 0hPa | 2.6V | 07:33:26 | 03:32:53 | 00:00:00 | |
| IW2NTF | 2026-09-06 02:06:37 | 45.15028 | 9.69741 | 135° | 51km/h | 8248m | -3.3m/s | -23.5°C | 31.8% | 0hPa | 2.6V | 07:33:36 | 03:32:43 | 00:00:00 | |
| IW2NTF | 2026-09-06 02:06:27 | 45.15096 | 9.69592 | 113° | 42km/h | 8279m | -3.3m/s | -23.6°C | 30.5% | 0hPa | 2.5V | 07:33:46 | 03:32:33 | 00:00:00 | |
| IW2NTF | 2026-09-06 02:06:17 | 45.15154 | 9.69491 | 141° | 44km/h | 8311m | -3m/s | -23.9°C | 27.9% | 0hPa | 2.5V | 07:33:56 | 03:32:23 | 00:00:00 | |
| IW2NTF | 2026-09-06 02:06:08 | 45.15247 | 9.69364 | 130° | 57km/h | 8343m | -3.4m/s | -24.2°C | 25.1% | 0hPa | 2.6V | 07:34:06 | 03:32:13 | 00:00:00 | |
| IW2NTF | 2026-09-06 02:05:57 | 45.15319 | 9.69199 | 113° | 49km/h | 8376m | -3.1m/s | -24.5°C | 24.7% | 0hPa | 2.6V | 07:34:16 | 03:32:03 | 00:00:00 | |
| IW2NTF | 2026-09-06 02:05:47 | 45.15372 | 9.69075 | 137° | 42km/h | 8408m | -3.1m/s | -24.7°C | 22.5% | 0hPa | 2.5V | 07:34:26 | 03:31:53 | 00:00:00 | |
| IW2NTF | 2026-09-06 02:05:37 | 45.15462 | 9.68939 | 125° | 58km/h | 8440m | -3.3m/s | -24.9°C | 22.3% | 0hPa | 2.6V | 07:34:36 | 03:31:43 | 00:00:00 | |
| IW2NTF | 2026-09-06 02:05:28 | 45.15541 | 9.68760 | 120° | 60km/h | 8473m | -3.4m/s | -25.2°C | 22.9% | 0hPa | 2.6V | 07:34:46 | 03:31:33 | 00:00:00 | |
| IW2NTF | 2026-09-06 02:05:17 | 45.15600 | 9.68577 | 109° | 49km/h | 8506m | -3.2m/s | -25.4°C | 22.3% | 0hPa | 2.5V | 07:34:56 | 03:31:23 | 00:00:00 | |
| IW2NTF | 2026-09-06 02:05:07 | 45.15661 | 9.68440 | 131° | 55km/h | 8538m | -3.2m/s | -25.6°C | 22.8% | 0hPa | 2.6V | 07:35:06 | 03:31:13 | 00:00:00 | |
| IW2NTF | 2026-09-06 02:04:57 | 45.15741 | 9.68260 | 112° | 58km/h | 8570m | -3.3m/s | -25.9°C | 23.3% | 0hPa | 2.6V | 07:35:16 | 03:31:03 | 00:00:00 | |
| IW2NTF | 2026-09-06 02:04:47 | 45.15786 | 9.68097 | 117° | 42km/h | 8602m | -3.3m/s | -26.1°C | 22% | 0hPa | 2.5V | 07:35:26 | 03:30:53 | 00:00:00 | |
| IW2NTF | 2026-09-06 02:04:37 | 45.15858 | 9.67964 | 129° | 58km/h | 8635m | -3.2m/s | -26.4°C | 20.8% | 0hPa | 2.6V | 07:35:36 | 03:30:43 | 00:00:00 | |
| IW2NTF | 2026-09-06 02:04:27 | 45.15936 | 9.67778 | 110° | 57km/h | 8669m | -3.3m/s | -26.6°C | 20.3% | 0hPa | 2.6V | 07:35:46 | 03:30:33 | 00:00:00 | |
| IW2NTF | 2026-09-06 02:04:17 | 45.15978 | 9.67621 | 118° | 40km/h | 8702m | -3.5m/s | -26.9°C | 20% | 0hPa | 2.4V | 07:35:56 | 03:30:23 | 00:00:00 | |
| IW2NTF | 2026-09-06 02:04:07 | 45.16054 | 9.67486 | 125° | 60km/h | 8736m | -3.1m/s | -27.1°C | 20.3% | 0hPa | 2.5V | 07:36:06 | 03:30:13 | 00:00:00 | |
| IW2NTF | 2026-09-06 02:03:57 | 45.16114 | 9.67300 | 108° | 49km/h | 8770m | -3.3m/s | -27.4°C | 20.9% | 0hPa | 2.6V | 07:36:16 | 03:30:03 | 00:00:00 | |
| IW2NTF | 2026-09-06 02:03:47 | 45.16168 | 9.67165 | 131° | 49km/h | 8803m | -3.3m/s | -27.7°C | 20.8% | 0hPa | 2.5V | 07:36:26 | 03:29:53 | 00:00:00 | |
| IW2NTF | 2026-09-06 02:03:37 | 45.16259 | 9.67016 | 125° | 62km/h | 8837m | -3.5m/s | -28°C | 20.4% | 0hPa | 2.6V | 07:36:36 | 03:29:43 | 00:00:00 | |
| IW2NTF | 2026-09-06 02:03:27 | 45.16315 | 9.66834 | 108° | 44km/h | 8870m | -3.2m/s | -28.2°C | 20.3% | 0hPa | 2.4V | 07:36:46 | 03:29:33 | 00:00:00 | |
| IW2NTF | 2026-09-06 02:03:17 | 45.16375 | 9.66703 | 130° | 57km/h | 8904m | -3.4m/s | -28.6°C | 20.7% | 0hPa | 2.4V | 07:36:56 | 03:29:23 | 00:00:00 | |
| IW2NTF | 2026-09-06 02:03:07 | 45.16444 | 9.66526 | 107° | 46km/h | 8936m | -3.4m/s | -28.9°C | 21.9% | 0hPa | 2.4V | 07:37:06 | 03:29:13 | 00:00:00 | |
| IW2NTF | 2026-09-06 02:02:57 | 45.16496 | 9.66401 | 130° | 47km/h | 8970m | -3.3m/s | -29.1°C | 23.1% | 0hPa | 2.6V | 07:37:16 | 03:29:03 | 00:00:00 | |
| IW2NTF | 2026-09-06 02:02:47 | 45.16567 | 9.66232 | 113° | 57km/h | 9003m | -3.4m/s | -29.4°C | 23.4% | 0hPa | 2.6V | 07:37:26 | 03:28:53 | 00:00:00 | |
| IW2NTF | 2026-09-06 02:02:37 | 45.16616 | 9.66044 | 103° | 51km/h | 9037m | -3.3m/s | -29.6°C | 21.5% | 0hPa | 2.6V | 07:37:36 | 03:28:43 | 00:00:00 | |
| IW2NTF | 2026-09-06 02:02:27 | 45.16645 | 9.65902 | 122° | 38km/h | 9070m | -3.2m/s | -29.7°C | 19.6% | 0hPa | 2.4V | 07:37:46 | 03:28:33 | 00:00:00 | |
| IW2NTF | 2026-09-06 02:02:17 | 45.16714 | 9.65759 | 117° | 57km/h | 9102m | -3.4m/s | -29.9°C | 19.1% | 0hPa | 2.6V | 07:37:56 | 03:28:23 | 00:00:00 | |
| IW2NTF | 2026-09-06 02:02:07 | 45.16768 | 9.65567 | 103° | 55km/h | 9136m | -3.5m/s | -30.1°C | 18% | 0hPa | 2.4V | 07:38:06 | 03:28:13 | 00:00:00 | |
| IW2NTF | 2026-09-06 02:01:56 | 45.16796 | 9.65399 | 117° | 37km/h | 9173m | -3.5m/s | -30.4°C | 17.8% | 0hPa | 2.6V | 07:38:17 | 03:28:02 | 00:00:00 | |
| IW2NTF | 2026-09-06 02:01:46 | 45.16858 | 9.65248 | 112° | 58km/h | 9206m | -3.3m/s | -30.7°C | 18.3% | 0hPa | 2.4V | 07:38:27 | 03:27:52 | 00:00:00 | |
| IW2NTF | 2026-09-06 02:01:36 | 45.16892 | 9.65058 | 97° | 46km/h | 9239m | -3.2m/s | -31°C | 18.8% | 0hPa | 2.4V | 07:38:37 | 03:27:42 | 00:00:00 | |
| IW2NTF | 2026-09-06 02:01:24 | 45.16925 | 9.64901 | 122° | 38km/h | 9280m | -3.5m/s | -31.3°C | 18.6% | 0hPa | 2.4V | 07:38:49 | 03:27:30 | 00:00:00 | |
| IW2NTF | 2026-09-06 02:01:14 | 45.16987 | 9.64739 | 109° | 57km/h | 9313m | -3.4m/s | -31.6°C | 18.5% | 0hPa | 2.4V | 07:38:59 | 03:27:20 | 00:00:00 | |
| IW2NTF | 2026-09-06 02:01:04 | 45.17011 | 9.64577 | 104° | 33km/h | 9347m | -3.5m/s | -31.8°C | 18.2% | 0hPa | 2.4V | 07:39:09 | 03:27:10 | 00:00:00 | |
| IW2NTF | 2026-09-06 02:00:54 | 45.17059 | 9.64458 | 123° | 49km/h | 9381m | -3.2m/s | -32.1°C | 18.4% | 0hPa | 2.5V | 07:39:19 | 03:27:00 | 00:00:00 | |
| IW2NTF | 2026-09-06 02:00:44 | 45.17107 | 9.64282 | 100° | 51km/h | 9414m | -3.5m/s | -32.4°C | 18.5% | 0hPa | 2.4V | 07:39:29 | 03:26:50 | 00:00:00 | |
| IW2NTF | 2026-09-06 02:00:34 | 45.17126 | 9.64141 | 119° | 35km/h | 9448m | -3.2m/s | -32.7°C | 19% | 0hPa | 2.4V | 07:39:39 | 03:26:40 | 00:00:00 | |
| IW2NTF | 2026-09-06 02:00:24 | 45.17187 | 9.64004 | 112° | 55km/h | 9482m | -3.2m/s | -33°C | 19.5% | 0hPa | 2.5V | 07:39:49 | 03:26:30 | 00:00:00 | |
| IW2NTF | 2026-09-06 02:00:14 | 45.17215 | 9.63834 | 96° | 40km/h | 9516m | -3.4m/s | -33.4°C | 19.7% | 0hPa | 2.4V | 07:39:59 | 03:26:20 | 00:00:00 | |
| IW2NTF | 2026-09-06 02:00:04 | 45.17246 | 9.63719 | 126° | 40km/h | 9550m | -3.3m/s | -33.7°C | 19.9% | 0hPa | 2.5V | 07:40:09 | 03:26:10 | 00:00:00 | |
| IW2NTF | 2026-09-06 01:59:54 | 45.17304 | 9.63563 | 106° | 53km/h | 9584m | -3.4m/s | -33.9°C | 19.7% | 0hPa | 2.5V | 07:40:19 | 03:26:00 | 00:00:00 | |
| IW2NTF | 2026-09-06 01:59:44 | 45.17326 | 9.63392 | 94° | 42km/h | 9619m | -3.6m/s | -34.2°C | 20% | 0hPa | 2.4V | 07:40:29 | 03:25:50 | 00:00:00 | |
| IW2NTF | 2026-09-06 01:59:34 | 45.17353 | 9.63272 | 125° | 44km/h | 9653m | -3.3m/s | -34.6°C | 20.9% | 0hPa | 2.5V | 07:40:39 | 03:25:40 | 00:00:00 | |
| IW2NTF | 2026-09-06 01:59:24 | 45.17409 | 9.63103 | 101° | 51km/h | 9690m | -3.4m/s | -34.9°C | 20.9% | 0hPa | 2.4V | 07:40:49 | 03:25:30 | 00:00:00 | |
| IW2NTF | 2026-09-06 01:59:14 | 45.17436 | 9.62969 | 119° | 37km/h | 9723m | -3.6m/s | -35.1°C | 19.9% | 0hPa | 2.5V | 07:40:59 | 03:25:20 | 00:00:00 | |
| IW2NTF | 2026-09-06 01:59:04 | 45.17498 | 9.62841 | 126° | 49km/h | 9758m | -3.7m/s | -35.3°C | 18.5% | 0hPa | 2.4V | 07:41:09 | 03:25:10 | 00:00:00 | |
| IW2NTF | 2026-09-06 01:58:55 | 45.17569 | 9.62668 | 109° | 58km/h | 9794m | -3.6m/s | -35.6°C | 18.2% | 0hPa | 2.5V | 07:41:19 | 03:25:00 | 00:00:00 | |
| IW2NTF | 2026-09-06 01:58:42 | 45.17605 | 9.62479 | 119° | 38km/h | 9837m | -3.5m/s | -36°C | 18.1% | 0hPa | 2.4V | 07:41:31 | 03:24:48 | 00:00:00 | |
| IW2NTF | 2026-09-06 01:58:32 | 45.17675 | 9.62352 | 126° | 55km/h | 9874m | -3.8m/s | -36.3°C | 17.7% | 0hPa | 2.4V | 07:41:41 | 03:24:38 | 00:00:00 | |
| IW2NTF | 2026-09-06 01:58:22 | 45.17728 | 9.62171 | 103° | 44km/h | 9909m | -3.7m/s | -36.6°C | 16.8% | 0hPa | 2.5V | 07:41:51 | 03:24:28 | 00:00:00 | |
| IW2NTF | 2026-09-06 01:58:12 | 45.17767 | 9.62044 | 129° | 44km/h | 9946m | -3.5m/s | -36.9°C | 16.7% | 0hPa | 2.4V | 07:42:01 | 03:24:18 | 00:00:00 | |
| IW2NTF | 2026-09-06 01:58:00 | 45.17854 | 9.61839 | 110° | 58km/h | 9990m | -3.8m/s | -37.3°C | 16.9% | 0hPa | 2.5V | 07:42:13 | 03:24:06 | 00:00:00 | |
| IW2NTF | 2026-09-06 01:57:50 | 45.17884 | 9.61672 | 106° | 40km/h | 10026m | -3.8m/s | -37.6°C | 17.1% | 0hPa | 2.4V | 07:42:23 | 03:23:56 | 00:00:00 | |
| IW2NTF | 2026-09-06 01:57:40 | 45.17937 | 9.61553 | 129° | 49km/h | 10063m | -3.6m/s | -37.9°C | 17.2% | 0hPa | 2.4V | 07:42:33 | 03:23:46 | 00:00:00 | |
| IW2NTF | 2026-09-06 01:57:29 | 45.18015 | 9.61362 | 105° | 53km/h | 10104m | -3.7m/s | -38.3°C | 17.6% | 0hPa | 2.4V | 07:42:44 | 03:23:35 | 00:00:00 | |
| IW2NTF | 2026-09-06 01:57:19 | 45.18046 | 9.61217 | 115° | 37km/h | 10140m | -3.8m/s | -38.6°C | 17.8% | 0hPa | 2.4V | 07:42:54 | 03:23:25 | 00:00:00 | |
| IW2NTF | 2026-09-06 01:57:09 | 45.18103 | 9.61108 | 133° | 46km/h | 10179m | -3.8m/s | -39°C | 17.7% | 0hPa | 2.4V | 07:43:04 | 03:23:15 | 00:00:00 | |
| IW2NTF | 2026-09-06 01:57:00 | 45.18177 | 9.60949 | 108° | 53km/h | 10217m | -3.8m/s | -39.3°C | 18% | 0hPa | 2.4V | 07:43:14 | 03:23:05 | 00:00:00 | |
| IW2NTF | 2026-09-06 01:56:47 | 45.18214 | 9.60786 | 118° | 33km/h | 10264m | -4.1m/s | -39.6°C | 18% | 0hPa | 2.5V | 07:43:26 | 03:22:53 | 00:00:00 | |
| IW2NTF | 2026-09-06 01:56:38 | 45.18284 | 9.60670 | 126° | 53km/h | 10302m | -3.9m/s | -40°C | 17.7% | 0hPa | 2.5V | 07:43:36 | 03:22:43 | 00:00:00 | |
| IW2NTF | 2026-09-06 01:56:27 | 45.18348 | 9.60496 | 108° | 53km/h | 10342m | -4.1m/s | -40.2°C | 16.8% | 0hPa | 2.5V | 07:43:46 | 03:22:33 | 00:00:00 | |
| IW2NTF | 2026-09-06 01:56:17 | 45.18378 | 9.60351 | 114° | 33km/h | 10381m | -4m/s | -40.5°C | 16.2% | 0hPa | 2.4V | 07:43:56 | 03:22:23 | 00:00:00 | |
| IW2NTF | 2026-09-06 01:56:07 | 45.18443 | 9.60229 | 122° | 57km/h | 10421m | -4.1m/s | -40.8°C | 15.7% | 0hPa | 2.4V | 07:44:06 | 03:22:13 | 00:00:00 | |
| IW2NTF | 2026-09-06 01:55:57 | 45.18491 | 9.60054 | 106° | 37km/h | 10460m | -3.8m/s | -41.2°C | 15.9% | 0hPa | 2.5V | 07:44:16 | 03:22:03 | 00:00:00 | |
| IW2NTF | 2026-09-06 01:55:47 | 45.18541 | 9.59943 | 126° | 51km/h | 10499m | -3.5m/s | -41.5°C | 16.4% | 0hPa | 2.5V | 07:44:26 | 03:21:53 | 00:00:00 | |
| IW2NTF | 2026-09-06 01:55:37 | 45.18597 | 9.59764 | 105° | 53km/h | 10537m | -3.8m/s | -41.9°C | 16.5% | 0hPa | 2.4V | 07:44:36 | 03:21:43 | 00:00:00 | |
| IW2NTF | 2026-09-06 01:55:27 | 45.18623 | 9.59615 | 108° | 35km/h | 10575m | -4m/s | -42.2°C | 16.5% | 0hPa | 2.5V | 07:44:46 | 03:21:33 | 00:00:00 | |
| IW2NTF | 2026-09-06 01:55:17 | 45.18678 | 9.59502 | 126° | 49km/h | 10614m | -3.8m/s | -42.5°C | 16.9% | 0hPa | 2.4V | 07:44:56 | 03:21:23 | 00:00:00 | |
| IW2NTF | 2026-09-06 01:55:07 | 45.18744 | 9.59328 | 112° | 57km/h | 10652m | -3.9m/s | -42.9°C | 17.8% | 0hPa | 2.4V | 07:45:06 | 03:21:13 | 00:00:00 | |
| IW2NTF | 2026-09-06 01:54:56 | 45.18773 | 9.59152 | 103° | 35km/h | 10693m | -4m/s | -43.2°C | 17.2% | 0hPa | 2.4V | 07:45:17 | 03:21:02 | 00:00:00 | |
| IW2NTF | 2026-09-06 01:54:45 | 45.18830 | 9.59018 | 117° | 55km/h | 10734m | -3.7m/s | -43.6°C | 18% | 0hPa | 2.4V | 07:45:28 | 03:20:51 | 00:00:00 | |
| IW2NTF | 2026-09-06 01:54:34 | 45.18871 | 9.58813 | 96° | 47km/h | 10774m | -3.8m/s | -43.9°C | 17.5% | 0hPa | 2.5V | 07:45:39 | 03:20:40 | 00:00:00 | |
| IW2NTF | 2026-09-06 01:54:24 | 45.18889 | 9.58682 | 118° | 35km/h | 10810m | -3.5m/s | -44.2°C | 19.3% | 0hPa | 2.4V | 07:45:49 | 03:20:30 | 00:00:00 | |
| IW2NTF | 2026-09-06 01:54:14 | 45.18953 | 9.58542 | 120° | 53km/h | 10847m | -3.8m/s | -44.5°C | 20.2% | 0hPa | 2.4V | 07:45:59 | 03:20:20 | 00:00:00 | |
| IW2NTF | 2026-09-06 01:54:04 | 45.19002 | 9.58351 | 97° | 55km/h | 10884m | -3.6m/s | -44.8°C | 20.4% | 0hPa | 2.4V | 07:46:09 | 03:20:10 | 00:00:00 | |
| IW2NTF | 2026-09-06 01:53:54 | 45.19020 | 9.58207 | 119° | 37km/h | 10919m | -3.4m/s | -45°C | 21.3% | 0hPa | 2.4V | 07:46:19 | 03:20:00 | 00:00:00 | |
| IW2NTF | 2026-09-06 01:53:44 | 45.19083 | 9.58053 | 111° | 58km/h | 10955m | -3.5m/s | -45.2°C | 21.9% | 0hPa | 2.5V | 07:46:29 | 03:19:50 | 00:00:00 | |
| IW2NTF | 2026-09-06 01:53:34 | 45.19105 | 9.57865 | 94° | 42km/h | 10990m | -3.6m/s | -45.5°C | 22.6% | 0hPa | 2.5V | 07:46:39 | 03:19:40 | 00:00:00 | |
| IW2NTF | 2026-09-06 01:53:24 | 45.19139 | 9.57744 | 125° | 42km/h | 11026m | -3.8m/s | -45.8°C | 22.9% | 0hPa | 2.4V | 07:46:49 | 03:19:30 | 00:00:00 | |
| IW2NTF | 2026-09-06 01:53:14 | 45.19199 | 9.57574 | 103° | 58km/h | 11061m | -3.4m/s | -46.1°C | 23.9% | 0hPa | 2.4V | 07:46:59 | 03:19:20 | 00:00:00 | |
| IW2NTF | 2026-09-06 01:53:03 | 45.19220 | 9.57387 | 104° | 38km/h | 11100m | -3.4m/s | -46.5°C | 25% | 0hPa | 2.4V | 07:47:10 | 03:19:09 | 00:00:00 | |
| IW2NTF | 2026-09-06 01:52:53 | 45.19270 | 9.57258 | 124° | 51km/h | 11136m | -3.7m/s | -46.8°C | 25.8% | 0hPa | 2.4V | 07:47:20 | 03:18:59 | 00:00:00 | |
| IW2NTF | 2026-09-06 01:52:43 | 45.19331 | 9.57041 | 99° | 58km/h | 11174m | -3.7m/s | -47.1°C | 27.6% | 0hPa | 2.4V | 07:47:31 | 03:18:48 | 00:00:00 | |
| IW2NTF | 2026-09-06 01:52:32 | 45.19349 | 9.56875 | 108° | 38km/h | 11210m | -3.6m/s | -47.5°C | 28.8% | 0hPa | 2.5V | 07:47:41 | 03:18:38 | 00:00:00 | |
| IW2NTF | 2026-09-06 01:52:22 | 45.19403 | 9.56741 | 123° | 53km/h | 11246m | -3.8m/s | -47.8°C | 29.4% | 0hPa | 2.4V | 07:47:51 | 03:18:28 | 00:00:00 | |
| IW2NTF | 2026-09-06 01:52:12 | 45.19452 | 9.56544 | 94° | 53km/h | 11281m | -3.4m/s | -48.1°C | 29.6% | 0hPa | 2.4V | 07:48:01 | 03:18:18 | 00:00:00 | |
| IW2NTF | 2026-09-06 01:52:02 | 45.19470 | 9.56396 | 115° | 40km/h | 11316m | -3.3m/s | -48.5°C | 30.4% | 0hPa | 2.4V | 07:48:11 | 03:18:08 | 00:00:00 | |
| IW2NTF | 2026-09-06 01:51:52 | 45.19537 | 9.56244 | 122° | 55km/h | 11351m | -4m/s | -48.8°C | 30.1% | 0hPa | 2.5V | 07:48:21 | 03:17:58 | 00:00:00 | |
| IW2NTF | 2026-09-06 01:51:42 | 45.19594 | 9.56043 | 98° | 58km/h | 11388m | -3.6m/s | -49°C | 29.5% | 0hPa | 2.4V | 07:48:31 | 03:17:48 | 00:00:00 | |
| IW2NTF | 2026-09-06 01:51:32 | 45.19622 | 9.55886 | 120° | 44km/h | 11423m | -3.6m/s | -49.3°C | 29.8% | 0hPa | 2.4V | 07:48:41 | 03:17:38 | 00:00:00 | |
| IW2NTF | 2026-09-06 01:51:22 | 45.19695 | 9.55726 | 118° | 62km/h | 11459m | -3.6m/s | -49.6°C | 30% | 0hPa | 2.4V | 07:48:51 | 03:17:28 | 00:00:00 | |
| IW2NTF | 2026-09-06 01:51:12 | 45.19745 | 9.55513 | 98° | 58km/h | 11496m | -3.6m/s | -49.9°C | 30.8% | 0hPa | 2.5V | 07:49:01 | 03:17:18 | 00:00:00 | |
| IW2NTF | 2026-09-06 01:51:02 | 45.19770 | 9.55350 | 117° | 42km/h | 11533m | -3.8m/s | -50.3°C | 31.1% | 0hPa | 2.4V | 07:49:11 | 03:17:08 | 00:00:00 | |
| IW2NTF | 2026-09-06 01:50:52 | 45.19842 | 9.55170 | 109° | 66km/h | 11570m | -3.6m/s | -50.6°C | 31.5% | 0hPa | 2.4V | 07:49:21 | 03:16:58 | 00:00:00 | |
| IW2NTF | 2026-09-06 01:50:42 | 45.19870 | 9.54965 | 100° | 46km/h | 11607m | -3.6m/s | -51°C | 32.6% | 0hPa | 2.5V | 07:49:31 | 03:16:48 | 00:00:00 | |
| IW2NTF | 2026-09-06 01:50:32 | 45.19931 | 9.54814 | 124° | 60km/h | 11644m | -3.9m/s | -51.3°C | 32.7% | 0hPa | 2.4V | 07:49:41 | 03:16:38 | 00:00:00 | |
| IW2NTF | 2026-09-06 01:50:22 | 45.19992 | 9.54599 | 98° | 58km/h | 11681m | -3.8m/s | -51.6°C | 33.4% | 0hPa | 2.4V | 07:49:51 | 03:16:28 | 00:00:00 | |
| IW2NTF | 2026-09-06 01:50:13 | 45.20020 | 9.54437 | 120° | 46km/h | 11717m | -3.7m/s | -52°C | 33.5% | 0hPa | 2.5V | 07:50:01 | 03:16:18 | 00:00:00 | |
| IW2NTF | 2026-09-06 01:50:02 | 45.20092 | 9.54245 | 109° | 68km/h | 11752m | -3.5m/s | -52.3°C | 34.7% | 0hPa | 2.4V | 07:50:11 | 03:16:08 | 00:00:00 | |
| IW2NTF | 2026-09-06 01:49:52 | 45.20123 | 9.54025 | 95° | 55km/h | 11790m | -4m/s | -52.6°C | 33.3% | 0hPa | 2.4V | 07:50:21 | 03:15:58 | 00:00:00 | |
| IW2NTF | 2026-09-06 01:49:42 | 45.20165 | 9.53870 | 122° | 58km/h | 11827m | -3.7m/s | -53°C | 33.9% | 0hPa | 2.5V | 07:50:31 | 03:15:48 | 00:00:00 | |
| IW2NTF | 2026-09-06 01:49:32 | 45.20224 | 9.53663 | 100° | 58km/h | 11864m | -3.8m/s | -53.3°C | 34% | 0hPa | 2.4V | 07:50:41 | 03:15:38 | 00:00:00 | |
| IW2NTF | 2026-09-06 01:49:22 | 45.20247 | 9.53493 | 113° | 38km/h | 11902m | -3.8m/s | -53.5°C | 33.3% | 0hPa | 2.4V | 07:50:51 | 03:15:28 | 00:00:00 | |
| IW2NTF | 2026-09-06 01:49:12 | 45.20316 | 9.53351 | 123° | 60km/h | 11941m | -4m/s | -53.8°C | 32.8% | 0hPa | 2.5V | 07:51:01 | 03:15:18 | 00:00:00 | |
| IW2NTF | 2026-09-06 01:49:02 | 45.20367 | 9.53147 | 97° | 49km/h | 11978m | -3.8m/s | -54.1°C | 34.1% | 0hPa | 2.4V | 07:51:11 | 03:15:08 | 00:00:00 | |
| IW2NTF | 2026-09-06 01:48:52 | 45.20406 | 9.53008 | 126° | 47km/h | 12017m | -3.8m/s | -54.5°C | 36.1% | 0hPa | 2.5V | 07:51:21 | 03:14:58 | 00:00:00 | |
| IW2NTF | 2026-09-06 01:48:42 | 45.20483 | 9.52832 | 110° | 66km/h | 12055m | -3.8m/s | -54.9°C | 39.6% | 0hPa | 2.4V | 07:51:31 | 03:14:48 | 00:00:00 | |
| IW2NTF | 2026-09-06 01:48:32 | 45.20510 | 9.52637 | 99° | 44km/h | 12094m | -4.1m/s | -55.2°C | 42.5% | 0hPa | 2.4V | 07:51:41 | 03:14:38 | 00:00:00 | |
| IW2NTF | 2026-09-06 01:48:22 | 45.20564 | 9.52501 | 127° | 55km/h | 12133m | -3.9m/s | -55.5°C | 44.1% | 0hPa | 2.5V | 07:51:51 | 03:14:28 | 00:00:00 | |
| IW2NTF | 2026-09-06 01:48:12 | 45.20636 | 9.52311 | 106° | 62km/h | 12172m | -4m/s | -55.8°C | 44.8% | 0hPa | 2.4V | 07:52:01 | 03:14:18 | 00:00:00 | |
| IW2NTF | 2026-09-06 01:48:02 | 45.20661 | 9.52120 | 97° | 44km/h | 12211m | -4.1m/s | -56°C | 45.9% | 0hPa | 2.5V | 07:52:11 | 03:14:08 | 00:00:00 | |
| IW2NTF | 2026-09-06 01:47:52 | 45.20707 | 9.51985 | 126° | 53km/h | 12249m | -4.1m/s | -56.3°C | 48.5% | 0hPa | 2.4V | 07:52:21 | 03:13:58 | 00:00:00 | |
| IW2NTF | 2026-09-06 01:47:42 | 45.20769 | 9.51789 | 100° | 60km/h | 12287m | -4m/s | -56.5°C | 48% | 0hPa | 2.4V | 07:52:31 | 03:13:48 | 00:00:00 | |
| IW2NTF | 2026-09-06 01:47:32 | 45.20783 | 9.51609 | 99° | 40km/h | 12327m | -4.1m/s | -56.8°C | 48.8% | 0hPa | 2.4V | 07:52:41 | 03:13:38 | 00:00:00 | |
| IW2NTF | 2026-09-06 01:47:22 | 45.20832 | 9.51473 | 123° | 53km/h | 12367m | -4m/s | -57°C | 50.5% | 0hPa | 2.4V | 07:52:51 | 03:13:28 | 00:00:00 | |
| IW2NTF | 2026-09-06 01:47:12 | 45.20897 | 9.51277 | 103° | 62km/h | 12407m | -4m/s | -57.4°C | 52.2% | 0hPa | 2.5V | 07:53:01 | 03:13:18 | 00:00:00 | |
| IW2NTF | 2026-09-06 01:47:02 | 45.20911 | 9.51100 | 100° | 35km/h | 12448m | -4.4m/s | -57.7°C | 53.6% | 0hPa | 2.4V | 07:53:11 | 03:13:08 | 00:00:00 | |
| IW2NTF | 2026-09-06 01:46:52 | 45.20969 | 9.50960 | 118° | 60km/h | 12490m | -4.4m/s | -58°C | 56.2% | 0hPa | 2.5V | 07:53:21 | 03:12:58 | 00:00:00 | |
| IW2NTF | 2026-09-06 01:46:42 | 45.21002 | 9.50763 | 94° | 44km/h | 12532m | -4.4m/s | -58.4°C | 58.2% | 0hPa | 2.4V | 07:53:31 | 03:12:48 | 00:00:00 | |
| IW2NTF | 2026-09-06 01:46:32 | 45.21023 | 9.50631 | 121° | 38km/h | 12575m | -4.3m/s | -58.7°C | 59.8% | 0hPa | 2.5V | 07:53:41 | 03:12:38 | 00:00:00 | |
| DO3MHA-11 | 2026-09-06 01:46:27 | 45.21023 | 9.50631 | 122° | 55km/h | 12575m | -4.3m/s | -58.7°C | 59.8% | 0hPa | 2.4V | 00:00:00 | 03:12:38 | 00:00:00 | |
| IW2NTF | 2026-09-06 01:46:22 | 45.21094 | 9.50473 | 112° | 62km/h | 12620m | -4.4m/s | -59.1°C | 62.6% | 0hPa | 2.4V | 07:53:51 | 03:12:28 | 00:00:00 | |
| DO3MHA-11 | 2026-09-06 01:46:16 | 45.21100 | 9.50452 | 109° | 44km/h | 12624m | -4.1m/s | -59.1°C | 63.0% | 0hPa | 2.4V | 00:00:00 | 03:12:27 | 00:00:00 | |
| IW2NTF | 2026-09-06 01:46:12 | 45.21114 | 9.50294 | 96° | 37km/h | 12662m | -4.4m/s | -59.5°C | 63.9% | 0hPa | 2.4V | 07:54:01 | 03:12:18 | 00:00:00 | |
| DO3MHA-11 | 2026-09-06 01:46:06 | 45.21115 | 9.50282 | 100° | 42km/h | 12667m | -4.4m/s | -59.5°C | 64.3% | 0hPa | 2.4V | 00:00:00 | 03:12:17 | 00:00:00 | |
| IW2NTF | 2026-09-06 01:46:02 | 45.21161 | 9.50166 | 122° | 57km/h | 12705m | -4.6m/s | -60°C | 64.2% | 0hPa | 2.4V | 07:54:11 | 03:12:08 | 00:00:00 | |
| DO3MHA-11 | 2026-09-06 01:45:56 | 45.21169 | 9.50149 | 123° | 60km/h | 12710m | -4.6m/s | -60.0°C | 64.2% | 0hPa | 2.4V | 00:00:00 | 03:12:07 | 00:00:00 | |
| IW2NTF | 2026-09-06 01:45:52 | 45.21217 | 9.49971 | 96° | 53km/h | 12751m | -4.5m/s | -60.4°C | 65.3% | 0hPa | 2.4V | 07:54:21 | 03:11:58 | 00:00:00 | |
| DO3MHA-11 | 2026-09-06 01:45:46 | 45.21219 | 9.49953 | 97° | 38km/h | 12756m | -4.3m/s | -60.4°C | 65.3% | 0hPa | 2.4V | 00:00:00 | 03:11:57 | 00:00:00 | |
| IW2NTF | 2026-09-06 01:45:42 | 45.21236 | 9.49830 | 114° | 35km/h | 12796m | -4.7m/s | -60.8°C | 63.6% | 0hPa | 2.4V | 07:54:31 | 03:11:48 | 00:00:00 | |
| DO3MHA-11 | 2026-09-06 01:45:36 | 45.21240 | 9.49819 | 119° | 46km/h | 12801m | -4.6m/s | -60.8°C | 63.4% | 0hPa | 2.5V | 07:54:00 | 03:11:47 | 00:00:00 | |
| IW2NTF | 2026-09-06 01:45:32 | 45.21299 | 9.49696 | 116° | 60km/h | 12842m | -4.6m/s | -61.2°C | 65.4% | 0hPa | 2.4V | 07:54:41 | 03:11:38 | 00:00:00 | |
| DO3MHA-11 | 2026-09-06 01:45:26 | 45.21306 | 9.49676 | 115° | 60km/h | 12847m | -4.6m/s | -61.2°C | 65.3% | 0hPa | 2.5V | 00:00:00 | 03:11:37 | 00:00:00 | |
| IW2NTF | 2026-09-06 01:45:22 | 45.21338 | 9.49487 | 93° | 53km/h | 12891m | -5.3m/s | -61.6°C | 62.5% | 0hPa | 2.5V | 07:54:51 | 03:11:28 | 00:00:00 | |
| DO3MHA-11 | 2026-09-06 01:45:16 | 45.21338 | 9.49469 | 94° | 44km/h | 12896m | -5.0m/s | -61.6°C | 62.5% | 0hPa | 2.4V | 00:00:00 | 03:11:27 | 00:00:00 | |
| IW2NTF | 2026-09-06 01:45:12 | 45.21376 | 9.49347 | 120° | 58km/h | 12937m | -4.2m/s | -61.9°C | 62.6% | 0hPa | 2.4V | 07:55:01 | 03:11:18 | 00:00:00 | |
| DB0UT-7 | 2026-09-06 01:45:07 | 45.21376 | 9.49347 | 121° | 55km/h | 12937m | -4.2m/s | -61.9°C | 62.6% | 0hPa | 2.4V | 00:00:00 | 00:00:00 | 00:00:00 | |
| DO3MHA-11 | 2026-09-06 01:45:06 | 45.21383 | 9.49329 | 118° | 64km/h | 12942m | -4.7m/s | -61.9°C | 61.9% | 0hPa | 2.4V | 00:00:00 | 03:11:17 | 00:00:00 | |
| IW2NTF | 2026-09-06 01:45:01 | 45.21423 | 9.49112 | 90° | 58km/h | 12992m | -5.1m/s | -62.2°C | 60.2% | 0hPa | 2.5V | 07:55:12 | 03:11:07 | 00:00:00 | |
| DO3MHA-11 | 2026-09-06 01:44:56 | 45.21423 | 9.49112 | 91° | 44km/h | 12992m | -5.0m/s | -62.1°C | 60.2% | 0hPa | 2.4V | 00:00:00 | 03:11:07 | 00:00:00 | |
| IW2NTF | 2026-09-06 01:44:51 | 45.21437 | 9.48961 | 119° | 46km/h | 13040m | -4.4m/s | -62.7°C | 64.4% | 0hPa | 2.4V | 07:55:22 | 03:10:57 | 00:00:00 | |
| DO3MHA-11 | 2026-09-06 01:44:46 | 45.21437 | 9.48961 | 120° | 60km/h | 13041m | -4.4m/s | -62.7°C | 64.4% | 0hPa | 2.4V | 00:00:00 | 03:10:57 | 00:00:00 | |
| IW2NTF | 2026-09-06 01:44:41 | 45.21487 | 9.48757 | 97° | 68km/h | 13088m | -5.2m/s | -63.1°C | 64.3% | 0hPa | 2.4V | 07:55:32 | 03:10:47 | 00:00:00 | |
| DB0UT-7 | 2026-09-06 01:44:37 | 45.21484 | 9.48781 | 100° | 55km/h | 13083m | -4.8m/s | -63.0°C | 64.5% | 0hPa | 2.4V | 00:00:00 | 03:10:48 | 00:00:00 | |
| DO3MHA-11 | 2026-09-06 01:44:36 | 45.21487 | 9.48757 | 98° | 58km/h | 13088m | -5.2m/s | -63.0°C | 64.3% | 0hPa | 2.4V | 00:00:00 | 03:10:47 | 00:00:00 | |
| IW2NTF | 2026-09-06 01:44:31 | 45.21483 | 9.48551 | 85° | 40km/h | 13138m | -5m/s | -63.6°C | 65.3% | 0hPa | 2.4V | 07:55:42 | 03:10:37 | 00:00:00 | |
| DO3MHA-11 | 2026-09-06 01:44:26 | 45.21483 | 9.48551 | 86° | 47km/h | 13138m | -5.0m/s | -63.5°C | 65.3% | 0hPa | 2.4V | 00:00:00 | 03:10:37 | 00:00:00 | |
| IW2NTF | 2026-09-06 01:44:21 | 45.21515 | 9.48382 | 104° | 64km/h | 13186m | -5m/s | -63.9°C | 65% | 0hPa | 2.4V | 07:55:52 | 03:10:27 | 00:00:00 | |
| DO3MHA-11 | 2026-09-06 01:44:16 | 45.21515 | 9.48382 | 105° | 64km/h | 13186m | -4.9m/s | -63.8°C | 65.0% | 0hPa | 2.4V | 07:55:00 | 03:10:27 | 00:00:00 | |
| IW2NTF | 2026-09-06 01:44:11 | 45.21519 | 9.48156 | 79° | 51km/h | 13235m | -4.9m/s | -64.3°C | 66.5% | 0hPa | 2.4V | 07:56:02 | 03:10:17 | 00:00:00 | |
| DO3MHA-11 | 2026-09-06 01:44:06 | 45.21519 | 9.48156 | 80° | 42km/h | 13235m | -4.9m/s | -64.3°C | 66.5% | 0hPa | 2.4V | 00:00:00 | 03:10:17 | 00:00:00 | |
| IW2NTF | 2026-09-06 01:44:00 | 45.21529 | 9.47991 | 110° | 51km/h | 13290m | -5.1m/s | -64.8°C | 66.1% | 0hPa | 2.4V | 07:56:13 | 03:10:06 | 00:00:00 | |
| DB0UT-7 | 2026-09-06 01:43:59 | 45.21515 | 9.48052 | 100° | 51km/h | 13270m | -5.1m/s | -64.6°C | 66.1% | 0hPa | 2.5V | 00:00:00 | 00:00:00 | 00:00:00 | |
| DO3MHA-11 | 2026-09-06 01:43:56 | 45.21524 | 9.48008 | 110° | 60km/h | 13285m | -5.0m/s | -64.7°C | 66.2% | 0hPa | 2.5V | 00:00:00 | 03:10:07 | 00:00:00 | |
| IW2NTF | 2026-09-06 01:43:50 | 45.21561 | 9.47773 | 86° | 64km/h | 13340m | -4.8m/s | -65.3°C | 66.8% | 0hPa | 2.5V | 07:56:23 | 03:09:56 | 00:00:00 | |
| DO3MHA-11 | 2026-09-06 01:43:46 | 45.21562 | 9.47797 | 91° | 51km/h | 13336m | -5.0m/s | -65.2°C | 66.7% | 0hPa | 2.4V | 00:00:00 | 03:09:57 | 00:00:00 | |
| IW2NTF | 2026-09-06 01:43:40 | 45.21547 | 9.47602 | 87° | 38km/h | 13391m | -5.4m/s | -65.7°C | 64.4% | 0hPa | 2.4V | 07:56:33 | 03:09:46 | 00:00:00 | |
| DO3MHA-11 | 2026-09-06 01:43:36 | 45.21548 | 9.47616 | 86° | 44km/h | 13386m | -5.3m/s | -65.6°C | 64.6% | 0hPa | 2.4V | 00:00:00 | 03:09:47 | 00:00:00 | |
| IW2NTF | 2026-09-06 01:43:30 | 45.21581 | 9.47443 | 105° | 64km/h | 13442m | -5m/s | -66.2°C | 63.3% | 0hPa | 2.5V | 07:56:43 | 03:09:36 | 00:00:00 | |
| DB0UT-7 | 2026-09-06 01:43:29 | 45.21560 | 9.47519 | 114° | 53km/h | 13422m | -5.1m/s | -65.9°C | 63.7% | 0hPa | 2.4V | 07:56:00 | 03:09:40 | 00:00:00 | |
| DO3MHA-11 | 2026-09-06 01:43:26 | 45.21576 | 9.47464 | 109° | 64km/h | 13437m | -4.8m/s | -66.1°C | 63.5% | 0hPa | 2.4V | 00:00:00 | 03:09:37 | 00:00:00 | |
| IW2NTF | 2026-09-06 01:43:20 | 45.21584 | 9.47217 | 81° | 53km/h | 13493m | -5.1m/s | -66.6°C | 61.8% | 0hPa | 2.4V | 07:56:53 | 03:09:26 | 00:00:00 | |
| DO3MHA-11 | 2026-09-06 01:43:16 | 45.21586 | 9.47236 | 83° | 44km/h | 13488m | -5.3m/s | -66.5°C | 61.9% | 0hPa | 2.4V | 00:00:00 | 03:09:27 | 00:00:00 | |
| IW2NTF | 2026-09-06 01:43:10 | 45.21586 | 9.47071 | 110° | 40km/h | 13547m | -5.6m/s | -67.1°C | 60% | 0hPa | 2.4V | 07:57:03 | 03:09:16 | 00:00:00 | |
| DO3MHA-11 | 2026-09-06 01:43:06 | 45.21583 | 9.47084 | 106° | 53km/h | 13541m | -5.7m/s | -67.0°C | 60.1% | 0hPa | 2.5V | 00:00:00 | 03:09:17 | 00:00:00 | |
| IW2NTF | 2026-09-06 01:43:00 | 45.21631 | 9.46876 | 94° | 64km/h | 13600m | -5.1m/s | -67.5°C | 58.9% | 0hPa | 2.4V | 07:57:13 | 03:09:06 | 00:00:00 | |
| DB0UT-7 | 2026-09-06 01:42:59 | 45.21618 | 9.46967 | 109° | 57km/h | 13579m | -5.4m/s | -67.3°C | 59.9% | 0hPa | 2.4V | 00:00:00 | 00:00:00 | 00:00:00 | |
| DO3MHA-11 | 2026-09-06 01:42:56 | 45.21629 | 9.46899 | 98° | 58km/h | 13595m | -4.9m/s | -67.4°C | 59.1% | 0hPa | 2.4V | 07:57:00 | 03:09:07 | 00:00:00 | |
| DO3MHA-11 | 2026-09-06 01:42:46 | 45.21619 | 9.46698 | 82° | 47km/h | 13648m | -5.5m/s | -67.6°C | 54.7% | 0hPa | 2.4V | 00:00:00 | 03:08:57 | 00:00:00 | |
| DO3MHA-11 | 2026-09-06 01:42:36 | 45.21649 | 9.46531 | 108° | 69km/h | 13699m | -5.3m/s | -67.9°C | 55.6% | 0hPa | 2.4V | 00:00:00 | 03:08:47 | 00:00:00 | |
| IW2NTF | 2026-09-06 01:42:33 | 45.21670 | 9.46337 | 89° | 71km/h | 13740m | -5.1m/s | -68°C | 52.6% | 0hPa | 2.5V | 07:57:40 | 03:08:39 | 00:00:00 | |
| DB0UT-7 | 2026-09-06 01:42:29 | 45.21669 | 9.46362 | 93° | 60km/h | 13736m | -5.5m/s | -67.9°C | 52.7% | 0hPa | 2.4V | 00:00:00 | 03:08:40 | 00:00:00 | |
| DO3MHA-11 | 2026-09-06 01:42:24 | 45.21663 | 9.46239 | 81° | 47km/h | 13762m | -4.8m/s | -67.9°C | 52.5% | 0hPa | 2.4V | 00:00:00 | 03:08:35 | 00:00:00 | |
| IW2NTF | 2026-09-06 01:42:23 | 45.21653 | 9.46131 | 91° | 42km/h | 13790m | -5.2m/s | -68.1°C | 51.6% | 0hPa | 2.4V | 07:57:50 | 03:08:29 | 00:00:00 | |
| DO3MHA-11 | 2026-09-06 01:42:14 | 45.21661 | 9.46070 | 107° | 66km/h | 13811m | -4.9m/s | -68.1°C | 51.4% | 0hPa | 2.4V | 00:00:00 | 03:08:25 | 00:00:00 | |
| IW2NTF | 2026-09-06 01:42:13 | 45.21685 | 9.45939 | 98° | 73km/h | 13839m | -4.8m/s | -68.4°C | 50.3% | 0hPa | 2.4V | 07:58:00 | 03:08:19 | 00:00:00 | |
| DO3MHA-11 | 2026-09-06 01:42:04 | 45.21688 | 9.45835 | 87° | 55km/h | 13859m | -4.9m/s | -68.5°C | 49.9% | 0hPa | 2.4V | 00:00:00 | 03:08:15 | 00:00:00 | |
| IW2NTF | 2026-09-06 01:42:03 | 45.21677 | 9.45705 | 85° | 49km/h | 13887m | -4.4m/s | -68.8°C | 51.6% | 0hPa | 2.4V | 07:58:10 | 03:08:09 | 00:00:00 | |
| DB0UT-7 | 2026-09-06 01:41:59 | 45.21679 | 9.45723 | 83° | 60km/h | 13883m | -4.5m/s | -68.8°C | 51.2% | 0hPa | 2.4V | 00:00:00 | 00:00:00 | 00:00:00 | |
| DO3MHA-11 | 2026-09-06 01:41:54 | 45.21679 | 9.45638 | 98° | 49km/h | 13905m | -4.6m/s | -69.0°C | 52.7% | 0hPa | 2.5V | 00:00:00 | 03:08:05 | 00:00:00 | |
| IW2NTF | 2026-09-06 01:41:49 | 45.21717 | 9.45472 | 116° | 60km/h | 13953m | -5.3m/s | -69.3°C | 49.7% | 0hPa | 2.5V | 07:58:24 | 03:07:55 | 00:00:00 | |
| DO3MHA-11 | 2026-09-06 01:41:44 | 45.21717 | 9.45472 | 117° | 71km/h | 13953m | -5.3m/s | -69.3°C | 49.7% | 0hPa | 2.4V | 00:00:00 | 03:07:55 | 00:00:00 | |
| IW2NTF | 2026-09-06 01:41:39 | 45.21774 | 9.45232 | 93° | 68km/h | 14001m | -4.1m/s | -69.6°C | 51.9% | 0hPa | 2.4V | 07:58:34 | 03:07:45 | 00:00:00 | |
| DO3MHA-11 | 2026-09-06 01:41:34 | 45.21774 | 9.45232 | 94° | 55km/h | 14001m | -4.1m/s | -69.6°C | 51.9% | 0hPa | 2.4V | 07:58:00 | 03:07:45 | 00:00:00 | |
| IW2NTF | 2026-09-06 01:41:29 | 45.21805 | 9.45048 | 119° | 51km/h | 14045m | -4.5m/s | -69.2°C | 48.8% | 0hPa | 2.4V | 07:58:44 | 03:07:35 | 00:00:00 | |
| DO3MHA-11 | 2026-09-06 01:41:24 | 45.21805 | 9.45048 | 120° | 60km/h | 14046m | -4.5m/s | -69.1°C | 48.8% | 0hPa | 2.5V | 00:00:00 | 03:07:35 | 00:00:00 | |
| IW2NTF | 2026-09-06 01:41:19 | 45.21898 | 9.44877 | 128° | 73km/h | 14093m | -4.4m/s | -69.4°C | 47.8% | 0hPa | 2.5V | 07:58:54 | 03:07:25 | 00:00:00 | |
| DO3MHA-11 | 2026-09-06 01:41:14 | 45.21898 | 9.44877 | 129° | 77km/h | 14094m | -4.4m/s | -69.3°C | 47.8% | 0hPa | 2.4V | 00:00:00 | 03:07:25 | 00:00:00 | |
| IW2NTF | 2026-09-06 01:41:09 | 45.21983 | 9.44637 | 110° | 71km/h | 14135m | -4.3m/s | -69.3°C | 46.6% | 0hPa | 2.4V | 07:59:04 | 03:07:15 | 00:00:00 | |
| DB0UT-7 | 2026-09-06 01:41:06 | 45.21970 | 9.44686 | 112° | 64km/h | 14127m | -4.2m/s | -69.3°C | 47.3% | 0hPa | 2.4V | 00:00:00 | 03:07:17 | 00:00:00 | |
| DO3MHA-11 | 2026-09-06 01:41:04 | 45.21983 | 9.44637 | 111° | 62km/h | 14135m | -4.3m/s | -69.2°C | 46.6% | 0hPa | 2.4V | 00:00:00 | 03:07:15 | 00:00:00 | |
| IW2NTF | 2026-09-06 01:40:57 | 45.22047 | 9.44405 | 131° | 51km/h | 14191m | -4.3m/s | -69.2°C | 41.1% | 0hPa | 2.4V | 07:59:16 | 03:07:03 | 00:00:00 | |
| DO3MHA-11 | 2026-09-06 01:40:54 | 45.22033 | 9.44433 | 119° | 60km/h | 14182m | -4.5m/s | -69.1°C | 41.9% | 0hPa | 2.5V | 00:00:00 | 03:07:05 | 00:00:00 | |
| IW2NTF | 2026-09-06 01:40:47 | 45.22164 | 9.44230 | 122° | 77km/h | 14236m | -4.1m/s | -69.5°C | 40.5% | 0hPa | 2.5V | 07:59:26 | 03:06:53 | 00:00:00 | |
| DO3MHA-11 | 2026-09-06 01:40:44 | 45.22141 | 9.44274 | 130° | 66km/h | 14227m | -4.4m/s | -69.4°C | 39.9% | 0hPa | 2.5V | 00:00:00 | 03:06:55 | 00:00:00 | |
| IW2NTF | 2026-09-06 01:40:36 | 45.22231 | 9.44023 | 115° | 44km/h | 14284m | -4.9m/s | -69.9°C | 38.7% | 0hPa | 2.5V | 07:59:37 | 03:06:42 | 00:00:00 | |
| DB0UT-7 | 2026-09-06 01:40:36 | 45.22206 | 9.44103 | 112° | 55km/h | 14261m | -4.3m/s | -69.8°C | 40.8% | 0hPa | 2.4V | 00:00:00 | 00:00:00 | 00:00:00 | |
| DO3MHA-11 | 2026-09-06 01:40:34 | 45.22216 | 9.44068 | 113° | 44km/h | 14270m | -4.4m/s | -69.8°C | 40.1% | 0hPa | 2.4V | 00:00:00 | 03:06:45 | 00:00:00 | |
| IW2NTF | 2026-09-06 01:40:26 | 45.22315 | 9.43900 | 141° | 66km/h | 14329m | -4.6m/s | -69.6°C | 34.8% | 0hPa | 2.4V | 07:59:47 | 03:06:32 | 00:00:00 | |
| DO3MHA-11 | 2026-09-06 01:40:24 | 45.22279 | 9.43939 | 144° | 66km/h | 14316m | -4.0m/s | -69.8°C | 36.2% | 0hPa | 2.4V | 00:00:00 | 03:06:35 | 00:00:00 | |
| DO3MHA-11 | 2026-09-06 01:40:14 | 45.22392 | 9.43765 | 115° | 47km/h | 14361m | -4.4m/s | -69.4°C | 33.2% | 0hPa | 2.4V | 07:59:00 | 03:06:25 | 00:00:00 | |
| IW2NTF | 2026-09-06 01:40:07 | 45.22460 | 9.43598 | 141° | 42km/h | 14415m | -4.6m/s | -69.4°C | 29% | 0hPa | 2.4V | 08:00:06 | 03:06:13 | 00:00:00 | |
| DB0UT-7 | 2026-09-06 01:40:06 | 45.22433 | 9.43639 | 126° | 46km/h | 14396m | -4.8m/s | -69.5°C | 30.6% | 0hPa | 2.5V | 00:00:00 | 03:06:17 | 00:00:00 | |
| DO3MHA-11 | 2026-09-06 01:40:04 | 45.22445 | 9.43618 | 132° | 53km/h | 14406m | -4.9m/s | -69.4°C | 29.8% | 0hPa | 2.4V | 00:00:00 | 03:06:15 | 00:00:00 | |
| IW2NTF | 2026-09-06 01:39:57 | 45.22571 | 9.43456 | 122° | 66km/h | 14460m | -4.5m/s | -68.4°C | 26% | 0hPa | 2.4V | 08:00:16 | 03:06:03 | 00:00:00 | |
| DO3MHA-11 | 2026-09-06 01:39:54 | 45.22551 | 9.43493 | 131° | 62km/h | 14451m | -4.2m/s | -68.6°C | 27.1% | 0hPa | 2.4V | 00:00:00 | 03:06:05 | 00:00:00 | |
| IW2NTF | 2026-09-06 01:39:46 | 45.22623 | 9.43252 | 103° | 38km/h | 14517m | -4.5m/s | -68.2°C | 23.1% | 0hPa | 2.4V | 08:00:27 | 03:05:52 | 00:00:00 | |
| DO3MHA-11 | 2026-09-06 01:39:44 | 45.22616 | 9.43299 | 104° | 40km/h | 14502m | -5.1m/s | -68.1°C | 22.9% | 0hPa | 2.5V | 00:00:00 | 03:05:55 | 00:00:00 | |
| IW2NTF | 2026-09-06 01:39:35 | 45.22698 | 9.43105 | 120° | 66km/h | 14569m | -5.2m/s | -65.9°C | 17.1% | 0hPa | 2.5V | 08:00:38 | 03:05:41 | 00:00:00 | |
| DO3MHA-11 | 2026-09-06 01:39:34 | 45.22662 | 9.43174 | 134° | 66km/h | 14549m | -4.8m/s | -67.0°C | 20.1% | 0hPa | 2.4V | 00:00:00 | 03:05:45 | 00:00:00 | |
| DB0UT-7 | 2026-09-06 01:39:33 | 45.22671 | 9.43160 | 131° | 62km/h | 14554m | -4.9m/s | -66.6°C | 19.2% | 0hPa | 2.5V | 00:00:00 | 00:00:00 | 00:00:00 | |
| IW2NTF | 2026-09-06 01:39:24 | 45.22744 | 9.42855 | 91° | 53km/h | 14626m | -5.1m/s | -65.5°C | 15.3% | 0hPa | 2.5V | 08:00:49 | 03:05:30 | 00:00:00 | |
| DO3MHA-11 | 2026-09-06 01:39:24 | 45.22736 | 9.42967 | 102° | 55km/h | 14601m | -5.2m/s | -65.7°C | 15.5% | 0hPa | 2.4V | 00:00:00 | 03:05:35 | 00:00:00 | |
| DB0ND-19 | 2026-09-06 01:39:18 | 45.22749 | 9.42806 | 109° | 42km/h | 14641m | -4.8m/s | -65.6°C | 9.4% | -1.0hPa | 2.4V | 00:00:00 | 00:00:00 | 00:00:00 | |
| IW2NTF | 2026-09-06 01:39:14 | 45.22803 | 9.42697 | 127° | 66km/h | 14678m | -5.6m/s | -65.5°C | 13.4% | 0hPa | 2.4V | 08:00:59 | 03:05:20 | 00:00:00 | |
| DO3MHA-11 | 2026-09-06 01:39:14 | 45.22759 | 9.42778 | 125° | 64km/h | 14650m | -4.8m/s | -65.5°C | 14.5% | 0hPa | 2.4V | 00:00:00 | 03:05:25 | 00:00:00 | |
| IW2NTF | 2026-09-06 01:39:04 | 45.22874 | 9.42464 | 99° | 55km/h | 14729m | -5.2m/s | -65.8°C | 13.8% | 0hPa | 2.4V | 08:01:09 | 03:05:10 | 00:00:00 | |
| DO3MHA-11 | 2026-09-06 01:39:04 | 45.22852 | 9.42584 | 114° | 58km/h | 14705m | -4.9m/s | -65.6°C | 13.8% | 0hPa | 2.4V | 08:01:00 | 03:05:15 | 00:00:00 | |
| DB0UT-7 | 2026-09-06 01:39:03 | 45.22859 | 9.42558 | 110° | 58km/h | 14710m | -5.0m/s | -65.7°C | 14.0% | 0hPa | 2.5V | 00:00:00 | 03:05:14 | 00:00:00 | |
| IW2NTF | 2026-09-06 01:38:54 | 45.22948 | 9.42311 | 129° | 75km/h | 14782m | -5.2m/s | -65.2°C | 12.4% | 0hPa | 2.5V | 08:01:19 | 03:05:00 | 00:00:00 | |
| DB0ND-19 | 2026-09-06 01:38:47 | 45.22981 | 9.42243 | 118° | 77km/h | 14799m | -5.7m/s | -64.8°C | 6.7% | -1.0hPa | 2.4V | 00:00:00 | 00:00:00 | 00:00:00 | |
| DO3MHA-11 | 2026-09-06 01:38:44 | 45.22996 | 9.42193 | 110° | 53km/h | 14810m | -4.8m/s | -64.4°C | 11.4% | 0hPa | 2.4V | 00:00:00 | 03:04:55 | 00:00:00 | |
| IW2NTF | 2026-09-06 01:38:38 | 45.23039 | 9.42003 | 128° | 42km/h | 14869m | -5.6m/s | -63.6°C | 9.7% | 0hPa | 2.4V | 08:01:35 | 03:04:44 | 00:00:00 | |
| DO3MHA-11 | 2026-09-06 01:38:34 | 45.23033 | 9.42015 | 123° | 58km/h | 14864m | -5.9m/s | -63.6°C | 9.8% | 0hPa | 2.4V | 00:00:00 | 03:04:45 | 00:00:00 | |
| DB0UT-7 | 2026-09-06 01:38:33 | 45.23039 | 9.42003 | 129° | 49km/h | 14869m | -5.6m/s | -63.6°C | 9.7% | 0hPa | 2.4V | 08:01:00 | 00:00:00 | 00:00:00 | |
| IW2NTF | 2026-09-06 01:38:28 | 45.23131 | 9.41828 | 107° | 64km/h | 14920m | -4.7m/s | -63.5°C | 9.6% | 0hPa | 2.4V | 08:01:45 | 03:04:34 | 00:00:00 | |
| DO3MHA-11 | 2026-09-06 01:38:24 | 45.23125 | 9.41850 | 112° | 57km/h | 14915m | -4.7m/s | -63.5°C | 9.8% | 0hPa | 2.5V | 00:00:00 | 03:04:35 | 00:00:00 | |
| IW2NTF | 2026-09-06 01:38:18 | 45.23154 | 9.41642 | 101° | 37km/h | 14975m | -5.5m/s | -63.5°C | 9.4% | 0hPa | 2.5V | 08:01:55 | 03:04:24 | 00:00:00 | |
| DO3MHA-11 | 2026-09-06 01:38:14 | 45.23153 | 9.41655 | 98° | 46km/h | 14970m | -5.6m/s | -63.4°C | 9.3% | 0hPa | 2.4V | 00:00:00 | 03:04:25 | 00:00:00 | |
| IW2NTF | 2026-09-06 01:38:08 | 45.23221 | 9.41494 | 116° | 71km/h | 15025m | -5.6m/s | -63.2°C | 9.2% | 0hPa | 2.4V | 08:02:05 | 03:04:14 | 00:00:00 | |
| DO3MHA-11 | 2026-09-06 01:38:04 | 45.23213 | 9.41516 | 120° | 69km/h | 15020m | -5.2m/s | -63.3°C | 9.4% | 0hPa | 2.4V | 00:00:00 | 03:04:15 | 00:00:00 | |
| DB0UT-7 | 2026-09-06 01:38:03 | 45.23221 | 9.41494 | 117° | 60km/h | 15025m | -5.6m/s | -63.2°C | 9.2% | 0hPa | 2.4V | 00:00:00 | 03:04:14 | 00:00:00 | |
| IW2NTF | 2026-09-06 01:37:58 | 45.23254 | 9.41262 | 89° | 49km/h | 15078m | -5m/s | -62.5°C | 9.1% | 0hPa | 2.4V | 08:02:15 | 03:04:04 | 00:00:00 | |
| DO3MHA-11 | 2026-09-06 01:37:54 | 45.23254 | 9.41281 | 89° | 44km/h | 15074m | -5.0m/s | -62.5°C | 9.1% | 0hPa | 2.6V | 00:00:00 | 03:04:05 | 00:00:00 | |
| IW2NTF | 2026-09-06 01:37:48 | 45.23291 | 9.41121 | 128° | 53km/h | 15132m | -5.6m/s | -61.8°C | 8.4% | 0hPa | 2.6V | 08:02:25 | 03:03:54 | 00:00:00 | |
| DB0ND-19 | 2026-09-06 01:37:45 | 45.23283 | 9.41135 | 127° | 47km/h | 15127m | -5.0m/s | -61.9°C | 4.3% | -1.0hPa | 2.4V | 00:00:00 | 00:00:00 | 00:00:00 | |
| DO3MHA-11 | 2026-09-06 01:37:44 | 45.23282 | 9.41135 | 128° | 64km/h | 15127m | -5.0m/s | -61.9°C | 8.5% | 0hPa | 2.4V | 00:00:00 | 03:03:55 | 00:00:00 | |
| IW2NTF | 2026-09-06 01:37:38 | 45.23384 | 9.40915 | 112° | 77km/h | 15187m | -5.5m/s | -61.1°C | 8% | 0hPa | 2.4V | 08:02:35 | 03:03:44 | 00:00:00 | |
| DO3MHA-11 | 2026-09-06 01:37:34 | 45.23377 | 9.40940 | 116° | 62km/h | 15182m | -5.7m/s | -61.1°C | 7.9% | 0hPa | 2.4V | 08:02:00 | 03:03:45 | 00:00:00 | |
| DB0UT-7 | 2026-09-06 01:37:33 | 45.23384 | 9.40915 | 113° | 58km/h | 15188m | -5.5m/s | -61.0°C | 8.0% | 0hPa | 2.4V | 00:00:00 | 00:00:00 | 00:00:00 | |
| IW2NTF | 2026-09-06 01:37:28 | 45.23429 | 9.40726 | 125° | 40km/h | 15240m | -5.3m/s | -60.9°C | 7.6% | 0hPa | 2.4V | 08:02:45 | 03:03:34 | 00:00:00 | |
| IW2NTF | 2026-09-06 01:37:18 | 45.23531 | 9.40589 | 127° | 73km/h | 15295m | -5.1m/s | -61.2°C | 8% | 0hPa | 2.6V | 08:02:55 | 03:03:24 | 00:00:00 | |
| DB0ND-19 | 2026-09-06 01:37:14 | 45.23531 | 9.40589 | 127° | 73km/h | 15295m | -5.1m/s | -61.2°C | 3.9% | -1.0hPa | 2.4V | 00:00:00 | 00:00:00 | 00:00:00 | |
| IW2NTF | 2026-09-06 01:37:08 | 45.23589 | 9.40385 | 101° | 46km/h | 15350m | -6m/s | -61.2°C | 7.7% | 0hPa | 2.4V | 08:03:05 | 03:03:14 | 00:00:00 | |
| DO3MHA-11 | 2026-09-06 01:37:04 | 45.23586 | 9.40401 | 102° | 38km/h | 15344m | -6.0m/s | -61.2°C | 7.8% | 0hPa | 2.4V | 00:00:00 | 03:03:15 | 00:00:00 | |
| DB0UT-7 | 2026-09-06 01:37:03 | 45.23588 | 9.40385 | 102° | 42km/h | 15350m | -5.9m/s | -61.2°C | 7.7% | 0hPa | 2.4V | 00:00:00 | 03:03:14 | 00:00:00 | |
| DO3MHA-11 | 2026-09-06 01:36:54 | 45.23632 | 9.40292 | 149° | 53km/h | 15400m | -5.5m/s | -60.9°C | 7.5% | 0hPa | 2.4V | 00:00:00 | 03:03:05 | 00:00:00 | |
| IW2NTF | 2026-09-06 01:36:46 | 45.23708 | 9.40081 | 93° | 47km/h | 15471m | -6.2m/s | -61.2°C | 8% | 0hPa | 2.4V | 08:03:27 | 03:02:52 | 00:00:00 | |
| DO3MHA-11 | 2026-09-06 01:36:44 | 45.23703 | 9.40136 | 101° | 40km/h | 15454m | -5.7m/s | -61.2°C | 7.9% | 0hPa | 2.6V | 00:00:00 | 03:02:55 | 00:00:00 | |
| IW2NTF | 2026-09-06 01:36:36 | 45.23729 | 9.39984 | 140° | 35km/h | 15526m | -5.4m/s | -60.3°C | 7.5% | 0hPa | 2.6V | 08:03:37 | 03:02:42 | 00:00:00 | |
| DO3MHA-11 | 2026-09-06 01:36:34 | 45.23713 | 9.40003 | 131° | 40km/h | 15510m | -5.4m/s | -60.8°C | 7.8% | 0hPa | 2.4V | 00:00:00 | 03:02:45 | 00:00:00 | |
| DB0UT-7 | 2026-09-06 01:36:33 | 45.23717 | 9.39997 | 139° | 44km/h | 15515m | -5.5m/s | -60.6°C | 7.7% | 0hPa | 2.4V | 00:00:00 | 00:00:00 | 00:00:00 | |
| IW2NTF | 2026-09-06 01:36:26 | 45.23799 | 9.39831 | 106° | 60km/h | 15582m | -5.7m/s | -60.2°C | 7.2% | 0hPa | 2.4V | 08:03:47 | 03:02:32 | 00:00:00 | |
| DO3MHA-11 | 2026-09-06 01:36:24 | 45.23782 | 9.39890 | 118° | 57km/h | 15565m | -5.4m/s | -60.0°C | 7.1% | 0hPa | 2.4V | 00:00:00 | 03:02:35 | 00:00:00 | |
| IW2NTF | 2026-09-06 01:36:16 | 45.23803 | 9.39660 | 89° | 29km/h | 15640m | -5.2m/s | -60.6°C | 7.4% | 0hPa | 2.4V | 08:03:57 | 03:02:22 | 00:00:00 | |
| DO3MHA-11 | 2026-09-06 01:36:14 | 45.23806 | 9.39698 | 84° | 37km/h | 15623m | -6.0m/s | -60.4°C | 7.4% | 0hPa | 2.6V | 00:00:00 | 03:02:25 | 00:00:00 | |
| DB0ND-19 | 2026-09-06 01:36:12 | 45.23803 | 9.39660 | 89° | 27km/h | 15640m | -5.2m/s | -60.6°C | 3.7% | -1.0hPa | 2.6V | 00:00:00 | 00:00:00 | 00:00:00 | |
| IW2NTF | 2026-09-06 01:36:06 | 45.23859 | 9.39541 | 119° | 62km/h | 15696m | -5.6m/s | -61°C | 7.6% | 0hPa | 2.6V | 08:04:07 | 03:02:12 | 00:00:00 | |
| DO3MHA-11 | 2026-09-06 01:36:04 | 45.23834 | 9.39590 | 131° | 62km/h | 15679m | -5.3m/s | -60.8°C | 7.5% | 0hPa | 2.4V | 08:04:00 | 03:02:15 | 00:00:00 | |
| DB0UT-7 | 2026-09-06 01:36:03 | 45.23843 | 9.39576 | 127° | 57km/h | 15685m | -6.1m/s | -60.9°C | 7.5% | 0hPa | 2.4V | 00:00:00 | 03:02:14 | 00:00:00 | |
| IW2NTF | 2026-09-06 01:35:56 | 45.23883 | 9.39326 | 82° | 46km/h | 15755m | -5.8m/s | -61.4°C | 7.7% | 0hPa | 2.4V | 08:04:17 | 03:02:02 | 00:00:00 | |
| DO3MHA-11 | 2026-09-06 01:35:54 | 45.23887 | 9.39383 | 90° | 42km/h | 15737m | -5.9m/s | -61.2°C | 7.6% | 0hPa | 2.4V | 00:00:00 | 03:02:05 | 00:00:00 | |
| IW2NTF | 2026-09-06 01:35:46 | 45.23921 | 9.39195 | 124° | 60km/h | 15812m | -5.9m/s | -61.9°C | 8% | 0hPa | 2.4V | 08:04:27 | 03:01:52 | 00:00:00 | |
| DO3MHA-11 | 2026-09-06 01:35:44 | 45.23898 | 9.39240 | 127° | 64km/h | 15795m | -5.7m/s | -61.7°C | 8.0% | 0hPa | 2.4V | 00:00:00 | 03:01:55 | 00:00:00 | |
| DB0ND-19 | 2026-09-06 01:35:40 | 45.23930 | 9.39176 | 122° | 62km/h | 15817m | -5.7m/s | -61.9°C | 3.9% | -1.0hPa | 2.4V | 00:00:00 | 00:00:00 | 00:00:00 | |
| IW2NTF | 2026-09-06 01:35:36 | 45.23979 | 9.38955 | 90° | 68km/h | 15872m | -5.1m/s | -62.2°C | 8.4% | 0hPa | 2.4V | 08:04:37 | 03:01:42 | 00:00:00 | |
| DO3MHA-11 | 2026-09-06 01:35:34 | 45.23973 | 9.39032 | 103° | 57km/h | 15854m | -6.5m/s | -62.0°C | 8.2% | 0hPa | 2.4V | 00:00:00 | 03:01:45 | 00:00:00 | |
| DB0UT-7 | 2026-09-06 01:35:33 | 45.23976 | 9.39006 | 99° | 58km/h | 15861m | -6.2m/s | -62.1°C | 8.2% | 0hPa | 2.6V | 00:00:00 | 00:00:00 | 00:00:00 | |
| DO3MHA-11 | 2026-09-06 01:35:24 | 45.23990 | 9.38838 | 124° | 69km/h | 15914m | -6.0m/s | -62.1°C | 8.1% | 0hPa | 2.6V | 00:00:00 | 03:01:35 | 00:00:00 | |
| IW2NTF | 2026-09-06 01:35:20 | 45.24070 | 9.38649 | 103° | 82km/h | 15968m | -5.8m/s | -61.8°C | 7.9% | 0hPa | 2.6V | 08:04:53 | 03:01:26 | 00:00:00 | |
| IW2NTF | 2026-09-06 01:35:10 | 45.24092 | 9.38450 | 119° | 40km/h | 16028m | -5.9m/s | -61.9°C | 7.8% | 0hPa | 2.4V | 08:05:03 | 03:01:16 | 00:00:00 | |
| DO3MHA-11 | 2026-09-06 01:35:04 | 45.24098 | 9.38438 | 126° | 64km/h | 16035m | -6.4m/s | -61.9°C | 7.7% | 0hPa | 2.6V | 00:00:00 | 03:01:15 | 00:00:00 | |
| DB0UT-7 | 2026-09-06 01:35:03 | 45.24105 | 9.38425 | 130° | 55km/h | 16041m | -6.5m/s | -61.9°C | 7.7% | 0hPa | 2.4V | 00:00:00 | 03:01:14 | 00:00:00 | |
| IW2NTF | 2026-09-06 01:35:00 | 45.24180 | 9.38271 | 109° | 78km/h | 16089m | -5.9m/s | -62.3°C | 7.8% | 0hPa | 2.4V | 08:05:13 | 03:01:06 | 00:00:00 | |
| DO3MHA-11 | 2026-09-06 01:34:54 | 45.24186 | 9.38245 | 106° | 51km/h | 16095m | -6.1m/s | -62.3°C | 7.9% | 0hPa | 2.6V | 00:00:00 | 03:01:05 | 00:00:00 | |
| IW2NTF | 2026-09-06 01:34:50 | 45.24210 | 9.38084 | 116° | 37km/h | 16146m | -5.7m/s | -62.6°C | 8.1% | 0hPa | 2.6V | 08:05:23 | 03:00:56 | 00:00:00 | |
| DO3MHA-11 | 2026-09-06 01:34:44 | 45.24214 | 9.38073 | 123° | 47km/h | 16152m | -5.8m/s | -62.6°C | 8.1% | 0hPa | 2.6V | 00:00:00 | 03:00:55 | 00:00:00 | |
| IW2NTF | 2026-09-06 01:34:40 | 45.24294 | 9.37971 | 138° | 66km/h | 16208m | -6.3m/s | -62.9°C | 7.9% | 0hPa | 2.6V | 08:05:33 | 03:00:46 | 00:00:00 | |
| DB0ND-19 | 2026-09-06 01:34:38 | 45.24259 | 9.38011 | 142° | 51km/h | 16189m | -6.2m/s | -62.9°C | 3.8% | -1.0hPa | 2.6V | 00:00:00 | 00:00:00 | 00:00:00 | |
| DO3MHA-11 | 2026-09-06 01:34:34 | 45.24306 | 9.37955 | 137° | 66km/h | 16214m | -5.7m/s | -62.9°C | 8.0% | 0hPa | 2.6V | 08:05:00 | 03:00:45 | 00:00:00 | |
| DB0UT-7 | 2026-09-06 01:34:33 | 45.24319 | 9.37936 | 133° | 57km/h | 16220m | -6.4m/s | -62.9°C | 7.9% | 0hPa | 2.5V | 00:00:00 | 00:00:00 | 00:00:00 | |
| IW2NTF | 2026-09-06 01:34:30 | 45.24376 | 9.37770 | 104° | 42km/h | 16267m | -6.4m/s | -63.1°C | 8% | 0hPa | 2.5V | 08:05:43 | 03:00:36 | 00:00:00 | |
| DO3MHA-11 | 2026-09-06 01:34:24 | 45.24379 | 9.37756 | 110° | 44km/h | 16274m | -6.0m/s | -63.0°C | 8.0% | 0hPa | 2.4V | 00:00:00 | 03:00:35 | 00:00:00 | |
| IW2NTF | 2026-09-06 01:34:20 | 45.24459 | 9.37677 | 146° | 62km/h | 16327m | -6m/s | -63.4°C | 8.3% | 0hPa | 2.4V | 08:05:53 | 03:00:26 | 00:00:00 | |
| DO3MHA-11 | 2026-09-06 01:34:14 | 45.24472 | 9.37663 | 144° | 60km/h | 16333m | -6.0m/s | -63.4°C | 8.3% | 0hPa | 2.6V | 00:00:00 | 03:00:25 | 00:00:00 | |
| IW2NTF | 2026-09-06 01:34:10 | 45.24547 | 9.37502 | 104° | 46km/h | 16384m | -5.9m/s | -63.2°C | 8.1% | 0hPa | 2.6V | 08:06:03 | 03:00:16 | 00:00:00 | |
| DB0ND-19 | 2026-09-06 01:34:07 | 45.24539 | 9.37535 | 110° | 53km/h | 16372m | -5.9m/s | 0°C | -1.0% | -1.0hPa | 2.4V | 00:00:00 | 00:00:00 | 00:00:00 | |
| DO3MHA-11 | 2026-09-06 01:34:04 | 45.24549 | 9.37487 | 105° | 31km/h | 16390m | -6.6m/s | -63.1°C | 7.9% | 0hPa | 2.4V | 00:00:00 | 03:00:15 | 00:00:00 | |
| DB0UT-7 | 2026-09-06 01:34:03 | 45.24552 | 9.37473 | 105° | 40km/h | 16396m | -6.3m/s | -63.0°C | 7.8% | 0hPa | 2.4V | 08:06:00 | 03:00:14 | 00:00:00 | |
| NBG1-10 | 2026-09-06 01:34:02 | 45.24554 | 9.37462 | 105° | 33km/h | 16403m | -6.0m/s | -63.0°C | 7.7% | 0hPa | 2.4V | 00:00:00 | 03:00:13 | 00:00:00 | |
| IW2NTF | 2026-09-06 01:34:00 | 45.24588 | 9.37419 | 158° | 38km/h | 16442m | -5.5m/s | -62.9°C | 7.8% | 0hPa | 2.6V | 08:06:13 | 03:00:06 | 00:00:00 | |
| DO3MHA-11 | 2026-09-06 01:33:54 | 45.24597 | 9.37413 | 157° | 55km/h | 16448m | -4.7m/s | -62.8°C | 7.8% | 0hPa | 2.5V | 00:00:00 | 03:00:05 | 00:00:00 | |
| IW2NTF | 2026-09-06 01:33:50 | 45.24684 | 9.37286 | 112° | 57km/h | 16498m | -6m/s | -62.8°C | 7.5% | 0hPa | 2.5V | 08:06:23 | 02:59:56 | 00:00:00 | |
| DO3MHA-11 | 2026-09-06 01:33:44 | 45.24688 | 9.37267 | 107° | 37km/h | 16504m | -5.6m/s | -62.7°C | 7.3% | 0hPa | 2.5V | 00:00:00 | 02:59:55 | 00:00:00 | |
| IW2NTF | 2026-09-06 01:33:38 | 45.24707 | 9.37139 | 148° | 31km/h | 16568m | -4.8m/s | -63.2°C | 7.6% | 0hPa | 2.5V | 08:06:35 | 02:59:44 | 00:00:00 | |
| DB0ND-19 | 2026-09-06 01:33:36 | 45.24695 | 9.37156 | 106° | 18km/h | 16552m | -5.1m/s | 0°C | -1.0% | -1.0hPa | 2.5V | 00:00:00 | 00:00:00 | 00:00:00 | |
| DO3MHA-11 | 2026-09-06 01:33:34 | 45.24701 | 9.37145 | 142° | 49km/h | 16563m | -5.4m/s | -63.1°C | 7.6% | 0hPa | 2.5V | 00:00:00 | 02:59:45 | 00:00:00 | |
| DB0UT-7 | 2026-09-06 01:33:33 | 45.24707 | 9.37139 | 149° | 44km/h | 16568m | -4.8m/s | -63.1°C | 7.6% | 0hPa | 2.5V | 00:00:00 | 00:00:00 | 00:00:00 | |
| IW2NTF | 2026-09-06 01:33:28 | 45.24789 | 9.36992 | 99° | 60km/h | 16625m | -4.9m/s | -63.4°C | 7.8% | 0hPa | 2.5V | 08:06:45 | 02:59:34 | 00:00:00 | |
| DO3MHA-11 | 2026-09-06 01:33:24 | 45.24786 | 9.37013 | 107° | 46km/h | 16620m | -5.3m/s | -63.3°C | 7.8% | 0hPa | 2.4V | 00:00:00 | 02:59:35 | 00:00:00 | |
| DF1GD-15 | 2026-09-06 01:33:20 | 45.24791 | 9.36952 | 88° | 53km/h | 16636m | -5.7m/s | -63.4°C | 3.6% | 0hPa | 2.4V | 08:06:00 | 00:00:00 | 00:00:00 | |
| IW2NTF | 2026-09-06 01:33:18 | 45.24783 | 9.36853 | 113° | 18km/h | 16683m | -5.5m/s | -63.3°C | 7.6% | 0hPa | 2.4V | 08:06:55 | 02:59:24 | 00:00:00 | |
| DO3MHA-11 | 2026-09-06 01:33:14 | 45.24782 | 9.36860 | 97° | 35km/h | 16678m | -5.6m/s | -63.3°C | 7.5% | 0hPa | 2.6V | 00:00:00 | 02:59:25 | 00:00:00 | |
| IW2NTF | 2026-09-06 01:33:08 | 45.24834 | 9.36728 | 102° | 58km/h | 16738m | -5.9m/s | -63.1°C | 7.4% | 0hPa | 2.6V | 08:07:05 | 02:59:14 | 00:00:00 | |
| DO3MHA-11 | 2026-09-06 01:33:04 | 45.24830 | 9.36749 | 107° | 57km/h | 16733m | -5.8m/s | -63.0°C | 7.5% | 0hPa | 2.6V | 08:07:00 | 02:59:15 | 00:00:00 | |
| DB0UT-7 | 2026-09-06 01:33:03 | 45.24834 | 9.36728 | 103° | 47km/h | 16739m | -5.8m/s | -63.0°C | 7.4% | 0hPa | 2.5V | 00:00:00 | 02:59:14 | 00:00:00 | |
| DF1GD-15 | 2026-09-06 01:32:59 | 45.24838 | 9.36664 | 90° | 60km/h | 16757m | -6.3m/s | -63.1°C | 3.3% | 0hPa | 2.5V | 08:07:00 | 00:00:00 | 00:00:00 | |
| IW2NTF | 2026-09-06 01:32:58 | 45.24814 | 9.36542 | 63° | 35km/h | 16799m | -5.6m/s | -62.7°C | 7.3% | 0hPa | 2.5V | 08:07:15 | 02:59:04 | 00:00:00 | |
| DO3MHA-11 | 2026-09-06 01:32:54 | 45.24818 | 9.36553 | 64° | 29km/h | 16794m | -5.5m/s | -62.7°C | 7.2% | 0hPa | 2.5V | 00:00:00 | 02:59:05 | 00:00:00 | |
| IW2NTF | 2026-09-06 01:32:48 | 45.24838 | 9.36446 | 123° | 47km/h | 16860m | -6.6m/s | -62.4°C | 6.9% | 0hPa | 2.5V | 08:07:25 | 02:58:54 | 00:00:00 | |
| DO3MHA-11 | 2026-09-06 01:32:44 | 45.24831 | 9.36460 | 126° | 58km/h | 16854m | -6.5m/s | -62.3°C | 6.9% | 0hPa | 2.5V | 00:00:00 | 02:58:55 | 00:00:00 | |
| NBG1-10 | 2026-09-06 01:32:41 | 45.24851 | 9.36414 | 118° | 51km/h | 16873m | -6.5m/s | -62.4°C | 7.0% | 0hPa | 2.5V | 00:00:00 | 02:58:52 | 00:00:00 | |
| IW2NTF | 2026-09-06 01:32:37 | 45.24860 | 9.36223 | 69° | 51km/h | 16930m | -6.5m/s | -62.6°C | 7.1% | 0hPa | 2.5V | 08:07:36 | 02:58:43 | 00:00:00 | |
| DO3MHA-11 | 2026-09-06 01:32:34 | 45.24868 | 9.36261 | 78° | 38km/h | 16916m | -6.6m/s | -62.6°C | 7.2% | 0hPa | 2.5V | 00:00:00 | 02:58:45 | 00:00:00 | |
| DB0UT-7 | 2026-09-06 01:32:33 | 45.24864 | 9.36241 | 74° | 46km/h | 16923m | -6.6m/s | -62.6°C | 7.1% | 0hPa | 2.4V | 00:00:00 | 00:00:00 | 00:00:00 | |
| IW2NTF | 2026-09-06 01:32:27 | 45.24852 | 9.36115 | 123° | 38km/h | 16994m | -6.7m/s | -61.9°C | 6.6% | 0hPa | 2.5V | 08:07:46 | 02:58:33 | 00:00:00 | |
| DO3MHA-11 | 2026-09-06 01:32:24 | 45.24843 | 9.36135 | 117° | 51km/h | 16981m | -5.8m/s | -62.0°C | 6.7% | 0hPa | 2.6V | 00:00:00 | 02:58:35 | 00:00:00 | |
| IW2NTF | 2026-09-06 01:32:17 | 45.24884 | 9.35916 | 77° | 62km/h | 17059m | -6.7m/s | -62°C | 6.5% | 0hPa | 2.6V | 08:07:56 | 02:58:23 | 00:00:00 | |
| DO3MHA-11 | 2026-09-06 01:32:14 | 45.24887 | 9.35962 | 89° | 47km/h | 17047m | -6.4m/s | -61.8°C | 6.4% | 0hPa | 2.6V | 00:00:00 | 02:58:25 | 00:00:00 | |
| NBG1-10 | 2026-09-06 01:32:08 | 45.24866 | 9.35845 | 67° | 47km/h | 17086m | -6.7m/s | -62.0°C | 6.5% | 0hPa | 2.6V | 08:08:00 | 02:58:19 | 00:00:00 | |
| IW2NTF | 2026-09-06 01:32:07 | 45.24865 | 9.35785 | 121° | 35km/h | 17122m | -5.9m/s | -61.9°C | 6.3% | 0hPa | 2.6V | 08:08:06 | 02:58:13 | 00:00:00 | |
| DO3MHA-11 | 2026-09-06 01:32:04 | 45.24859 | 9.35804 | 102° | 46km/h | 17111m | -6.2m/s | -61.8°C | 6.4% | 0hPa | 2.5V | 00:00:00 | 02:58:15 | 00:00:00 | |
| DB0UT-7 | 2026-09-06 01:32:03 | 45.24861 | 9.35795 | 115° | 51km/h | 17117m | -5.5m/s | -61.8°C | 6.4% | 0hPa | 2.5V | 00:00:00 | 02:58:14 | 00:00:00 | |
| IW2NTF | 2026-09-06 01:31:57 | 45.24924 | 9.35605 | 96° | 69km/h | 17189m | -6.4m/s | -62.4°C | 6.4% | 0hPa | 2.5V | 08:08:16 | 02:58:03 | 00:00:00 | |
| DF1GD-15 | 2026-09-06 01:31:56 | 45.24897 | 9.35714 | 121° | 57km/h | 17155m | -7.2m/s | -62.1°C | 2.8% | 0hPa | 2.5V | 08:08:00 | 00:00:00 | 00:00:00 | |
| DO3MHA-11 | 2026-09-06 01:31:54 | 45.24916 | 9.35653 | 109° | 58km/h | 17176m | -6.9m/s | -62.2°C | 6.4% | 0hPa | 2.5V | 00:00:00 | 02:58:05 | 00:00:00 | |
| IW2NTF | 2026-09-06 01:31:47 | 45.24914 | 9.35437 | 124° | 27km/h | 17255m | -6.9m/s | -62.7°C | 6.6% | 0hPa | 2.5V | 08:08:26 | 02:57:53 | 00:00:00 | |
| DO3MHA-11 | 2026-09-06 01:31:44 | 45.24910 | 9.35454 | 93° | 42km/h | 17242m | -6.2m/s | -62.7°C | 6.7% | 0hPa | 2.5V | 00:00:00 | 02:57:55 | 00:00:00 | |
| IW2NTF | 2026-09-06 01:31:37 | 45.24990 | 9.35281 | 110° | 68km/h | 17322m | -6.5m/s | -62.5°C | 6.4% | 0hPa | 2.5V | 08:08:36 | 02:57:43 | 00:00:00 | |
| DF1GD-15 | 2026-09-06 01:31:36 | 45.24949 | 9.35381 | 130° | 57km/h | 17289m | -6.7m/s | -62.5°C | 2.6% | 0hPa | 2.6V | 08:08:00 | 00:00:00 | 00:00:00 | |
| NBG1-10 | 2026-09-06 01:31:35 | 45.24967 | 9.35346 | 123° | 47km/h | 17302m | -6.0m/s | -62.5°C | 6.3% | 0hPa | 2.6V | 00:00:00 | 02:57:46 | 00:00:00 | |
| DO3MHA-11 | 2026-09-06 01:31:34 | 45.24975 | 9.35325 | 119° | 57km/h | 17309m | -7.1m/s | -62.5°C | 6.4% | 0hPa | 2.6V | 08:08:00 | 02:57:45 | 00:00:00 | |
| DB0UT-7 | 2026-09-06 01:31:33 | 45.24983 | 9.35303 | 116° | 47km/h | 17316m | -6.9m/s | -62.4°C | 6.4% | 0hPa | 2.5V | 00:00:00 | 00:00:00 | 00:00:00 | |
| IW2NTF | 2026-09-06 01:31:27 | 45.25001 | 9.35104 | 81° | 40km/h | 17386m | -7.2m/s | -63°C | 6.9% | 0hPa | 2.5V | 08:08:46 | 02:57:33 | 00:00:00 | |
| DO3MHA-11 | 2026-09-06 01:31:24 | 45.25003 | 9.35134 | 87° | 31km/h | 17372m | -6.9m/s | -63.0°C | 6.9% | 0hPa | 2.6V | 00:00:00 | 02:57:35 | 00:00:00 | |
| IW2NTF | 2026-09-06 01:31:17 | 45.25021 | 9.35017 | 145° | 42km/h | 17456m | -6.6m/s | -62.4°C | 6.7% | 0hPa | 2.6V | 08:08:56 | 02:57:23 | 00:00:00 | |
| DF1GD-15 | 2026-09-06 01:31:15 | 45.24998 | 9.35042 | 119° | 20km/h | 17430m | -7.1m/s | -62.7°C | 2.8% | 0hPa | 2.6V | 08:09:00 | 00:00:00 | 00:00:00 | |
| DO3MHA-11 | 2026-09-06 01:31:14 | 45.25006 | 9.35030 | 146° | 53km/h | 17444m | -5.9m/s | -62.5°C | 6.8% | 0hPa | 2.6V | 00:00:00 | 02:57:25 | 00:00:00 | |
| IW2NTF | 2026-09-06 01:31:07 | 45.25094 | 9.34842 | 92° | 55km/h | 17525m | -5.7m/s | -61.9°C | 6.6% | 0hPa | 2.6V | 08:09:06 | 02:57:13 | 00:00:00 | |
| DO3MHA-11 | 2026-09-06 01:31:04 | 45.25090 | 9.34884 | 105° | 40km/h | 17513m | -6.2m/s | -62.2°C | 6.6% | 0hPa | 2.5V | 00:00:00 | 02:57:15 | 00:00:00 | |
| DB0UT-7 | 2026-09-06 01:31:03 | 45.25093 | 9.34863 | 98° | 40km/h | 17519m | -5.7m/s | -62.1°C | 6.7% | 0hPa | 2.5V | 00:00:00 | 02:57:14 | 00:00:00 | |
| NBG1-10 | 2026-09-06 01:31:02 | 45.25094 | 9.34842 | 93° | 40km/h | 17525m | -5.6m/s | -61.9°C | 6.6% | 0hPa | 2.5V | 00:00:00 | 02:57:13 | 00:00:00 | |
| IW2NTF | 2026-09-06 01:30:57 | 45.25111 | 9.34740 | 151° | 35km/h | 17593m | -6.9m/s | -61.2°C | 6.1% | 0hPa | 2.5V | 08:09:16 | 02:57:03 | 00:00:00 | |
| DO3MHA-11 | 2026-09-06 01:30:54 | 45.25099 | 9.34751 | 137° | 49km/h | 17578m | -6.7m/s | -61.1°C | 6.1% | 0hPa | 2.5V | 00:00:00 | 02:57:05 | 00:00:00 | |
| IW2NTF | 2026-09-06 01:30:46 | 45.25201 | 9.34573 | 90° | 49km/h | 17667m | -6.7m/s | -60.9°C | 6% | 0hPa | 2.5V | 08:09:27 | 02:56:52 | 00:00:00 | |
| DO3MHA-11 | 2026-09-06 01:30:44 | 45.25192 | 9.34633 | 113° | 38km/h | 17648m | -5.5m/s | -60.9°C | 6.2% | 0hPa | 2.5V | 00:00:00 | 02:56:55 | 00:00:00 | |
| IW2NTF | 2026-09-06 01:30:36 | 45.25225 | 9.34498 | 157° | 40km/h | 17737m | -6.1m/s | -60.1°C | 5.8% | 0hPa | 2.5V | 08:09:37 | 02:56:42 | 00:00:00 | |
| DO3MHA-11 | 2026-09-06 01:30:34 | 45.25202 | 9.34507 | 161° | 44km/h | 17718m | -5.6m/s | -60.5°C | 6.0% | 0hPa | 2.6V | 00:00:00 | 02:56:45 | 00:00:00 | |
| DB0UT-7 | 2026-09-06 01:30:33 | 45.25207 | 9.34505 | 165° | 40km/h | 17724m | -6.1m/s | -60.3°C | 6.0% | 0hPa | 2.6V | 00:00:00 | 00:00:00 | 00:00:00 | |
| DH7VM-15 | 2026-09-06 01:30:32 | 45.25208 | 9.34505 | 165° | 27km/h | 17724m | -6.1m/s | 0°C | 0% | 0hPa | 2.6V | 00:00:00 | 00:00:00 | 00:00:00 | |
| NBG1-10 | 2026-09-06 01:30:29 | 45.25246 | 9.34482 | 146° | 44km/h | 17752m | -7.1m/s | -59.8°C | 5.6% | 0hPa | 2.6V | 00:00:00 | 02:56:40 | 00:00:00 | |
| IW2NTF | 2026-09-06 01:30:26 | 45.25297 | 9.34342 | 91° | 53km/h | 17802m | -6.1m/s | -59.7°C | 5.7% | 0hPa | 2.5V | 08:09:47 | 02:56:32 | 00:00:00 | |
| DO3MHA-11 | 2026-09-06 01:30:24 | 45.25289 | 9.34403 | 111° | 42km/h | 17785m | -4.7m/s | -59.8°C | 5.7% | 0hPa | 2.6V | 00:00:00 | 02:56:35 | 00:00:00 | |
| IW2NTF | 2026-09-06 01:30:16 | 45.25290 | 9.34247 | 151° | 18km/h | 17870m | -7.5m/s | -59.6°C | 5.7% | 0hPa | 2.6V | 08:09:57 | 02:56:22 | 00:00:00 | |
| DO3MHA-11 | 2026-09-06 01:30:14 | 45.25285 | 9.34257 | 83° | 27km/h | 17849m | -6.8m/s | -59.7°C | 5.8% | 0hPa | 2.6V | 00:00:00 | 02:56:25 | 00:00:00 | |
| DF1GD-15 | 2026-09-06 01:30:13 | 45.25285 | 9.34257 | 84° | 15km/h | 17849m | -6.8m/s | -59.7°C | 2.3% | 0hPa | 2.6V | 08:10:00 | 00:00:00 | 00:00:00 | |
| IW2NTF | 2026-09-06 01:30:06 | 45.25368 | 9.34147 | 115° | 58km/h | 17936m | -6.2m/s | -59°C | 5.4% | 0hPa | 2.6V | 08:10:07 | 02:56:12 | 00:00:00 | |
| DO3MHA-11 | 2026-09-06 01:30:04 | 45.25345 | 9.34198 | 133° | 55km/h | 17919m | -5.5m/s | -59.2°C | 5.6% | 0hPa | 2.5V | 08:10:00 | 02:56:15 | 00:00:00 | |
| IW2NTF | 2026-09-06 01:29:56 | 45.25365 | 9.34007 | 47° | 16km/h | 18004m | -7.4m/s | -58.6°C | 5.2% | 0hPa | 2.5V | 08:10:17 | 02:56:02 | 00:00:00 | |
| NBG1-10 | 2026-09-06 01:29:56 | 45.25379 | 9.34056 | 85° | 29km/h | 17969m | -6.6m/s | -58.4°C | 5.1% | 0hPa | 2.5V | 00:00:00 | 02:56:07 | 00:00:00 | |
| DO3MHA-11 | 2026-09-06 01:29:54 | 45.25375 | 9.34029 | 68° | 22km/h | 17983m | -5.9m/s | -58.5°C | 5.1% | 0hPa | 2.5V | 00:00:00 | 02:56:05 | 00:00:00 | |
| DF1GD-15 | 2026-09-06 01:29:53 | 45.25375 | 9.34029 | 69° | 31km/h | 17983m | -5.9m/s | -58.5°C | 2.0% | 0hPa | 2.5V | 08:10:00 | 00:00:00 | 00:00:00 | |
| IW2NTF | 2026-09-06 01:29:46 | 45.25415 | 9.33984 | 139° | 44km/h | 18076m | -6.4m/s | -58.7°C | 5.2% | 0hPa | 2.5V | 08:10:27 | 02:55:52 | 00:00:00 | |
| DO3MHA-11 | 2026-09-06 01:29:44 | 45.25388 | 9.34003 | 170° | 42km/h | 18055m | -6.3m/s | -58.6°C | 5.2% | 0hPa | 2.6V | 00:00:00 | 02:55:55 | 00:00:00 | |
| IW2NTF | 2026-09-06 01:29:36 | 45.25422 | 9.33859 | 32° | 22km/h | 18141m | -7.5m/s | -58.7°C | 5.3% | 0hPa | 2.6V | 08:10:37 | 02:55:42 | 00:00:00 | |
| DO3MHA-11 | 2026-09-06 01:29:34 | 45.25435 | 9.33881 | 69° | 20km/h | 18120m | -6.7m/s | -58.8°C | 5.4% | 0hPa | 2.5V | 00:00:00 | 02:55:45 | 00:00:00 | |
| DF1GD-15 | 2026-09-06 01:29:33 | 45.25435 | 9.33881 | 70° | 35km/h | 18120m | -6.8m/s | -58.9°C | 2.1% | 0hPa | 2.6V | 08:11:00 | 00:00:00 | 00:00:00 | |
| IW2NTF | 2026-09-06 01:29:26 | 45.25458 | 9.33833 | 132° | 44km/h | 18212m | -6.8m/s | -58.6°C | 5.3% | 0hPa | 2.6V | 08:10:47 | 02:55:32 | 00:00:00 | |
| DO3MHA-11 | 2026-09-06 01:29:24 | 45.25433 | 9.33857 | 164° | 47km/h | 18191m | -6.5m/s | -58.8°C | 5.4% | 0hPa | 2.5V | 00:00:00 | 02:55:35 | 00:00:00 | |
| NBG1-10 | 2026-09-06 01:29:23 | 45.25441 | 9.33852 | 149° | 40km/h | 18198m | -6.8m/s | -58.8°C | 5.4% | 0hPa | 2.5V | 00:00:00 | 02:55:34 | 00:00:00 | |
| IW2NTF | 2026-09-06 01:29:16 | 45.25459 | 9.33676 | 42° | 33km/h | 18283m | -6.7m/s | -58.5°C | 5.1% | 0hPa | 2.5V | 08:10:57 | 02:55:22 | 00:00:00 | |
| DO3MHA-11 | 2026-09-06 01:29:14 | 45.25475 | 9.33712 | 73° | 24km/h | 18262m | -7.4m/s | -58.4°C | 5.0% | 0hPa | 2.5V | 00:00:00 | 02:55:25 | 00:00:00 | |
| DF1GD-15 | 2026-09-06 01:29:13 | 45.25475 | 9.33712 | 74° | 51km/h | 18262m | -7.5m/s | -58.4°C | 1.9% | 0hPa | 2.5V | 08:11:00 | 00:00:00 | 00:00:00 | |
| IW2NTF | 2026-09-06 01:29:06 | 45.25464 | 9.33643 | 128° | 44km/h | 18356m | -6.7m/s | -58.7°C | 5.1% | 0hPa | 2.5V | 08:11:07 | 02:55:12 | 00:00:00 | |
| DO3MHA-11 | 2026-09-06 01:29:04 | 45.25446 | 9.33665 | 158° | 46km/h | 18335m | -7.3m/s | -58.6°C | 5.1% | 0hPa | 2.6V | 00:00:00 | 02:55:15 | 00:00:00 | |
| DB0UT-7 | 2026-09-06 01:29:03 | 45.25452 | 9.33660 | 147° | 44km/h | 18343m | -7.1m/s | -58.6°C | 5.1% | 0hPa | 2.5V | 00:00:00 | 02:55:14 | 00:00:00 | |
| IW2NTF | 2026-09-06 01:28:56 | 45.25451 | 9.33468 | 43° | 40km/h | 18426m | -6.7m/s | -59.3°C | 5.4% | 0hPa | 2.5V | 08:11:17 | 02:55:02 | 00:00:00 | |
| DO3MHA-11 | 2026-09-06 01:28:54 | 45.25471 | 9.33510 | 70° | 29km/h | 18405m | -7.0m/s | -59.0°C | 5.2% | 0hPa | 2.5V | 00:00:00 | 02:55:05 | 00:00:00 | |
| DF1GD-15 | 2026-09-06 01:28:52 | 45.25466 | 9.33492 | 61° | 49km/h | 18413m | -7.2m/s | -59.1°C | 2.0% | 0hPa | 2.5V | 08:12:00 | 00:00:00 | 00:00:00 | |
| NBG1-10 | 2026-09-06 01:28:50 | 45.25445 | 9.33459 | 43° | 42km/h | 18434m | -7.3m/s | -59.3°C | 5.4% | 0hPa | 2.5V | 00:00:00 | 02:55:01 | 00:00:00 | |
| IW2NTF | 2026-09-06 01:28:46 | 45.25472 | 9.33412 | 131° | 51km/h | 18500m | -7m/s | -59.2°C | 5.3% | 0hPa | 2.5V | 08:11:27 | 02:54:52 | 00:00:00 | |
| DO3MHA-11 | 2026-09-06 01:28:44 | 45.25448 | 9.33439 | 151° | 53km/h | 18478m | -6.8m/s | -59.2°C | 5.3% | 0hPa | 2.5V | 00:00:00 | 02:54:55 | 00:00:00 | |
| IW2NTF | 2026-09-06 01:28:36 | 45.25489 | 9.33228 | 68° | 29km/h | 18570m | -5.8m/s | -59.4°C | 5.5% | 0hPa | 2.5V | 08:11:37 | 02:54:42 | 00:00:00 | |
| DO3MHA-11 | 2026-09-06 01:28:34 | 45.25499 | 9.33271 | 81° | 31km/h | 18548m | -6.3m/s | -59.4°C | 5.5% | 0hPa | 2.5V | 08:11:00 | 02:54:45 | 00:00:00 | |
| DB0UT-7 | 2026-09-06 01:28:33 | 45.25496 | 9.33253 | 73° | 44km/h | 18555m | -7.3m/s | -59.4°C | 5.5% | 0hPa | 2.5V | 00:00:00 | 00:00:00 | 00:00:00 | |
| DF1GD-15 | 2026-09-06 01:28:31 | 45.25492 | 9.33239 | 65° | 40km/h | 18563m | -7.8m/s | -59.4°C | 2.1% | 0hPa | 2.5V | 08:12:00 | 00:00:00 | 00:00:00 | |
| DB0ND-19 | 2026-09-06 01:28:26 | 45.25499 | 9.33208 | 163° | 35km/h | 18605m | -6.8m/s | 0°C | -1.0% | -1.0hPa | 2.5V | 00:00:00 | 00:00:00 | 00:00:00 | |
| IW2NTF | 2026-09-06 01:28:25 | 45.25569 | 9.33149 | 137° | 71km/h | 18649m | -7.7m/s | -59°C | 5.2% | 0hPa | 2.5V | 08:11:48 | 02:54:31 | 00:00:00 | |
| DO3MHA-11 | 2026-09-06 01:28:24 | 45.25519 | 9.33196 | 155° | 64km/h | 18619m | -6.9m/s | -59.3°C | 5.4% | 0hPa | 2.5V | 00:00:00 | 02:54:35 | 00:00:00 | |
| IW2NTF | 2026-09-06 01:28:14 | 45.25615 | 9.32953 | 120° | 18km/h | 18726m | -6.6m/s | -59.4°C | 5.4% | 0hPa | 2.5V | 08:11:59 | 02:54:20 | 00:00:00 | |
| DO3MHA-11 | 2026-09-06 01:28:14 | 45.25613 | 9.33020 | 98° | 35km/h | 18691m | -6.2m/s | -59.2°C | 5.4% | 0hPa | 2.5V | 00:00:00 | 02:54:25 | 00:00:00 | |
| DF1GD-15 | 2026-09-06 01:28:10 | 45.25614 | 9.32970 | 88° | 31km/h | 18711m | -7.2m/s | -59.4°C | 2.1% | 0hPa | 2.5V | 08:12:00 | 00:00:00 | 00:00:00 | |
| DO3MHA-11 | 2026-09-06 01:28:04 | 45.25651 | 9.32930 | 163° | 71km/h | 18763m | -7.6m/s | -59.1°C | 5.4% | 0hPa | 2.5V | 00:00:00 | 02:54:15 | 00:00:00 | |
| IW2NTF | 2026-09-06 01:28:01 | 45.25759 | 9.32803 | 116° | 77km/h | 18822m | -6.2m/s | -58.9°C | 5.4% | 0hPa | 2.5V | 08:12:12 | 02:54:07 | 00:00:00 | |
| DO3MHA-11 | 2026-09-06 01:27:54 | 45.25773 | 9.32755 | 105° | 38km/h | 18836m | -6.7m/s | -59.0°C | 5.5% | 0hPa | 2.6V | 00:00:00 | 02:54:05 | 00:00:00 | |
| IW2NTF | 2026-09-06 01:27:51 | 45.25792 | 9.32654 | 167° | 22km/h | 18895m | -7.7m/s | -58.6°C | 5.2% | 0hPa | 2.6V | 08:12:22 | 02:53:57 | 00:00:00 | |
| DF1GD-15 | 2026-09-06 01:27:49 | 45.25782 | 9.32682 | 94° | 35km/h | 18865m | -6.9m/s | -59.0°C | 2.0% | 0hPa | 2.5V | 08:12:00 | 00:00:00 | 00:00:00 | |
| DO3MHA-11 | 2026-09-06 01:27:44 | 45.25806 | 9.32652 | 173° | 57km/h | 18910m | -7.9m/s | -58.4°C | 5.2% | 0hPa | 2.5V | 00:00:00 | 02:53:55 | 00:00:00 | |
| IW2NTF | 2026-09-06 01:27:41 | 45.25907 | 9.32583 | 125° | 62km/h | 18969m | -6.3m/s | -58.1°C | 5.2% | 0hPa | 2.5V | 08:12:32 | 02:53:47 | 00:00:00 | |
| DO3MHA-11 | 2026-09-06 01:27:34 | 45.25923 | 9.32546 | 115° | 26km/h | 18983m | -5.9m/s | -58.1°C | 5.2% | 0hPa | 2.6V | 00:00:00 | 02:53:45 | 00:00:00 | |
| DB0UT-7 | 2026-09-06 01:27:33 | 45.25927 | 9.32528 | 108° | 33km/h | 18989m | -7.3m/s | -58.0°C | 5.2% | 0hPa | 2.5V | 00:00:00 | 00:00:00 | 00:00:00 | |
| IW2NTF | 2026-09-06 01:27:31 | 45.25928 | 9.32472 | 227° | 4km/h | 19045m | -7.8m/s | -58°C | 5% | 0hPa | 2.5V | 08:12:42 | 02:53:37 | 00:00:00 | |
| DF1GD-15 | 2026-09-06 01:27:29 | 45.25932 | 9.32487 | 89° | 29km/h | 19012m | -7.2m/s | -58.0°C | 1.9% | 0hPa | 2.5V | 08:12:00 | 00:00:00 | 00:00:00 | |
| DO3MHA-11 | 2026-09-06 01:27:24 | 45.25932 | 9.32479 | 235° | 42km/h | 19062m | -7.9m/s | -58.1°C | 5.1% | 0hPa | 2.5V | 00:00:00 | 02:53:35 | 00:00:00 | |
| IW2NTF | 2026-09-06 01:27:21 | 45.26010 | 9.32500 | 161° | 55km/h | 19125m | -7.4m/s | -58°C | 5.2% | 0hPa | 2.5V | 08:12:52 | 02:53:27 | 00:00:00 | |
| DO3MHA-11 | 2026-09-06 01:27:14 | 45.26033 | 9.32481 | 137° | 31km/h | 19140m | -7.3m/s | -57.8°C | 5.1% | 0hPa | 2.5V | 00:00:00 | 02:53:25 | 00:00:00 | |
| IW2NTF | 2026-09-06 01:27:11 | 45.26047 | 9.32401 | 16° | 13km/h | 19204m | -8.6m/s | -57.1°C | 4.7% | 0hPa | 2.5V | 08:13:02 | 02:53:17 | 00:00:00 | |
| DF1GD-15 | 2026-09-06 01:27:08 | 45.26054 | 9.32417 | 79° | 29km/h | 19180m | -7.8m/s | -57.2°C | 1.8% | 0hPa | 2.5V | 08:13:00 | 00:00:00 | 00:00:00 | |
| DO3MHA-11 | 2026-09-06 01:27:04 | 45.26042 | 9.32407 | 281° | 35km/h | 19220m | -6.8m/s | -57.1°C | 4.7% | 0hPa | 2.5V | 08:13:00 | 02:53:15 | 00:00:00 | |
| IW2NTF | 2026-09-06 01:27:01 | 45.26093 | 9.32447 | 159° | 46km/h | 19283m | -8m/s | -57.4°C | 4.8% | 0hPa | 2.5V | 08:13:12 | 02:53:07 | 00:00:00 | |
| DO3MHA-11 | 2026-09-06 01:26:54 | 45.26111 | 9.32430 | 136° | 37km/h | 19298m | -6.4m/s | -57.4°C | 4.8% | 0hPa | 2.5V | 00:00:00 | 02:53:05 | 00:00:00 | |
| IW2NTF | 2026-09-06 01:26:51 | 45.26105 | 9.32341 | 17° | 24km/h | 19362m | -7m/s | -57.9°C | 4.9% | 0hPa | 2.5V | 08:13:22 | 02:52:57 | 00:00:00 | |
| DF1GD-15 | 2026-09-06 01:26:47 | 45.26117 | 9.32352 | 53° | 37km/h | 19347m | -7.8m/s | -57.8°C | 1.8% | 0hPa | 2.6V | 08:13:00 | 00:00:00 | 00:00:00 | |
| DO3MHA-11 | 2026-09-06 01:26:44 | 45.26093 | 9.32340 | 339° | 26km/h | 19378m | -6.9m/s | -57.9°C | 4.9% | 0hPa | 2.6V | 00:00:00 | 02:52:55 | 00:00:00 | |
| IW2NTF | 2026-09-06 01:26:39 | 45.26131 | 9.32342 | 128° | 38km/h | 19456m | -7.7m/s | -58.4°C | 5% | 0hPa | 2.6V | 08:13:34 | 02:52:45 | 00:00:00 | |
| DO3MHA-11 | 2026-09-06 01:26:34 | 45.26131 | 9.32342 | 129° | 46km/h | 19456m | -7.7m/s | -58.4°C | 5.0% | 0hPa | 2.6V | 00:00:00 | 02:52:45 | 00:00:00 | |
| IW2NTF | 2026-09-06 01:26:29 | 45.26106 | 9.32202 | 21° | 40km/h | 19536m | -8.9m/s | -58.8°C | 5.2% | 0hPa | 2.5V | 08:13:44 | 02:52:35 | 00:00:00 | |
| DF1GD-15 | 2026-09-06 01:26:27 | 45.26138 | 9.32246 | 63° | 49km/h | 19505m | -7.6m/s | -58.7°C | 1.9% | 0hPa | 2.6V | 08:13:00 | 00:00:00 | 00:00:00 | |
| DO3MHA-11 | 2026-09-06 01:26:24 | 45.26106 | 9.32202 | 22° | 24km/h | 19537m | -8.9m/s | -58.8°C | 5.2% | 0hPa | 2.6V | 00:00:00 | 02:52:35 | 00:00:00 | |
| IW2NTF | 2026-09-06 01:26:19 | 45.26104 | 9.32197 | 131° | 44km/h | 19618m | -8.6m/s | -59.1°C | 5.3% | 0hPa | 2.6V | 08:13:54 | 02:52:25 | 00:00:00 | |
| DO3MHA-11 | 2026-09-06 01:26:14 | 45.26104 | 9.32197 | 132° | 49km/h | 19618m | -8.6m/s | -59.1°C | 5.3% | 0hPa | 2.6V | 00:00:00 | 02:52:25 | 00:00:00 | |
| IW2NTF | 2026-09-06 01:26:09 | 45.26087 | 9.32025 | 33° | 40km/h | 19698m | -8.3m/s | -59.1°C | 5.5% | 0hPa | 2.6V | 08:14:04 | 02:52:15 | 00:00:00 | |
| DF1GD-15 | 2026-09-06 01:26:06 | 45.26110 | 9.32066 | 66° | 55km/h | 19675m | -8.0m/s | -59.4°C | 2.1% | 0hPa | 2.6V | 08:14:00 | 00:00:00 | 00:00:00 | |
| DB0UT-7 | 2026-09-06 01:26:04 | 45.26087 | 9.32025 | 34° | 37km/h | 19699m | -8.2m/s | -59.1°C | 5.5% | 0hPa | 2.6V | 00:00:00 | 00:00:00 | 00:00:00 | |
| DO3MHA-11 | 2026-09-06 01:26:02 | 45.26075 | 9.32015 | 26° | 29km/h | 19716m | -7.7m/s | -59.0°C | 5.4% | 0hPa | 2.5V | 00:00:00 | 02:52:13 | 00:00:00 | |
| IW2NTF | 2026-09-06 01:25:59 | 45.26109 | 9.31989 | 141° | 55km/h | 19782m | -7.2m/s | -58.8°C | 5.2% | 0hPa | 2.5V | 08:14:14 | 02:52:05 | 00:00:00 | |
| DB0ND-19 | 2026-09-06 01:25:51 | 45.26145 | 9.31875 | 89° | 58km/h | 19829m | -8.1m/s | -58.7°C | 1.7% | -1.0hPa | 2.5V | 00:00:00 | 00:00:00 | 00:00:00 | |
| IW2NTF | 2026-09-06 01:25:49 | 45.26131 | 9.31817 | 46° | 27km/h | 19862m | -8.7m/s | -58.8°C | 5.3% | 0hPa | 2.5V | 08:14:24 | 02:51:55 | 00:00:00 | |
| DF1GD-15 | 2026-09-06 01:25:45 | 45.26140 | 9.31839 | 70° | 47km/h | 19845m | -7.2m/s | -58.7°C | 1.9% | 0hPa | 2.5V | 08:14:00 | 00:00:00 | 00:00:00 | |
| DO3MHA-11 | 2026-09-06 01:25:42 | 45.26124 | 9.31810 | 353° | 37km/h | 19880m | -7.2m/s | -58.7°C | 5.3% | 0hPa | 2.5V | 00:00:00 | 02:51:53 | 00:00:00 | |
| IW2NTF | 2026-09-06 01:25:39 | 45.26180 | 9.31831 | 161° | 57km/h | 19947m | -7.9m/s | -58.8°C | 5.3% | 0hPa | 2.5V | 08:14:34 | 02:51:45 | 00:00:00 | |
| DB0UT-7 | 2026-09-06 01:25:34 | 45.26180 | 9.31830 | 162° | 46km/h | 19948m | -7.9m/s | -58.7°C | 5.3% | 0hPa | 2.5V | 00:00:00 | 02:51:45 | 00:00:00 | |
| DO3MHA-11 | 2026-09-06 01:25:32 | 45.26207 | 9.31811 | 143° | 44km/h | 19964m | -5.6m/s | -58.7°C | 5.4% | 0hPa | 2.5V | 08:14:00 | 02:51:43 | 00:00:00 | |
| IW2NTF | 2026-09-06 01:25:29 | 45.26234 | 9.31700 | 50° | 16km/h | 20024m | -7.9m/s | -58.8°C | 5.5% | 0hPa | 2.5V | 08:14:44 | 02:51:35 | 00:00:00 | |
| DF1GD-15 | 2026-09-06 01:25:25 | 45.26238 | 9.31716 | 80° | 33km/h | 20009m | -7.9m/s | -58.8°C | 2.0% | 0hPa | 2.6V | 08:15:00 | 00:00:00 | 00:00:00 | |
| DB0ND-19 | 2026-09-06 01:25:20 | 45.26232 | 9.31701 | 212° | 15km/h | 20059m | -8.2m/s | -58.7°C | 1.8% | -1.0hPa | 2.6V | 00:00:00 | 00:00:00 | 00:00:00 | |
| IW2NTF | 2026-09-06 01:25:19 | 45.26284 | 9.31691 | 143° | 55km/h | 20107m | -7.2m/s | -57.8°C | 5.1% | 0hPa | 2.6V | 08:14:54 | 02:51:25 | 00:00:00 | |
| NBG1-10 | 2026-09-06 01:25:18 | 45.26243 | 9.31707 | 191° | 49km/h | 20075m | -7.3m/s | -58.4°C | 5.4% | 0hPa | 2.5V | 00:00:00 | 02:51:29 | 00:00:00 | |
| DO3MHA-11 | 2026-09-06 01:25:13 | 45.26295 | 9.31678 | 133° | 62km/h | 20116m | -7.6m/s | -57.7°C | 5.0% | 0hPa | 2.5V | 00:00:00 | 02:51:24 | 00:00:00 | |
| IW2NTF | 2026-09-06 01:25:09 | 45.26310 | 9.31495 | 54° | 49km/h | 20192m | -9m/s | -57.4°C | 4.8% | 0hPa | 2.5V | 08:15:04 | 02:51:15 | 00:00:00 | |
| DB0UT-7 | 2026-09-06 01:25:04 | 45.26310 | 9.31495 | 55° | 38km/h | 20192m | -9.0m/s | -57.4°C | 4.8% | 0hPa | 2.5V | 00:00:00 | 00:00:00 | 00:00:00 | |
| DO3MHA-11 | 2026-09-06 01:25:03 | 45.26302 | 9.31483 | 47° | 27km/h | 20202m | -8.0m/s | -57.4°C | 4.9% | 0hPa | 2.5V | 00:00:00 | 02:51:14 | 00:00:00 | |
| IW2NTF | 2026-09-06 01:24:59 | 45.26322 | 9.31449 | 139° | 49km/h | 20278m | -8.7m/s | -58°C | 5.2% | 0hPa | 2.5V | 08:15:14 | 02:51:05 | 00:00:00 | |
| DO3MHA-11 | 2026-09-06 01:24:53 | 45.26332 | 9.31436 | 132° | 62km/h | 20287m | -7.7m/s | -58.0°C | 5.2% | 0hPa | 2.6V | 00:00:00 | 02:51:04 | 00:00:00 | |
| IW2NTF | 2026-09-06 01:24:49 | 45.26352 | 9.31244 | 66° | 44km/h | 20362m | -9.4m/s | -57.4°C | 5.1% | 0hPa | 2.5V | 08:15:24 | 02:50:55 | 00:00:00 | |
| DB0ND-19 | 2026-09-06 01:24:49 | 45.26361 | 9.31352 | 100° | 71km/h | 20321m | -6.1m/s | -58.0°C | 1.7% | -1.0hPa | 2.5V | 00:00:00 | 00:00:00 | 00:00:00 | |
| NBG1-10 | 2026-09-06 01:24:45 | 45.26356 | 9.31260 | 72° | 38km/h | 20353m | -9.4m/s | -57.4°C | 5.1% | 0hPa | 2.5V | 08:15:00 | 02:50:56 | 00:00:00 | |
| DF1GD-15 | 2026-09-06 01:24:44 | 45.26356 | 9.31260 | 72° | 53km/h | 20353m | -9.4m/s | -57.4°C | 1.8% | 0hPa | 2.5V | 08:15:00 | 00:00:00 | 00:00:00 | |
| DO3MHA-11 | 2026-09-06 01:24:43 | 45.26347 | 9.31231 | 63° | 29km/h | 20372m | -9.1m/s | -57.3°C | 5.1% | 0hPa | 2.5V | 00:00:00 | 02:50:54 | 00:00:00 | |
| IW2NTF | 2026-09-06 01:24:39 | 45.26388 | 9.31212 | 165° | 58km/h | 20455m | -9m/s | -56.9°C | 4.9% | 0hPa | 2.5V | 08:15:34 | 02:50:45 | 00:00:00 | |
| DB0UT-7 | 2026-09-06 01:24:34 | 45.26388 | 9.31212 | 166° | 49km/h | 20455m | -8.9m/s | -56.9°C | 4.9% | 0hPa | 2.5V | 08:15:00 | 02:50:45 | 00:00:00 | |
| DO3MHA-11 | 2026-09-06 01:24:33 | 45.26403 | 9.31206 | 160° | 60km/h | 20466m | -9.9m/s | -56.8°C | 4.9% | 0hPa | 2.5V | 00:00:00 | 02:50:44 | 00:00:00 | |
| IW2NTF | 2026-09-06 01:24:29 | 45.26473 | 9.31054 | 83° | 37km/h | 20546m | -8.8m/s | -56.6°C | 4.9% | 0hPa | 2.5V | 08:15:44 | 02:50:35 | 00:00:00 | |
| DO3MHA-11 | 2026-09-06 01:24:23 | 45.26472 | 9.31044 | 80° | 33km/h | 20555m | -7.9m/s | -56.5°C | 4.8% | 0hPa | 2.6V | 00:00:00 | 02:50:34 | 00:00:00 | |
| IW2NTF | 2026-09-06 01:24:19 | 45.26529 | 9.31079 | 188° | 62km/h | 20643m | -10.2m/s | -56°C | 4.8% | 0hPa | 2.5V | 08:15:54 | 02:50:25 | 00:00:00 | |
| DB0ND-19 | 2026-09-06 01:24:18 | 45.26480 | 9.31052 | 213° | 33km/h | 20603m | -9.6m/s | 0°C | -1.0% | -1.0hPa | 2.5V | 00:00:00 | 00:00:00 | 00:00:00 | |
| DO3MHA-11 | 2026-09-06 01:24:13 | 45.26545 | 9.31081 | 180° | 47km/h | 20654m | -9.5m/s | -56.0°C | 4.8% | 0hPa | 2.5V | 00:00:00 | 02:50:24 | 00:00:00 | |
| NBG1-10 | 2026-09-06 01:24:12 | 45.26562 | 9.31079 | 170° | 38km/h | 20663m | -8.6m/s | -56.0°C | 4.8% | 0hPa | 2.5V | 00:00:00 | 02:50:23 | 00:00:00 | |
| IW2NTF | 2026-09-06 01:24:09 | 45.26620 | 9.30992 | 62° | 13km/h | 20738m | -8.7m/s | -55.9°C | 4.7% | 0hPa | 2.5V | 08:16:04 | 02:50:15 | 00:00:00 | |
| DB0UT-7 | 2026-09-06 01:24:04 | 45.26621 | 9.30992 | 63° | 37km/h | 20738m | -8.7m/s | -55.9°C | 4.7% | 0hPa | 2.5V | 00:00:00 | 00:00:00 | 00:00:00 | |
| DO3MHA-11 | 2026-09-06 01:24:03 | 45.26619 | 9.30990 | 344° | 40km/h | 20747m | -9.0m/s | -55.6°C | 4.6% | 0hPa | 2.5V | 00:00:00 | 02:50:14 | 00:00:00 | |
| DF1GD-15 | 2026-09-06 01:24:02 | 45.26619 | 9.30990 | 345° | 9km/h | 20747m | -9.0m/s | -55.7°C | 1.6% | 0hPa | 2.5V | 08:16:00 | 00:00:00 | 00:00:00 | |
| IW2NTF | 2026-09-06 01:23:59 | 45.26656 | 9.31092 | 199° | 51km/h | 20832m | -8.4m/s | -55.3°C | 4.4% | 0hPa | 2.5V | 08:16:14 | 02:50:05 | 00:00:00 | |
| DO3MHA-11 | 2026-09-06 01:23:53 | 45.26668 | 9.31095 | 183° | 37km/h | 20842m | -9.3m/s | -55.3°C | 4.3% | 0hPa | 2.6V | 08:16:00 | 02:50:04 | 00:00:00 | |
| IW2NTF | 2026-09-06 01:23:45 | 45.26691 | 9.31040 | 358° | 33km/h | 20928m | -8.8m/s | -55.6°C | 4.4% | 0hPa | 2.5V | 08:16:24 | 02:49:55 | 00:00:00 | |
| DO3MHA-11 | 2026-09-06 01:23:43 | 45.26683 | 9.31042 | 342° | 38km/h | 20937m | -9.3m/s | -55.6°C | 4.4% | 0hPa | 2.5V | 00:00:00 | 02:49:54 | 00:00:00 | |
| DF1GD-15 | 2026-09-06 01:23:41 | 45.26675 | 9.31048 | 324° | 37km/h | 20948m | -10.1m/s | -55.8°C | 1.6% | 0hPa | 2.5V | 08:17:00 | 00:00:00 | 00:00:00 | |
| NBG1-10 | 2026-09-06 01:23:39 | 45.26662 | 9.31086 | 274° | 40km/h | 20977m | -9.3m/s | -55.9°C | 4.6% | 0hPa | 2.5V | 00:00:00 | 02:49:50 | 00:00:00 | |
| IW2NTF | 2026-09-06 01:23:35 | 45.26688 | 9.31136 | 184° | 29km/h | 21025m | -9.1m/s | -56°C | 4.6% | 0hPa | 2.5V | 08:16:34 | 02:49:45 | 00:00:00 | |
| DB0UT-7 | 2026-09-06 01:23:34 | 45.26688 | 9.31136 | 185° | 40km/h | 21025m | -9.1m/s | -56.0°C | 4.6% | 0hPa | 2.5V | 00:00:00 | 02:49:45 | 00:00:00 | |
| DO3MHA-11 | 2026-09-06 01:23:33 | 45.26695 | 9.31134 | 159° | 35km/h | 21034m | -7.9m/s | -56.0°C | 4.5% | 0hPa | 2.5V | 00:00:00 | 02:49:44 | 00:00:00 | |
| IW2NTF | 2026-09-06 01:23:29 | 45.26672 | 9.31044 | 4° | 44km/h | 21118m | -10m/s | -56.3°C | 4.6% | 0hPa | 2.5V | 08:16:44 | 02:49:35 | 00:00:00 | |
| DF1GD-15 | 2026-09-06 01:23:20 | 45.26644 | 9.31059 | 315° | 37km/h | 21147m | -10.1m/s | -56.2°C | 1.6% | 0hPa | 2.5V | 08:17:00 | 00:00:00 | 00:00:00 | |
| IW2NTF | 2026-09-06 01:23:15 | 45.26697 | 9.31067 | 102° | 44km/h | 21252m | -8.7m/s | -56.7°C | 4.7% | 0hPa | 2.5V | 08:16:58 | 02:49:21 | 00:00:00 | |
| DO3MHA-11 | 2026-09-06 01:23:15 | 45.26659 | 9.31112 | 187° | 44km/h | 21206m | -8.3m/s | -56.4°C | 4.6% | 0hPa | 2.5V | 00:00:00 | 02:49:26 | 00:00:00 | |
| NBG1-10 | 2026-09-06 01:23:06 | 45.26688 | 9.31005 | 47° | 40km/h | 21288m | -9.9m/s | -56.9°C | 4.8% | 0hPa | 2.5V | 00:00:00 | 02:49:17 | 00:00:00 | |
| IW2NTF | 2026-09-06 01:23:05 | 45.26660 | 9.31008 | 249° | 24km/h | 21346m | -8.7m/s | -57.1°C | 5% | 0hPa | 2.5V | 08:17:08 | 02:49:11 | 00:00:00 | |
| DO3MHA-11 | 2026-09-06 01:23:04 | 45.26673 | 9.30992 | 20° | 35km/h | 21307m | -9.0m/s | -56.9°C | 4.9% | 0hPa | 2.5V | 00:00:00 | 02:49:15 | 00:00:00 | |
| DF1GD-15 | 2026-09-06 01:22:59 | 45.26660 | 9.31008 | 251° | 24km/h | 21346m | -8.7m/s | -57.1°C | 1.7% | 0hPa | 2.5V | 08:17:00 | 00:00:00 | 00:00:00 | |
| IW2NTF | 2026-09-06 01:22:55 | 45.26765 | 9.30972 | 117° | 64km/h | 21438m | -9.2m/s | -57°C | 5% | 0hPa | 2.5V | 08:17:18 | 02:49:01 | 00:00:00 | |
| DO3MHA-11 | 2026-09-06 01:22:54 | 45.26719 | 9.31030 | 162° | 38km/h | 21404m | -9.2m/s | -57.1°C | 5.0% | 0hPa | 2.6V | 00:00:00 | 02:49:05 | 00:00:00 | |
| IW2NTF | 2026-09-06 01:22:45 | 45.26753 | 9.30925 | 250° | 35km/h | 21534m | -9.5m/s | -56.4°C | 4.9% | 0hPa | 2.6V | 08:17:28 | 02:48:51 | 00:00:00 | |
| DO3MHA-11 | 2026-09-06 01:22:39 | 45.26757 | 9.30937 | 234° | 47km/h | 21543m | -10.0m/s | -56.3°C | 4.9% | 0hPa | 2.5V | 00:00:00 | 02:48:50 | 00:00:00 | |
| IW2NTF | 2026-09-06 01:22:35 | 45.26844 | 9.30917 | 107° | 44km/h | 21629m | -11m/s | -55.9°C | 4.7% | 0hPa | 2.6V | 08:17:38 | 02:48:41 | 00:00:00 | |
| DB0UT-7 | 2026-09-06 01:22:34 | 45.26810 | 9.30961 | 165° | 40km/h | 21590m | -9.7m/s | -56.0°C | 4.7% | 0hPa | 2.5V | 00:00:00 | 02:48:45 | 00:00:00 | |
| DO3MHA-11 | 2026-09-06 01:22:29 | 45.26846 | 9.30901 | 93° | 33km/h | 21639m | -9.4m/s | -55.8°C | 4.7% | 0hPa | 2.5V | 00:00:00 | 02:48:40 | 00:00:00 | |
| IW2NTF | 2026-09-06 01:22:23 | 45.26817 | 9.30914 | 220° | 42km/h | 21743m | -9.3m/s | -55.7°C | 4.8% | 0hPa | 2.5V | 08:17:50 | 02:48:29 | 00:00:00 | |
| DO3MHA-11 | 2026-09-06 01:22:19 | 45.26810 | 9.30904 | 240° | 46km/h | 21734m | -9.6m/s | -55.8°C | 4.8% | 0hPa | 2.5V | 00:00:00 | 02:48:30 | 00:00:00 | |
| DF1GD-15 | 2026-09-06 01:22:18 | 45.26810 | 9.30904 | 241° | 35km/h | 21734m | -9.7m/s | -55.8°C | 1.6% | 0hPa | 2.5V | 08:18:00 | 00:00:00 | 00:00:00 | |
| DO3MHA-11 | 2026-09-06 01:22:09 | 45.26896 | 9.30861 | 92° | 42km/h | 21833m | -10.7m/s | -55.2°C | 4.6% | 0hPa | 2.5V | 08:17:00 | 02:48:20 | 00:00:00 | |
| IW2NTF | 2026-09-06 01:22:06 | 45.26857 | 9.30847 | 278° | 37km/h | 21915m | -9.8m/s | -54.7°C | 4.4% | 0hPa | 2.5V | 08:18:07 | 02:48:12 | 00:00:00 | |
| DB0UT-7 | 2026-09-06 01:22:04 | 45.26872 | 9.30822 | 352° | 40km/h | 21886m | -10.1m/s | -55.0°C | 4.5% | 0hPa | 2.5V | 00:00:00 | 00:00:00 | 00:00:00 | |
| DF1GD-15 | 2026-09-06 01:21:58 | 45.26860 | 9.30874 | 249° | 40km/h | 21935m | -11.0m/s | -54.5°C | 1.5% | 0hPa | 2.5V | 08:18:00 | 00:00:00 | 00:00:00 | |
| IW2NTF | 2026-09-06 01:21:56 | 45.26925 | 9.30877 | 104° | 40km/h | 22015m | -11.3m/s | -54.6°C | 4.4% | 0hPa | 2.5V | 08:18:17 | 02:48:02 | 00:00:00 | |
| DO3MHA-11 | 2026-09-06 01:21:56 | 45.26884 | 9.30905 | 195° | 40km/h | 21964m | -10.7m/s | -54.4°C | 4.3% | 0hPa | 2.6V | 00:00:00 | 02:48:07 | 00:00:00 | |
| IW2NTF | 2026-09-06 01:21:46 | 45.26880 | 9.30879 | 262° | 40km/h | 22120m | -11.1m/s | -54.6°C | 4.4% | 0hPa | 2.6V | 08:18:27 | 02:47:52 | 00:00:00 | |
| DO3MHA-11 | 2026-09-06 01:21:46 | 45.26903 | 9.30832 | 360° | 40km/h | 22069m | -10.4m/s | -54.6°C | 4.5% | 0hPa | 2.6V | 00:00:00 | 02:47:57 | 00:00:00 | |
| IW2NTF | 2026-09-06 01:21:36 | 45.26946 | 9.30865 | 75° | 44km/h | 22224m | -11.4m/s | -54°C | 4.2% | 0hPa | 2.6V | 08:18:37 | 02:47:42 | 00:00:00 | |
| DO3MHA-11 | 2026-09-06 01:21:36 | 45.26921 | 9.30918 | 173° | 42km/h | 22172m | -11.2m/s | -54.6°C | 4.4% | 0hPa | 2.6V | 00:00:00 | 02:47:47 | 00:00:00 | |
| DB0UT-7 | 2026-09-06 01:21:34 | 45.26940 | 9.30906 | 134° | 42km/h | 22194m | -10.4m/s | -54.3°C | 4.3% | 0hPa | 2.5V | 00:00:00 | 02:47:45 | 00:00:00 | |
| IW2NTF | 2026-09-06 01:21:26 | 45.26884 | 9.30879 | 243° | 38km/h | 22335m | -11.3m/s | -54.3°C | 4.2% | 0hPa | 2.5V | 08:18:47 | 02:47:32 | 00:00:00 | |
| DO3MHA-11 | 2026-09-06 01:21:26 | 45.26905 | 9.30827 | 348° | 40km/h | 22283m | -10.3m/s | -53.8°C | 4.0% | 0hPa | 2.6V | 00:00:00 | 02:47:37 | 00:00:00 | |
| NBG1-10 | 2026-09-06 01:21:19 | 45.26897 | 9.30898 | 205° | 42km/h | 22356m | -11.7m/s | -54.3°C | 4.3% | 0hPa | 2.6V | 00:00:00 | 02:47:30 | 00:00:00 | |
| DF1GD-15 | 2026-09-06 01:21:17 | 45.26907 | 9.30902 | 189° | 40km/h | 22368m | -11.3m/s | -54.3°C | 1.5% | 0hPa | 2.5V | 08:18:00 | 00:00:00 | 00:00:00 | |
| IW2NTF | 2026-09-06 01:21:16 | 45.26936 | 9.30831 | 53° | 38km/h | 22445m | -11.1m/s | -54.7°C | 4.3% | 0hPa | 2.5V | 08:18:57 | 02:47:22 | 00:00:00 | |
| DO3MHA-11 | 2026-09-06 01:21:16 | 45.26926 | 9.30895 | 145° | 42km/h | 22389m | -11.1m/s | -54.3°C | 4.3% | 0hPa | 2.5V | 00:00:00 | 02:47:27 | 00:00:00 | |
| DO3MHA-11 | 2026-09-06 01:21:06 | 45.26893 | 9.30839 | 308° | 40km/h | 22499m | -11.2m/s | -54.9°C | 4.5% | 0hPa | 2.5V | 00:00:00 | 02:47:17 | 00:00:00 | |
| IW2NTF | 2026-09-06 01:21:04 | 45.26914 | 9.30916 | 176° | 35km/h | 22573m | -11.8m/s | -54.7°C | 4.4% | 0hPa | 2.5V | 08:19:09 | 02:47:10 | 00:00:00 | |
| DB0UT-7 | 2026-09-06 01:21:04 | 45.26885 | 9.30869 | 279° | 44km/h | 22522m | -11.4m/s | -54.9°C | 4.5% | 0hPa | 2.6V | 00:00:00 | 00:00:00 | 00:00:00 | |
| DO3MHA-11 | 2026-09-06 01:20:56 | 45.26934 | 9.30894 | 112° | 42km/h | 22608m | -12.6m/s | -54.5°C | 4.3% | 0hPa | 2.6V | 00:00:00 | 02:47:07 | 00:00:00 | |
| IW2NTF | 2026-09-06 01:20:54 | 45.26889 | 9.30832 | 340° | 40km/h | 22691m | -12.1m/s | -54.1°C | 4.2% | 0hPa | 2.6V | 08:19:19 | 02:47:00 | 00:00:00 | |
| DO3MHA-11 | 2026-09-06 01:20:46 | 45.26871 | 9.30859 | 279° | 46km/h | 22725m | -10.8m/s | -54.3°C | 4.3% | 0hPa | 2.5V | 00:00:00 | 02:46:57 | 00:00:00 | |
| IW2NTF | 2026-09-06 01:20:41 | 45.26926 | 9.30862 | 124° | 53km/h | 22805m | -12.1m/s | -54.8°C | 4.4% | 0hPa | 2.5V | 08:19:29 | 02:46:50 | 00:00:00 | |
| DO3MHA-11 | 2026-09-06 01:20:36 | 45.26937 | 9.30805 | 83° | 40km/h | 22839m | -11.3m/s | -54.7°C | 4.6% | 0hPa | 2.6V | 08:19:00 | 02:46:47 | 00:00:00 | |
| DF1GD-15 | 2026-09-06 01:20:35 | 45.26937 | 9.30805 | 83° | 55km/h | 22839m | -11.4m/s | -54.8°C | 1.6% | 0hPa | 2.5V | 08:19:00 | 00:00:00 | 00:00:00 | |
| IW2NTF | 2026-09-06 01:20:34 | 45.26890 | 9.30760 | 304° | 27km/h | 22920m | -12.6m/s | -54.5°C | 4.5% | 0hPa | 2.5V | 08:19:39 | 02:46:40 | 00:00:00 | |
| DO3MHA-11 | 2026-09-06 01:20:26 | 45.26894 | 9.30791 | 219° | 49km/h | 22953m | -11.7m/s | -54.2°C | 4.5% | 0hPa | 2.6V | 00:00:00 | 02:46:37 | 00:00:00 | |
| IW2NTF | 2026-09-06 01:20:24 | 45.26968 | 9.30760 | 111° | 49km/h | 23033m | -13.3m/s | -53.9°C | 4.4% | 0hPa | 2.6V | 08:19:49 | 02:46:30 | 00:00:00 | |
| NBG1-10 | 2026-09-06 01:20:23 | 45.26927 | 9.30802 | 172° | 44km/h | 22986m | -12.4m/s | -54.0°C | 4.4% | 0hPa | 2.5V | 00:00:00 | 02:46:34 | 00:00:00 | |
| DO3MHA-11 | 2026-09-06 01:20:16 | 45.26963 | 9.30714 | 44° | 42km/h | 23071m | -12.8m/s | -53.7°C | 4.3% | 0hPa | 2.5V | 00:00:00 | 02:46:27 | 00:00:00 | |
| OE5DRO-10 | 2026-09-06 01:20:15 | 45.26955 | 9.30706 | 27° | 44km/h | 23083m | -12.7m/s | -53.7°C | 4.3% | 0hPa | 2.5V | 00:00:00 | 00:00:00 | 00:00:00 | |
| IW2NTF | 2026-09-06 01:20:13 | 45.26918 | 9.30767 | 243° | 42km/h | 23167m | -11.9m/s | -53.2°C | 4.2% | 0hPa | 2.5V | 08:20:00 | 02:46:19 | 00:00:00 | |
| DO3MHA-11 | 2026-09-06 01:20:06 | 45.26932 | 9.30787 | 207° | 46km/h | 23190m | -13.1m/s | -53.0°C | 4.1% | 0hPa | 2.6V | 00:00:00 | 02:46:17 | 00:00:00 | |
| DB0UT-7 | 2026-09-06 01:20:04 | 45.26952 | 9.30790 | 169° | 46km/h | 23215m | -11.8m/s | -53.0°C | 4.1% | 0hPa | 2.5V | 08:20:00 | 00:00:00 | 00:00:00 | |
| IW2NTF | 2026-09-06 01:20:03 | 45.26965 | 9.30707 | 50° | 53km/h | 23285m | -12.5m/s | -52.7°C | 4% | 0hPa | 2.6V | 08:20:10 | 02:46:09 | 00:00:00 | |
| DO3MHA-11 | 2026-09-06 01:19:56 | 45.26944 | 9.30686 | 20° | 44km/h | 23310m | -13.2m/s | -52.6°C | 4.0% | 0hPa | 2.6V | 00:00:00 | 02:46:07 | 00:00:00 | |
| DF1GD-15 | 2026-09-06 01:19:54 | 45.26932 | 9.30683 | 8° | 49km/h | 23323m | -12.4m/s | -52.7°C | 1.3% | 0hPa | 2.6V | 08:20:00 | 00:00:00 | 00:00:00 | |
| IW2NTF | 2026-09-06 01:19:53 | 45.26910 | 9.30747 | 208° | 42km/h | 23403m | -11.4m/s | -52.6°C | 3.9% | 0hPa | 2.6V | 08:20:20 | 02:45:59 | 00:00:00 | |
| NBG1-10 | 2026-09-06 01:19:48 | 45.26909 | 9.30747 | 209° | 47km/h | 23403m | -11.3m/s | -52.6°C | 3.9% | 0hPa | 2.5V | 00:00:00 | 02:45:59 | 00:00:00 | |
| DO3MHA-11 | 2026-09-06 01:19:46 | 45.26930 | 9.30751 | 173° | 47km/h | 23427m | -12.7m/s | -52.7°C | 3.9% | 0hPa | 2.5V | 00:00:00 | 02:45:57 | 00:00:00 | |
| IW2NTF | 2026-09-06 01:19:43 | 45.26956 | 9.30647 | 30° | 37km/h | 23524m | -11.9m/s | -52.8°C | 4% | 0hPa | 2.5V | 08:20:30 | 02:45:49 | 00:00:00 | |
| OE5DRO-10 | 2026-09-06 01:19:37 | 45.26947 | 9.30643 | 360° | 44km/h | 23537m | -13.1m/s | -52.7°C | 3.9% | 0hPa | 2.5V | 00:00:00 | 00:00:00 | 00:00:00 | |
| DO3MHA-11 | 2026-09-06 01:19:36 | 45.26938 | 9.30647 | 333° | 49km/h | 23551m | -12.1m/s | -52.7°C | 3.9% | 0hPa | 2.5V | 00:00:00 | 02:45:47 | 00:00:00 | |
| DB0UT-7 | 2026-09-06 01:19:34 | 45.26925 | 9.30668 | 290° | 47km/h | 23574m | -12.2m/s | -52.8°C | 4.0% | 0hPa | 2.5V | 00:00:00 | 02:45:45 | 00:00:00 | |
| IW2NTF | 2026-09-06 01:19:33 | 45.26970 | 9.30736 | 175° | 55km/h | 23645m | -11.2m/s | -53.5°C | 4.2% | 0hPa | 2.5V | 08:20:40 | 02:45:39 | 00:00:00 | |
| DO3MHA-11 | 2026-09-06 01:19:26 | 45.26995 | 9.30723 | 147° | 44km/h | 23670m | -13.4m/s | -53.5°C | 4.3% | 0hPa | 2.6V | 00:00:00 | 02:45:37 | 00:00:00 | |
| IW2NTF | 2026-09-06 01:19:23 | 45.26973 | 9.30651 | 334° | 44km/h | 23770m | -11.6m/s | -53.5°C | 4.3% | 0hPa | 2.6V | 08:20:50 | 02:45:29 | 00:00:00 | |
| OE5DRO-10 | 2026-09-06 01:19:18 | 45.26973 | 9.30651 | 335° | 51km/h | 23771m | -11.6m/s | -53.4°C | 4.3% | 0hPa | 2.6V | 00:00:00 | 00:00:00 | 00:00:00 | |
| DO3MHA-11 | 2026-09-06 01:19:16 | 45.26957 | 9.30675 | 298° | 47km/h | 23795m | -11.8m/s | -53.3°C | 4.3% | 0hPa | 2.5V | 00:00:00 | 02:45:27 | 00:00:00 | |
| NBG1-10 | 2026-09-06 01:19:15 | 45.26953 | 9.30692 | 279° | 51km/h | 23807m | -12.6m/s | -53.2°C | 4.3% | 0hPa | 2.5V | 08:20:00 | 02:45:26 | 00:00:00 | |
| IW2NTF | 2026-09-06 01:19:13 | 45.27003 | 9.30745 | 128° | 40km/h | 23898m | -13.5m/s | -52.9°C | 4.2% | 0hPa | 2.5V | 08:21:00 | 02:45:19 | 00:00:00 | |
| DF1GD-15 | 2026-09-06 01:19:12 | 45.26958 | 9.30728 | 245° | 53km/h | 23834m | -13.2m/s | -53.0°C | 1.4% | 0hPa | 2.6V | 08:21:00 | 00:00:00 | 00:00:00 | |
| DO3MHA-11 | 2026-09-06 01:19:06 | 45.27009 | 9.30716 | 87° | 51km/h | 23923m | -11.2m/s | -52.4°C | 4.0% | 0hPa | 2.6V | 08:21:00 | 02:45:17 | 00:00:00 | |
| DB0UT-7 | 2026-09-06 01:19:04 | 45.26997 | 9.30683 | 47° | 51km/h | 23948m | -12.8m/s | -52.2°C | 4.0% | 0hPa | 2.6V | 00:00:00 | 00:00:00 | 00:00:00 | |
| IW2NTF | 2026-09-06 01:19:03 | 45.26923 | 9.30680 | 304° | 42km/h | 24026m | -12.2m/s | -52.3°C | 4% | 0hPa | 2.6V | 08:21:10 | 02:45:09 | 00:00:00 | |
| OE5DRO-10 | 2026-09-06 01:18:58 | 45.26923 | 9.30680 | 305° | 49km/h | 24026m | -12.2m/s | -52.3°C | 4.0% | 0hPa | 2.5V | 00:00:00 | 00:00:00 | 00:00:00 | |
| DO3MHA-11 | 2026-09-06 01:18:56 | 45.26920 | 9.30707 | 245° | 53km/h | 24050m | -12.8m/s | -51.9°C | 3.9% | 0hPa | 2.5V | 00:00:00 | 02:45:07 | 00:00:00 | |
| IW2NTF | 2026-09-06 01:18:53 | 45.26993 | 9.30652 | 93° | 60km/h | 24151m | -11.7m/s | -51.9°C | 3.8% | 0hPa | 2.5V | 08:21:20 | 02:44:59 | 00:00:00 | |
| DF1GD-15 | 2026-09-06 01:18:52 | 45.26947 | 9.30724 | 173° | 51km/h | 24088m | -13.2m/s | -51.7°C | 1.3% | 0hPa | 2.6V | 08:21:00 | 00:00:00 | 00:00:00 | |
| DO3MHA-11 | 2026-09-06 01:18:46 | 45.26986 | 9.30615 | 57° | 47km/h | 24177m | -13.2m/s | -52.0°C | 3.8% | 0hPa | 2.6V | 00:00:00 | 02:44:57 | 00:00:00 | |
| IW2NTF | 2026-09-06 01:18:43 | 45.26953 | 9.30670 | 227° | 51km/h | 24279m | -14m/s | -52.5°C | 4% | 0hPa | 2.6V | 08:21:30 | 02:44:49 | 00:00:00 | |
| OE5DRO-10 | 2026-09-06 01:18:38 | 45.26953 | 9.30670 | 228° | 51km/h | 24280m | -13.9m/s | -52.5°C | 4.0% | 0hPa | 2.6V | 00:00:00 | 00:00:00 | 00:00:00 | |
| DO3MHA-11 | 2026-09-06 01:18:36 | 45.26975 | 9.30689 | 196° | 51km/h | 24307m | -12.3m/s | -52.6°C | 4.0% | 0hPa | 2.6V | 00:00:00 | 02:44:47 | 00:00:00 | |
| DB0UT-7 | 2026-09-06 01:18:34 | 45.26999 | 9.30686 | 153° | 51km/h | 24333m | -12.5m/s | -52.7°C | 4.0% | 0hPa | 2.5V | 00:00:00 | 02:44:45 | 00:00:00 | |
| IW2NTF | 2026-09-06 01:18:33 | 45.26988 | 9.30605 | 19° | 57km/h | 24411m | -13.2m/s | -52.3°C | 3.9% | 0hPa | 2.5V | 08:21:40 | 02:44:39 | 00:00:00 | |
| DF1GD-15 | 2026-09-06 01:18:32 | 45.27009 | 9.30675 | 130° | 46km/h | 24345m | -12.1m/s | -52.8°C | 1.3% | 0hPa | 2.5V | 08:22:00 | 00:00:00 | 00:00:00 | |
| DO3MHA-11 | 2026-09-06 01:18:26 | 45.26959 | 9.30604 | 343° | 49km/h | 24438m | -13.9m/s | -52.2°C | 3.9% | 0hPa | 2.5V | 00:00:00 | 02:44:37 | 00:00:00 | |
| IW2NTF | 2026-09-06 01:18:23 | 45.26962 | 9.30694 | 169° | 47km/h | 24545m | -13m/s | -52.6°C | 4% | 0hPa | 2.5V | 08:21:50 | 02:44:29 | 00:00:00 | |
| HARRO8 | 2026-09-06 01:18:20 | 45.26950 | 9.30694 | 190° | 42km/h | 24532m | -13.0m/s | -52.5°C | 1.2% | -1.0hPa | 2.5V | 00:00:00 | 00:00:00 | 00:00:00 | |
| OE5DRO-10 | 2026-09-06 01:18:19 | 45.26950 | 9.30694 | 191° | 51km/h | 24532m | -13.0m/s | -52.5°C | 4.0% | 0hPa | 2.5V | 08:21:00 | 00:00:00 | 00:00:00 | |
| DO3MHA-11 | 2026-09-06 01:18:16 | 45.26980 | 9.30675 | 121° | 53km/h | 24573m | -12.3m/s | -52.7°C | 4.0% | 0hPa | 2.6V | 00:00:00 | 02:44:27 | 00:00:00 | |
| IW2NTF | 2026-09-06 01:18:13 | 45.26923 | 9.30589 | 323° | 49km/h | 24678m | -13.5m/s | -53.1°C | 4.1% | 0hPa | 2.6V | 08:22:00 | 02:44:19 | 00:00:00 | |
| DF1GD-15 | 2026-09-06 01:18:12 | 45.26973 | 9.30600 | 49° | 60km/h | 24624m | -12.5m/s | -52.9°C | 1.3% | 0hPa | 2.5V | 08:22:00 | 00:00:00 | 00:00:00 | |
| DB0UT-7 | 2026-09-06 01:18:04 | 45.26914 | 9.30647 | 235° | 51km/h | 24731m | -13.0m/s | -52.9°C | 4.1% | 0hPa | 2.5V | 00:00:00 | 00:00:00 | 00:00:00 | |
| IW2NTF | 2026-09-06 01:18:03 | 45.26982 | 9.30632 | 116° | 57km/h | 24813m | -12.5m/s | -53°C | 4.2% | 0hPa | 2.5V | 08:22:10 | 02:44:09 | 00:00:00 | |
| OE5DRO-10 | 2026-09-06 01:18:00 | 45.26963 | 9.30660 | 155° | 53km/h | 24787m | -12.0m/s | -52.9°C | 4.2% | 0hPa | 2.5V | 00:00:00 | 00:00:00 | 00:00:00 | |
| DO3MHA-11 | 2026-09-06 01:17:59 | 45.26974 | 9.30648 | 133° | 57km/h | 24801m | -12.6m/s | -52.9°C | 4.1% | 0hPa | 2.5V | 00:00:00 | 02:44:10 | 00:00:00 | |
| IW2NTF | 2026-09-06 01:17:52 | 45.26935 | 9.30654 | 241° | 58km/h | 24957m | -13.5m/s | -52.4°C | 4% | 0hPa | 2.6V | 08:22:21 | 02:43:58 | 00:00:00 | |
| HARRO8 | 2026-09-06 01:17:49 | 45.26930 | 9.30635 | 262° | 58km/h | 24943m | -12.5m/s | -52.4°C | 1.2% | -1.0hPa | 2.5V | 00:00:00 | 00:00:00 | 00:00:00 | |
| NBG1-10 | 2026-09-06 01:17:47 | 45.26935 | 9.30654 | 242° | 55km/h | 24957m | -13.5m/s | -52.4°C | 4.0% | 0hPa | 2.5V | 00:00:00 | 02:43:58 | 00:00:00 | |
| IW2NTF | 2026-09-06 01:17:42 | 45.26995 | 9.30626 | 29° | 47km/h | 25095m | -13.8m/s | -52.1°C | 3.9% | 0hPa | 2.5V | 08:22:31 | 02:43:48 | 00:00:00 | |
| DO3MHA-11 | 2026-09-06 01:17:41 | 45.27005 | 9.30677 | 133° | 53km/h | 25039m | -14.4m/s | -52.2°C | 3.9% | 0hPa | 2.5V | 00:00:00 | 02:43:52 | 00:00:00 | |
| DB0UT-7 | 2026-09-06 01:17:34 | 45.26954 | 9.30626 | 333° | 57km/h | 25137m | -13.3m/s | -52.1°C | 4.0% | 0hPa | 2.5V | 00:00:00 | 02:43:45 | 00:00:00 | |
| IW2NTF | 2026-09-06 01:17:32 | 45.26944 | 9.30746 | 203° | 47km/h | 25238m | -12.8m/s | -52.3°C | 4% | 0hPa | 2.5V | 08:22:41 | 02:43:38 | 00:00:00 | |
| DF1GD-15 | 2026-09-06 01:17:29 | 45.26924 | 9.30701 | 269° | 60km/h | 25194m | -13.4m/s | -52.2°C | 1.3% | 0hPa | 2.6V | 08:23:00 | 00:00:00 | 00:00:00 | |
| DO3MHA-11 | 2026-09-06 01:17:26 | 45.26955 | 9.30748 | 175° | 49km/h | 25253m | -14.4m/s | -52.3°C | 4.0% | 0hPa | 2.6V | 00:00:00 | 02:43:37 | 00:00:00 | |
| IW2NTF | 2026-09-06 01:17:22 | 45.26914 | 9.30634 | 352° | 60km/h | 25381m | -14.6m/s | -52.1°C | 3.9% | 0hPa | 2.6V | 08:22:51 | 02:43:28 | 00:00:00 | |
| OE5DRO-10 | 2026-09-06 01:17:22 | 45.26976 | 9.30696 | 78° | 62km/h | 25308m | -13.8m/s | -52.2°C | 4.0% | 0hPa | 2.5V | 00:00:00 | 00:00:00 | 00:00:00 | |
| HARRO8 | 2026-09-06 01:17:18 | 45.26900 | 9.30639 | 339° | 57km/h | 25396m | -14.7m/s | -52.1°C | 1.2% | -1.0hPa | 2.5V | 00:00:00 | 00:00:00 | 00:00:00 | |
| IW2NTF | 2026-09-06 01:17:12 | 45.26942 | 9.30689 | 133° | 68km/h | 25527m | -13.4m/s | -52.6°C | 4.1% | 0hPa | 2.5V | 08:23:01 | 02:43:18 | 00:00:00 | |
| DF1GD-15 | 2026-09-06 01:17:08 | 45.26916 | 9.30711 | 170° | 58km/h | 25498m | -13.1m/s | -52.5°C | 1.3% | 0hPa | 2.5V | 08:23:00 | 00:00:00 | 00:00:00 | |
| DO3MHA-11 | 2026-09-06 01:17:07 | 45.26942 | 9.30689 | 134° | 62km/h | 25527m | -13.3m/s | -52.5°C | 4.1% | 0hPa | 2.5V | 08:23:00 | 02:43:18 | 00:00:00 | |
| DB0UT-7 | 2026-09-06 01:17:04 | 45.26955 | 9.30625 | 80° | 57km/h | 25569m | -13.9m/s | -52.5°C | 4.1% | 0hPa | 2.6V | 00:00:00 | 00:00:00 | 00:00:00 | |
| IW2NTF | 2026-09-06 01:17:02 | 45.26894 | 9.30618 | 274° | 51km/h | 25673m | -13.9m/s | -52.6°C | 4.1% | 0hPa | 2.5V | 08:23:11 | 02:43:08 | 00:00:00 | |
| DO3MHA-11 | 2026-09-06 01:16:57 | 45.26894 | 9.30618 | 275° | 64km/h | 25673m | -13.9m/s | -52.5°C | 4.1% | 0hPa | 2.6V | 00:00:00 | 02:43:08 | 00:00:00 | |
| NBG1-10 | 2026-09-06 01:16:54 | 45.26915 | 9.30674 | 216° | 64km/h | 25717m | -14.8m/s | -52.6°C | 4.2% | 0hPa | 2.6V | 00:00:00 | 02:43:05 | 00:00:00 | |
| IW2NTF | 2026-09-06 01:16:48 | 45.26966 | 9.30604 | 346° | 55km/h | 25877m | -14.3m/s | -52.1°C | 4.1% | 0hPa | 2.5V | 08:23:25 | 02:42:54 | 00:00:00 | |
| HARRO8 | 2026-09-06 01:16:47 | 45.26979 | 9.30602 | 5° | 49km/h | 25863m | -15.5m/s | -52.2°C | 1.2% | -1.0hPa | 2.6V | 00:00:00 | 00:00:00 | 00:00:00 | |
| IW2NTF | 2026-09-06 01:16:38 | 45.26994 | 9.30708 | 131° | 57km/h | 26028m | -15.5m/s | -51.4°C | 4% | 0hPa | 2.6V | 08:23:35 | 02:42:44 | 00:00:00 | |
| DB0UT-7 | 2026-09-06 01:16:34 | 45.26982 | 9.30719 | 159° | 60km/h | 26013m | -14.0m/s | -51.4°C | 4.1% | 0hPa | 2.5V | 00:00:00 | 02:42:45 | 00:00:00 | |
| IW2NTF | 2026-09-06 01:16:28 | 45.26939 | 9.30680 | 274° | 69km/h | 26179m | -15m/s | -50.9°C | 4.1% | 0hPa | 2.5V | 08:23:45 | 02:42:34 | 00:00:00 | |
| DF1GD-15 | 2026-09-06 01:16:27 | 45.26988 | 9.30625 | 27° | 53km/h | 26107m | -14.4m/s | 0°C | 0% | 0hPa | 2.6V | 00:00:00 | 00:00:00 | 00:00:00 | |
| NBG1-10 | 2026-09-06 01:16:21 | 45.26947 | 9.30727 | 241° | 58km/h | 26211m | -16.6m/s | -50.9°C | 4.2% | 0hPa | 2.6V | 00:00:00 | 02:42:32 | 00:00:00 | |
| IW2NTF | 2026-09-06 01:16:18 | 45.26989 | 9.30693 | 43° | 68km/h | 26334m | -15.8m/s | -49.3°C | 3.7% | 0hPa | 2.6V | 08:23:55 | 02:42:24 | 00:00:00 | |
| HARRO8 | 2026-09-06 01:16:16 | 45.26957 | 9.30668 | 15° | 77km/h | 26366m | -15.6m/s | -49.1°C | 1.1% | -1.0hPa | 2.6V | 00:00:00 | 00:00:00 | 00:00:00 | |
| DF1GD-15 | 2026-09-06 01:16:07 | 45.26904 | 9.30681 | 327° | 69km/h | 26417m | -15.6m/s | 0°C | 0% | 0hPa | 2.6V | 00:00:00 | 00:00:00 | 00:00:00 | |
| IW2NTF | 2026-09-06 01:16:06 | 45.26936 | 9.30743 | 149° | 66km/h | 26528m | -17.5m/s | -48.3°C | 3.6% | 0hPa | 2.6V | 08:24:07 | 02:42:12 | 00:00:00 | |
| DB0UT-7 | 2026-09-06 01:16:04 | 45.26896 | 9.30744 | 216° | 60km/h | 26479m | -16.5m/s | -48.8°C | 3.7% | 0hPa | 2.5V | 00:00:00 | 00:00:00 | 00:00:00 | |
| IW2NTF | 2026-09-06 01:15:51 | 45.26937 | 9.30748 | 174° | 58km/h | 26795m | -16m/s | -47.3°C | 3.3% | 0hPa | 2.5V | 08:24:23 | 02:41:56 | 00:00:00 | |
| IW2NTF | 2026-09-06 01:15:51 | 45.26945 | 9.30651 | 35° | 64km/h | 26896m | -16.5m/s | -47°C | 3.2% | 0hPa | 2.5V | 08:24:29 | 02:41:50 | 00:00:00 | |
| DF1GD-15 | 2026-09-06 01:15:46 | 45.26908 | 9.30737 | 216° | 62km/h | 26762m | -17.6m/s | 0°C | 0% | 0hPa | 2.6V | 00:00:00 | 00:00:00 | 00:00:00 | |
| HARRO8 | 2026-09-06 01:15:45 | 45.26949 | 9.30741 | 143° | 53km/h | 26812m | -17.2m/s | -47.3°C | 0.9% | -1.0hPa | 2.6V | 00:00:00 | 00:00:00 | 00:00:00 | |
| OE5DRO-10 | 2026-09-06 01:15:37 | 45.26917 | 9.30640 | 355° | 60km/h | 26931m | -17.0m/s | -46.9°C | 3.3% | 0hPa | 2.6V | 00:00:00 | 00:00:00 | 00:00:00 | |
| DB0UT-7 | 2026-09-06 01:15:34 | 45.26887 | 9.30675 | 284° | 60km/h | 26981m | -16.3m/s | -46.6°C | 3.2% | 0hPa | 2.6V | 08:24:00 | 02:41:45 | 00:00:00 | |
| IW2NTF | 2026-09-06 01:15:33 | 45.26933 | 9.30726 | 164° | 62km/h | 27065m | -18.8m/s | -46.5°C | 3.1% | 0hPa | 2.6V | 08:24:39 | 02:41:40 | 00:00:00 | |
| DF1GD-15 | 2026-09-06 01:15:25 | 45.26968 | 9.30679 | 109° | 71km/h | 27120m | -18.1m/s | 0°C | 0% | 0hPa | 2.6V | 00:00:00 | 00:00:00 | 00:00:00 | |
| IW2NTF | 2026-09-06 01:15:23 | 45.26897 | 9.30626 | 293° | 58km/h | 27257m | -18.4m/s | -46°C | 3% | 0hPa | 2.6V | 08:24:50 | 02:41:29 | 00:00:00 | |
| OE5DRO-10 | 2026-09-06 01:15:18 | 45.26897 | 9.30626 | 294° | 58km/h | 27258m | -18.3m/s | -45.9°C | 3.0% | 0hPa | 2.5V | 00:00:00 | 00:00:00 | 00:00:00 | |
| HARRO8 | 2026-09-06 01:15:13 | 45.26928 | 9.30692 | 172° | 55km/h | 27345m | -17.5m/s | -46.0°C | 0.9% | -1.0hPa | 2.5V | 00:00:00 | 00:00:00 | 00:00:00 | |
| IW2NTF | 2026-09-06 01:15:09 | 45.26954 | 9.30611 | 62° | 62km/h | 27431m | -17.3m/s | -46.3°C | 3.1% | 0hPa | 2.5V | 08:25:00 | 02:41:19 | 00:00:00 | |
| DB0UT-7 | 2026-09-06 01:15:04 | 45.26899 | 9.30582 | 340° | 64km/h | 27504m | -18.4m/s | -46.2°C | 3.0% | 0hPa | 2.5V | 00:00:00 | 00:00:00 | 00:00:00 | |
| IW2NTF | 2026-09-06 01:15:03 | 45.26905 | 9.30675 | 173° | 53km/h | 27627m | -18.7m/s | -46.1°C | 3% | 0hPa | 2.5V | 08:25:11 | 02:41:08 | 00:00:00 | |
| NBG1-10 | 2026-09-06 01:15:02 | 45.26877 | 9.30610 | 295° | 60km/h | 27538m | -17.5m/s | -46.1°C | 3.0% | 0hPa | 2.6V | 00:00:00 | 02:41:13 | 00:00:00 | |
| OE5DRO-10 | 2026-09-06 01:14:59 | 45.26882 | 9.30664 | 222° | 66km/h | 27591m | -18.1m/s | -46.0°C | 3.0% | 0hPa | 2.6V | 00:00:00 | 00:00:00 | 00:00:00 | |
| DF1GD-15 | 2026-09-06 01:14:55 | 45.26917 | 9.30668 | 141° | 53km/h | 27646m | -19.5m/s | 0°C | 0% | 0hPa | 2.6V | 08:25:00 | 00:00:00 | 00:00:00 | |
| IW2NTF | 2026-09-06 01:14:52 | 45.26830 | 9.30591 | 304° | 64km/h | 27829m | -18.4m/s | -46.8°C | 3.3% | 0hPa | 2.6V | 08:25:22 | 02:40:57 | 00:00:00 | |
| HARRO8 | 2026-09-06 01:14:42 | 45.26841 | 9.30648 | 185° | 47km/h | 27901m | -19.0m/s | -46.7°C | 0.9% | -1.0hPa | 2.5V | 00:00:00 | 00:00:00 | 00:00:00 | |
| IW2NTF | 2026-09-06 01:14:41 | 45.26880 | 9.30534 | 65° | 82km/h | 28013m | -19.9m/s | -46.5°C | 3.2% | 0hPa | 2.5V | 08:25:32 | 02:40:47 | 00:00:00 | |
| DF1GD-15 | 2026-09-06 01:14:35 | 45.26880 | 9.30534 | 66° | 82km/h | 28014m | -19.9m/s | 0°C | 0% | 0hPa | 2.5V | 08:25:00 | 00:00:00 | 00:00:00 | |
| DB0UT-7 | 2026-09-06 01:14:34 | 45.26855 | 9.30492 | 34° | 64km/h | 28053m | -19.8m/s | -46.2°C | 3.1% | 0hPa | 2.5V | 00:00:00 | 02:40:45 | 00:00:00 | |
| IW2NTF | 2026-09-06 01:14:30 | 45.26860 | 9.30544 | 146° | 69km/h | 28241m | -20.4m/s | -45.8°C | 3.1% | 0hPa | 2.5V | 08:30:00 | 02:40:35 | 00:00:00 | |
| NBG1-10 | 2026-09-06 01:14:29 | 45.26799 | 9.30519 | 269° | 62km/h | 28146m | -18.7m/s | -46.0°C | 3.1% | 0hPa | 2.5V | 00:00:00 | 02:40:40 | 00:00:00 | |
| OE5DRO-10 | 2026-09-06 01:14:15 | 45.26814 | 9.30418 | 324° | 58km/h | 28415m | -19.7m/s | -45.3°C | 3.0% | 0hPa | 2.6V | 00:00:00 | 00:00:00 | 00:00:00 | |
| IW2NTF | 2026-09-06 01:14:14 | 45.26854 | 9.30464 | 134° | 71km/h | 28548m | -21m/s | -45.4°C | 2.9% | 0hPa | 2.6V | 08:30:00 | 02:40:19 | 00:00:00 | |
| DF1GD-15 | 2026-09-06 01:14:11 | 45.26805 | 9.30466 | 243° | 49km/h | 28472m | -19.7m/s | 0°C | 0% | 0hPa | 2.5V | 08:26:00 | 00:00:00 | 00:00:00 | |
| DB0UT-7 | 2026-09-06 01:14:04 | 45.26867 | 9.30362 | 65° | 66km/h | 28631m | -20.4m/s | -45.4°C | 3.0% | 0hPa | 2.5V | 00:00:00 | 00:00:00 | 00:00:00 | |
| NBG1-10 | 2026-09-06 01:13:56 | 45.26791 | 9.30379 | 235° | 62km/h | 28792m | -21.6m/s | -45.3°C | 3.0% | 0hPa | 2.5V | 00:00:00 | 02:40:07 | 00:00:00 | |
| IW2NTF | 2026-09-06 01:13:53 | 45.26848 | 9.30261 | 63° | 84km/h | 28950m | -22.1m/s | -45.5°C | 3.1% | 0hPa | 2.5V | 08:30:00 | 02:39:59 | 00:00:00 | |
| IW2NTF | 2026-09-06 01:13:42 | 45.26851 | 9.30268 | 142° | 73km/h | 29197m | -22m/s | -45°C | 3% | 0hPa | 2.6V | 08:30:00 | 02:39:47 | 00:00:00 | |
| HARRO8 | 2026-09-06 01:13:40 | 45.26790 | 9.30271 | 221° | 60km/h | 29111m | -23.2m/s | -45.3°C | 0.9% | -1.0hPa | 2.6V | 00:00:00 | 00:00:00 | 00:00:00 | |
| DO3MHA-11 | 2026-09-06 01:13:37 | 45.26836 | 9.30281 | 160° | 62km/h | 29177m | -22.7m/s | -45.0°C | 3.0% | 0hPa | 2.6V | 00:00:00 | 02:39:48 | 00:00:00 | |
| DB0UT-7 | 2026-09-06 01:13:34 | 45.26871 | 9.30225 | 102° | 66km/h | 29241m | -22.3m/s | -44.9°C | 3.0% | 0hPa | 2.6V | 00:00:00 | 02:39:45 | 00:00:00 | |
| OE5DRO-10 | 2026-09-06 01:13:27 | 45.26789 | 9.30149 | 313° | 60km/h | 29392m | -20.7m/s | -44.7°C | 3.1% | 0hPa | 2.6V | 00:00:00 | 00:00:00 | 00:00:00 | |
| IW2NTF | 2026-09-06 01:13:24 | 45.26852 | 9.30178 | 132° | 80km/h | 29538m | -24.2m/s | -44.2°C | 2.9% | 0hPa | 2.6V | 08:30:00 | 02:39:31 | 00:00:00 | |
| DO3MHA-11 | 2026-09-06 01:13:22 | 45.26820 | 9.30204 | 172° | 75km/h | 29493m | -22.4m/s | -44.3°C | 2.9% | 0hPa | 2.5V | 00:00:00 | 02:39:33 | 00:00:00 | |
| DO3MHA-11 | 2026-09-06 01:13:12 | 45.26800 | 9.30060 | 322° | 60km/h | 29710m | -21.9m/s | -43.3°C | 2.8% | 0hPa | 2.6V | 00:00:00 | 02:39:23 | 00:00:00 | |
| NBG1-10 | 2026-09-06 01:13:11 | 45.26790 | 9.30077 | 302° | 58km/h | 29731m | -21.6m/s | -43.1°C | 2.8% | 0hPa | 2.6V | 00:00:00 | 02:39:22 | 00:00:00 | |
| HARRO8 | 2026-09-06 01:13:09 | 45.26787 | 9.30113 | 248° | 51km/h | 29775m | -22.3m/s | -43.1°C | 0.8% | -1.0hPa | 2.6V | 00:00:00 | 00:00:00 | 00:00:00 | |
| IW2NTF | 2026-09-06 01:13:07 | 45.26841 | 9.30047 | 78° | 82km/h | 29918m | -23.8m/s | -43.1°C | 2.8% | 0hPa | 2.6V | 08:30:00 | 02:39:13 | 00:00:00 | |
| DB0UT-7 | 2026-09-06 01:13:04 | 45.26838 | 9.30102 | 111° | 69km/h | 29875m | -22.5m/s | -43.2°C | 2.8% | 0hPa | 2.6V | 00:00:00 | 00:00:00 | 00:00:00 | |
| DB0ND-19 | 2026-09-06 01:12:55 | 45.26760 | 9.30015 | 245° | 51km/h | 30099m | -23.7m/s | -42.7°C | 0.8% | -1.0hPa | 2.6V | 00:00:00 | 00:00:00 | 00:00:00 | |
| IW2NTF | 2026-09-06 01:12:53 | 45.26848 | 9.29998 | 119° | 86km/h | 30227m | -22.6m/s | -42.4°C | 2.7% | 0hPa | 2.6V | 08:30:00 | 02:38:59 | 00:00:00 | |
| DO3MHA-11 | 2026-09-06 01:12:52 | 45.26781 | 9.30041 | 200° | 73km/h | 30144m | -21.2m/s | -42.6°C | 2.7% | 0hPa | 2.5V | 00:00:00 | 02:39:03 | 00:00:00 | |
| DO3MHA-11 | 2026-09-06 01:12:42 | 45.26828 | 9.29883 | 349° | 71km/h | 30365m | -22.4m/s | -41.8°C | 2.5% | 0hPa | 2.5V | 00:00:00 | 02:38:53 | 00:00:00 | |
| NBG1-10 | 2026-09-06 01:12:38 | 45.26827 | 9.29941 | 226° | 77km/h | 30446m | -21.2m/s | -41.6°C | 2.5% | 0hPa | 2.5V | 08:27:00 | 02:38:49 | 00:00:00 | |
| OE5DRO-10 | 2026-09-06 01:12:37 | 45.26842 | 9.29957 | 208° | 78km/h | 30467m | -22.8m/s | -41.6°C | 2.5% | 0hPa | 2.6V | 00:00:00 | 00:00:00 | 00:00:00 | |
| IW2NTF | 2026-09-06 01:12:36 | 45.26953 | 9.29909 | 111° | 71km/h | 30610m | -25m/s | -42.1°C | 2.6% | 0hPa | 2.5V | 08:30:00 | 02:38:42 | 00:00:00 | |
| DB0UT-7 | 2026-09-06 01:12:34 | 45.26907 | 9.29965 | 162° | 68km/h | 30535m | -25.7m/s | -41.9°C | 2.5% | 0hPa | 2.5V | 00:00:00 | 02:38:45 | 00:00:00 | |
| DO3MHA-11 | 2026-09-06 01:12:32 | 45.26944 | 9.29932 | 129° | 62km/h | 30585m | -26.4m/s | -42.0°C | 2.6% | 0hPa | 2.5V | 00:00:00 | 02:38:43 | 00:00:00 | |
| DB0ND-19 | 2026-09-06 01:12:24 | 45.26911 | 9.29905 | 269° | 71km/h | 30766m | -24.9m/s | -42.3°C | 0.8% | -1.0hPa | 2.5V | 00:00:00 | 00:00:00 | 00:00:00 | |
| DO3MHA-11 | 2026-09-06 01:12:22 | 45.26924 | 9.29957 | 234° | 77km/h | 30815m | -24.7m/s | -42.1°C | 2.6% | 0hPa | 2.5V | 08:27:00 | 02:38:33 | 00:00:00 | |
| IW2NTF | 2026-09-06 01:12:20 | 45.27012 | 9.29906 | 74° | 75km/h | 30978m | -22.8m/s | -42.5°C | 2.6% | 0hPa | 2.5V | 08:30:00 | 02:38:26 | 00:00:00 | |
| DO3MHA-11 | 2026-09-06 01:12:12 | 45.26975 | 9.29852 | 16° | 64km/h | 31051m | -25.4m/s | -42.6°C | 2.7% | 0hPa | 2.6V | 00:00:00 | 02:38:23 | 00:00:00 | |
| OE5DRO-10 | 2026-09-06 01:12:10 | 45.26940 | 9.29855 | 332° | 66km/h | 31100m | -25.0m/s | -42.7°C | 2.7% | 0hPa | 2.6V | 00:00:00 | 00:00:00 | 00:00:00 | |
| IW2NTF | 2026-09-06 01:12:08 | 45.26985 | 9.29891 | 141° | 88km/h | 31268m | -23.3m/s | -42.4°C | 2.7% | 0hPa | 2.6V | 08:30:00 | 02:38:14 | 00:00:00 | |
| DB0UT-7 | 2026-09-06 01:12:04 | 45.26968 | 9.29907 | 156° | 73km/h | 31246m | -24.0m/s | -42.5°C | 2.7% | 0hPa | 2.6V | 00:00:00 | 00:00:00 | 00:00:00 | |
| DB0ND-19 | 2026-09-06 01:11:53 | 45.26979 | 9.29755 | 191° | 82km/h | 31590m | -23.0m/s | -42.1°C | 0.8% | -1.0hPa | 2.6V | 00:00:00 | 00:00:00 | 00:00:00 | |
| DO3MHA-11 | 2026-09-06 01:11:52 | 45.26951 | 9.29733 | 238° | 82km/h | 31544m | -23.4m/s | -42.2°C | 2.6% | 0hPa | 2.6V | 00:00:00 | 02:38:03 | 00:00:00 | |
| OE5DRO-10 | 2026-09-06 01:11:51 | 45.26962 | 9.29746 | 210° | 75km/h | 31567m | -24.2m/s | -42.1°C | 2.6% | 0hPa | 2.6V | 00:00:00 | 00:00:00 | 00:00:00 | |
| IW2NTF | 2026-09-06 01:11:50 | 45.27073 | 9.29674 | 111° | 88km/h | 31719m | -27.5m/s | -41.9°C | 2.5% | 0hPa | 2.6V | 08:30:00 | 02:37:56 | 00:00:00 | |
| DO3MHA-11 | 2026-09-06 01:11:42 | 45.27073 | 9.29604 | 53° | 66km/h | 31798m | -25.2m/s | -41.8°C | 2.5% | 0hPa | 2.5V | 00:00:00 | 02:37:53 | 00:00:00 | |
| HARRO8 | 2026-09-06 01:11:37 | 45.27058 | 9.29676 | 230° | 80km/h | 31945m | -27.1m/s | -42.1°C | 0.7% | -1.0hPa | 2.5V | 00:00:00 | 00:00:00 | 00:00:00 | |
| IW2NTF | 2026-09-06 01:11:35 | 45.27160 | 9.29655 | 109° | 75km/h | 32101m | -27.1m/s | -42.3°C | 2.6% | 0hPa | 2.5V | 08:30:00 | 02:37:41 | 00:00:00 | |
| DB0UT-7 | 2026-09-06 01:11:34 | 45.27095 | 9.29705 | 192° | 73km/h | 32000m | -27.1m/s | -42.1°C | 2.6% | 0hPa | 2.6V | 00:00:00 | 02:37:45 | 00:00:00 | |
| DO3MHA-11 | 2026-09-06 01:11:32 | 45.27135 | 9.29696 | 150° | 69km/h | 32051m | -26.0m/s | -42.2°C | 2.6% | 0hPa | 2.6V | 00:00:00 | 02:37:43 | 00:00:00 | |
| DO3MHA-11 | 2026-09-06 01:11:22 | 45.27090 | 9.29621 | 269° | 73km/h | 32314m | -26.1m/s | -43.1°C | 2.8% | 0hPa | 2.6V | 00:00:00 | 02:37:33 | 00:00:00 | |
| NBG1-10 | 2026-09-06 01:11:21 | 45.27093 | 9.29642 | 243° | 69km/h | 32340m | -26.3m/s | -43.0°C | 2.8% | 0hPa | 2.6V | 00:00:00 | 02:37:32 | 00:00:00 | |
| IW2NTF | 2026-09-06 01:11:16 | 45.27181 | 9.29622 | 115° | 80km/h | 32497m | -30.8m/s | -42.5°C | 2.6% | 0hPa | 2.6V | 08:30:00 | 02:37:26 | 00:00:00 | |
| DO3MHA-11 | 2026-09-06 01:11:12 | 45.27176 | 9.29550 | 48° | 75km/h | 32584m | -26.7m/s | -42.3°C | 2.6% | 0hPa | 2.6V | 00:00:00 | 02:37:23 | 00:00:00 | |
| OE5DRO-10 | 2026-09-06 01:11:08 | 45.27124 | 9.29569 | 295° | 71km/h | 32691m | -27.2m/s | -42.2°C | 2.5% | 0hPa | 2.6V | 00:00:00 | 00:00:00 | 00:00:00 | |
| HARRO8 | 2026-09-06 01:11:05 | 45.27130 | 9.29652 | 235° | 84km/h | 32773m | -29.0m/s | -42.4°C | 0.7% | -1.0hPa | 2.6V | 00:00:00 | 00:00:00 | 00:00:00 | |
| DB0UT-7 | 2026-09-06 01:11:04 | 45.27145 | 9.29673 | 219° | 64km/h | 32801m | -27.1m/s | -42.4°C | 2.6% | 0hPa | 2.6V | 08:29:00 | 00:00:00 | 00:00:00 | |
| IW2NTF | 2026-09-06 01:11:02 | 45.27210 | 9.29604 | 55° | 64km/h | 32985m | -27.6m/s | -43.1°C | 2.7% | 0hPa | 2.6V | 08:30:00 | 02:37:08 | 00:00:00 | |
| DB0ND-19 | 2026-09-06 01:10:51 | 45.27118 | 9.29634 | 293° | 68km/h | 33163m | -26.4m/s | -43.6°C | 0.8% | -1.0hPa | 2.6V | 00:00:00 | 00:00:00 | 00:00:00 | |
| PG1ADW-2 | 2026-09-06 01:10:50 | 45.27118 | 9.29634 | 294° | 53km/h | 33163m | -26.4m/s | 0°C | 0% | 0hPa | 2.6V | 00:00:00 | 00:00:00 | 08:30:00 | |
| IW2NTF | 2026-09-06 01:10:48 | 45.27156 | 9.29749 | 175° | 58km/h | 33345m | -30.3m/s | -42.8°C | 2.8% | 0hPa | 2.6V | 08:30:00 | 02:36:54 | 00:00:00 | |
| OE5DRO-10 | 2026-09-06 01:10:48 | 45.27112 | 9.29680 | 269° | 62km/h | 33216m | -26.3m/s | -43.2°C | 2.8% | 0hPa | 2.5V | 00:00:00 | 00:00:00 | 00:00:00 | |
| NBG1-10 | 2026-09-06 01:10:46 | 45.27120 | 9.29721 | 237° | 69km/h | 33266m | -25.2m/s | -42.9°C | 2.8% | 0hPa | 2.5V | 00:00:00 | 02:36:57 | 00:00:00 | |
| DO3MHA-11 | 2026-09-06 01:10:42 | 45.27169 | 9.29744 | 156° | 60km/h | 33376m | -32.0m/s | -42.7°C | 2.8% | 0hPa | 2.5V | 00:00:00 | 02:36:53 | 00:00:00 | |
| IN3HCDX | 2026-09-06 01:10:41 | 45.27170 | 9.29744 | 157° | 57km/h | 33376m | -32.0m/s | -42.8°C | 0.8% | 0hPa | 2.5V | 00:00:00 | 00:00:00 | 00:00:00 | |
| IW2NTF | 2026-09-06 01:10:38 | 45.27136 | 9.29633 | 357° | 77km/h | 33619m | -29.4m/s | -42.8°C | 2.8% | 0hPa | 2.5V | 08:30:00 | 02:36:44 | 00:00:00 | |
| DB0UT-7 | 2026-09-06 01:10:34 | 45.27154 | 9.29635 | 10° | 71km/h | 33591m | -27.6m/s | -42.8°C | 2.8% | 0hPa | 2.5V | 00:00:00 | 02:36:45 | 00:00:00 | |
| DO3MHA-11 | 2026-09-06 01:10:32 | 45.27117 | 9.29638 | 344° | 73km/h | 33649m | -30.0m/s | -42.6°C | 2.8% | 0hPa | 2.5V | 00:00:00 | 02:36:43 | 00:00:00 | |
| OE5DRO-10 | 2026-09-06 01:10:29 | 45.27075 | 9.29686 | 297° | 71km/h | 33744m | -31.7m/s | -41.9°C | 2.6% | 0hPa | 2.5V | 08:29:00 | 00:00:00 | 00:00:00 | |
| DK5PH-5 | 2026-09-06 01:10:28 | 45.27070 | 9.29709 | 278° | 62km/h | 33775m | -30.0m/s | -41.7°C | 2.6% | 0hPa | 2.5V | 00:00:00 | 02:36:39 | 00:00:00 | |
| IW2NTF | 2026-09-06 01:10:25 | 45.27171 | 9.29738 | 123° | 73km/h | 34003m | -34.2m/s | -42.1°C | 2.7% | 0hPa | 2.5V | 08:30:00 | 02:36:31 | 00:00:00 | |
| DO3MHA-11 | 2026-09-06 01:10:22 | 45.27143 | 9.29771 | 154° | 66km/h | 33938m | -31.3m/s | -42.0°C | 2.7% | 0hPa | 2.5V | 00:00:00 | 02:36:33 | 00:00:00 | |
| NBG1-10 | 2026-09-06 01:10:13 | 45.27129 | 9.29659 | 332° | 46km/h | 34210m | -31.2m/s | -41.7°C | 2.6% | 0hPa | 2.5V | 00:00:00 | 02:36:24 | 00:00:00 | |
| DO3MHA-11 | 2026-09-06 01:10:12 | 45.27114 | 9.29675 | 318° | 73km/h | 34242m | -31.3m/s | -41.6°C | 2.6% | 0hPa | 2.6V | 00:00:00 | 02:36:23 | 00:00:00 | |
| IW2NTF | 2026-09-06 01:10:11 | 45.27112 | 9.29824 | 219° | 77km/h | 34413m | -29.9m/s | -41.7°C | 2.6% | 0hPa | 2.6V | 08:30:00 | 02:36:17 | 00:00:00 | |
| DB0UT-7 | 2026-09-06 01:10:04 | 45.27142 | 9.29847 | 196° | 38km/h | 34475m | -30.0m/s | -41.8°C | 2.8% | 0hPa | 2.6V | 00:00:00 | 00:00:00 | 00:00:00 | |
| HARRO8 | 2026-09-06 01:10:03 | 45.27158 | 9.29850 | 181° | 57km/h | 34504m | -28.7m/s | -42.0°C | 0.8% | -1.0hPa | 2.6V | 00:00:00 | 00:00:00 | 00:00:00 | |
| DO3MHA-11 | 2026-09-06 01:10:02 | 45.27171 | 9.29849 | 169° | 35km/h | 34532m | -26.2m/s | -41.9°C | 2.9% | 0hPa | 2.6V | 00:00:00 | 02:36:13 | 00:00:00 | |
| IW2NTF | 2026-09-06 01:10:02 | 45.27194 | 9.29779 | 69° | 29km/h | 34701m | -33.6m/s | -41.4°C | 2.9% | 0hPa | 2.5V | 08:30:00 | 02:36:07 | 00:00:00 | |
| DK5PH-5 | 2026-09-06 01:09:53 | 45.27184 | 9.29765 | 339° | 35km/h | 34802m | -33.3m/s | -40.6°C | 2.6% | 0hPa | 2.6V | 00:00:00 | 02:36:04 | 00:00:00 | |
| DO3MHA-11 | 2026-09-06 01:09:52 | 45.27180 | 9.29769 | 317° | 38km/h | 34835m | -32.5m/s | -40.3°C | 2.6% | 0hPa | 2.6V | 00:00:00 | 02:36:03 | 00:00:00 | |
| OE5DRO-10 | 2026-09-06 01:09:51 | 45.27175 | 9.29778 | 303° | 40km/h | 34868m | -33.6m/s | -40.1°C | 2.5% | 0hPa | 2.5V | 00:00:00 | 00:00:00 | 00:00:00 | |
| IW2NTF | 2026-09-06 01:09:50 | 45.27150 | 9.29863 | 278° | 35km/h | 35173m | -52.5m/s | -39°C | 2.2% | 0hPa | 2.5V | 08:30:00 | 02:35:56 | 00:00:00 | |
| DB0ND-19 | 2026-09-06 01:09:49 | 45.27153 | 9.29839 | 283° | 33km/h | 35058m | -63.1m/s | -38.7°C | 0.6% | -1.0hPa | 2.6V | 00:00:00 | 00:00:00 | 00:00:00 | |
| S52SK | 2026-09-06 01:09:43 | 45.27149 | 9.29874 | 270° | 31km/h | 35223m | -47.5m/s | -39.0°C | 0% | 0hPa | 2.6V | 00:00:00 | 00:00:00 | 00:00:00 | |
| DO3MHA-11 | 2026-09-06 01:09:42 | 45.27153 | 9.29894 | 242° | 38km/h | 35308m | -36.0m/s | -39.2°C | 2.3% | 0hPa | 2.6V | 00:00:00 | 02:35:53 | 00:00:00 | |
| IW2NTF | 2026-09-06 01:09:40 | 45.27193 | 9.29969 | 246° | 55km/h | 35379m | 4.1m/s | -39.3°C | 2.3% | 0hPa | 2.6V | 08:30:00 | 02:35:46 | 00:00:00 | |
| NBG1-10 | 2026-09-06 01:09:39 | 45.27168 | 9.29921 | 229° | 31km/h | 35385m | -13.0m/s | -39.2°C | 2.3% | 0hPa | 2.6V | 00:00:00 | 02:35:50 | 00:00:00 | |
| S52SK | 2026-09-06 01:09:38 | 45.27168 | 9.29921 | 229° | 35km/h | 35385m | -13.0m/s | -39.2°C | 0% | 0hPa | 2.6V | 00:00:00 | 00:00:00 | 00:00:00 | |
| DB0UT-7 | 2026-09-06 01:09:34 | 45.27197 | 9.29986 | 257° | 29km/h | 35377m | 2.2m/s | -39.3°C | 2.3% | 0hPa | 2.6V | 00:00:00 | 02:35:45 | 00:00:00 | |
| DO3MHA-11 | 2026-09-06 01:09:32 | 45.27197 | 9.30016 | 289° | 27km/h | 35371m | 3.8m/s | -39.3°C | 2.3% | 0hPa | 2.5V | 00:00:00 | 02:35:43 | 00:00:00 | |
| IW2NTF | 2026-09-06 01:09:31 | 45.27176 | 9.29983 | 136° | 20km/h | 35335m | 3.9m/s | -39.5°C | 2.4% | 0hPa | 2.5V | 08:30:00 | 02:35:36 | 00:00:00 | |
| PG1ADW-2 | 2026-09-06 01:09:25 | 45.27175 | 9.29983 | 137° | 31km/h | 35335m | 3.9m/s | 0°C | 0% | 0hPa | 2.5V | 00:00:00 | 00:00:00 | 00:00:00 | |
| DK5PH-5 | 2026-09-06 01:09:23 | 45.27186 | 9.29983 | 212° | 24km/h | 35325m | 6.6m/s | -39.5°C | 2.4% | 0hPa | 2.5V | 00:00:00 | 02:35:34 | 00:00:00 | |
| DO3MHA-11 | 2026-09-06 01:09:22 | 45.27193 | 9.29992 | 229° | 33km/h | 35318m | 6.3m/s | -39.6°C | 2.4% | 0hPa | 2.5V | 00:00:00 | 02:35:33 | 08:30:00 | |
| IW2NTF | 2026-09-06 01:09:18 | 45.27188 | 9.30048 | 37° | 27km/h | 35284m | 6.4m/s | -39.7°C | 2.4% | 0hPa | 2.6V | 08:30:00 | 02:35:26 | 00:00:00 | |
| OE5DRO-10 | 2026-09-06 01:09:14 | 45.27180 | 9.30031 | 73° | 24km/h | 35274m | 4.7m/s | -39.6°C | 2.4% | 0hPa | 2.5V | 00:00:00 | 00:00:00 | 00:00:00 | |
| DO3MHA-11 | 2026-09-06 01:09:12 | 45.27179 | 9.30021 | 90° | 26km/h | 35269m | 4.2m/s | -39.6°C | 2.4% | 0hPa | 2.5V | 00:00:00 | 02:35:23 | 00:00:00 | |
| IW2NTF | 2026-09-06 01:09:10 | 45.27193 | 9.30049 | 287° | 31km/h | 35232m | 4.7m/s | -39.5°C | 2.3% | 0hPa | 2.5V | 08:30:00 | 02:35:16 | 00:00:00 | |
| DB0UT-7 | 2026-09-06 01:09:04 | 45.27189 | 9.30058 | 309° | 16km/h | 35228m | 5.1m/s | -39.5°C | 2.3% | 0hPa | 2.5V | 00:00:00 | 00:00:00 | 00:00:00 | |
| HARRO8 | 2026-09-06 01:09:01 | 45.27162 | 9.30054 | 55° | 20km/h | 35200m | 4.7m/s | -39.6°C | 0.6% | -1.0hPa | 2.5V | 00:00:00 | 00:00:00 | 00:00:00 | |
| IW2NTF | 2026-09-06 01:09:00 | 45.27164 | 9.30048 | 231° | 18km/h | 35180m | 5.8m/s | -39.6°C | 2.4% | 0hPa | 2.5V | 08:30:00 | 02:35:06 | 00:00:00 | |
| DO3MHA-11 | 2026-09-06 01:08:52 | 45.27170 | 9.30073 | 269° | 15km/h | 35164m | 5.1m/s | -39.6°C | 2.4% | 0hPa | 2.6V | 00:00:00 | 02:35:03 | 00:00:00 | |
| IW2NTF | 2026-09-06 01:08:50 | 45.27151 | 9.30094 | 17° | 11km/h | 35123m | 5.7m/s | -39.6°C | 2.3% | 0hPa | 2.6V | 08:30:00 | 02:34:56 | 00:00:00 | |
| DK5PH-5 | 2026-09-06 01:08:49 | 45.27164 | 9.30093 | 324° | 18km/h | 35147m | 5.9m/s | -39.7°C | 2.4% | 0hPa | 2.5V | 00:00:00 | 02:35:00 | 00:00:00 | |
| DO3MHA-11 | 2026-09-06 01:08:42 | 45.27146 | 9.30095 | 301° | 11km/h | 35107m | 5.7m/s | -39.6°C | 2.3% | 0hPa | 2.5V | 00:00:00 | 02:34:53 | 00:00:00 | |
| IW2NTF | 2026-09-06 01:08:39 | 45.27133 | 9.30123 | 319° | 9km/h | 35061m | 5.4m/s | -39.6°C | 2.3% | 0hPa | 2.5V | 08:30:00 | 02:34:45 | 00:00:00 | |
| OE5DRO-10 | 2026-09-06 01:08:35 | 45.27134 | 9.30120 | 324° | 20km/h | 35067m | 5.5m/s | -39.6°C | 2.3% | 0hPa | 2.5V | 00:00:00 | 00:00:00 | 00:00:00 | |
| DB0UT-7 | 2026-09-06 01:08:34 | 45.27133 | 9.30123 | 320° | 26km/h | 35061m | 5.4m/s | -39.6°C | 2.3% | 0hPa | 2.6V | 00:00:00 | 02:34:45 | 00:00:00 | |
| DO3MHA-11 | 2026-09-06 01:08:32 | 45.27130 | 9.30128 | 289° | 18km/h | 35050m | 5.4m/s | -39.6°C | 2.3% | 0hPa | 2.6V | 00:00:00 | 02:34:43 | 00:00:00 | |
| NBG1-10 | 2026-09-06 01:08:31 | 45.27129 | 9.30132 | 278° | 29km/h | 35045m | 5.4m/s | -39.6°C | 2.3% | 0hPa | 2.6V | 00:00:00 | 02:34:42 | 00:00:00 | |
| HARRO8 | 2026-09-06 01:08:30 | 45.27129 | 9.30137 | 274° | 15km/h | 35040m | 5.2m/s | -39.7°C | 0.7% | -1.0hPa | 2.5V | 00:00:00 | 00:00:00 | 00:00:00 | |
| IW2NTF | 2026-09-06 01:08:29 | 45.27117 | 9.30174 | 329° | 20km/h | 35010m | 5.8m/s | -40°C | 2.3% | 0hPa | 2.5V | 08:30:00 | 02:34:35 | 00:00:00 | |
| S52SK | 2026-09-06 01:08:23 | 45.27117 | 9.30173 | 330° | 20km/h | 35010m | 5.8m/s | -40.0°C | 0% | 0hPa | 2.6V | 00:00:00 | 00:00:00 | 00:00:00 | |
| DO3MHA-11 | 2026-09-06 01:08:22 | 45.27107 | 9.30180 | 332° | 33km/h | 35000m | 4.2m/s | -40.0°C | 2.4% | 0hPa | 2.6V | 00:00:00 | 02:34:33 | 00:00:00 | |
| IW2NTF | 2026-09-06 01:08:19 | 45.27093 | 9.30268 | 285° | 37km/h | 34960m | 4m/s | -40.3°C | 2.4% | 0hPa | 2.5V | 08:30:00 | 02:34:25 | 00:00:00 | |
| OE5DRO-10 | 2026-09-06 01:08:16 | 45.27096 | 9.30240 | 273° | 33km/h | 34969m | 4.3m/s | -40.2°C | 2.4% | 0hPa | 2.5V | 00:00:00 | 00:00:00 | 00:00:00 | |
| DO3MHA-11 | 2026-09-06 01:08:12 | 45.27086 | 9.30288 | 316° | 33km/h | 34950m | 6.1m/s | -40.2°C | 2.4% | 0hPa | 2.5V | 00:00:00 | 02:34:23 | 00:00:00 | |
| S52SK | 2026-09-06 01:08:11 | 45.27085 | 9.30288 | 317° | 27km/h | 34950m | 6.2m/s | -40.3°C | 0% | 0hPa | 2.5V | 00:00:00 | 00:00:00 | 00:00:00 | |
| IW2NTF | 2026-09-06 01:08:09 | 45.27057 | 9.30352 | 263° | 46km/h | 34909m | 5.1m/s | -40.4°C | 2.4% | 0hPa | 2.5V | 08:30:00 | 02:34:15 | 00:00:00 | |
| DB0UT-7 | 2026-09-06 01:08:04 | 45.27057 | 9.30352 | 264° | 35km/h | 34909m | 5.1m/s | -40.3°C | 2.4% | 0hPa | 2.5V | 00:00:00 | 00:00:00 | 00:00:00 | |
| DO3MHA-11 | 2026-09-06 01:08:02 | 45.27059 | 9.30384 | 270° | 31km/h | 34901m | 3.0m/s | -40.4°C | 2.4% | 0hPa | 2.6V | 00:00:00 | 02:34:13 | 00:00:00 | |
| IW2NTF | 2026-09-06 01:07:59 | 45.27016 | 9.30434 | 315° | 29km/h | 34863m | 4.7m/s | -40.6°C | 2.4% | 0hPa | 2.6V | 08:30:00 | 02:34:05 | 00:00:00 | |
| HARRO8 | 2026-09-06 01:07:59 | 45.27051 | 9.30416 | 323° | 26km/h | 34887m | 6.5m/s | -40.5°C | 0.7% | -1.0hPa | 2.6V | 00:00:00 | 00:00:00 | 00:00:00 | |
| NBG1-10 | 2026-09-06 01:07:58 | 45.27045 | 9.30420 | 343° | 31km/h | 34881m | 5.9m/s | -40.5°C | 2.4% | 0hPa | 2.6V | 00:00:00 | 02:34:09 | 00:00:00 | |
| OE5DRO-10 | 2026-09-06 01:07:57 | 45.27037 | 9.30422 | 351° | 33km/h | 34876m | 4.6m/s | -40.5°C | 2.4% | 0hPa | 2.6V | 00:00:00 | 00:00:00 | 00:00:00 | |
| DO3MHA-11 | 2026-09-06 01:07:52 | 45.27009 | 9.30455 | 278° | 31km/h | 34853m | 5.4m/s | -40.7°C | 2.4% | 0hPa | 2.6V | 00:00:00 | 02:34:03 | 08:30:00 | |
| IW2NTF | 2026-09-06 01:07:49 | 45.26992 | 9.30522 | 354° | 33km/h | 34814m | 4.6m/s | -40.7°C | 2.4% | 0hPa | 2.5V | 08:30:00 | 02:33:55 | 00:00:00 | |
| DB0ND-19 | 2026-09-06 01:07:45 | 45.26992 | 9.30522 | 354° | 31km/h | 34814m | 4.6m/s | -40.7°C | 0.7% | -1.0hPa | 2.5V | 00:00:00 | 00:00:00 | 00:00:00 | |
| DK5PH-5 | 2026-09-06 01:07:44 | 45.26992 | 9.30522 | 355° | 33km/h | 34814m | 4.6m/s | -40.7°C | 2.4% | 0hPa | 2.5V | 00:00:00 | 02:33:55 | 00:00:00 | |
| DO3MHA-11 | 2026-09-06 01:07:42 | 45.26975 | 9.30527 | 338° | 33km/h | 34806m | 3.5m/s | -40.7°C | 2.4% | 0hPa | 2.5V | 00:00:00 | 02:33:53 | 00:00:00 | |
| IW2NTF | 2026-09-06 01:07:39 | 45.26949 | 9.30615 | 297° | 20km/h | 34769m | 5.3m/s | -41.3°C | 2.5% | 0hPa | 2.5V | 08:30:00 | 02:33:45 | 00:00:00 | |
| OE5DRO-10 | 2026-09-06 01:07:38 | 45.26954 | 9.30569 | 281° | 31km/h | 34787m | 4.5m/s | -40.9°C | 2.4% | 0hPa | 2.6V | 00:00:00 | 00:00:00 | 08:30:00 | |
| DB0UT-7 | 2026-09-06 01:07:34 | 45.26949 | 9.30615 | 298° | 27km/h | 34769m | 5.3m/s | -41.3°C | 2.5% | 0hPa | 2.6V | 00:00:00 | 02:33:45 | 00:00:00 | |
| DO3MHA-11 | 2026-09-06 01:07:32 | 45.26942 | 9.30622 | 353° | 33km/h | 34758m | 4.8m/s | -41.3°C | 2.5% | 0hPa | 2.6V | 00:00:00 | 02:33:43 | 00:00:00 | |
| IW2NTF | 2026-09-06 01:07:29 | 45.26914 | 9.30687 | 273° | 46km/h | 34722m | 3.6m/s | -41.6°C | 2.5% | 0hPa | 2.6V | 08:30:00 | 02:33:35 | 00:00:00 | |
| HARRO8 | 2026-09-06 01:07:28 | 45.26921 | 9.30632 | 306° | 26km/h | 34743m | 5.1m/s | -41.5°C | 0.7% | -1.0hPa | 2.6V | 00:00:00 | 00:00:00 | 00:00:00 | |
| NBG1-10 | 2026-09-06 01:07:25 | 45.26914 | 9.30670 | 275° | 31km/h | 34726m | 4.8m/s | -41.5°C | 2.6% | 0hPa | 2.6V | 00:00:00 | 02:33:36 | 00:00:00 | |
| DO3MHA-11 | 2026-09-06 01:07:22 | 45.26911 | 9.30716 | 286° | 22km/h | 34716m | 3.8m/s | -41.7°C | 2.6% | 0hPa | 2.6V | 00:00:00 | 02:33:33 | 00:00:00 | |
| IW2NTF | 2026-09-06 01:07:19 | 45.26881 | 9.30744 | 264° | 22km/h | 34678m | 6.1m/s | -41.8°C | 2.6% | 0hPa | 2.5V | 08:30:00 | 02:33:25 | 00:00:00 | |
| OE5DRO-10 | 2026-09-06 01:07:19 | 45.26899 | 9.30734 | 351° | 22km/h | 34700m | 5.5m/s | -41.8°C | 2.6% | 0hPa | 2.5V | 00:00:00 | 00:00:00 | 00:00:00 | |
| DB0ND-19 | 2026-09-06 01:07:14 | 45.26883 | 9.30753 | 252° | 31km/h | 34672m | 6.2m/s | -41.8°C | 0.7% | -1.0hPa | 2.5V | 00:00:00 | 00:00:00 | 00:00:00 | |
| DO3MHA-11 | 2026-09-06 01:07:12 | 45.26886 | 9.30765 | 249° | 26km/h | 34666m | 4.9m/s | -41.8°C | 2.6% | 0hPa | 2.5V | 00:00:00 | 02:33:23 | 00:00:00 | |
| IW2NTF | 2026-09-06 01:07:09 | 45.26883 | 9.30809 | 34° | 22km/h | 34629m | 3.3m/s | -41.8°C | 2.6% | 0hPa | 2.5V | 08:30:00 | 02:33:15 | 00:00:00 | |
| DB0UT-7 | 2026-09-06 01:07:04 | 45.26883 | 9.30809 | 35° | 16km/h | 34630m | 3.3m/s | -41.8°C | 2.6% | 0hPa | 2.5V | 00:00:00 | 00:00:00 | 00:00:00 | |
| HARRO8 | 2026-09-06 01:06:57 | 45.26889 | 9.30845 | 245° | 35km/h | 34598m | 3.8m/s | -42.0°C | 0.8% | -1.0hPa | 2.5V | 00:00:00 | 00:00:00 | 00:00:00 | |
| IW2NTF | 2026-09-06 01:06:55 | 45.26881 | 9.30861 | 28° | 13km/h | 34564m | 4.5m/s | -42.1°C | 2.7% | 0hPa | 2.5V | 08:30:00 | 02:33:01 | 00:00:00 | |
| DO3MHA-11 | 2026-09-06 01:06:52 | 45.26888 | 9.30866 | 28° | 16km/h | 34573m | 5.1m/s | -42.1°C | 2.7% | 0hPa | 2.6V | 00:00:00 | 02:33:03 | 00:00:00 | |
| S52SK | 2026-09-06 01:06:50 | 45.26884 | 9.30863 | 33° | 16km/h | 34569m | 4.5m/s | -42.1°C | 0% | 0hPa | 2.5V | 00:00:00 | 00:00:00 | 00:00:00 | |
| S52SK | 2026-09-06 01:06:45 | 45.26880 | 9.30869 | 245° | 20km/h | 34545m | 5.2m/s | -42.1°C | 0% | 0hPa | 2.5V | 00:00:00 | 00:00:00 | 00:00:00 | |
| DK5PH-5 | 2026-09-06 01:06:44 | 45.26885 | 9.30884 | 243° | 15km/h | 34534m | 5.0m/s | -42.1°C | 2.7% | 0hPa | 2.5V | 00:00:00 | 02:32:55 | 08:30:00 | |
| IW2NTF | 2026-09-06 01:06:43 | 45.26889 | 9.30905 | 328° | 5km/h | 34505m | 5m/s | -42.1°C | 2.7% | 0hPa | 2.5V | 08:30:00 | 02:32:49 | 00:00:00 | |
| DB0ND-19 | 2026-09-06 01:06:43 | 45.26890 | 9.30896 | 247° | 13km/h | 34525m | 4.8m/s | -42.1°C | 0.8% | -1.0hPa | 2.6V | 00:00:00 | 00:00:00 | 00:00:00 | |
| DO3MHA-11 | 2026-09-06 01:06:42 | 45.26890 | 9.30896 | 248° | 9km/h | 34525m | 4.8m/s | -42.0°C | 2.7% | 0hPa | 2.6V | 00:00:00 | 02:32:53 | 00:00:00 | |
| OE5DRO-10 | 2026-09-06 01:06:41 | 45.26891 | 9.30900 | 257° | 11km/h | 34520m | 4.7m/s | -42.0°C | 2.7% | 0hPa | 2.6V | 00:00:00 | 00:00:00 | 00:00:00 | |
| S52SK | 2026-09-06 01:06:39 | 45.26891 | 9.30902 | 287° | 5km/h | 34515m | 4.8m/s | -42.1°C | 0% | 0hPa | 2.5V | 00:00:00 | 00:00:00 | 00:00:00 | |
| DB0UT-7 | 2026-09-06 01:06:34 | 45.26885 | 9.30915 | 289° | 15km/h | 34486m | 4.3m/s | -41.9°C | 2.6% | 0hPa | 2.5V | 00:00:00 | 02:32:45 | 08:30:00 | |
| S52SK | 2026-09-06 01:06:33 | 45.26885 | 9.30915 | 290° | 13km/h | 34486m | 4.3m/s | -42.0°C | 0% | 0hPa | 2.6V | 00:00:00 | 00:00:00 | 00:00:00 | |
| DO3MHA-11 | 2026-09-06 01:06:32 | 45.26882 | 9.30923 | 299° | 13km/h | 34477m | 5.4m/s | -41.9°C | 2.6% | 0hPa | 2.6V | 00:00:00 | 02:32:43 | 00:00:00 | |
| S52SK | 2026-09-06 01:06:28 | 45.26878 | 9.30935 | 282° | 11km/h | 34462m | 4.2m/s | -41.9°C | 0% | 0hPa | 2.6V | 00:00:00 | 00:00:00 | 00:00:00 | |
| HARRO8 | 2026-09-06 01:06:26 | 45.26881 | 9.30948 | 234° | 16km/h | 34447m | 5.4m/s | -41.9°C | 0.8% | -1.0hPa | 2.6V | 00:00:00 | 00:00:00 | 00:00:00 | |
| DO3MHA-11 | 2026-09-06 01:06:22 | 45.26889 | 9.30964 | 274° | 16km/h | 34429m | 5.3m/s | -41.8°C | 2.6% | 0hPa | 2.6V | 00:00:00 | 02:32:33 | 08:30:00 | |
| IW2NTF | 2026-09-06 01:06:20 | 45.26883 | 9.30987 | 238° | 26km/h | 34395m | 6m/s | -41.8°C | 2.6% | 0hPa | 2.6V | 08:30:00 | 02:32:26 | 00:00:00 | |
| DK5PH-5 | 2026-09-06 01:06:13 | 45.26892 | 9.31003 | 229° | 29km/h | 34385m | 3.4m/s | -41.8°C | 2.6% | 0hPa | 2.5V | 00:00:00 | 02:32:24 | 00:00:00 | |
| DO3MHA-11 | 2026-09-06 01:06:12 | 45.26897 | 9.31012 | 229° | 16km/h | 34382m | 2.7m/s | -41.8°C | 2.6% | 0hPa | 2.5V | 00:00:00 | 02:32:23 | 00:00:00 | |
| DB0ND-19 | 2026-09-06 01:06:11 | 45.26901 | 9.31018 | 231° | 18km/h | 34379m | 3.4m/s | -41.9°C | 0.8% | -1.0hPa | 2.5V | 00:00:00 | 00:00:00 | 00:00:00 | |
| IW2NTF | 2026-09-06 01:06:07 | 45.26888 | 9.31017 | 7° | 11km/h | 34350m | 2m/s | -41.9°C | 2.6% | 0hPa | 2.5V | 08:30:00 | 02:32:16 | 00:00:00 | |
| DB0UT-7 | 2026-09-06 01:06:04 | 45.26886 | 9.31017 | 287° | 27km/h | 34348m | 3.2m/s | -41.9°C | 2.6% | 0hPa | 2.5V | 00:00:00 | 00:00:00 | 00:00:00 | |
| OE5DRO-10 | 2026-09-06 01:06:03 | 45.26887 | 9.31021 | 238° | 31km/h | 34343m | 5.9m/s | -41.9°C | 2.6% | 0hPa | 2.5V | 00:00:00 | 00:00:00 | 00:00:00 | |
| DO3MHA-11 | 2026-09-06 01:06:02 | 45.26890 | 9.31027 | 229° | 31km/h | 34337m | 7.6m/s | -41.9°C | 2.6% | 0hPa | 2.5V | 00:00:00 | 02:32:13 | 00:00:00 | |
| IW2NTF | 2026-09-06 01:06:00 | 45.26919 | 9.31086 | 5° | 18km/h | 34303m | 7.5m/s | -41.9°C | 2.6% | 0hPa | 2.5V | 08:30:00 | 02:32:06 | 00:00:00 | |
| HARRO8 | 2026-09-06 01:05:55 | 45.26913 | 9.31083 | 23° | 29km/h | 34297m | 6.0m/s | -41.9°C | 0.7% | -1.0hPa | 2.6V | 00:00:00 | 00:00:00 | 00:00:00 | |
| DO3MHA-11 | 2026-09-06 01:05:52 | 45.26899 | 9.31072 | 37° | 33km/h | 34290m | 1.0m/s | -41.9°C | 2.6% | 0hPa | 2.6V | 00:00:00 | 02:32:03 | 00:00:00 | |
| IW2NTF | 2026-09-06 01:05:50 | 45.26929 | 9.31114 | 232° | 51km/h | 34257m | 2.1m/s | -42.1°C | 2.6% | 0hPa | 2.6V | 08:30:00 | 02:31:56 | 00:00:00 | |
| OE5DRO-10 | 2026-09-06 01:05:44 | 45.26936 | 9.31127 | 239° | 27km/h | 34255m | 2.3m/s | -42.1°C | 2.6% | 0hPa | 2.5V | 00:00:00 | 00:00:00 | 00:00:00 | |
| DO3MHA-11 | 2026-09-06 01:05:42 | 45.26940 | 9.31142 | 289° | 24km/h | 34247m | 6.3m/s | -42.1°C | 2.7% | 0hPa | 2.5V | 00:00:00 | 02:31:53 | 00:00:00 | |
| IW2NTF | 2026-09-06 01:05:40 | 45.26936 | 9.31108 | 190° | 24km/h | 34211m | 5.8m/s | -42.1°C | 2.6% | 0hPa | 2.5V | 08:30:00 | 02:31:46 | 00:00:00 | |
| DB0UT-7 | 2026-09-06 01:05:34 | 45.26943 | 9.31112 | 213° | 29km/h | 34206m | 6.3m/s | -42.1°C | 2.6% | 0hPa | 2.6V | 00:00:00 | 02:31:45 | 00:00:00 | |
| DO3MHA-11 | 2026-09-06 01:05:32 | 45.26957 | 9.31134 | 238° | 29km/h | 34194m | 5.1m/s | -42.1°C | 2.6% | 0hPa | 2.6V | 00:00:00 | 02:31:43 | 00:00:00 | |
| IW2NTF | 2026-09-06 01:05:30 | 45.26955 | 9.31168 | 84° | 27km/h | 34160m | 4.6m/s | -42.3°C | 2.7% | 0hPa | 2.6V | 08:30:00 | 02:31:36 | 00:00:00 | |
| OE5DRO-10 | 2026-09-06 01:05:25 | 45.26955 | 9.31168 | 85° | 29km/h | 34161m | 4.6m/s | -42.3°C | 2.7% | 0hPa | 2.5V | 00:00:00 | 00:00:00 | 00:00:00 | |
| HARRO8 | 2026-09-06 01:05:24 | 45.26959 | 9.31148 | 128° | 29km/h | 34153m | 3.9m/s | -42.4°C | 0.8% | -1.0hPa | 2.5V | 00:00:00 | 00:00:00 | 00:00:00 | |
| DO3MHA-11 | 2026-09-06 01:05:22 | 45.26965 | 9.31141 | 155° | 29km/h | 34149m | 4.4m/s | -42.3°C | 2.6% | 0hPa | 2.5V | 00:00:00 | 02:31:33 | 00:00:00 | |
| IW2NTF | 2026-09-06 01:05:20 | 45.26991 | 9.31190 | 320° | 18km/h | 34115m | 4.4m/s | -42.2°C | 2.6% | 0hPa | 2.6V | 08:30:00 | 02:31:26 | 00:00:00 | |
| DO3MHA-11 | 2026-09-06 01:05:12 | 45.26983 | 9.31180 | 86° | 29km/h | 34100m | 5.5m/s | -42.2°C | 2.7% | 0hPa | 2.5V | 00:00:00 | 02:31:23 | 00:00:00 | |
| IW2NTF | 2026-09-06 01:05:10 | 45.27018 | 9.31158 | 248° | 26km/h | 34066m | 5.4m/s | -42.4°C | 2.7% | 0hPa | 2.5V | 08:30:00 | 02:31:16 | 00:00:00 | |
| DB0ND-19 | 2026-09-06 01:05:09 | 45.27001 | 9.31146 | 168° | 29km/h | 34082m | 4.5m/s | -42.3°C | 0.8% | -1.0hPa | 2.6V | 00:00:00 | 00:00:00 | 00:00:00 | |
| DK5PH-5 | 2026-09-06 01:05:08 | 45.27001 | 9.31146 | 169° | 20km/h | 34082m | 4.5m/s | -42.3°C | 2.6% | 0hPa | 2.6V | 00:00:00 | 02:31:19 | 00:00:00 | |
| NBG1-10 | 2026-09-06 01:05:07 | 45.27008 | 9.31146 | 194° | 20km/h | 34077m | 4.9m/s | -42.3°C | 2.6% | 0hPa | 2.5V | 00:00:00 | 02:31:18 | 08:30:00 | |
| OE5DRO-10 | 2026-09-06 01:05:06 | 45.27014 | 9.31151 | 222° | 22km/h | 34072m | 5.3m/s | -42.3°C | 2.6% | 0hPa | 2.5V | 00:00:00 | 00:00:00 | 00:00:00 | |
| DB0UT-7 | 2026-09-06 01:05:04 | 45.27018 | 9.31167 | 275° | 18km/h | 34061m | 5.1m/s | -42.4°C | 2.7% | 0hPa | 2.5V | 00:00:00 | 00:00:00 | 00:00:00 | |
| IW2NTF | 2026-09-06 01:05:00 | 45.27021 | 9.31134 | 152° | 35km/h | 34016m | 4.7m/s | -42.6°C | 2.7% | 0hPa | 2.6V | 08:30:00 | 02:31:06 | 00:00:00 | |
| HARRO8 | 2026-09-06 01:04:53 | 45.27039 | 9.31130 | 200° | 11km/h | 34003m | 4.6m/s | -42.6°C | 0.8% | -1.0hPa | 2.5V | 00:00:00 | 00:00:00 | 00:00:00 | |
| DO3MHA-11 | 2026-09-06 01:04:52 | 45.27039 | 9.31130 | 201° | 13km/h | 34003m | 4.6m/s | -42.5°C | 2.7% | 0hPa | 2.5V | 00:00:00 | 02:31:03 | 08:30:00 | |
| IW2NTF | 2026-09-06 01:04:50 | 45.27023 | 9.31129 | 64° | 5km/h | 33967m | 5.1m/s | -42.4°C | 2.7% | 0hPa | 2.5V | 08:30:00 | 02:30:56 | 00:00:00 | |
| OE5DRO-10 | 2026-09-06 01:04:47 | 45.27028 | 9.31133 | 17° | 15km/h | 33977m | 4.6m/s | -42.4°C | 2.7% | 0hPa | 2.6V | 00:00:00 | 00:00:00 | 08:30:00 | |
| DO3MHA-11 | 2026-09-06 01:04:42 | 45.27030 | 9.31126 | 178° | 16km/h | 33950m | 5.4m/s | -42.3°C | 2.7% | 0hPa | 2.6V | 00:00:00 | 02:30:53 | 00:00:00 | |
| IW2NTF | 2026-09-06 01:04:40 | 45.27048 | 9.31108 | 54° | 16km/h | 33915m | 4.6m/s | -42.2°C | 2.7% | 0hPa | 2.6V | 08:30:00 | 02:30:46 | 00:00:00 | |
| DK5PH-5 | 2026-09-06 01:04:38 | 45.27049 | 9.31121 | 137° | 15km/h | 33932m | 5.2m/s | -42.2°C | 2.7% | 0hPa | 2.6V | 00:00:00 | 02:30:49 | 00:00:00 | |
| DB0UT-7 | 2026-09-06 01:04:34 | 45.27045 | 9.31103 | 42° | 15km/h | 33912m | 3.9m/s | -42.1°C | 2.7% | 0hPa | 2.6V | 00:00:00 | 02:30:45 | 00:00:00 | |
| DO3MHA-11 | 2026-09-06 01:04:32 | 45.27042 | 9.31101 | 320° | 16km/h | 33903m | 4.9m/s | -42.1°C | 2.6% | 0hPa | 2.6V | 00:00:00 | 02:30:43 | 00:00:00 | |
| IW2NTF | 2026-09-06 01:04:30 | 45.27063 | 9.31115 | 113° | 15km/h | 33868m | 6.3m/s | -41.9°C | 2.6% | 0hPa | 2.6V | 08:30:00 | 02:30:36 | 00:00:00 | |
| PG1ADW-2 | 2026-09-06 01:04:30 | 45.27043 | 9.31107 | 232° | 16km/h | 33892m | 5.8m/s | 0°C | 0% | 0hPa | 2.5V | 00:00:00 | 02:30:41 | 00:00:00 | |
| OE5DRO-10 | 2026-09-06 01:04:28 | 45.27051 | 9.31117 | 208° | 16km/h | 33882m | 3.7m/s | -41.9°C | 2.6% | 0hPa | 2.5V | 00:00:00 | 00:00:00 | 00:00:00 | |
| DO3MHA-11 | 2026-09-06 01:04:22 | 45.27059 | 9.31094 | 55° | 16km/h | 33852m | 4.1m/s | -41.7°C | 2.6% | 0hPa | 2.5V | 00:00:00 | 02:30:33 | 00:00:00 | |
| IW2NTF | 2026-09-06 01:04:20 | 45.27052 | 9.31108 | 236° | 16km/h | 33816m | 5.3m/s | -41.9°C | 2.6% | 0hPa | 2.5V | 08:30:00 | 02:30:26 | 00:00:00 | |
| DO3MHA-11 | 2026-09-06 01:04:12 | 45.27059 | 9.31112 | 137° | 9km/h | 33801m | 4.9m/s | -41.9°C | 2.6% | 0hPa | 2.6V | 00:00:00 | 02:30:23 | 00:00:00 | |
| IW2NTF | 2026-09-06 01:04:10 | 45.27056 | 9.31108 | 294° | 11km/h | 33765m | 4.8m/s | -42.2°C | 2.6% | 0hPa | 2.6V | 08:30:00 | 02:30:16 | 00:00:00 | |
| PG1ADW-2 | 2026-09-06 01:04:10 | 45.27060 | 9.31106 | 94° | 7km/h | 33792m | 4.8m/s | 0°C | 0% | 0hPa | 2.5V | 00:00:00 | 00:00:00 | 00:00:00 | |
| OE5DRO-10 | 2026-09-06 01:04:09 | 45.27060 | 9.31103 | 73° | 7km/h | 33786m | 5.3m/s | -42.0°C | 2.6% | 0hPa | 2.5V | 00:00:00 | 00:00:00 | 00:00:00 | |
| DK5PH-5 | 2026-09-06 01:04:08 | 45.27060 | 9.31102 | 18° | 9km/h | 33781m | 5.6m/s | -42.0°C | 2.6% | 0hPa | 2.5V | 00:00:00 | 02:30:19 | 00:00:00 | |
| DB0ND-19 | 2026-09-06 01:04:07 | 45.27059 | 9.31103 | 319° | 5km/h | 33775m | 5.2m/s | -42.2°C | 0.7% | -1.0hPa | 2.5V | 00:00:00 | 00:00:00 | 00:00:00 | |
| DB0UT-7 | 2026-09-06 01:04:04 | 45.27055 | 9.31112 | 291° | 9km/h | 33761m | 4.9m/s | -42.2°C | 2.6% | 0hPa | 2.5V | 00:00:00 | 00:00:00 | 00:00:00 | |
| DO3MHA-11 | 2026-09-06 01:04:02 | 45.27054 | 9.31116 | 286° | 5km/h | 33750m | 5.5m/s | -42.3°C | 2.6% | 0hPa | 2.5V | 00:00:00 | 02:30:13 | 00:00:00 | |
| NBG1-10 | 2026-09-06 01:04:01 | 45.27054 | 9.31117 | 220° | 11km/h | 33745m | 5.0m/s | -42.4°C | 2.6% | 0hPa | 2.5V | 00:00:00 | 02:30:12 | 00:00:00 | |
| IW2NTF | 2026-09-06 01:04:00 | 45.27056 | 9.31126 | 293° | 7km/h | 33714m | 4.3m/s | -42.6°C | 2.6% | 0hPa | 2.5V | 08:30:00 | 02:30:06 | 00:00:00 | |
| HARRO8 | 2026-09-06 01:03:51 | 45.27050 | 9.31120 | 82° | 11km/h | 33689m | 4.3m/s | -42.8°C | 0.8% | -1.0hPa | 2.5V | 00:00:00 | 00:00:00 | 00:00:00 | |
| IW2NTF | 2026-09-06 01:03:50 | 45.27060 | 9.31119 | 217° | 16km/h | 33662m | 4.5m/s | -43°C | 2.7% | 0hPa | 2.5V | 08:30:00 | 02:29:56 | 00:00:00 | |
| PG1ADW-2 | 2026-09-06 01:03:50 | 45.27049 | 9.31120 | 83° | 13km/h | 33689m | 4.3m/s | 0°C | 0% | 0hPa | 2.6V | 00:00:00 | 00:00:00 | 00:00:00 | |
| S52SK | 2026-09-06 01:03:44 | 45.27060 | 9.31119 | 218° | 16km/h | 33662m | 4.5m/s | -43.0°C | 0% | 0hPa | 2.6V | 00:00:00 | 00:00:00 | 00:00:00 | |
| DO3MHA-11 | 2026-09-06 01:03:42 | 45.27067 | 9.31124 | 118° | 13km/h | 33649m | 5.8m/s | -43.0°C | 2.8% | 0hPa | 2.6V | 00:00:00 | 02:29:53 | 00:00:00 | |
| IW2NTF | 2026-09-06 01:03:40 | 45.27058 | 9.31095 | 197° | 5km/h | 33612m | 5.5m/s | -43°C | 2.8% | 0hPa | 2.6V | 08:30:00 | 02:29:46 | 00:00:00 | |
| DK5PH-5 | 2026-09-06 01:03:38 | 45.27060 | 9.31104 | 62° | 11km/h | 33628m | 4.2m/s | -43.0°C | 2.7% | 0hPa | 2.5V | 00:00:00 | 02:29:49 | 00:00:00 | |
| DB0ND-19 | 2026-09-06 01:03:36 | 45.27058 | 9.31096 | 77° | 4km/h | 33618m | 5.6m/s | -43.1°C | 0.8% | -1.0hPa | 2.5V | 00:00:00 | 00:00:00 | 00:00:00 | |
| DB0UT-7 | 2026-09-06 01:03:34 | 45.27060 | 9.31096 | 208° | 13km/h | 33607m | 5.2m/s | -43.0°C | 2.8% | 0hPa | 2.5V | 00:00:00 | 02:29:45 | 00:00:00 | |
| DO3MHA-11 | 2026-09-06 01:03:32 | 45.27066 | 9.31099 | 189° | 11km/h | 33598m | 4.9m/s | -43.0°C | 2.7% | 0hPa | 2.5V | 00:00:00 | 02:29:43 | 00:00:00 | |
| OE5DRO-10 | 2026-09-06 01:03:31 | 45.27070 | 9.31099 | 169° | 11km/h | 33592m | 5.8m/s | -43.0°C | 2.7% | 0hPa | 2.5V | 00:00:00 | 00:00:00 | 00:00:00 | |
| IW2NTF | 2026-09-06 01:03:30 | 45.27079 | 9.31074 | 79° | 7km/h | 33561m | 5.5m/s | -43°C | 2.8% | 0hPa | 2.5V | 08:30:00 | 02:29:36 | 00:00:00 | |
| PG1ADW-2 | 2026-09-06 01:03:30 | 45.27073 | 9.31097 | 145° | 11km/h | 33587m | 5.3m/s | 0°C | 0% | 0hPa | 2.6V | 00:00:00 | 00:00:00 | 00:00:00 | |
| NBG1-10 | 2026-09-06 01:03:28 | 45.27078 | 9.31088 | 110° | 11km/h | 33577m | 4.8m/s | -43.0°C | 2.8% | 0hPa | 2.6V | 00:00:00 | 02:29:39 | 00:00:00 | |
| DO3MHA-11 | 2026-09-06 01:03:22 | 45.27078 | 9.31074 | 312° | 11km/h | 33546m | 4.4m/s | -42.9°C | 2.8% | 0hPa | 2.6V | 00:00:00 | 02:29:33 | 08:30:00 | |
| IW2NTF | 2026-09-06 01:03:20 | 45.27076 | 9.31053 | 117° | 16km/h | 33511m | 4.8m/s | -42.8°C | 2.7% | 0hPa | 2.6V | 08:30:00 | 02:29:26 | 00:00:00 | |
| HARRO8 | 2026-09-06 01:03:20 | 45.27075 | 9.31074 | 59° | 7km/h | 33531m | 5.8m/s | -42.9°C | 0.8% | -1.0hPa | 2.5V | 00:00:00 | 00:00:00 | 00:00:00 | |
| DO3MHA-11 | 2026-09-06 01:03:12 | 45.27083 | 9.31046 | 193° | 13km/h | 33495m | 4.6m/s | -42.7°C | 2.7% | 0hPa | 2.5V | 00:00:00 | 02:29:23 | 00:00:00 | |
| IW2NTF | 2026-09-06 01:03:10 | 45.27064 | 9.31046 | 17° | 18km/h | 33460m | 4.3m/s | -42.7°C | 2.7% | 0hPa | 2.5V | 08:30:00 | 02:29:16 | 00:00:00 | |
| PG1ADW-2 | 2026-09-06 01:03:10 | 45.27085 | 9.31049 | 304° | 15km/h | 33486m | 4.6m/s | 0°C | 0% | 0hPa | 2.6V | 00:00:00 | 02:29:21 | 00:00:00 | |
| DK5PH-5 | 2026-09-06 01:03:08 | 45.27080 | 9.31051 | 4° | 16km/h | 33475m | 6.1m/s | -42.6°C | 2.7% | 0hPa | 2.6V | 00:00:00 | 02:29:19 | 00:00:00 | |
| DB0ND-19 | 2026-09-06 01:03:05 | 45.27064 | 9.31046 | 17° | 18km/h | 33460m | 4.3m/s | -42.7°C | 0.8% | -1.0hPa | 2.6V | 00:00:00 | 00:00:00 | 00:00:00 | |
| DB0UT-7 | 2026-09-06 01:03:04 | 45.27060 | 9.31044 | 22° | 18km/h | 33455m | 5.3m/s | -42.6°C | 2.7% | 0hPa | 2.6V | 00:00:00 | 00:00:00 | 00:00:00 | |
| DO3MHA-11 | 2026-09-06 01:03:02 | 45.27059 | 9.31042 | 159° | 15km/h | 33445m | 5.2m/s | -42.6°C | 2.7% | 0hPa | 2.6V | 00:00:00 | 02:29:13 | 00:00:00 | |
| IW2NTF | 2026-09-06 01:03:00 | 45.27066 | 9.31030 | 351° | 16km/h | 33410m | 5.3m/s | -42.7°C | 2.7% | 0hPa | 2.6V | 08:30:00 | 02:29:06 | 00:00:00 | |
| NBG1-10 | 2026-09-06 01:02:56 | 45.27066 | 9.31030 | 352° | 22km/h | 33410m | 5.2m/s | -42.6°C | 2.7% | 0hPa | 2.6V | 00:00:00 | 02:29:06 | 00:00:00 | |
| OE5DRO-10 | 2026-09-06 01:02:53 | 45.27056 | 9.31035 | 332° | 22km/h | 33398m | 6.0m/s | -42.7°C | 2.7% | 0hPa | 2.6V | 00:00:00 | 00:00:00 | 00:00:00 | |
| DO3MHA-11 | 2026-09-06 01:02:52 | 45.27050 | 9.31040 | 329° | 18km/h | 33393m | 4.7m/s | -42.7°C | 2.7% | 0hPa | 2.5V | 00:00:00 | 02:29:03 | 00:00:00 | |
| IW2NTF | 2026-09-06 01:02:50 | 45.27027 | 9.31031 | 93° | 18km/h | 33359m | 3.7m/s | -42.9°C | 2.7% | 0hPa | 2.5V | 08:30:00 | 02:28:56 | 00:00:00 | |
| HARRO8 | 2026-09-06 01:02:49 | 45.27031 | 9.31048 | 34° | 15km/h | 33375m | 6.4m/s | -42.9°C | 0.8% | -1.0hPa | 2.5V | 00:00:00 | 00:00:00 | 00:00:00 | |
| DO3MHA-11 | 2026-09-06 01:02:42 | 45.27029 | 9.31023 | 257° | 27km/h | 33346m | 5.8m/s | -42.8°C | 2.7% | 0hPa | 2.5V | 00:00:00 | 02:28:53 | 00:00:00 | |
| DK5PH-5 | 2026-09-06 01:02:38 | 45.27015 | 9.31051 | 326° | 16km/h | 33326m | 4.4m/s | -42.8°C | 2.7% | 0hPa | 2.5V | 00:00:00 | 02:28:49 | 00:00:00 | |
| IW2NTF | 2026-09-06 01:02:36 | 45.26977 | 9.31037 | 106° | 5km/h | 33291m | 4.7m/s | -42.9°C | 2.7% | 0hPa | 2.5V | 08:30:00 | 02:28:42 | 00:00:00 | |
| DB0UT-7 | 2026-09-06 01:02:34 | 45.26984 | 9.31052 | 37° | 16km/h | 33306m | 5.1m/s | -42.8°C | 2.7% | 0hPa | 2.6V | 00:00:00 | 02:28:45 | 00:00:00 | |
| DO3MHA-11 | 2026-09-06 01:02:32 | 45.26977 | 9.31040 | 73° | 20km/h | 33296m | 4.5m/s | -42.8°C | 2.7% | 0hPa | 2.6V | 00:00:00 | 02:28:43 | 00:00:00 | |
| PG1ADW-2 | 2026-09-06 01:02:30 | 45.26978 | 9.31037 | 238° | 24km/h | 33287m | 4.9m/s | 0°C | 0% | 0hPa | 2.6V | 00:00:00 | 00:00:00 | 00:00:00 | |
| IN3HCDX | 2026-09-06 01:02:27 | 45.26979 | 9.31049 | 277° | 26km/h | 33277m | 4.8m/s | -42.9°C | 0.8% | 0hPa | 2.6V | 00:00:00 | 00:00:00 | 00:00:00 | |
| IW2NTF | 2026-09-06 01:02:24 | 45.26943 | 9.31068 | 61° | 11km/h | 33232m | 4.1m/s | -43.1°C | 2.7% | 0hPa | 2.6V | 08:30:00 | 02:28:30 | 00:00:00 | |
| DO3MHA-11 | 2026-09-06 01:02:22 | 45.26952 | 9.31082 | 27° | 15km/h | 33246m | 5.5m/s | -43.0°C | 2.7% | 0hPa | 2.5V | 00:00:00 | 02:28:33 | 00:00:00 | |
| HARRO8 | 2026-09-06 01:02:17 | 45.26941 | 9.31066 | 285° | 5km/h | 33222m | 5.8m/s | -43.2°C | 0.8% | -1.0hPa | 2.5V | 00:00:00 | 00:00:00 | 00:00:00 | |
| OE5DRO-10 | 2026-09-06 01:02:15 | 45.26940 | 9.31076 | 277° | 11km/h | 33212m | 4.9m/s | -43.3°C | 2.8% | 0hPa | 2.5V | 00:00:00 | 00:00:00 | 00:00:00 | |
| IW2NTF | 2026-09-06 01:02:13 | 45.26936 | 9.31089 | 62° | 11km/h | 33170m | 4m/s | -43.6°C | 2.8% | 0hPa | 2.5V | 08:30:00 | 02:28:18 | 00:00:00 | |
| DO3MHA-11 | 2026-09-06 01:02:12 | 45.26939 | 9.31095 | 280° | 9km/h | 33197m | 5.1m/s | -43.5°C | 2.8% | 0hPa | 2.5V | 00:00:00 | 02:28:23 | 00:00:00 | |
| DK5PH-5 | 2026-09-06 01:02:08 | 45.26937 | 9.31092 | 75° | 11km/h | 33175m | 4.8m/s | -43.6°C | 2.8% | 0hPa | 2.5V | 00:00:00 | 02:28:19 | 08:30:00 | |
| DB0UT-7 | 2026-09-06 01:02:04 | 45.26930 | 9.31084 | 334° | 9km/h | 33155m | 5.2m/s | -43.6°C | 2.9% | 0hPa | 2.6V | 00:00:00 | 00:00:00 | 08:30:00 | |
| DB0ND-19 | 2026-09-06 01:02:03 | 45.26928 | 9.31087 | 303° | 9km/h | 33150m | 4.7m/s | -43.6°C | 0.8% | -1.0hPa | 2.6V | 00:00:00 | 00:00:00 | 00:00:00 | |
| IW2NTF | 2026-09-06 01:02:02 | 45.26940 | 9.31102 | 196° | 11km/h | 33120m | 4.4m/s | -43.5°C | 2.9% | 0hPa | 2.6V | 08:30:00 | 02:28:08 | 00:00:00 | |
| DO3MHA-11 | 2026-09-06 01:02:02 | 45.26927 | 9.31090 | 273° | 11km/h | 33146m | 4.4m/s | -43.6°C | 2.9% | 0hPa | 2.5V | 00:00:00 | 02:28:13 | 00:00:00 | |
| OE5DRO-10 | 2026-09-06 01:01:56 | 45.26942 | 9.31103 | 223° | 9km/h | 33115m | 5.5m/s | -43.5°C | 2.8% | 0hPa | 2.5V | 00:00:00 | 00:00:00 | 08:30:00 | |
| IN3HCDX | 2026-09-06 01:01:55 | 45.26942 | 9.31103 | 223° | 5km/h | 33115m | 5.5m/s | -43.5°C | 0.8% | 0hPa | 2.5V | 00:00:00 | 00:00:00 | 00:00:00 | |
| IW2NTF | 2026-09-06 01:01:52 | 45.26933 | 9.31110 | 198° | 9km/h | 33069m | 4.6m/s | -43.5°C | 2.9% | 0hPa | 2.5V | 08:30:00 | 02:27:58 | 00:00:00 | |
| HARRO8 | 2026-09-06 01:01:47 | 45.26935 | 9.31111 | 214° | 11km/h | 33064m | 5.7m/s | -43.5°C | 0.8% | -1.0hPa | 2.5V | 00:00:00 | 00:00:00 | 00:00:00 | |
| DO3MHA-11 | 2026-09-06 01:01:42 | 45.26942 | 9.31128 | 246° | 7km/h | 33043m | 4.6m/s | -43.4°C | 2.8% | 0hPa | 2.5V | 00:00:00 | 02:27:53 | 00:00:00 | |
| IW2NTF | 2026-09-06 01:01:39 | 45.26942 | 9.31121 | 267° | 9km/h | 33003m | 5.1m/s | -43.1°C | 2.8% | 0hPa | 2.5V | 08:30:00 | 02:27:45 | 00:00:00 | |
| DK5PH-5 | 2026-09-06 01:01:38 | 45.26945 | 9.31125 | 84° | 18km/h | 33024m | 3.8m/s | -43.2°C | 2.8% | 0hPa | 2.6V | 00:00:00 | 02:27:49 | 00:00:00 | |
| DB0UT-7 | 2026-09-06 01:01:34 | 45.26942 | 9.31121 | 268° | 18km/h | 33003m | 5.1m/s | -43.1°C | 2.8% | 0hPa | 2.6V | 00:00:00 | 02:27:45 | 00:00:00 | |
| DO3MHA-11 | 2026-09-06 01:01:32 | 45.26945 | 9.31130 | 235° | 15km/h | 32993m | 4.6m/s | -43.0°C | 2.8% | 0hPa | 2.6V | 00:00:00 | 02:27:43 | 00:00:00 | |
| IW2NTF | 2026-09-06 01:01:29 | 45.26963 | 9.31139 | 334° | 13km/h | 32955m | 5.1m/s | -42.7°C | 2.8% | 0hPa | 2.6V | 08:30:00 | 02:27:35 | 00:00:00 | |
| DO3MHA-11 | 2026-09-06 01:01:22 | 45.26958 | 9.31148 | 293° | 20km/h | 32946m | 4.3m/s | -42.6°C | 2.8% | 0hPa | 2.6V | 00:00:00 | 02:27:33 | 00:00:00 | |
| IW2NTF | 2026-09-06 01:01:18 | 45.26985 | 9.31181 | 310° | 4km/h | 32903m | 5.3m/s | -42.4°C | 2.7% | 0hPa | 2.5V | 08:30:00 | 02:27:24 | 00:00:00 | |
| OE5DRO-10 | 2026-09-06 01:01:18 | 45.26966 | 9.31178 | 210° | 20km/h | 32928m | 4.9m/s | -42.5°C | 2.7% | 0hPa | 2.6V | 00:00:00 | 00:00:00 | 00:00:00 | |
| HARRO8 | 2026-09-06 01:01:15 | 45.26982 | 9.31182 | 168° | 15km/h | 32914m | 4.6m/s | -42.5°C | 0.8% | -1.0hPa | 2.6V | 00:00:00 | 00:00:00 | 00:00:00 | |
| IN3HCDX | 2026-09-06 01:01:13 | 45.26985 | 9.31181 | 167° | 5km/h | 32909m | 4.9m/s | -42.5°C | 0.8% | 0hPa | 2.6V | 00:00:00 | 00:00:00 | 00:00:00 | |
| DO3MHA-11 | 2026-09-06 01:01:12 | 45.26984 | 9.31184 | 311° | 24km/h | 32898m | 5.2m/s | -42.4°C | 2.7% | 0hPa | 2.6V | 00:00:00 | 02:27:23 | 00:00:00 | |
| IW2NTF | 2026-09-06 01:01:08 | 45.27003 | 9.31239 | 180° | 18km/h | 32855m | 4.5m/s | -42.5°C | 2.7% | 0hPa | 2.6V | 08:30:00 | 02:27:14 | 00:00:00 | |
| DK5PH-5 | 2026-09-06 01:01:07 | 45.26981 | 9.31225 | 237° | 24km/h | 32875m | 5.0m/s | -42.4°C | 0% | 0hPa | 2.5V | 00:00:00 | 02:27:18 | 00:00:00 | |
| DB0UT-7 | 2026-09-06 01:01:04 | 45.26997 | 9.31239 | 188° | 22km/h | 32860m | 4.7m/s | -42.4°C | 2.7% | 0hPa | 2.5V | 00:00:00 | 00:00:00 | 00:00:00 | |
| DB0ND-19 | 2026-09-06 01:01:01 | 45.27008 | 9.31241 | 232° | 7km/h | 32846m | 4.8m/s | -42.5°C | 0.8% | -1.0hPa | 2.5V | 00:00:00 | 00:00:00 | 00:00:00 | |
| OE5DRO-10 | 2026-09-06 01:00:59 | 45.27008 | 9.31250 | 273° | 26km/h | 32836m | 5.3m/s | -42.5°C | 2.7% | 0hPa | 2.5V | 00:00:00 | 00:00:00 | 00:00:00 | |
| IW2NTF | 2026-09-06 01:00:58 | 45.27026 | 9.31305 | 208° | 26km/h | 32806m | 5.3m/s | -42.6°C | 2.7% | 0hPa | 2.5V | 08:30:00 | 02:27:04 | 00:00:00 | |
| DO3MHA-11 | 2026-09-06 01:00:52 | 45.27031 | 9.31308 | 194° | 24km/h | 32801m | 5.2m/s | -42.5°C | 2.8% | 0hPa | 2.5V | 00:00:00 | 02:27:03 | 00:00:00 | |
| IN3HCDX | 2026-09-06 01:00:50 | 45.27036 | 9.31309 | 186° | 20km/h | 32796m | 4.7m/s | -42.6°C | 0.8% | 0hPa | 2.5V | 00:00:00 | 00:00:00 | 00:00:00 | |
| IW2NTF | 2026-09-06 01:00:49 | 45.27074 | 9.31350 | 217° | 31km/h | 32756m | 5m/s | -42.5°C | 2.7% | 0hPa | 2.5V | 08:30:00 | 02:26:54 | 00:00:00 | |
| HARRO8 | 2026-09-06 01:00:44 | 45.27069 | 9.31343 | 222° | 31km/h | 32761m | 4.9m/s | -42.5°C | 0.8% | -1.0hPa | 2.6V | 00:00:00 | 00:00:00 | 00:00:00 | |
| DO3MHA-11 | 2026-09-06 01:00:42 | 45.27080 | 9.31356 | 212° | 22km/h | 32751m | 5.0m/s | -42.4°C | 2.7% | 0hPa | 2.6V | 00:00:00 | 02:26:53 | 00:00:00 | |
| NBG1-10 | 2026-09-06 01:00:40 | 45.27090 | 9.31363 | 203° | 22km/h | 32741m | 5.2m/s | -42.4°C | 2.7% | 0hPa | 2.6V | 00:00:00 | 02:26:51 | 00:00:00 | |
| IW2NTF | 2026-09-06 01:00:38 | 45.27120 | 9.31387 | 203° | 37km/h | 32703m | 6m/s | -42.2°C | 2.7% | 0hPa | 2.6V | 08:30:00 | 02:26:44 | 00:00:00 | |
| DK5PH-5 | 2026-09-06 01:00:37 | 45.27099 | 9.31370 | 219° | 24km/h | 32725m | 4.8m/s | 0°C | 0% | 0hPa | 2.6V | 00:00:00 | 02:26:48 | 00:00:00 | |
| DB0UT-7 | 2026-09-06 01:00:34 | 45.27112 | 9.31382 | 207° | 22km/h | 32710m | 6.3m/s | -42.2°C | 2.6% | 0hPa | 2.6V | 00:00:00 | 02:26:45 | 00:00:00 | |
| DO3MHA-11 | 2026-09-06 01:00:32 | 45.27128 | 9.31392 | 203° | 16km/h | 32698m | 4.3m/s | -42.2°C | 2.7% | 0hPa | 2.5V | 00:00:00 | 02:26:43 | 00:00:00 | |
| DB0ND-19 | 2026-09-06 01:00:30 | 45.27144 | 9.31402 | 203° | 27km/h | 32690m | 4.3m/s | -42.2°C | 0.8% | -1.0hPa | 2.5V | 00:00:00 | 00:00:00 | 00:00:00 | |
| IW2NTF | 2026-09-06 01:00:28 | 45.27157 | 9.31401 | 159° | 18km/h | 32654m | 5.7m/s | -42.4°C | 2.7% | 0hPa | 2.5V | 08:30:00 | 02:26:34 | 00:00:00 | |
| DO3MHA-11 | 2026-09-06 01:00:22 | 45.27163 | 9.31399 | 173° | 26km/h | 32648m | 5.8m/s | -42.4°C | 2.7% | 0hPa | 2.5V | 00:00:00 | 02:26:33 | 08:30:00 | |
| OE5DRO-10 | 2026-09-06 01:00:21 | 45.27171 | 9.31399 | 184° | 22km/h | 32643m | 5.2m/s | -42.4°C | 2.7% | 0hPa | 2.6V | 00:00:00 | 00:00:00 | 00:00:00 | |
| IW2NTF | 2026-09-06 01:00:19 | 45.27209 | 9.31435 | 36° | 2km/h | 32601m | 4.4m/s | -42.4°C | 2.6% | 0hPa | 2.6V | 08:30:00 | 02:26:24 | 00:00:00 | |
| HARRO8 | 2026-09-06 01:00:13 | 45.27209 | 9.31435 | 36° | 0km/h | 32602m | 4.4m/s | -42.4°C | 0.8% | -1.0hPa | 2.5V | 00:00:00 | 00:00:00 | 00:00:00 | |
| DO3MHA-11 | 2026-09-06 01:00:12 | 45.27209 | 9.31434 | 122° | 20km/h | 32597m | 4.8m/s | -42.4°C | 2.7% | 0hPa | 2.5V | 00:00:00 | 02:26:23 | 00:00:00 | |
| IW2NTF | 2026-09-06 01:00:08 | 45.27251 | 9.31422 | 295° | 7km/h | 32549m | 5.7m/s | -42.6°C | 2.7% | 0hPa | 2.5V | 08:30:00 | 02:26:14 | 00:00:00 | |
| DK5PH-5 | 2026-09-06 01:00:07 | 45.27237 | 9.31416 | 176° | 16km/h | 32571m | 4.7m/s | 0°C | 0% | 0hPa | 2.6V | 00:00:00 | 02:26:18 | 00:00:00 | |
| DB0UT-7 | 2026-09-06 01:00:04 | 45.27251 | 9.31419 | 236° | 15km/h | 32555m | 6.1m/s | -42.5°C | 2.6% | 0hPa | 2.6V | 00:00:00 | 00:00:00 | 00:00:00 | |
| DB0ND-19 | 2026-09-06 00:59:59 | 45.27248 | 9.31425 | 152° | 7km/h | 32530m | 5.3m/s | -42.7°C | 0.8% | -1.0hPa | 2.6V | 00:00:00 | 00:00:00 | 00:00:00 | |
| IW2NTF | 2026-09-06 00:59:58 | 45.27279 | 9.31409 | 150° | 16km/h | 32498m | 5.7m/s | -42.8°C | 2.7% | 0hPa | 2.6V | 08:30:00 | 02:26:04 | 00:00:00 | |
| DO3MHA-11 | 2026-09-06 00:59:52 | 45.27281 | 9.31406 | 126° | 15km/h | 32493m | 5.6m/s | -42.8°C | 2.7% | 0hPa | 2.6V | 00:00:00 | 02:26:03 | 00:00:00 | |
| IW2NTF | 2026-09-06 00:59:47 | 45.27286 | 9.31364 | 128° | 18km/h | 32445m | 6m/s | -43°C | 2.7% | 0hPa | 2.5V | 08:30:00 | 02:25:54 | 00:00:00 | |
| OE5DRO-10 | 2026-09-06 00:59:43 | 45.27286 | 9.31364 | 129° | 16km/h | 32445m | 5.9m/s | -42.9°C | 2.7% | 0hPa | 2.5V | 00:00:00 | 00:00:00 | 00:00:00 | |
| DO3MHA-11 | 2026-09-06 00:59:42 | 45.27288 | 9.31359 | 134° | 16km/h | 32440m | 5.7m/s | -42.9°C | 2.7% | 0hPa | 2.5V | 00:00:00 | 02:25:53 | 00:00:00 | |
| IN3HCDX | 2026-09-06 00:59:40 | 45.27291 | 9.31356 | 144° | 13km/h | 32434m | 5.2m/s | -43.0°C | 0.8% | 0hPa | 2.5V | 00:00:00 | 00:00:00 | 00:00:00 | |
| IW2NTF | 2026-09-06 00:59:38 | 45.27316 | 9.31321 | 103° | 15km/h | 32391m | 6.3m/s | -43.2°C | 2.8% | 0hPa | 2.5V | 08:30:00 | 02:25:44 | 00:00:00 | |
| DK5PH-5 | 2026-09-06 00:59:36 | 45.27308 | 9.31339 | 135° | 20km/h | 32407m | 5.0m/s | 0°C | 0% | 0hPa | 2.6V | 00:00:00 | 02:25:47 | 00:00:00 | |
| DB0UT-7 | 2026-09-06 00:59:34 | 45.27314 | 9.31327 | 117° | 15km/h | 32397m | 5.3m/s | -43.1°C | 2.8% | 0hPa | 2.6V | 00:00:00 | 02:25:45 | 00:00:00 | |
| DO3MHA-11 | 2026-09-06 00:59:32 | 45.27316 | 9.31317 | 88° | 16km/h | 32386m | 5.7m/s | -43.2°C | 2.8% | 0hPa | 2.6V | 00:00:00 | 02:25:43 | 00:00:00 | |
| IW2NTF | 2026-09-06 00:59:28 | 45.27350 | 9.31304 | 166° | 18km/h | 32337m | 6m/s | -43.3°C | 2.8% | 0hPa | 2.6V | 08:30:00 | 02:25:34 | 00:00:00 | |
| DB0ND-19 | 2026-09-06 00:59:28 | 45.27320 | 9.31310 | 172° | 15km/h | 32365m | 6.4m/s | -43.3°C | 0.8% | -1.0hPa | 2.5V | 00:00:00 | 00:00:00 | 00:00:00 | |
| OE5DRO-10 | 2026-09-06 00:59:24 | 45.27345 | 9.31306 | 171° | 15km/h | 32343m | 5.0m/s | -43.3°C | 2.8% | 0hPa | 2.5V | 00:00:00 | 00:00:00 | 00:00:00 | |
| DO3MHA-11 | 2026-09-06 00:59:22 | 45.27354 | 9.31303 | 157° | 18km/h | 32331m | 6.3m/s | -43.3°C | 2.8% | 0hPa | 2.5V | 00:00:00 | 02:25:33 | 00:00:00 | |
| IN3HCDX | 2026-09-06 00:59:19 | 45.27357 | 9.31298 | 105° | 7km/h | 32320m | 5.0m/s | -43.3°C | 0.9% | 0hPa | 2.5V | 00:00:00 | 00:00:00 | 00:00:00 | |
| IW2NTF | 2026-09-06 00:59:18 | 45.27386 | 9.31270 | 165° | 26km/h | 32281m | 5m/s | -43.2°C | 2.9% | 0hPa | 2.5V | 08:30:00 | 02:25:24 | 00:00:00 | |
| DO3MHA-11 | 2026-09-06 00:59:12 | 45.27391 | 9.31268 | 173° | 13km/h | 32276m | 5.7m/s | -43.1°C | 2.8% | 0hPa | 2.6V | 00:00:00 | 02:25:23 | 00:00:00 | |
| HARRO8 | 2026-09-06 00:59:11 | 45.27395 | 9.31267 | 180° | 11km/h | 32270m | 6.0m/s | 0°C | -1.0% | -1.0hPa | 2.6V | 00:00:00 | 00:00:00 | 00:00:00 | |
| IW2NTF | 2026-09-06 00:59:08 | 45.27415 | 9.31253 | 168° | 29km/h | 32227m | 5.4m/s | -43°C | 2.8% | 0hPa | 2.6V | 08:30:00 | 02:25:14 | 00:00:00 | |
| DK5PH-5 | 2026-09-06 00:59:06 | 45.27399 | 9.31262 | 136° | 18km/h | 32244m | 5.5m/s | 0°C | 0% | 0hPa | 2.5V | 00:00:00 | 02:25:17 | 00:00:00 | |
| OE5DRO-10 | 2026-09-06 00:59:05 | 45.27403 | 9.31259 | 150° | 16km/h | 32239m | 5.8m/s | -43.0°C | 2.8% | 0hPa | 2.5V | 00:00:00 | 00:00:00 | 08:30:00 | |
| DB0UT-7 | 2026-09-06 00:59:04 | 45.27408 | 9.31256 | 160° | 16km/h | 32233m | 5.7m/s | -43.0°C | 2.8% | 0hPa | 2.6V | 00:00:00 | 00:00:00 | 00:00:00 | |
| DB0ND-19 | 2026-09-06 00:58:57 | 45.27438 | 9.31255 | 72° | 2km/h | 32195m | 5.4m/s | -42.8°C | 0.8% | -1.0hPa | 2.5V | 00:00:00 | 00:00:00 | 00:00:00 | |
| IW2NTF | 2026-09-06 00:58:55 | 45.27444 | 9.31244 | 157° | 18km/h | 32173m | 5.5m/s | -42.6°C | 2.8% | 0hPa | 2.5V | 08:30:00 | 02:25:04 | 00:00:00 | |
| DO3MHA-11 | 2026-09-06 00:58:52 | 45.27449 | 9.31242 | 173° | 15km/h | 32168m | 5.1m/s | -42.6°C | 2.8% | 0hPa | 2.5V | 00:00:00 | 02:25:03 | 08:30:00 | |
| IW2NTF | 2026-09-06 00:58:48 | 45.27473 | 9.31251 | 130° | 16km/h | 32119m | 5.8m/s | -42.3°C | 2.7% | 0hPa | 2.6V | 08:30:00 | 02:24:54 | 00:00:00 | |
| OE5DRO-10 | 2026-09-06 00:58:46 | 45.27471 | 9.31257 | 268° | 20km/h | 32135m | 4.9m/s | -42.3°C | 2.8% | 0hPa | 2.5V | 00:00:00 | 00:00:00 | 00:00:00 | |
| DO3MHA-11 | 2026-09-06 00:58:42 | 45.27477 | 9.31247 | 144° | 18km/h | 32113m | 5.7m/s | -42.2°C | 2.7% | 0hPa | 2.5V | 00:00:00 | 02:24:53 | 00:00:00 | |
| HARRO8 | 2026-09-06 00:58:40 | 45.27489 | 9.31239 | 168° | 26km/h | 32103m | 4.9m/s | 0°C | -1.0% | -1.0hPa | 2.5V | 00:00:00 | 00:00:00 | 00:00:00 | |
| IW2NTF | 2026-09-06 00:58:38 | 45.27512 | 9.31254 | 157° | 7km/h | 32066m | 5.2m/s | -42.1°C | 2.6% | 0hPa | 2.5V | 08:30:00 | 02:24:44 | 00:00:00 | |
| IN3HCDX | 2026-09-06 00:58:38 | 45.27501 | 9.31240 | 200° | 22km/h | 32092m | 5.6m/s | -42.2°C | 0.8% | 0hPa | 2.5V | 00:00:00 | 00:00:00 | 00:00:00 | |
| DK5PH-5 | 2026-09-06 00:58:36 | 45.27509 | 9.31248 | 237° | 31km/h | 32081m | 5.2m/s | 0°C | 0% | 0hPa | 2.5V | 00:00:00 | 02:24:47 | 00:00:00 | |
| DB0UT-7 | 2026-09-06 00:58:34 | 45.27511 | 9.31254 | 227° | 26km/h | 32072m | 4.3m/s | -42.1°C | 2.6% | 0hPa | 2.5V | 00:00:00 | 02:24:45 | 00:00:00 | |
| DO3MHA-11 | 2026-09-06 00:58:32 | 45.27515 | 9.31252 | 144° | 26km/h | 32061m | 6.3m/s | -42.1°C | 2.6% | 0hPa | 2.5V | 00:00:00 | 02:24:43 | 00:00:00 | |
| IW2NTF | 2026-09-06 00:58:28 | 45.27571 | 9.31248 | 238° | 11km/h | 32012m | 5m/s | -42°C | 2.7% | 0hPa | 2.5V | 08:30:00 | 02:24:34 | 00:00:00 | |
| NBG1-10 | 2026-09-06 00:58:28 | 45.27543 | 9.31234 | 172° | 29km/h | 32039m | 4.7m/s | -42.1°C | 2.7% | 0hPa | 2.6V | 00:00:00 | 02:24:39 | 00:00:00 | |
| OE5DRO-10 | 2026-09-06 00:58:27 | 45.27552 | 9.31233 | 183° | 26km/h | 32034m | 5.1m/s | -42.1°C | 2.6% | 0hPa | 2.6V | 00:00:00 | 00:00:00 | 00:00:00 | |
| DB0ND-19 | 2026-09-06 00:58:26 | 45.27560 | 9.31235 | 197° | 27km/h | 32029m | 5.5m/s | -42.1°C | 0.8% | -1.0hPa | 2.6V | 00:00:00 | 00:00:00 | 00:00:00 | |
| DO3MHA-11 | 2026-09-06 00:58:22 | 45.27573 | 9.31250 | 214° | 29km/h | 32007m | 4.8m/s | -42.0°C | 2.6% | 0hPa | 2.6V | 00:00:00 | 02:24:33 | 00:00:00 | |
| IW2NTF | 2026-09-06 00:58:16 | 45.27640 | 9.31233 | 188° | 29km/h | 31957m | 5.8m/s | -41.9°C | 2.6% | 0hPa | 2.6V | 08:30:00 | 02:24:24 | 00:00:00 | |
| IN3HCDX | 2026-09-06 00:58:14 | 45.27622 | 9.31231 | 180° | 40km/h | 31969m | 5.2m/s | -41.9°C | 0.8% | 0hPa | 2.6V | 00:00:00 | 00:00:00 | 00:00:00 | |
| DO3MHA-11 | 2026-09-06 00:58:12 | 45.27646 | 9.31234 | 189° | 27km/h | 31952m | 6.6m/s | -41.9°C | 2.6% | 0hPa | 2.6V | 00:00:00 | 02:24:23 | 00:00:00 | |
| HARRO8 | 2026-09-06 00:58:09 | 45.27663 | 9.31233 | 171° | 18km/h | 31927m | 5.0m/s | 0°C | -1.0% | -1.0hPa | 2.6V | 00:00:00 | 00:00:00 | 00:00:00 | |
| OE5DRO-10 | 2026-09-06 00:58:08 | 45.27663 | 9.31233 | 172° | 37km/h | 31928m | 4.9m/s | -42.0°C | 2.6% | 0hPa | 2.6V | 00:00:00 | 00:00:00 | 00:00:00 | |
| IW2NTF | 2026-09-06 00:58:05 | 45.27705 | 9.31239 | 187° | 47km/h | 31899m | 4.9m/s | -42.1°C | 2.7% | 0hPa | 2.5V | 08:30:00 | 02:24:14 | 00:00:00 | |
| DB0UT-7 | 2026-09-06 00:58:04 | 45.27693 | 9.31237 | 190° | 38km/h | 31905m | 5.5m/s | -42.1°C | 2.6% | 0hPa | 2.6V | 00:00:00 | 00:00:00 | 00:00:00 | |
| DO3MHA-11 | 2026-09-06 00:58:02 | 45.27716 | 9.31240 | 183° | 37km/h | 31895m | 4.9m/s | -42.1°C | 2.7% | 0hPa | 2.6V | 00:00:00 | 02:24:13 | 00:00:00 | |
| IW2NTF | 2026-09-06 00:57:55 | 45.27797 | 9.31222 | 182° | 37km/h | 31844m | 5m/s | -42°C | 2.7% | 0hPa | 2.6V | 08:30:00 | 02:24:04 | 00:00:00 | |
| NBG1-10 | 2026-09-06 00:57:55 | 45.27779 | 9.31221 | 177° | 37km/h | 31855m | 5.9m/s | -41.9°C | 2.6% | 0hPa | 2.5V | 00:00:00 | 02:24:06 | 00:00:00 | |
| DO3MHA-11 | 2026-09-06 00:57:52 | 45.27806 | 9.31222 | 180° | 38km/h | 31838m | 6.0m/s | -41.9°C | 2.7% | 0hPa | 2.6V | 00:00:00 | 02:24:03 | 00:00:00 | |
| OE5DRO-10 | 2026-09-06 00:57:49 | 45.27834 | 9.31216 | 169° | 38km/h | 31821m | 5.0m/s | -41.9°C | 2.7% | 0hPa | 2.5V | 00:00:00 | 00:00:00 | 00:00:00 | |
| IW2NTF | 2026-09-06 00:57:48 | 45.27890 | 9.31201 | 158° | 37km/h | 31788m | 6.2m/s | -41.8°C | 2.6% | 0hPa | 2.5V | 08:30:00 | 02:23:54 | 00:00:00 | |
| DO3MHA-11 | 2026-09-06 00:57:42 | 45.27899 | 9.31196 | 152° | 40km/h | 31782m | 6.2m/s | -41.7°C | 2.6% | 0hPa | 2.6V | 00:00:00 | 02:23:53 | 00:00:00 | |
| IW2NTF | 2026-09-06 00:57:38 | 45.27985 | 9.31162 | 165° | 40km/h | 31735m | 5.8m/s | -41.8°C | 2.6% | 0hPa | 2.6V | 08:30:00 | 02:23:44 | 00:00:00 | |
| HARRO8 | 2026-09-06 00:57:38 | 45.27954 | 9.31166 | 178° | 40km/h | 31750m | 5.0m/s | 0°C | -1.0% | -1.0hPa | 2.5V | 00:00:00 | 00:00:00 | 00:00:00 | |
| DB0UT-7 | 2026-09-06 00:57:34 | 45.27975 | 9.31164 | 175° | 31km/h | 31741m | 5.0m/s | -41.8°C | 2.6% | 0hPa | 2.5V | 00:00:00 | 02:23:45 | 08:30:00 | |
| DO3MHA-11 | 2026-09-06 00:57:32 | 45.27994 | 9.31157 | 155° | 35km/h | 31729m | 5.7m/s | -41.8°C | 2.6% | 0hPa | 2.5V | 00:00:00 | 02:23:43 | 00:00:00 | |
| OE5DRO-10 | 2026-09-06 00:57:30 | 45.28010 | 9.31142 | 141° | 31km/h | 31719m | 4.7m/s | -41.8°C | 2.6% | 0hPa | 2.5V | 00:00:00 | 00:00:00 | 00:00:00 | |
| IW2NTF | 2026-09-06 00:57:28 | 45.28064 | 9.31106 | 159° | 35km/h | 31682m | 6m/s | -42°C | 2.6% | 0hPa | 2.5V | 08:30:00 | 02:23:34 | 00:00:00 | |
| DB0ND-19 | 2026-09-06 00:57:24 | 45.28056 | 9.31110 | 164° | 33km/h | 31688m | 5.0m/s | -42.0°C | 0.8% | -1.0hPa | 2.5V | 00:00:00 | 00:00:00 | 00:00:00 | |
| DO3MHA-11 | 2026-09-06 00:57:22 | 45.28073 | 9.31101 | 154° | 31km/h | 31677m | 5.7m/s | -41.9°C | 2.6% | 0hPa | 2.5V | 00:00:00 | 02:23:33 | 08:30:00 | |
| IW2NTF | 2026-09-06 00:57:18 | 45.28133 | 9.31056 | 142° | 26km/h | 31631m | 6m/s | -42.1°C | 2.7% | 0hPa | 2.5V | 08:30:00 | 02:23:24 | 00:00:00 | |
| DO3MHA-11 | 2026-09-06 00:57:12 | 45.28138 | 9.31050 | 132° | 24km/h | 31626m | 5.7m/s | -42.0°C | 2.6% | 0hPa | 2.6V | 00:00:00 | 02:23:23 | 00:00:00 | |
| OE5DRO-10 | 2026-09-06 00:57:11 | 45.28142 | 9.31042 | 126° | 27km/h | 31620m | 4.9m/s | -42.0°C | 2.6% | 0hPa | 2.6V | 00:00:00 | 00:00:00 | 00:00:00 | |
| IW2NTF | 2026-09-06 00:57:09 | 45.28175 | 9.30992 | 126° | 26km/h | 31577m | 5.5m/s | -42.2°C | 2.7% | 0hPa | 2.6V | 08:30:00 | 02:23:14 | 00:00:00 | |
| HARRO8 | 2026-09-06 00:57:07 | 45.28163 | 9.31009 | 141° | 20km/h | 31594m | 4.7m/s | 0°C | -1.0% | -1.0hPa | 2.6V | 00:00:00 | 00:00:00 | 00:00:00 | |
| DB0UT-7 | 2026-09-06 00:57:04 | 45.28171 | 9.30999 | 132° | 27km/h | 31583m | 6.1m/s | -42.2°C | 2.6% | 0hPa | 2.6V | 00:00:00 | 00:00:00 | 00:00:00 | |
| DO3MHA-11 | 2026-09-06 00:57:02 | 45.28178 | 9.30984 | 125° | 29km/h | 31572m | 4.7m/s | -42.2°C | 2.6% | 0hPa | 2.6V | 00:00:00 | 02:23:13 | 00:00:00 | |
| IW2NTF | 2026-09-06 00:56:58 | 45.28223 | 9.30911 | 124° | 33km/h | 31526m | 4.1m/s | -42.4°C | 2.7% | 0hPa | 2.6V | 08:30:00 | 02:23:04 | 00:00:00 | |
| DB0ND-19 | 2026-09-06 00:56:53 | 45.28222 | 9.30911 | 124° | 33km/h | 31527m | 4.1m/s | -42.4°C | 0.8% | -1.0hPa | 2.6V | 00:00:00 | 00:00:00 | 00:00:00 | |
| DO3MHA-11 | 2026-09-06 00:56:52 | 45.28227 | 9.30902 | 128° | 26km/h | 31523m | 4.5m/s | -42.3°C | 2.7% | 0hPa | 2.6V | 00:00:00 | 02:23:03 | 00:00:00 | |
| IN3HCDX | 2026-09-06 00:56:51 | 45.28231 | 9.30895 | 134° | 24km/h | 31518m | 5.8m/s | -42.4°C | 0.8% | 0hPa | 2.5V | 00:00:00 | 00:00:00 | 00:00:00 | |
| NBG1-10 | 2026-09-06 00:56:49 | 45.28239 | 9.30886 | 148° | 26km/h | 31506m | 4.9m/s | -42.5°C | 2.7% | 0hPa | 2.5V | 00:00:00 | 02:23:00 | 00:00:00 | |
| IW2NTF | 2026-09-06 00:56:48 | 45.28251 | 9.30836 | 99° | 44km/h | 31475m | 5.4m/s | -42.7°C | 2.8% | 0hPa | 2.5V | 08:30:00 | 02:22:54 | 00:00:00 | |
| DO3MHA-11 | 2026-09-06 00:56:42 | 45.28253 | 9.30821 | 103° | 27km/h | 31470m | 4.5m/s | -42.7°C | 2.7% | 0hPa | 2.6V | 00:00:00 | 02:22:53 | 00:00:00 | |
| IW2NTF | 2026-09-06 00:56:38 | 45.28280 | 9.30745 | 93° | 24km/h | 31424m | 4.7m/s | -42.6°C | 2.7% | 0hPa | 2.6V | 08:30:00 | 02:22:44 | 00:00:00 | |
| DB0UT-7 | 2026-09-06 00:56:34 | 45.28279 | 9.30753 | 102° | 26km/h | 31429m | 4.9m/s | -42.6°C | 2.7% | 0hPa | 2.5V | 00:00:00 | 02:22:45 | 00:00:00 | |
| OE5DRO-10 | 2026-09-06 00:56:33 | 45.28280 | 9.30745 | 94° | 26km/h | 31424m | 4.6m/s | -42.6°C | 2.7% | 0hPa | 2.5V | 00:00:00 | 00:00:00 | 00:00:00 | |
| DO3MHA-11 | 2026-09-06 00:56:32 | 45.28280 | 9.30736 | 92° | 29km/h | 31419m | 5.2m/s | -42.6°C | 2.7% | 0hPa | 2.5V | 00:00:00 | 02:22:43 | 00:00:00 | |
| IN3HCDX | 2026-09-06 00:56:29 | 45.28280 | 9.30717 | 93° | 27km/h | 31408m | 5.4m/s | -42.8°C | 0.8% | 0hPa | 2.5V | 00:00:00 | 00:00:00 | 00:00:00 | |
| IW2NTF | 2026-09-06 00:56:28 | 45.28286 | 9.30642 | 111° | 22km/h | 31372m | 5.5m/s | -42.7°C | 2.7% | 0hPa | 2.5V | 08:30:00 | 02:22:34 | 00:00:00 | |
| DO3MHA-11 | 2026-09-06 00:56:22 | 45.28288 | 9.30636 | 128° | 26km/h | 31367m | 6.6m/s | -42.7°C | 2.7% | 0hPa | 2.5V | 00:00:00 | 02:22:33 | 00:00:00 | |
| IW2NTF | 2026-09-06 00:56:18 | 45.28305 | 9.30565 | 95° | 35km/h | 31320m | 5.4m/s | -42.7°C | 2.7% | 0hPa | 2.6V | 08:30:00 | 02:22:24 | 00:00:00 | |
| NBG1-10 | 2026-09-06 00:56:16 | 45.28304 | 9.30604 | 96° | 22km/h | 31336m | 5.4m/s | -42.6°C | 2.7% | 0hPa | 2.5V | 00:00:00 | 02:22:27 | 00:00:00 | |
| OE5DRO-10 | 2026-09-06 00:56:14 | 45.28305 | 9.30578 | 92° | 26km/h | 31326m | 4.6m/s | -42.6°C | 2.7% | 0hPa | 2.5V | 00:00:00 | 00:00:00 | 08:30:00 | |
| DO3MHA-11 | 2026-09-06 00:56:12 | 45.28306 | 9.30554 | 103° | 20km/h | 31315m | 5.3m/s | -42.7°C | 2.7% | 0hPa | 2.5V | 00:00:00 | 02:22:23 | 00:00:00 | |
| IW2NTF | 2026-09-06 00:56:08 | 45.28317 | 9.30496 | 74° | 15km/h | 31267m | 5.5m/s | -43°C | 2.8% | 0hPa | 2.5V | 08:30:00 | 02:22:14 | 00:00:00 | |
| DB0UT-7 | 2026-09-06 00:56:04 | 45.28318 | 9.30501 | 81° | 18km/h | 31273m | 5.8m/s | -42.9°C | 2.7% | 0hPa | 2.5V | 00:00:00 | 00:00:00 | 00:00:00 | |
| DO3MHA-11 | 2026-09-06 00:55:59 | 45.28311 | 9.30464 | 78° | 24km/h | 31247m | 6.5m/s | -43.0°C | 2.8% | 0hPa | 2.6V | 00:00:00 | 02:22:10 | 00:00:00 | |
| IW2NTF | 2026-09-06 00:55:57 | 45.28306 | 9.30400 | 92° | 11km/h | 31215m | 5.1m/s | -43.2°C | 2.8% | 0hPa | 2.6V | 08:30:00 | 02:22:04 | 00:00:00 | |
| DB0ND-19 | 2026-09-06 00:55:51 | 45.28305 | 9.30390 | 70° | 9km/h | 31200m | 5.5m/s | -43.3°C | 0.9% | -1.0hPa | 2.5V | 00:00:00 | 00:00:00 | 00:00:00 | |
| DO3MHA-11 | 2026-09-06 00:55:49 | 45.28304 | 9.30386 | 71° | 16km/h | 31195m | 4.8m/s | -43.2°C | 2.8% | 0hPa | 2.5V | 00:00:00 | 02:22:00 | 08:30:00 | |
| IW2NTF | 2026-09-06 00:55:48 | 45.28297 | 9.30352 | 77° | 16km/h | 31163m | 4.7m/s | -43.2°C | 2.8% | 0hPa | 2.5V | 08:30:00 | 02:21:54 | 00:00:00 | |
| NBG1-10 | 2026-09-06 00:55:43 | 45.28296 | 9.30352 | 78° | 11km/h | 31163m | 4.6m/s | -43.1°C | 2.8% | 0hPa | 2.6V | 00:00:00 | 02:21:54 | 00:00:00 | |
| DO3MHA-11 | 2026-09-06 00:55:39 | 45.28292 | 9.30329 | 61° | 13km/h | 31143m | 4.1m/s | -43.0°C | 2.8% | 0hPa | 2.6V | 00:00:00 | 02:21:50 | 00:00:00 | |
| IW2NTF | 2026-09-06 00:55:38 | 45.28277 | 9.30332 | 8° | 13km/h | 31111m | 5.9m/s | -43°C | 2.8% | 0hPa | 2.6V | 08:30:00 | 02:21:44 | 00:00:00 | |
| OE5DRO-10 | 2026-09-06 00:55:36 | 45.28286 | 9.30327 | 326° | 9km/h | 31126m | 5.0m/s | -43.0°C | 2.8% | 0hPa | 2.6V | 00:00:00 | 00:00:00 | 00:00:00 | |
| DB0UT-7 | 2026-09-06 00:55:34 | 45.28280 | 9.30332 | 344° | 9km/h | 31117m | 5.5m/s | -43.0°C | 2.8% | 0hPa | 2.6V | 00:00:00 | 02:21:45 | 00:00:00 | |
| DO3MHA-11 | 2026-09-06 00:55:29 | 45.28268 | 9.30316 | 75° | 7km/h | 31091m | 4.9m/s | -42.9°C | 2.8% | 0hPa | 2.6V | 00:00:00 | 02:21:40 | 00:00:00 | |
| IW2NTF | 2026-09-06 00:55:28 | 45.28266 | 9.30305 | 68° | 5km/h | 31061m | 5.5m/s | -42.9°C | 2.8% | 0hPa | 2.6V | 08:30:00 | 02:21:34 | 00:00:00 | |
| IN3HCDX | 2026-09-06 00:55:27 | 45.28267 | 9.30312 | 78° | 11km/h | 31086m | 5.5m/s | -43.0°C | 0.9% | 0hPa | 2.5V | 00:00:00 | 00:00:00 | 00:00:00 | |
| DB0ND-19 | 2026-09-06 00:55:20 | 45.28261 | 9.30293 | 38° | 7km/h | 31042m | 4.8m/s | -42.9°C | 0.9% | -1.0hPa | 2.5V | 00:00:00 | 00:00:00 | 00:00:00 | |
| DO3MHA-11 | 2026-09-06 00:55:19 | 45.28260 | 9.30293 | 39° | 7km/h | 31043m | 4.8m/s | -42.8°C | 2.8% | 0hPa | 2.5V | 00:00:00 | 02:21:30 | 00:00:00 | |
| IW2NTF | 2026-09-06 00:55:18 | 45.28261 | 9.30298 | 148° | 7km/h | 31012m | 5.9m/s | -42.7°C | 2.8% | 0hPa | 2.5V | 08:30:00 | 02:21:24 | 00:00:00 | |
| OE5DRO-10 | 2026-09-06 00:55:17 | 45.28258 | 9.30293 | 299° | 7km/h | 31031m | 5.3m/s | -42.8°C | 2.9% | 0hPa | 2.6V | 00:00:00 | 00:00:00 | 00:00:00 | |
| DO3MHA-11 | 2026-09-06 00:55:09 | 45.28267 | 9.30284 | 122° | 5km/h | 30991m | 5.5m/s | -42.5°C | 2.8% | 0hPa | 2.6V | 00:00:00 | 02:21:20 | 00:00:00 | |
| IW2NTF | 2026-09-06 00:55:08 | 45.28269 | 9.30281 | 149° | 2km/h | 30959m | 4.6m/s | -42.4°C | 2.7% | 0hPa | 2.6V | 08:30:00 | 02:21:14 | 00:00:00 | |
| IN3HCDX | 2026-09-06 00:55:06 | 45.28269 | 9.30281 | 165° | 2km/h | 30981m | 4.8m/s | -42.5°C | 0.9% | 0hPa | 2.5V | 00:00:00 | 00:00:00 | 00:00:00 | |
| DB0UT-7 | 2026-09-06 00:55:04 | 45.28269 | 9.30281 | 68° | 11km/h | 30965m | 5.3m/s | -42.4°C | 2.7% | 0hPa | 2.5V | 00:00:00 | 00:00:00 | 00:00:00 | |
| DO3MHA-11 | 2026-09-06 00:54:59 | 45.28277 | 9.30286 | 204° | 13km/h | 30939m | 4.7m/s | -42.2°C | 2.7% | 0hPa | 2.5V | 00:00:00 | 02:21:10 | 00:00:00 | |
| IW2NTF | 2026-09-06 00:54:58 | 45.28294 | 9.30275 | 133° | 11km/h | 30909m | 4.4m/s | -42.1°C | 2.7% | 0hPa | 2.5V | 08:30:00 | 02:21:04 | 00:00:00 | |
| DB0ND-19 | 2026-09-06 00:54:49 | 45.28303 | 9.30286 | 239° | 13km/h | 30883m | 5.2m/s | -42.1°C | 0.8% | -1.0hPa | 2.5V | 00:00:00 | 00:00:00 | 00:00:00 | |
| IW2NTF | 2026-09-06 00:54:48 | 45.28313 | 9.30291 | 176° | 9km/h | 30858m | 5m/s | -42.2°C | 2.7% | 0hPa | 2.5V | 08:30:00 | 02:20:54 | 00:00:00 | |
| IN3HCDX | 2026-09-06 00:54:45 | 45.28306 | 9.30291 | 205° | 7km/h | 30872m | 5.3m/s | -42.2°C | 0.9% | 0hPa | 2.6V | 00:00:00 | 00:00:00 | 00:00:00 | |
| DO3MHA-11 | 2026-09-06 00:54:39 | 45.28325 | 9.30298 | 211° | 18km/h | 30837m | 4.4m/s | -42.2°C | 2.7% | 0hPa | 2.6V | 00:00:00 | 02:20:50 | 00:00:00 | |
| IW2NTF | 2026-09-06 00:54:38 | 45.28350 | 9.30300 | 185° | 18km/h | 30805m | 5.8m/s | -42.2°C | 2.7% | 0hPa | 2.6V | 08:30:00 | 02:20:44 | 00:00:00 | |
| NBG1-10 | 2026-09-06 00:54:36 | 45.28337 | 9.30302 | 174° | 24km/h | 30821m | 5.7m/s | -42.1°C | 2.7% | 0hPa | 2.5V | 00:00:00 | 02:20:47 | 08:30:00 | |
| DB0UT-7 | 2026-09-06 00:54:34 | 45.28345 | 9.30300 | 174° | 24km/h | 30810m | 4.8m/s | -42.1°C | 2.7% | 0hPa | 2.6V | 00:00:00 | 02:20:45 | 00:00:00 | |
| DO3MHA-11 | 2026-09-06 00:54:29 | 45.28370 | 9.30311 | 200° | 20km/h | 30785m | 4.9m/s | -42.2°C | 2.7% | 0hPa | 2.5V | 00:00:00 | 02:20:40 | 00:00:00 | |
| IW2NTF | 2026-09-06 00:54:28 | 45.28400 | 9.30313 | 196° | 16km/h | 30752m | 5.9m/s | -42.1°C | 2.7% | 0hPa | 2.5V | 08:30:00 | 02:20:34 | 00:00:00 | |
| IN3HCDX | 2026-09-06 00:54:24 | 45.28391 | 9.30312 | 173° | 18km/h | 30764m | 4.8m/s | -42.1°C | 0.8% | 0hPa | 2.5V | 00:00:00 | 00:00:00 | 00:00:00 | |
| OE5DRO-10 | 2026-09-06 00:54:20 | 45.28414 | 9.30323 | 206° | 27km/h | 30739m | 4.5m/s | -42.0°C | 2.7% | 0hPa | 2.5V | 00:00:00 | 00:00:00 | 00:00:00 | |
| DO3MHA-11 | 2026-09-06 00:54:19 | 45.28420 | 9.30326 | 196° | 27km/h | 30734m | 5.6m/s | -42.0°C | 2.7% | 0hPa | 2.5V | 00:00:00 | 02:20:30 | 08:30:00 | |
| IW2NTF | 2026-09-06 00:54:18 | 45.28464 | 9.30327 | 194° | 24km/h | 30701m | 5.8m/s | -41.9°C | 2.6% | 0hPa | 2.5V | 08:30:00 | 02:20:24 | 00:00:00 | |
| DB0ND-19 | 2026-09-06 00:54:18 | 45.28435 | 9.30328 | 176° | 31km/h | 30722m | 4.9m/s | -42.0°C | 0.8% | -1.0hPa | 2.6V | 00:00:00 | 00:00:00 | 00:00:00 | |
| S52SK | 2026-09-06 00:54:12 | 45.28464 | 9.30327 | 196° | 26km/h | 30702m | 5.8m/s | -41.9°C | 0% | 0hPa | 2.6V | 00:00:00 | 00:00:00 | 00:00:00 | |
| DO3MHA-11 | 2026-09-06 00:54:09 | 45.28488 | 9.30342 | 199° | 27km/h | 30681m | 5.8m/s | -41.9°C | 2.6% | 0hPa | 2.6V | 00:00:00 | 02:20:20 | 00:00:00 | |
| IW2NTF | 2026-09-06 00:54:08 | 45.28532 | 9.30345 | 189° | 24km/h | 30649m | 5.4m/s | -42°C | 2.7% | 0hPa | 2.6V | 08:30:00 | 02:20:14 | 00:00:00 | |
| S52SK | 2026-09-06 00:54:06 | 45.28503 | 9.30345 | 182° | 31km/h | 30671m | 4.8m/s | 0°C | 0% | 0hPa | 2.5V | 00:00:00 | 00:00:00 | 00:00:00 | |
| IN3HCDX | 2026-09-06 00:54:04 | 45.28525 | 9.30344 | 184° | 26km/h | 30655m | 5.8m/s | -42.0°C | 0.8% | 0hPa | 2.5V | 00:00:00 | 00:00:00 | 00:00:00 | |
| NBG1-10 | 2026-09-06 00:54:03 | 45.28532 | 9.30345 | 190° | 27km/h | 30649m | 5.3m/s | -42.0°C | 2.7% | 0hPa | 2.5V | 00:00:00 | 02:20:14 | 00:00:00 | |
| OE5DRO-10 | 2026-09-06 00:54:01 | 45.28544 | 9.30349 | 195° | 29km/h | 30639m | 4.9m/s | -42.0°C | 2.7% | 0hPa | 2.5V | 00:00:00 | 00:00:00 | 00:00:00 | |
| DO3MHA-11 | 2026-09-06 00:53:59 | 45.28558 | 9.30353 | 186° | 26km/h | 30628m | 5.6m/s | -42.0°C | 2.7% | 0hPa | 2.5V | 00:00:00 | 02:20:10 | 00:00:00 | |
| IW2NTF | 2026-09-06 00:53:58 | 45.28598 | 9.30354 | 176° | 20km/h | 30596m | 4.8m/s | -42°C | 2.7% | 0hPa | 2.5V | 08:30:00 | 02:20:04 | 00:00:00 | |
| S52SK | 2026-09-06 00:53:55 | 45.28582 | 9.30354 | 181° | 27km/h | 30613m | 5.4m/s | 0°C | 0% | 0hPa | 2.5V | 00:00:00 | 00:00:00 | 00:00:00 | |
| OE3JTB-15 | 2026-09-06 00:53:50 | 45.28616 | 9.30349 | 167° | 29km/h | 30579m | 5.5m/s | 0°C | 0% | 0hPa | 2.5V | 00:00:00 | 00:00:00 | 00:00:00 | |
| DO3MHA-11 | 2026-09-06 00:53:49 | 45.28623 | 9.30347 | 165° | 26km/h | 30574m | 4.9m/s | -41.9°C | 2.7% | 0hPa | 2.5V | 00:00:00 | 02:20:00 | 00:00:00 | |
| IW2NTF | 2026-09-06 00:53:48 | 45.28658 | 9.30332 | 161° | 26km/h | 30540m | 6.3m/s | -41.8°C | 2.7% | 0hPa | 2.5V | 08:30:00 | 02:19:54 | 00:00:00 | |
| DB0ND-19 | 2026-09-06 00:53:47 | 45.28642 | 9.30340 | 164° | 22km/h | 30557m | 5.7m/s | -41.9°C | 0.8% | -1.0hPa | 2.6V | 00:00:00 | 00:00:00 | 00:00:00 | |
| OE5DRO-10 | 2026-09-06 00:53:42 | 45.28664 | 9.30329 | 160° | 29km/h | 30535m | 5.3m/s | -41.7°C | 2.7% | 0hPa | 2.6V | 00:00:00 | 00:00:00 | 00:00:00 | |
| DO3MHA-11 | 2026-09-06 00:53:39 | 45.28682 | 9.30317 | 151° | 27km/h | 30519m | 6.4m/s | -41.6°C | 2.7% | 0hPa | 2.6V | 00:00:00 | 02:19:50 | 00:00:00 | |
| IW2NTF | 2026-09-06 00:53:38 | 45.28714 | 9.30292 | 154° | 37km/h | 30484m | 5.6m/s | -41.5°C | 2.7% | 0hPa | 2.6V | 08:30:00 | 02:19:44 | 00:00:00 | |
| DB0UT-7 | 2026-09-06 00:53:34 | 45.28707 | 9.30297 | 154° | 31km/h | 30490m | 6.4m/s | -41.5°C | 2.7% | 0hPa | 2.5V | 00:00:00 | 02:19:45 | 00:00:00 | |
| DO3MHA-11 | 2026-09-06 00:53:29 | 45.28745 | 9.30270 | 150° | 29km/h | 30462m | 5.6m/s | -41.4°C | 2.6% | 0hPa | 2.5V | 00:00:00 | 02:19:40 | 00:00:00 | |
| IW2NTF | 2026-09-06 00:53:28 | 45.28778 | 9.30233 | 140° | 35km/h | 30429m | 5m/s | -41.4°C | 2.6% | 0hPa | 2.5V | 08:30:00 | 02:19:34 | 00:00:00 | |
| NBG1-10 | 2026-09-06 00:53:28 | 45.28751 | 9.30265 | 146° | 27km/h | 30457m | 5.1m/s | -41.4°C | 2.6% | 0hPa | 2.6V | 00:00:00 | 02:19:39 | 00:00:00 | |
| OE5DRO-10 | 2026-09-06 00:53:22 | 45.28785 | 9.30225 | 141° | 33km/h | 30424m | 5.3m/s | -41.3°C | 2.6% | 0hPa | 2.6V | 00:00:00 | 00:00:00 | 08:30:00 | |
| DO3MHA-11 | 2026-09-06 00:53:19 | 45.28803 | 9.30205 | 147° | 31km/h | 30407m | 5.1m/s | -41.3°C | 2.6% | 0hPa | 2.5V | 00:00:00 | 02:19:30 | 00:00:00 | |
| IW2NTF | 2026-09-06 00:53:18 | 45.28850 | 9.30173 | 155° | 31km/h | 30373m | 6.2m/s | -41.4°C | 2.6% | 0hPa | 2.5V | 08:30:00 | 02:19:24 | 00:00:00 | |
| IN3HCDX | 2026-09-06 00:53:17 | 45.28810 | 9.30199 | 152° | 31km/h | 30401m | 5.2m/s | -41.4°C | 0.8% | 0hPa | 2.5V | 00:00:00 | 00:00:00 | 00:00:00 | |
| DB0ND-19 | 2026-09-06 00:53:16 | 45.28834 | 9.30183 | 157° | 37km/h | 30384m | 5.0m/s | -41.4°C | 0.8% | -1.0hPa | 2.5V | 00:00:00 | 00:00:00 | 00:00:00 | |
| DK5PH-5 | 2026-09-06 00:53:10 | 45.28865 | 9.30158 | 134° | 29km/h | 30356m | 4.8m/s | 0°C | 0% | 0hPa | 2.5V | 00:00:00 | 02:19:21 | 00:00:00 | |
| DO3MHA-11 | 2026-09-06 00:53:09 | 45.28870 | 9.30151 | 130° | 35km/h | 30351m | 5.4m/s | -41.3°C | 2.6% | 0hPa | 2.5V | 00:00:00 | 02:19:20 | 00:00:00 | |
| IW2NTF | 2026-09-06 00:53:08 | 45.28909 | 9.30096 | 140° | 35km/h | 30316m | 5.4m/s | -41.4°C | 2.6% | 0hPa | 2.5V | 08:30:00 | 02:19:14 | 00:00:00 | |
| DB0UT-7 | 2026-09-06 00:53:04 | 45.28902 | 9.30104 | 139° | 24km/h | 30322m | 6.1m/s | -41.3°C | 2.6% | 0hPa | 2.6V | 00:00:00 | 00:00:00 | 08:30:00 | |
| OE5DRO-10 | 2026-09-06 00:53:01 | 45.28921 | 9.30081 | 144° | 24km/h | 30306m | 5.6m/s | -41.3°C | 2.6% | 0hPa | 2.6V | 00:00:00 | 00:00:00 | 00:00:00 | |
| DO3MHA-11 | 2026-09-06 00:52:59 | 45.28934 | 9.30069 | 146° | 24km/h | 30294m | 5.5m/s | -41.3°C | 2.6% | 0hPa | 2.6V | 00:00:00 | 02:19:10 | 00:00:00 | |
| IW2NTF | 2026-09-06 00:52:58 | 45.28963 | 9.30044 | 141° | 15km/h | 30261m | 4.7m/s | -41.6°C | 2.6% | 0hPa | 2.6V | 08:30:00 | 02:19:04 | 00:00:00 | |
| IN3HCDX | 2026-09-06 00:52:57 | 45.28946 | 9.30058 | 149° | 26km/h | 30284m | 4.8m/s | 0°C | 0% | 0hPa | 2.5V | 00:00:00 | 00:00:00 | 00:00:00 | |
| DO3MHA-11 | 2026-09-06 00:52:49 | 45.28978 | 9.30014 | 121° | 22km/h | 30238m | 5.2m/s | -41.6°C | 2.6% | 0hPa | 2.5V | 00:00:00 | 02:19:00 | 08:30:00 | |
| IW2NTF | 2026-09-06 00:52:48 | 45.28995 | 9.29963 | 108° | 15km/h | 30203m | 6.3m/s | -41.9°C | 2.7% | 0hPa | 2.5V | 08:30:00 | 02:18:54 | 00:00:00 | |
| DB0ND-19 | 2026-09-06 00:52:45 | 45.28993 | 9.29968 | 107° | 16km/h | 30210m | 5.5m/s | -41.9°C | 0.8% | -1.0hPa | 2.6V | 00:00:00 | 00:00:00 | 00:00:00 | |
| NBG1-10 | 2026-09-06 00:52:42 | 45.28996 | 9.29958 | 109° | 20km/h | 30198m | 5.6m/s | -41.8°C | 2.7% | 0hPa | 2.6V | 00:00:00 | 02:18:53 | 00:00:00 | |
| DO3MHA-11 | 2026-09-06 00:52:39 | 45.28998 | 9.29946 | 98° | 22km/h | 30181m | 6.3m/s | -41.8°C | 2.6% | 0hPa | 2.5V | 00:00:00 | 02:18:50 | 00:00:00 | |
| IW2NTF | 2026-09-06 00:52:38 | 45.29008 | 9.29907 | 115° | 33km/h | 30146m | 5.5m/s | -42°C | 2.6% | 0hPa | 2.5V | 08:30:00 | 02:18:44 | 00:00:00 | |
| IN3HCDX | 2026-09-06 00:52:36 | 45.28999 | 9.29939 | 104° | 13km/h | 30170m | 4.4m/s | 0°C | 0% | 0hPa | 2.5V | 00:00:00 | 00:00:00 | 00:00:00 | |
| DB0UT-7 | 2026-09-06 00:52:34 | 45.29005 | 9.29918 | 115° | 24km/h | 30153m | 6.5m/s | -41.9°C | 2.6% | 0hPa | 2.5V | 00:00:00 | 02:18:45 | 00:00:00 | |
| DO3MHA-11 | 2026-09-06 00:52:29 | 45.29017 | 9.29873 | 96° | 18km/h | 30125m | 5.2m/s | -42.1°C | 2.7% | 0hPa | 2.5V | 00:00:00 | 02:18:40 | 00:00:00 | |
| IW2NTF | 2026-09-06 00:52:28 | 45.29021 | 9.29837 | 106° | 20km/h | 30090m | 6.1m/s | -42.1°C | 2.6% | 0hPa | 2.5V | 08:30:00 | 02:18:34 | 00:00:00 | |
| OE5DRO-10 | 2026-09-06 00:52:26 | 45.29018 | 9.29857 | 97° | 24km/h | 30108m | 5.8m/s | -42.1°C | 2.7% | 0hPa | 2.6V | 00:00:00 | 00:00:00 | 00:00:00 | |
| DO3MHA-11 | 2026-09-06 00:52:19 | 45.29028 | 9.29808 | 110° | 24km/h | 30069m | 5.4m/s | -42.2°C | 2.7% | 0hPa | 2.6V | 00:00:00 | 02:18:30 | 00:00:00 | |
| IW2NTF | 2026-09-06 00:52:18 | 45.29037 | 9.29749 | 74° | 16km/h | 30035m | 6.5m/s | -42.4°C | 2.7% | 0hPa | 2.6V | 08:30:00 | 02:18:24 | 00:00:00 | |
| S52SK | 2026-09-06 00:52:17 | 45.29030 | 9.29798 | 111° | 33km/h | 30063m | 6.6m/s | 0°C | 0% | 0hPa | 2.6V | 00:00:00 | 00:00:00 | 00:00:00 | |
| IN3HCDX | 2026-09-06 00:52:15 | 45.29036 | 9.29775 | 106° | 33km/h | 30052m | 4.5m/s | 0°C | 0% | 0hPa | 2.6V | 00:00:00 | 00:00:00 | 00:00:00 | |
| DB0ND-19 | 2026-09-06 00:52:14 | 45.29037 | 9.29749 | 74° | 16km/h | 30035m | 6.5m/s | -42.5°C | 0.8% | -1.0hPa | 2.6V | 00:00:00 | 00:00:00 | 00:00:00 | |
| S52SK | 2026-09-06 00:52:11 | 45.29036 | 9.29743 | 59° | 15km/h | 30029m | 5.5m/s | 0°C | 0% | 0hPa | 2.6V | 00:00:00 | 00:00:00 | 00:00:00 | |
| DO3MHA-11 | 2026-09-06 00:52:09 | 45.29031 | 9.29727 | 86° | 27km/h | 30014m | 6.0m/s | -42.5°C | 2.7% | 0hPa | 2.6V | 00:00:00 | 02:18:20 | 00:00:00 | |
| IW2NTF | 2026-09-06 00:52:08 | 45.29040 | 9.29660 | 95° | 26km/h | 29980m | 5.5m/s | -42.5°C | 2.7% | 0hPa | 2.6V | 08:30:00 | 02:18:14 | 00:00:00 | |
| S52SK | 2026-09-06 00:52:06 | 45.29035 | 9.29695 | 105° | 37km/h | 29997m | 5.1m/s | 0°C | 0% | 0hPa | 2.5V | 00:00:00 | 00:00:00 | 00:00:00 | |
| DB0UT-7 | 2026-09-06 00:52:04 | 45.29039 | 9.29671 | 102° | 24km/h | 29987m | 5.4m/s | -42.5°C | 2.7% | 0hPa | 2.5V | 00:00:00 | 00:00:00 | 00:00:00 | |
| DO3MHA-11 | 2026-09-06 00:51:59 | 45.29038 | 9.29633 | 81° | 26km/h | 29959m | 6.1m/s | -42.5°C | 2.8% | 0hPa | 2.5V | 00:00:00 | 02:18:10 | 00:00:00 | |
| IW2NTF | 2026-09-06 00:51:58 | 45.29025 | 9.29591 | 45° | 29km/h | 29925m | 6.2m/s | -42.5°C | 2.8% | 0hPa | 2.5V | 08:30:00 | 02:18:04 | 00:00:00 | |
| HARRO8 | 2026-09-06 00:51:57 | 45.29035 | 9.29614 | 69° | 20km/h | 29944m | 4.9m/s | -42.5°C | 0.8% | -1.0hPa | 2.5V | 00:00:00 | 00:00:00 | 00:00:00 | |
| IN3HCDX | 2026-09-06 00:51:54 | 45.29033 | 9.29606 | 61° | 24km/h | 29938m | 5.6m/s | 0°C | 0% | 0hPa | 2.5V | 00:00:00 | 00:00:00 | 00:00:00 | |
| DO3MHA-11 | 2026-09-06 00:51:49 | 45.29007 | 9.29557 | 77° | 22km/h | 29905m | 6.4m/s | -42.4°C | 2.7% | 0hPa | 2.5V | 00:00:00 | 02:18:00 | 00:00:00 | |
| IW2NTF | 2026-09-06 00:51:48 | 45.28999 | 9.29516 | 27° | 20km/h | 29871m | 5.1m/s | -42.4°C | 2.7% | 0hPa | 2.5V | 08:30:00 | 02:17:54 | 00:00:00 | |
| OE5DRO-10 | 2026-09-06 00:51:47 | 45.29006 | 9.29538 | 92° | 24km/h | 29894m | 4.9m/s | -42.4°C | 2.7% | 0hPa | 2.5V | 00:00:00 | 00:00:00 | 00:00:00 | |
| DB0ND-19 | 2026-09-06 00:51:43 | 45.28994 | 9.29513 | 25° | 22km/h | 29866m | 5.0m/s | -42.4°C | 0.8% | -1.0hPa | 2.5V | 00:00:00 | 00:00:00 | 00:00:00 | |
| DO3MHA-11 | 2026-09-06 00:51:39 | 45.28979 | 9.29497 | 48° | 26km/h | 29848m | 5.5m/s | -42.4°C | 2.7% | 0hPa | 2.5V | 00:00:00 | 02:17:50 | 00:00:00 | |
| IW2NTF | 2026-09-06 00:51:38 | 45.28950 | 9.29453 | 38° | 24km/h | 29816m | 4.8m/s | -42.5°C | 2.7% | 0hPa | 2.5V | 08:30:00 | 02:17:44 | 00:00:00 | |
| NBG1-10 | 2026-09-06 00:51:36 | 45.28965 | 9.29473 | 49° | 20km/h | 29832m | 6.2m/s | -42.4°C | 2.7% | 0hPa | 2.6V | 00:00:00 | 02:17:47 | 00:00:00 | |
| DB0UT-7 | 2026-09-06 00:51:34 | 45.28955 | 9.29459 | 39° | 20km/h | 29821m | 4.8m/s | -42.5°C | 2.7% | 0hPa | 2.6V | 00:00:00 | 02:17:45 | 00:00:00 | |
| IN3HCDX | 2026-09-06 00:51:31 | 45.28945 | 9.29448 | 43° | 22km/h | 29810m | 6.1m/s | 0°C | 0% | 0hPa | 2.5V | 00:00:00 | 00:00:00 | 00:00:00 | |
| DO3MHA-11 | 2026-09-06 00:51:29 | 45.28935 | 9.29433 | 42° | 24km/h | 29793m | 5.0m/s | -42.5°C | 2.7% | 0hPa | 2.5V | 00:00:00 | 02:17:40 | 00:00:00 | |
| IW2NTF | 2026-09-06 00:51:28 | 45.28902 | 9.29407 | 40° | 26km/h | 29760m | 6.2m/s | -42.5°C | 2.6% | 0hPa | 2.5V | 08:30:00 | 02:17:34 | 00:00:00 | |
| OE5DRO-10 | 2026-09-06 00:51:28 | 45.28931 | 9.29429 | 33° | 18km/h | 29787m | 6.0m/s | -42.5°C | 2.7% | 0hPa | 2.6V | 00:00:00 | 00:00:00 | 00:00:00 | |
| HARRO8 | 2026-09-06 00:51:26 | 45.28914 | 9.29417 | 24° | 27km/h | 29771m | 4.4m/s | -42.4°C | 0.8% | -1.0hPa | 2.6V | 00:00:00 | 00:00:00 | 00:00:00 | |
| DO3MHA-11 | 2026-09-06 00:51:19 | 45.28889 | 9.29386 | 39° | 13km/h | 29740m | 6.0m/s | -42.6°C | 2.6% | 0hPa | 2.6V | 00:00:00 | 02:17:30 | 08:30:00 | |
| IW2NTF | 2026-09-06 00:51:14 | 45.28872 | 9.29375 | 68° | 20km/h | 29694m | 6.3m/s | -42.8°C | 2.7% | 0hPa | 2.5V | 08:30:00 | 02:17:22 | 00:00:00 | |
| IN3HCDX | 2026-09-06 00:51:10 | 45.28871 | 9.29375 | 69° | 20km/h | 29694m | 6.3m/s | 0°C | 0% | 0hPa | 2.5V | 00:00:00 | 00:00:00 | 00:00:00 | |
| DO3MHA-11 | 2026-09-06 00:51:09 | 45.28866 | 9.29359 | 61° | 16km/h | 29682m | 5.1m/s | -42.9°C | 2.7% | 0hPa | 2.5V | 00:00:00 | 02:17:20 | 00:00:00 | |
| DB0UT-7 | 2026-09-06 00:51:04 | 45.28859 | 9.29323 | 113° | 16km/h | 29655m | 5.4m/s | -43.3°C | 2.7% | 0hPa | 2.5V | 00:00:00 | 00:00:00 | 00:00:00 | |
| IW2NTF | 2026-09-06 00:51:03 | 45.28858 | 9.29310 | 50° | 13km/h | 29627m | 4.6m/s | -43.5°C | 2.8% | 0hPa | 2.5V | 08:30:00 | 02:17:10 | 00:00:00 | |
| NBG1-10 | 2026-09-06 00:51:03 | 45.28860 | 9.29319 | 121° | 16km/h | 29649m | 5.2m/s | -43.3°C | 2.7% | 0hPa | 2.6V | 00:00:00 | 02:17:14 | 00:00:00 | |
| HARRO8 | 2026-09-06 00:50:55 | 45.28851 | 9.29275 | 79° | 24km/h | 29600m | 5.9m/s | -43.7°C | 0.9% | -1.0hPa | 2.5V | 00:00:00 | 00:00:00 | 00:00:00 | |
| IW2NTF | 2026-09-06 00:50:50 | 45.28851 | 9.29242 | 123° | 18km/h | 29571m | 6.2m/s | -43.9°C | 2.9% | 0hPa | 2.5V | 08:30:00 | 02:17:00 | 00:00:00 | |
| OE5DRO-10 | 2026-09-06 00:50:50 | 45.28849 | 9.29248 | 107° | 16km/h | 29577m | 6.3m/s | -43.8°C | 2.8% | 0hPa | 2.5V | 00:00:00 | 00:00:00 | 00:00:00 | |
| DO3MHA-11 | 2026-09-06 00:50:49 | 45.28851 | 9.29242 | 124° | 18km/h | 29571m | 6.2m/s | -43.9°C | 2.9% | 0hPa | 2.5V | 00:00:00 | 02:17:00 | 00:00:00 | |
| IW2NTF | 2026-09-06 00:50:44 | 45.28860 | 9.29183 | 98° | 26km/h | 29516m | 4.8m/s | -44.1°C | 2.8% | 0hPa | 2.5V | 08:30:00 | 02:16:50 | 00:00:00 | |
| DO3MHA-11 | 2026-09-06 00:50:39 | 45.28860 | 9.29183 | 99° | 15km/h | 29516m | 4.7m/s | -44.1°C | 2.8% | 0hPa | 2.5V | 00:00:00 | 02:16:50 | 00:00:00 | |
| DB0ND-19 | 2026-09-06 00:50:37 | 45.28860 | 9.29159 | 73° | 16km/h | 29499m | 6.4m/s | -44.2°C | 0.9% | -1.0hPa | 2.5V | 00:00:00 | 00:00:00 | 00:00:00 | |
| IW2NTF | 2026-09-06 00:50:34 | 45.28853 | 9.29134 | 71° | 15km/h | 29459m | 6.1m/s | -44.7°C | 3% | 0hPa | 2.5V | 08:30:00 | 02:16:40 | 00:00:00 | |
| DB0UT-7 | 2026-09-06 00:50:34 | 45.28856 | 9.29150 | 52° | 20km/h | 29487m | 5.7m/s | -44.3°C | 2.9% | 0hPa | 2.5V | 00:00:00 | 02:16:45 | 00:00:00 | |
| OE5DRO-10 | 2026-09-06 00:50:31 | 45.28854 | 9.29141 | 85° | 20km/h | 29470m | 4.7m/s | -44.6°C | 2.9% | 0hPa | 2.5V | 00:00:00 | 00:00:00 | 00:00:00 | |
| S52SK | 2026-09-06 00:50:30 | 45.28854 | 9.29141 | 86° | 9km/h | 29470m | 4.8m/s | 0°C | 0% | 0hPa | 2.5V | 00:00:00 | 00:00:00 | 00:00:00 | |
| DO3MHA-11 | 2026-09-06 00:50:29 | 45.28853 | 9.29133 | 72° | 26km/h | 29460m | 6.0m/s | -44.7°C | 3.0% | 0hPa | 2.5V | 00:00:00 | 02:16:40 | 00:00:00 | |
| IN3HCDX | 2026-09-06 00:50:28 | 45.28853 | 9.29134 | 73° | 15km/h | 29460m | 6.1m/s | 0°C | 0% | 0hPa | 2.5V | 00:00:00 | 00:00:00 | 00:00:00 | |
| S52SK | 2026-09-06 00:50:25 | 45.28846 | 9.29112 | 70° | 29km/h | 29442m | 5.2m/s | 0°C | 0% | 0hPa | 2.5V | 00:00:00 | 00:00:00 | 00:00:00 | |
| IW2NTF | 2026-09-06 00:50:24 | 45.28831 | 9.29047 | 38° | 20km/h | 29401m | 5.9m/s | -44.8°C | 3% | 0hPa | 2.5V | 08:30:00 | 02:16:30 | 00:00:00 | |
| HARRO8 | 2026-09-06 00:50:24 | 45.28841 | 9.29080 | 81° | 31km/h | 29424m | 5.0m/s | -44.8°C | 0.9% | -1.0hPa | 2.5V | 00:00:00 | 00:00:00 | 00:00:00 | |
| DO3MHA-11 | 2026-09-06 00:50:19 | 45.28831 | 9.29047 | 39° | 20km/h | 29402m | 5.8m/s | -44.8°C | 3.0% | 0hPa | 2.5V | 00:00:00 | 02:16:30 | 00:00:00 | |
| IW2NTF | 2026-09-06 00:50:12 | 45.28814 | 9.28985 | 81° | 26km/h | 29345m | 5.9m/s | -44.9°C | 3% | 0hPa | 2.5V | 08:30:00 | 02:16:20 | 00:00:00 | |
| OE5DRO-10 | 2026-09-06 00:50:12 | 45.28818 | 9.29012 | 81° | 18km/h | 29361m | 6.1m/s | -44.8°C | 3.0% | 0hPa | 2.6V | 00:00:00 | 00:00:00 | 08:30:00 | |
| DO3MHA-11 | 2026-09-06 00:50:09 | 45.28814 | 9.28985 | 82° | 16km/h | 29345m | 5.8m/s | -44.9°C | 3.0% | 0hPa | 2.5V | 00:00:00 | 02:16:20 | 00:00:00 | |
| DB0ND-19 | 2026-09-06 00:50:06 | 45.28812 | 9.28959 | 57° | 11km/h | 29323m | 5.5m/s | -45.0°C | 0.9% | -1.0hPa | 2.5V | 00:00:00 | 00:00:00 | 00:00:00 | |
| IW2NTF | 2026-09-06 00:50:04 | 45.28796 | 9.28946 | 108° | 9km/h | 29290m | 6.5m/s | -45.1°C | 3% | 0hPa | 2.5V | 08:30:00 | 02:16:10 | 00:00:00 | |
| DB0UT-7 | 2026-09-06 00:50:04 | 45.28809 | 9.28955 | 34° | 15km/h | 29317m | 6.8m/s | -45.0°C | 3.0% | 0hPa | 2.5V | 00:00:00 | 00:00:00 | 00:00:00 | |
| DO3MHA-11 | 2026-09-06 00:49:59 | 45.28796 | 9.28946 | 109° | 16km/h | 29290m | 6.5m/s | -45.1°C | 3.0% | 0hPa | 2.5V | 00:00:00 | 02:16:10 | 00:00:00 | |
| NBG1-10 | 2026-09-06 00:49:57 | 45.28801 | 9.28937 | 130° | 16km/h | 29278m | 5.6m/s | -45.1°C | 3.0% | 0hPa | 2.5V | 00:00:00 | 02:16:08 | 00:00:00 | |
| IW2NTF | 2026-09-06 00:49:54 | 45.28806 | 9.28892 | 33° | 5km/h | 29232m | 5.8m/s | -45.3°C | 3.1% | 0hPa | 2.5V | 08:30:00 | 02:16:00 | 00:00:00 | |
| HARRO8 | 2026-09-06 00:49:52 | 45.28809 | 9.28902 | 75° | 15km/h | 29250m | 5.0m/s | -45.3°C | 0.9% | -1.0hPa | 2.5V | 00:00:00 | 00:00:00 | 00:00:00 | |
| DO3MHA-11 | 2026-09-06 00:49:49 | 45.28806 | 9.28892 | 34° | 13km/h | 29232m | 5.8m/s | -45.3°C | 3.1% | 0hPa | 2.5V | 00:00:00 | 02:16:00 | 08:30:00 | |
| IW2NTF | 2026-09-06 00:49:44 | 45.28822 | 9.28857 | 114° | 24km/h | 29175m | 6.4m/s | -45.4°C | 3% | 0hPa | 2.5V | 08:30:00 | 02:15:50 | 00:00:00 | |
| DO3MHA-11 | 2026-09-06 00:49:39 | 45.28822 | 9.28857 | 115° | 15km/h | 29175m | 6.4m/s | -45.3°C | 3.0% | 0hPa | 2.5V | 00:00:00 | 02:15:50 | 00:00:00 | |
| IW2NTF | 2026-09-06 00:49:34 | 45.28828 | 9.28813 | 133° | 18km/h | 29118m | 6m/s | -45.5°C | 3.1% | 0hPa | 2.5V | 08:30:00 | 02:15:40 | 00:00:00 | |
| DB0UT-7 | 2026-09-06 00:49:34 | 45.28819 | 9.28830 | 76° | 20km/h | 29146m | 5.7m/s | -45.6°C | 3.1% | 0hPa | 2.5V | 00:00:00 | 02:15:45 | 00:00:00 | |
| DO3MHA-11 | 2026-09-06 00:49:29 | 45.28829 | 9.28813 | 134° | 22km/h | 29118m | 5.9m/s | -45.5°C | 3.1% | 0hPa | 2.5V | 00:00:00 | 02:15:40 | 00:00:00 | |
| IW2NTF | 2026-09-06 00:49:24 | 45.28838 | 9.28744 | 74° | 22km/h | 29063m | 4.7m/s | -45.5°C | 3.1% | 0hPa | 2.5V | 08:30:00 | 02:15:30 | 00:00:00 | |
| NBG1-10 | 2026-09-06 00:49:24 | 45.28845 | 9.28786 | 108° | 24km/h | 29091m | 4.6m/s | -45.4°C | 3.1% | 0hPa | 2.5V | 00:00:00 | 02:15:35 | 08:30:00 | |
| IN3HCDX | 2026-09-06 00:49:23 | 45.28845 | 9.28778 | 92° | 22km/h | 29085m | 6.8m/s | 0°C | 0% | 0hPa | 2.5V | 00:00:00 | 00:00:00 | 00:00:00 | |
| HARRO8 | 2026-09-06 00:49:21 | 45.28843 | 9.28761 | 67° | 27km/h | 29072m | 5.3m/s | -45.5°C | 0.9% | -1.0hPa | 2.5V | 00:00:00 | 00:00:00 | 00:00:00 | |
| DO3MHA-11 | 2026-09-06 00:49:19 | 45.28838 | 9.28744 | 75° | 24km/h | 29063m | 4.6m/s | -45.5°C | 3.1% | 0hPa | 2.5V | 00:00:00 | 02:15:30 | 00:00:00 | |
| IW2NTF | 2026-09-06 00:49:15 | 45.28857 | 9.28670 | 62° | 26km/h | 29008m | 6.2m/s | -45.8°C | 3.2% | 0hPa | 2.5V | 08:30:00 | 02:15:20 | 00:00:00 | |
| DO3MHA-11 | 2026-09-06 00:49:09 | 45.28857 | 9.28670 | 63° | 22km/h | 29009m | 6.1m/s | -45.8°C | 3.2% | 0hPa | 2.5V | 00:00:00 | 02:15:20 | 00:00:00 | |
| IW2NTF | 2026-09-06 00:49:04 | 45.28841 | 9.28602 | 94° | 20km/h | 28950m | 5.9m/s | -45.6°C | 3.1% | 0hPa | 2.5V | 08:30:00 | 02:15:10 | 00:00:00 | |
| DB0ND-19 | 2026-09-06 00:49:04 | 45.28840 | 9.28635 | 81° | 22km/h | 28974m | 6.2m/s | -45.7°C | 1.0% | -1.0hPa | 2.5V | 00:00:00 | 00:00:00 | 00:00:00 | |
| DO3MHA-11 | 2026-09-06 00:48:59 | 45.28841 | 9.28602 | 95° | 22km/h | 28951m | 5.8m/s | -45.6°C | 3.1% | 0hPa | 2.5V | 00:00:00 | 02:15:10 | 00:00:00 | |
| OE5DRO-10 | 2026-09-06 00:48:56 | 45.28837 | 9.28583 | 55° | 18km/h | 28933m | 6.9m/s | -45.5°C | 3.0% | 0hPa | 2.5V | 00:00:00 | 00:00:00 | 00:00:00 | |
| IW2NTF | 2026-09-06 00:48:54 | 45.28809 | 9.28549 | 79° | 11km/h | 28893m | 5.4m/s | -45.6°C | 3.1% | 0hPa | 2.5V | 08:30:00 | 02:15:00 | 00:00:00 | |
| HARRO8 | 2026-09-06 00:48:50 | 45.28810 | 9.28552 | 47° | 9km/h | 28899m | 5.1m/s | -45.6°C | 1.0% | -1.0hPa | 2.5V | 00:00:00 | 00:00:00 | 00:00:00 | |
| DO3MHA-11 | 2026-09-06 00:48:49 | 45.28809 | 9.28549 | 80° | 16km/h | 28894m | 5.4m/s | -45.6°C | 3.1% | 0hPa | 2.5V | 00:00:00 | 02:15:00 | 00:00:00 | |
| BAUMI2-15 | 2026-09-06 00:48:48 | 45.28808 | 9.28545 | 95° | 16km/h | 28888m | 6.6m/s | 0°C | 0% | 0hPa | 2.5V | 00:00:00 | 02:14:59 | 00:00:00 | |
| IW2NTF | 2026-09-06 00:48:44 | 45.28805 | 9.28495 | 36° | 16km/h | 28837m | 6.7m/s | -45.6°C | 3.1% | 0hPa | 2.5V | 08:30:00 | 02:14:50 | 00:00:00 | |
| S52SK | 2026-09-06 00:48:44 | 45.28810 | 9.28523 | 97° | 22km/h | 28871m | 4.5m/s | 0°C | 0% | 0hPa | 2.5V | 00:00:00 | 00:00:00 | 00:00:00 | |
| DO3MHA-11 | 2026-09-06 00:48:39 | 45.28805 | 9.28495 | 37° | 16km/h | 28837m | 6.6m/s | -45.5°C | 3.1% | 0hPa | 2.5V | 00:00:00 | 02:14:50 | 00:00:00 | |
| S52SK | 2026-09-06 00:48:38 | 45.28805 | 9.28495 | 38° | 16km/h | 28837m | 6.7m/s | 0°C | 0% | 0hPa | 2.5V | 00:00:00 | 00:00:00 | 00:00:00 | |
| OE5DRO-10 | 2026-09-06 00:48:37 | 45.28797 | 9.28487 | 38° | 15km/h | 28826m | 4.8m/s | -45.6°C | 3.1% | 0hPa | 2.5V | 00:00:00 | 00:00:00 | 00:00:00 | |
| IW2NTF | 2026-09-06 00:48:34 | 45.28776 | 9.28456 | 73° | 18km/h | 28781m | 4.9m/s | -45.7°C | 3.1% | 0hPa | 2.5V | 08:30:00 | 02:14:40 | 00:00:00 | |
| DB0UT-7 | 2026-09-06 00:48:34 | 45.28785 | 9.28475 | 31° | 13km/h | 28809m | 5.9m/s | -45.6°C | 3.1% | 0hPa | 2.5V | 00:00:00 | 02:14:45 | 08:30:00 | |
| DB0ND-19 | 2026-09-06 00:48:32 | 45.28781 | 9.28470 | 47° | 11km/h | 28798m | 5.0m/s | -45.6°C | 0.9% | -1.0hPa | 2.5V | 00:00:00 | 00:00:00 | 00:00:00 | |
| IN3HCDX | 2026-09-06 00:48:29 | 45.28776 | 9.28456 | 74° | 18km/h | 28781m | 4.9m/s | 0°C | 0% | 0hPa | 2.5V | 00:00:00 | 00:00:00 | 00:00:00 | |
| IW2NTF | 2026-09-06 00:48:24 | 45.28764 | 9.28413 | 59° | 18km/h | 28726m | 5.6m/s | -45.8°C | 3.1% | 0hPa | 2.5V | 08:30:00 | 02:14:30 | 00:00:00 | |
| DO3MHA-11 | 2026-09-06 00:48:19 | 45.28763 | 9.28413 | 60° | 11km/h | 28726m | 5.6m/s | -45.8°C | 3.1% | 0hPa | 2.5V | 00:00:00 | 02:14:30 | 08:30:00 | |
| OE5DRO-10 | 2026-09-06 00:48:18 | 45.28761 | 9.28408 | 56° | 13km/h | 28720m | 6.2m/s | -45.8°C | 3.1% | 0hPa | 2.6V | 00:00:00 | 00:00:00 | 00:00:00 | |
| IW2NTF | 2026-09-06 00:48:14 | 45.28744 | 9.28388 | 18° | 9km/h | 28668m | 4.5m/s | -46°C | 3.2% | 0hPa | 2.5V | 08:30:00 | 02:14:20 | 00:00:00 | |
| DO3MHA-11 | 2026-09-06 00:48:09 | 45.28744 | 9.28388 | 19° | 15km/h | 28669m | 4.5m/s | -46.0°C | 3.2% | 0hPa | 2.5V | 00:00:00 | 02:14:20 | 00:00:00 | |
| BAUMI2-15 | 2026-09-06 00:48:08 | 45.28742 | 9.28386 | 33° | 15km/h | 28664m | 4.0m/s | 0°C | 0% | 0hPa | 2.5V | 00:00:00 | 02:14:19 | 00:00:00 | |
| IN3HCDX | 2026-09-06 00:48:05 | 45.28736 | 9.28379 | 56° | 18km/h | 28653m | 6.5m/s | 0°C | 0% | 0hPa | 2.5V | 00:00:00 | 00:00:00 | 00:00:00 | |
| IW2NTF | 2026-09-06 00:48:04 | 45.28730 | 9.28344 | 94° | 9km/h | 28615m | 5.8m/s | -46°C | 3.2% | 0hPa | 2.5V | 08:30:00 | 02:14:10 | 00:00:00 | |
| DB0UT-7 | 2026-09-06 00:48:04 | 45.28732 | 9.28366 | 70° | 13km/h | 28642m | 4.9m/s | -46.0°C | 3.1% | 0hPa | 2.6V | 00:00:00 | 00:00:00 | 00:00:00 | |
| DB0ND-19 | 2026-09-06 00:48:01 | 45.28729 | 9.28350 | 93° | 9km/h | 28624m | 4.9m/s | -46.1°C | 1.0% | -1.0hPa | 2.6V | 00:00:00 | 00:00:00 | 00:00:00 | |
| DO3MHA-11 | 2026-09-06 00:47:59 | 45.28730 | 9.28343 | 95° | 15km/h | 28615m | 5.7m/s | -46.0°C | 3.2% | 0hPa | 2.6V | 00:00:00 | 02:14:10 | 00:00:00 | |
| BAUMI2-15 | 2026-09-06 00:47:57 | 45.28729 | 9.28335 | 76° | 18km/h | 28603m | 5.5m/s | 0°C | 0% | 0hPa | 2.6V | 00:00:00 | 02:14:08 | 00:00:00 | |
| IW2NTF | 2026-09-06 00:47:48 | 45.28715 | 9.28286 | 77° | 18km/h | 28553m | 5m/s | -46.2°C | 3.2% | 0hPa | 2.6V | 08:30:00 | 02:13:59 | 00:00:00 | |
| BAUMI2-15 | 2026-09-06 00:47:45 | 45.28712 | 9.28278 | 343° | 4km/h | 28537m | 4.9m/s | 0°C | 0% | 0hPa | 2.6V | 00:00:00 | 02:13:56 | 00:00:00 | |
| IN3HCDX | 2026-09-06 00:47:44 | 45.28712 | 9.28278 | 331° | 7km/h | 28532m | 4.7m/s | 0°C | 0% | 0hPa | 2.6V | 00:00:00 | 00:00:00 | 00:00:00 | |
| IW2NTF | 2026-09-06 00:47:42 | 45.28698 | 9.28260 | 62° | 11km/h | 28494m | 5.6m/s | -46°C | 3.1% | 0hPa | 2.6V | 08:30:00 | 02:13:48 | 00:00:00 | |
| OE5DRO-10 | 2026-09-06 00:47:41 | 45.28703 | 9.28273 | 55° | 11km/h | 28510m | 5.1m/s | -46.0°C | 3.1% | 0hPa | 2.5V | 00:00:00 | 00:00:00 | 00:00:00 | |
| DO3MHA-11 | 2026-09-06 00:47:39 | 45.28701 | 9.28269 | 62° | 11km/h | 28505m | 5.1m/s | -46.0°C | 3.2% | 0hPa | 2.5V | 00:00:00 | 02:13:50 | 00:00:00 | |
| BAUMI2-15 | 2026-09-06 00:47:37 | 45.28698 | 9.28260 | 63° | 11km/h | 28494m | 5.5m/s | 0°C | 0% | 0hPa | 2.5V | 00:00:00 | 02:13:48 | 00:00:00 | |
| DB0UT-7 | 2026-09-06 00:47:34 | 45.28693 | 9.28254 | 28° | 11km/h | 28477m | 5.9m/s | -46.0°C | 3.1% | 0hPa | 2.5V | 00:00:00 | 02:13:45 | 00:00:00 | |
| DB0ND-19 | 2026-09-06 00:47:30 | 45.28681 | 9.28246 | 18° | 9km/h | 28456m | 5.8m/s | -46.0°C | 1.0% | -1.0hPa | 2.5V | 00:00:00 | 00:00:00 | 00:00:00 | |
| DO3MHA-11 | 2026-09-06 00:47:29 | 45.28679 | 9.28245 | 23° | 11km/h | 28450m | 6.2m/s | -46.0°C | 3.1% | 0hPa | 2.5V | 00:00:00 | 02:13:40 | 00:00:00 | |
| IW2NTF | 2026-09-06 00:47:25 | 45.28682 | 9.28237 | 106° | 15km/h | 28427m | 6.6m/s | -46.1°C | 3.1% | 0hPa | 2.5V | 08:30:00 | 02:13:36 | 00:00:00 | |
| DO3MHA-11 | 2026-09-06 00:47:19 | 45.28681 | 9.28210 | 36° | 7km/h | 28395m | 5.3m/s | -46.2°C | 3.1% | 0hPa | 2.5V | 00:00:00 | 02:13:30 | 00:00:00 | |
| IW2NTF | 2026-09-06 00:47:15 | 45.28674 | 9.28207 | 22° | 11km/h | 28371m | 4.9m/s | -46.3°C | 3.2% | 0hPa | 2.5V | 08:30:00 | 02:13:26 | 00:00:00 | |
| NBG1-10 | 2026-09-06 00:47:12 | 45.28668 | 9.28203 | 35° | 13km/h | 28355m | 5.2m/s | -46.4°C | 3.2% | 0hPa | 2.5V | 00:00:00 | 02:13:23 | 00:00:00 | |
| DO3MHA-11 | 2026-09-06 00:47:09 | 45.28666 | 9.28196 | 81° | 11km/h | 28340m | 6.4m/s | -46.5°C | 3.2% | 0hPa | 2.5V | 00:00:00 | 02:13:20 | 00:00:00 | |
| DB0UT-7 | 2026-09-06 00:47:04 | 45.28663 | 9.28173 | 97° | 15km/h | 28312m | 5.4m/s | -46.5°C | 3.2% | 0hPa | 2.5V | 00:00:00 | 00:00:00 | 00:00:00 | |
| DB0ND-19 | 2026-09-06 00:46:59 | 45.28663 | 9.28156 | 85° | 15km/h | 28284m | 5.4m/s | -46.5°C | 1.0% | -1.0hPa | 2.6V | 00:00:00 | 00:00:00 | 00:00:00 | |
| HARRO8 | 2026-09-06 00:46:46 | 45.28656 | 9.28096 | 47° | 13km/h | 28211m | 6.4m/s | -46.4°C | 1.0% | -1.0hPa | 2.6V | 00:00:00 | 00:00:00 | 00:00:00 | |
| DO3MHA-11 | 2026-09-06 00:46:42 | 45.28646 | 9.28077 | 63° | 16km/h | 28188m | 6.0m/s | -46.4°C | 3.2% | 0hPa | 2.6V | 00:00:00 | 02:12:53 | 08:30:00 | |
| NBG1-10 | 2026-09-06 00:46:39 | 45.28642 | 9.28060 | 81° | 18km/h | 28172m | 6.0m/s | -46.4°C | 3.2% | 0hPa | 2.5V | 00:00:00 | 02:12:50 | 00:00:00 | |
| OE5DRO-10 | 2026-09-06 00:46:35 | 45.28638 | 9.28038 | 66° | 16km/h | 28151m | 5.6m/s | -46.3°C | 3.1% | 0hPa | 2.5V | 00:00:00 | 00:00:00 | 08:30:00 | |
| DB0UT-7 | 2026-09-06 00:46:34 | 45.28637 | 9.28035 | 48° | 18km/h | 28146m | 6.1m/s | -46.3°C | 3.2% | 0hPa | 2.6V | 00:00:00 | 02:12:45 | 00:00:00 | |
| S52SK | 2026-09-06 00:46:33 | 45.28637 | 9.28035 | 48° | 7km/h | 28146m | 6.2m/s | 0°C | 0% | 0hPa | 2.6V | 00:00:00 | 00:00:00 | 00:00:00 | |
| DB0ND-19 | 2026-09-06 00:46:28 | 45.28618 | 9.28021 | 40° | 24km/h | 28112m | 5.2m/s | -46.4°C | 1.0% | -1.0hPa | 2.6V | 00:00:00 | 00:00:00 | 00:00:00 | |
| S52SK | 2026-09-06 00:46:27 | 45.28618 | 9.28021 | 42° | 26km/h | 28113m | 5.2m/s | 0°C | 0% | 0hPa | 2.6V | 00:00:00 | 00:00:00 | 00:00:00 | |
| S52SK | 2026-09-06 00:46:22 | 45.28603 | 9.27995 | 68° | 15km/h | 28084m | 5.9m/s | 0°C | 0% | 0hPa | 2.6V | 00:00:00 | 00:00:00 | 00:00:00 | |
| HARRO8 | 2026-09-06 00:46:15 | 45.28584 | 9.27967 | 30° | 24km/h | 28041m | 6.7m/s | -46.9°C | 1.0% | -1.0hPa | 2.6V | 00:00:00 | 00:00:00 | 00:00:00 | |
| OE5DRO-10 | 2026-09-06 00:46:14 | 45.28578 | 9.27962 | 37° | 24km/h | 28035m | 5.8m/s | -46.9°C | 3.3% | 0hPa | 2.6V | 00:00:00 | 00:00:00 | 00:00:00 | |
| NBG1-10 | 2026-09-06 00:46:07 | 45.28549 | 9.27910 | 69° | 18km/h | 27990m | 5.6m/s | -46.7°C | 3.3% | 0hPa | 2.6V | 00:00:00 | 02:12:17 | 00:00:00 | |
| DB0UT-7 | 2026-09-06 00:46:04 | 45.28544 | 9.27899 | 51° | 18km/h | 27980m | 4.9m/s | -46.7°C | 3.3% | 0hPa | 2.5V | 00:00:00 | 00:00:00 | 00:00:00 | |
| DB0ND-19 | 2026-09-06 00:45:58 | 45.28507 | 9.27874 | 32° | 26km/h | 27940m | 4.2m/s | -46.7°C | 1.0% | -1.0hPa | 2.5V | 00:00:00 | 00:00:00 | 00:00:00 | |
| IW2NTF | 2026-09-06 00:45:55 | 45.28492 | 9.27855 | 81° | 9km/h | 27912m | 5.7m/s | -46.7°C | 3.2% | 0hPa | 2.5V | 08:30:00 | 02:12:03 | 00:00:00 | |
| OE5DRO-10 | 2026-09-06 00:45:55 | 45.28497 | 9.27864 | 38° | 11km/h | 27930m | 6.4m/s | -46.7°C | 3.3% | 0hPa | 2.5V | 00:00:00 | 00:00:00 | 00:00:00 | |
| IW2NTF | 2026-09-06 00:45:45 | 45.28435 | 9.27834 | 24° | 18km/h | 27852m | 5m/s | -46.7°C | 3.3% | 0hPa | 2.5V | 08:30:00 | 02:11:52 | 00:00:00 | |
| HARRO8 | 2026-09-06 00:45:44 | 45.28454 | 9.27839 | 0° | 31km/h | 27868m | 5.1m/s | -46.7°C | 1.1% | -1.0hPa | 2.5V | 00:00:00 | 00:00:00 | 00:00:00 | |
| IW2NTF | 2026-09-06 00:45:35 | 45.28397 | 9.27824 | 357° | 35km/h | 27799m | 4.8m/s | -46.7°C | 3.3% | 0hPa | 2.5V | 08:30:00 | 02:11:42 | 00:00:00 | |
| DB0UT-7 | 2026-09-06 00:45:34 | 45.28418 | 9.27827 | 13° | 16km/h | 27815m | 6.0m/s | -46.7°C | 3.3% | 0hPa | 2.6V | 00:00:00 | 02:11:45 | 00:00:00 | |
| NBG1-10 | 2026-09-06 00:45:33 | 45.28412 | 9.27826 | 11° | 16km/h | 27809m | 5.3m/s | -46.7°C | 3.3% | 0hPa | 2.5V | 00:00:00 | 02:11:44 | 00:00:00 | |
| DB0ND-19 | 2026-09-06 00:45:26 | 45.28368 | 9.27841 | 309° | 7km/h | 27772m | 6.9m/s | -46.7°C | 1.1% | -1.0hPa | 2.5V | 00:00:00 | 00:00:00 | 00:00:00 | |
| IW2NTF | 2026-09-06 00:45:25 | 45.28368 | 9.27835 | 24° | 7km/h | 27744m | 5.4m/s | -46.6°C | 3.2% | 0hPa | 2.5V | 08:30:00 | 02:11:32 | 00:00:00 | |
| OE5DRO-10 | 2026-09-06 00:45:20 | 45.28366 | 9.27834 | 2° | 16km/h | 27739m | 5.1m/s | -46.6°C | 3.3% | 0hPa | 2.5V | 00:00:00 | 00:00:00 | 00:00:00 | |
| IW2NTF | 2026-09-06 00:45:16 | 45.28326 | 9.27846 | 264° | 5km/h | 27691m | 5m/s | -46.5°C | 3.2% | 0hPa | 2.6V | 08:30:00 | 02:11:22 | 00:00:00 | |
| HARRO8 | 2026-09-06 00:45:13 | 45.28329 | 9.27841 | 325° | 15km/h | 27701m | 5.7m/s | -46.5°C | 1.0% | -1.0hPa | 2.5V | 00:00:00 | 00:00:00 | 00:00:00 | |
| IW2NTF | 2026-09-06 00:45:06 | 45.28294 | 9.27836 | 356° | 22km/h | 27633m | 4.8m/s | -46.5°C | 3.2% | 0hPa | 2.5V | 08:30:00 | 02:11:11 | 00:00:00 | |
| DB0UT-7 | 2026-09-06 00:45:04 | 45.28320 | 9.27832 | 360° | 13km/h | 27654m | 5.1m/s | -46.4°C | 3.2% | 0hPa | 2.5V | 00:00:00 | 00:00:00 | 00:00:00 | |
| NBG1-10 | 2026-09-06 00:45:00 | 45.28294 | 9.27836 | 357° | 11km/h | 27633m | 4.7m/s | -46.4°C | 3.2% | 0hPa | 2.5V | 00:00:00 | 02:11:11 | 00:00:00 | |
| OE5DRO-10 | 2026-09-06 00:44:59 | 45.28289 | 9.27836 | 359° | 13km/h | 27628m | 4.9m/s | -46.4°C | 3.2% | 0hPa | 2.5V | 00:00:00 | 00:00:00 | 00:00:00 | |
| IW2NTF | 2026-09-06 00:44:55 | 45.28285 | 9.27824 | 45° | 9km/h | 27580m | 6.1m/s | -46.5°C | 3.2% | 0hPa | 2.5V | 08:30:00 | 02:11:01 | 00:00:00 | |
| DB0ND-19 | 2026-09-06 00:44:55 | 45.28281 | 9.27837 | 133° | 2km/h | 27607m | 4.5m/s | -46.6°C | 1.0% | -1.0hPa | 2.5V | 00:00:00 | 00:00:00 | 00:00:00 | |
| IW2NTF | 2026-09-06 00:44:45 | 45.28252 | 9.27815 | 120° | 4km/h | 27525m | 4.8m/s | -46.7°C | 3.2% | 0hPa | 2.5V | 08:30:00 | 02:10:51 | 00:00:00 | |
| HARRO8 | 2026-09-06 00:44:42 | 45.28253 | 9.27818 | 46° | 5km/h | 27536m | 6.0m/s | -46.7°C | 1.0% | -1.0hPa | 2.5V | 00:00:00 | 00:00:00 | 00:00:00 | |
| OE5DRO-10 | 2026-09-06 00:44:40 | 45.28252 | 9.27815 | 121° | 7km/h | 27526m | 4.7m/s | -46.6°C | 3.2% | 0hPa | 2.5V | 00:00:00 | 00:00:00 | 00:00:00 | |
| IW2NTF | 2026-09-06 00:44:35 | 45.28236 | 9.27808 | 4° | 13km/h | 27473m | 5.6m/s | -46.8°C | 3.3% | 0hPa | 2.5V | 08:30:00 | 02:10:41 | 00:00:00 | |
| DB0UT-7 | 2026-09-06 00:44:34 | 45.28249 | 9.27803 | 353° | 9km/h | 27494m | 5.9m/s | -46.8°C | 3.3% | 0hPa | 2.5V | 00:00:00 | 02:10:45 | 00:00:00 | |
| NBG1-10 | 2026-09-06 00:44:27 | 45.28230 | 9.27804 | 59° | 9km/h | 27458m | 5.4m/s | -46.7°C | 3.3% | 0hPa | 2.5V | 00:00:00 | 02:10:38 | 08:30:00 | |
| DB0ND-19 | 2026-09-06 00:44:24 | 45.28231 | 9.27805 | 254° | 4km/h | 27442m | 4.2m/s | -46.8°C | 1.0% | -1.0hPa | 2.5V | 00:00:00 | 00:00:00 | 00:00:00 | |
| IW2NTF | 2026-09-06 00:44:23 | 45.28227 | 9.27807 | 358° | 11km/h | 27421m | 4.8m/s | -46.7°C | 3.2% | 0hPa | 2.5V | 08:30:00 | 02:10:31 | 00:00:00 | |
| OE5DRO-10 | 2026-09-06 00:44:21 | 45.28229 | 9.27807 | 6° | 11km/h | 27427m | 5.0m/s | -46.7°C | 3.2% | 0hPa | 2.5V | 00:00:00 | 00:00:00 | 00:00:00 | |
| IW2NTF | 2026-09-06 00:44:13 | 45.28200 | 9.27804 | 32° | 7km/h | 27359m | 5.5m/s | -46.8°C | 3.2% | 0hPa | 2.5V | 08:30:00 | 02:10:19 | 00:00:00 | |
| HARRO8 | 2026-09-06 00:44:11 | 45.28203 | 9.27805 | 21° | 4km/h | 27374m | 5.7m/s | -46.7°C | 1.0% | -1.0hPa | 2.5V | 00:00:00 | 00:00:00 | 00:00:00 | |
| DB0UT-7 | 2026-09-06 00:44:04 | 45.28191 | 9.27793 | 33° | 11km/h | 27338m | 5.1m/s | -47.0°C | 3.3% | 0hPa | 2.5V | 00:00:00 | 00:00:00 | 08:30:00 | |
| OE5DRO-10 | 2026-09-06 00:44:02 | 45.28186 | 9.27791 | 355° | 9km/h | 27327m | 4.7m/s | -47.2°C | 3.3% | 0hPa | 2.5V | 00:00:00 | 00:00:00 | 00:00:00 | |
| IW2NTF | 2026-09-06 00:44:00 | 45.28178 | 9.27788 | 64° | 9km/h | 27307m | 5.4m/s | -47.3°C | 3.3% | 0hPa | 2.5V | 08:30:00 | 02:10:09 | 00:00:00 | |
| NBG1-10 | 2026-09-06 00:43:54 | 45.28177 | 9.27774 | 102° | 11km/h | 27287m | 4.7m/s | -47.3°C | 3.3% | 0hPa | 2.6V | 00:00:00 | 02:10:05 | 00:00:00 | |
| IW2NTF | 2026-09-06 00:43:53 | 45.28172 | 9.27758 | 48° | 9km/h | 27256m | 6m/s | -47.6°C | 3.4% | 0hPa | 2.6V | 08:30:00 | 02:09:59 | 00:00:00 | |
| DB0ND-19 | 2026-09-06 00:43:53 | 45.28177 | 9.27772 | 92° | 4km/h | 27282m | 4.2m/s | -47.4°C | 1.0% | -1.0hPa | 2.5V | 00:00:00 | 00:00:00 | 00:00:00 | |
| OE5DRO-10 | 2026-09-06 00:43:43 | 45.28167 | 9.27743 | 81° | 13km/h | 27231m | 5.9m/s | -47.7°C | 3.4% | 0hPa | 2.5V | 00:00:00 | 00:00:00 | 00:00:00 | |
| HARRO8 | 2026-09-06 00:43:40 | 45.28167 | 9.27716 | 101° | 15km/h | 27209m | 5.0m/s | -47.8°C | 1.1% | -1.0hPa | 2.5V | 00:00:00 | 00:00:00 | 00:00:00 | |
| IW2NTF | 2026-09-06 00:43:39 | 45.28167 | 9.27703 | 69° | 11km/h | 27195m | 5.9m/s | -47.8°C | 3.4% | 0hPa | 2.5V | 08:30:00 | 02:09:47 | 00:00:00 | |
| DB0UT-7 | 2026-09-06 00:43:34 | 45.28163 | 9.27696 | 37° | 13km/h | 27184m | 4.6m/s | -47.7°C | 3.3% | 0hPa | 2.5V | 00:00:00 | 02:09:45 | 00:00:00 | |
| IW2NTF | 2026-09-06 00:43:29 | 45.28148 | 9.27680 | 58° | 18km/h | 27144m | 4.4m/s | -47.9°C | 3.3% | 0hPa | 2.5V | 08:30:00 | 02:09:37 | 00:00:00 | |
| OE5DRO-10 | 2026-09-06 00:43:24 | 45.28144 | 9.27669 | 72° | 13km/h | 27135m | 5.1m/s | -47.9°C | 3.3% | 0hPa | 2.6V | 00:00:00 | 00:00:00 | 08:30:00 | |
| DB0ND-19 | 2026-09-06 00:43:22 | 45.28143 | 9.27659 | 100° | 11km/h | 27124m | 4.7m/s | -48.0°C | 1.0% | -1.0hPa | 2.5V | 00:00:00 | 00:00:00 | 00:00:00 | |
| IW2NTF | 2026-09-06 00:43:19 | 45.28135 | 9.27637 | 31° | 15km/h | 27095m | 4.7m/s | -48.3°C | 3.5% | 0hPa | 2.5V | 08:30:00 | 02:09:27 | 00:00:00 | |
| IN3HCDX | 2026-09-06 00:43:15 | 45.28135 | 9.27636 | 32° | 15km/h | 27095m | 4.7m/s | 0°C | 0% | 0hPa | 2.5V | 00:00:00 | 00:00:00 | 00:00:00 | |
| IW2NTF | 2026-09-06 00:43:11 | 45.28118 | 9.27610 | 82° | 13km/h | 27043m | 4.9m/s | -48.4°C | 3.4% | 0hPa | 2.5V | 08:30:00 | 02:09:17 | 00:00:00 | |
| NBG1-10 | 2026-09-06 00:43:11 | 45.28125 | 9.27631 | 43° | 11km/h | 27069m | 5.6m/s | -48.3°C | 3.4% | 0hPa | 2.5V | 00:00:00 | 02:09:22 | 00:00:00 | |
| HARRO8 | 2026-09-06 00:43:10 | 45.28120 | 9.27619 | 70° | 13km/h | 27054m | 5.1m/s | -48.4°C | 1.1% | -1.0hPa | 2.5V | 00:00:00 | 00:00:00 | 00:00:00 | |
| OE5DRO-10 | 2026-09-06 00:43:05 | 45.28118 | 9.27606 | 80° | 9km/h | 27039m | 4.3m/s | -48.4°C | 3.5% | 0hPa | 2.5V | 00:00:00 | 00:00:00 | 00:00:00 | |
| DB0UT-7 | 2026-09-06 00:43:04 | 45.28117 | 9.27601 | 72° | 9km/h | 27034m | 5.4m/s | -48.4°C | 3.4% | 0hPa | 2.5V | 00:00:00 | 00:00:00 | 00:00:00 | |
| IW2NTF | 2026-09-06 00:43:00 | 45.28096 | 9.27595 | 5° | 9km/h | 26988m | 5m/s | -48.9°C | 3.5% | 0hPa | 2.5V | 08:30:00 | 02:09:06 | 00:00:00 | |
| DB0ND-19 | 2026-09-06 00:42:51 | 45.28090 | 9.27589 | 68° | 2km/h | 26968m | 4.7m/s | -49.0°C | 1.1% | -1.0hPa | 2.6V | 00:00:00 | 00:00:00 | 00:00:00 | |
| IW2NTF | 2026-09-06 00:42:49 | 45.28090 | 9.27588 | 259° | 11km/h | 26928m | 4.3m/s | -49.1°C | 3.6% | 0hPa | 2.6V | 08:30:00 | 02:08:54 | 00:00:00 | |
| OE5DRO-10 | 2026-09-06 00:42:46 | 45.28089 | 9.27583 | 93° | 7km/h | 26944m | 4.4m/s | -49.0°C | 3.6% | 0hPa | 2.6V | 00:00:00 | 00:00:00 | 00:00:00 | |
| IW2NTF | 2026-09-06 00:42:38 | 45.28080 | 9.27599 | 105° | 9km/h | 26877m | 5.7m/s | -49°C | 3.6% | 0hPa | 2.6V | 08:30:00 | 02:08:44 | 00:00:00 | |
| HARRO8 | 2026-09-06 00:42:38 | 45.28081 | 9.27604 | 349° | 7km/h | 26897m | 5.9m/s | -49.0°C | 1.1% | -1.0hPa | 2.5V | 00:00:00 | 00:00:00 | 00:00:00 | |
| DB0UT-7 | 2026-09-06 00:42:34 | 45.28079 | 9.27601 | 99° | 9km/h | 26883m | 5.7m/s | -49.0°C | 3.6% | 0hPa | 2.5V | 00:00:00 | 02:08:45 | 00:00:00 | |
| OE5DRO-10 | 2026-09-06 00:42:27 | 45.28090 | 9.27596 | 266° | 9km/h | 26847m | 6.0m/s | -48.8°C | 3.5% | 0hPa | 2.5V | 00:00:00 | 00:00:00 | 00:00:00 | |
| IW2NTF | 2026-09-06 00:42:22 | 45.28082 | 9.27586 | 110° | 13km/h | 26800m | 6.1m/s | -49°C | 3.5% | 0hPa | 2.5V | 08:30:00 | 02:08:29 | 00:00:00 | |
| DB0ND-19 | 2026-09-06 00:42:20 | 45.28079 | 9.27593 | 112° | 9km/h | 26811m | 4.9m/s | -49.0°C | 1.1% | -1.0hPa | 2.6V | 00:00:00 | 00:00:00 | 00:00:00 | |
| IW2NTF | 2026-09-06 00:42:12 | 45.28078 | 9.27559 | 42° | 11km/h | 26748m | 5.4m/s | -49.3°C | 3.5% | 0hPa | 2.6V | 08:30:00 | 02:08:19 | 00:00:00 | |
| OE5DRO-10 | 2026-09-06 00:42:08 | 45.28078 | 9.27559 | 43° | 16km/h | 26748m | 5.4m/s | -49.3°C | 3.5% | 0hPa | 2.5V | 00:00:00 | 00:00:00 | 00:00:00 | |
| HARRO8 | 2026-09-06 00:42:07 | 45.28077 | 9.27552 | 104° | 13km/h | 26737m | 5.2m/s | -49.6°C | 1.1% | -1.0hPa | 2.5V | 00:00:00 | 00:00:00 | 00:00:00 | |
| NBG1-10 | 2026-09-06 00:42:05 | 45.28078 | 9.27547 | 113° | 18km/h | 26732m | 4.9m/s | -49.6°C | 3.6% | 0hPa | 2.5V | 00:00:00 | 02:08:16 | 00:00:00 | |
| DB0UT-7 | 2026-09-06 00:42:04 | 45.28080 | 9.27541 | 111° | 20km/h | 26727m | 5.6m/s | -49.7°C | 3.6% | 0hPa | 2.5V | 00:00:00 | 00:00:00 | 00:00:00 | |
| OE5DRO-10 | 2026-09-06 00:41:50 | 45.28070 | 9.27452 | 83° | 20km/h | 26647m | 4.9m/s | -50.4°C | 3.7% | 0hPa | 2.5V | 00:00:00 | 00:00:00 | 00:00:00 | |
| HARRO8 | 2026-09-06 00:41:36 | 45.28014 | 9.27394 | 56° | 13km/h | 26569m | 4.8m/s | -50.6°C | 1.1% | -1.0hPa | 2.5V | 00:00:00 | 00:00:00 | 00:00:00 | |
| DB0UT-7 | 2026-09-06 00:41:34 | 45.28012 | 9.27390 | 45° | 16km/h | 26564m | 4.1m/s | -50.6°C | 3.8% | 0hPa | 2.5V | 00:00:00 | 02:07:45 | 00:00:00 | |
| NBG1-10 | 2026-09-06 00:41:32 | 45.28005 | 9.27386 | 10° | 16km/h | 26554m | 6.1m/s | -50.6°C | 3.8% | 0hPa | 2.5V | 00:00:00 | 02:07:43 | 00:00:00 | |
| OE5DRO-10 | 2026-09-06 00:41:30 | 45.27994 | 9.27386 | 358° | 20km/h | 26544m | 4.6m/s | -50.6°C | 3.7% | 0hPa | 2.5V | 00:00:00 | 00:00:00 | 00:00:00 | |
| IW2NTF | 2026-09-06 00:41:22 | 45.27947 | 9.27389 | 329° | 11km/h | 26476m | 5.6m/s | -51.2°C | 3.8% | 0hPa | 2.6V | 08:30:00 | 02:07:29 | 00:00:00 | |
| DO3MHA-11 | 2026-09-06 00:41:20 | 45.27951 | 9.27386 | 356° | 16km/h | 26488m | 6.2m/s | -51.1°C | 3.8% | 0hPa | 2.6V | 00:00:00 | 02:07:31 | 00:00:00 | |
| DB0ND-19 | 2026-09-06 00:41:18 | 45.27947 | 9.27389 | 329° | 11km/h | 26477m | 5.6m/s | -51.2°C | 1.2% | -1.0hPa | 2.6V | 00:00:00 | 00:00:00 | 00:00:00 | |
| IW2NTF | 2026-09-06 00:41:11 | 45.27907 | 9.27431 | 241° | 9km/h | 26410m | 6.7m/s | -51.6°C | 3.9% | 0hPa | 2.6V | 08:30:00 | 02:07:17 | 00:00:00 | |
| OE5DRO-10 | 2026-09-06 00:41:11 | 45.27915 | 9.27416 | 314° | 15km/h | 26438m | 4.9m/s | -51.4°C | 3.8% | 0hPa | 2.5V | 00:00:00 | 00:00:00 | 00:00:00 | |
| DO3MHA-11 | 2026-09-06 00:41:10 | 45.27912 | 9.27420 | 316° | 13km/h | 26432m | 6.2m/s | -51.4°C | 3.9% | 0hPa | 2.5V | 00:00:00 | 02:07:21 | 00:00:00 | |
| HARRO8 | 2026-09-06 00:41:05 | 45.27911 | 9.27439 | 235° | 16km/h | 26398m | 4.7m/s | -51.6°C | 1.2% | -1.0hPa | 2.5V | 00:00:00 | 00:00:00 | 00:00:00 | |
| DB0UT-7 | 2026-09-06 00:41:04 | 45.27911 | 9.27439 | 236° | 16km/h | 26398m | 4.7m/s | -51.6°C | 3.9% | 0hPa | 2.5V | 00:00:00 | 00:00:00 | 00:00:00 | |
| DO3MHA-11 | 2026-09-06 00:41:00 | 45.27912 | 9.27462 | 298° | 15km/h | 26377m | 4.9m/s | -51.7°C | 4.0% | 0hPa | 2.5V | 00:00:00 | 02:07:11 | 00:00:00 | |
| IW2NTF | 2026-09-06 00:40:56 | 45.27910 | 9.27513 | 225° | 7km/h | 26328m | 5.2m/s | -51.9°C | 4% | 0hPa | 2.5V | 08:30:00 | 02:07:02 | 00:00:00 | |
| NBG1-10 | 2026-09-06 00:40:56 | 45.27904 | 9.27491 | 271° | 15km/h | 26356m | 5.2m/s | -51.9°C | 4.1% | 0hPa | 2.6V | 00:00:00 | 02:07:07 | 00:00:00 | |
| DO3MHA-11 | 2026-09-06 00:40:49 | 45.27914 | 9.27519 | 235° | 16km/h | 26317m | 5.8m/s | -51.8°C | 4.0% | 0hPa | 2.6V | 00:00:00 | 02:07:00 | 00:00:00 | |
| OE5DRO-10 | 2026-09-06 00:40:47 | 45.27916 | 9.27528 | 261° | 16km/h | 26306m | 4.9m/s | -51.8°C | 4.0% | 0hPa | 2.6V | 00:00:00 | 00:00:00 | 00:00:00 | |
| IW2NTF | 2026-09-06 00:40:41 | 45.27927 | 9.27582 | 182° | 11km/h | 26250m | 5.4m/s | -51.7°C | 4% | 0hPa | 2.6V | 08:30:00 | 02:06:48 | 00:00:00 | |
| DO3MHA-11 | 2026-09-06 00:40:38 | 45.27924 | 9.27581 | 203° | 13km/h | 26256m | 6.0m/s | -51.6°C | 4.0% | 0hPa | 2.5V | 00:00:00 | 02:06:49 | 00:00:00 | |
| HARRO8 | 2026-09-06 00:40:34 | 45.27939 | 9.27584 | 214° | 15km/h | 26229m | 5.9m/s | -51.6°C | 1.2% | -1.0hPa | 2.5V | 00:00:00 | 00:00:00 | 00:00:00 | |
| IW2NTF | 2026-09-06 00:40:31 | 45.27942 | 9.27612 | 306° | 11km/h | 26196m | 5m/s | -51.6°C | 4% | 0hPa | 2.5V | 08:30:00 | 02:06:38 | 00:00:00 | |
| DO3MHA-11 | 2026-09-06 00:40:28 | 45.27943 | 9.27608 | 299° | 13km/h | 26202m | 5.6m/s | -51.6°C | 4.0% | 0hPa | 2.6V | 00:00:00 | 02:06:39 | 00:00:00 | |
| NBG1-10 | 2026-09-06 00:40:23 | 45.27945 | 9.27623 | 202° | 7km/h | 26174m | 4.9m/s | -51.7°C | 4.0% | 0hPa | 2.6V | 00:00:00 | 02:06:34 | 00:00:00 | |
| IW2NTF | 2026-09-06 00:40:21 | 45.27966 | 9.27623 | 202° | 5km/h | 26142m | 5.8m/s | -51.7°C | 4% | 0hPa | 2.6V | 08:30:00 | 02:06:28 | 00:00:00 | |
| DO3MHA-11 | 2026-09-06 00:40:18 | 45.27964 | 9.27622 | 172° | 5km/h | 26148m | 4.9m/s | -51.6°C | 4.0% | 0hPa | 2.5V | 00:00:00 | 02:06:29 | 00:00:00 | |
| DB0ND-19 | 2026-09-06 00:40:16 | 45.27968 | 9.27628 | 255° | 11km/h | 26130m | 5.4m/s | -51.7°C | 1.3% | -1.0hPa | 2.5V | 00:00:00 | 00:00:00 | 00:00:00 | |
| IW2NTF | 2026-09-06 00:40:10 | 45.27971 | 9.27634 | 164° | 4km/h | 26086m | 4.3m/s | -51.5°C | 4% | 0hPa | 2.5V | 08:30:00 | 02:06:18 | 00:00:00 | |
| DO3MHA-11 | 2026-09-06 00:40:08 | 45.27970 | 9.27634 | 162° | 5km/h | 26091m | 5.1m/s | -51.5°C | 4.0% | 0hPa | 2.5V | 00:00:00 | 02:06:19 | 08:30:00 | |
| OE5DRO-10 | 2026-09-06 00:40:07 | 45.27971 | 9.27634 | 165° | 7km/h | 26086m | 4.3m/s | -51.4°C | 4.0% | 0hPa | 2.5V | 00:00:00 | 00:00:00 | 00:00:00 | |
| DB0UT-7 | 2026-09-06 00:40:04 | 45.27972 | 9.27631 | 69° | 9km/h | 26070m | 5.8m/s | -51.4°C | 3.9% | 0hPa | 2.5V | 00:00:00 | 00:00:00 | 00:00:00 | |
| HARRO8 | 2026-09-06 00:40:03 | 45.27971 | 9.27631 | 293° | 2km/h | 26059m | 5.1m/s | -51.4°C | 1.2% | -1.0hPa | 2.5V | 00:00:00 | 00:00:00 | 00:00:00 | |
| IW2NTF | 2026-09-06 00:40:00 | 45.27972 | 9.27652 | 281° | 11km/h | 26031m | 6.3m/s | -51.3°C | 3.9% | 0hPa | 2.5V | 08:30:00 | 02:06:08 | 00:00:00 | |
| IW2NTF | 2026-09-06 00:39:50 | 45.27967 | 9.27663 | 312° | 4km/h | 25975m | 5.2m/s | -51.5°C | 3.9% | 0hPa | 2.5V | 08:30:00 | 02:05:58 | 00:00:00 | |
| NBG1-10 | 2026-09-06 00:39:50 | 45.27967 | 9.27660 | 230° | 11km/h | 25993m | 5.1m/s | -51.4°C | 3.9% | 0hPa | 2.5V | 00:00:00 | 02:06:01 | 00:00:00 | |
| OE5DRO-10 | 2026-09-06 00:39:48 | 45.27968 | 9.27662 | 257° | 11km/h | 25981m | 5.9m/s | -51.5°C | 3.9% | 0hPa | 2.5V | 00:00:00 | 00:00:00 | 00:00:00 | |
| DB0ND-19 | 2026-09-06 00:39:45 | 45.27963 | 9.27670 | 305° | 15km/h | 25959m | 5.7m/s | -51.6°C | 1.3% | -1.0hPa | 2.5V | 00:00:00 | 00:00:00 | 00:00:00 | |
| IW2NTF | 2026-09-06 00:39:40 | 45.27942 | 9.27684 | 10° | 5km/h | 25922m | 5.8m/s | -51.7°C | 3.9% | 0hPa | 2.5V | 08:30:00 | 02:05:48 | 00:00:00 | |
| DO3MHA-11 | 2026-09-06 00:39:37 | 45.27941 | 9.27684 | 11° | 9km/h | 25923m | 5.8m/s | -51.6°C | 3.9% | 0hPa | 2.5V | 00:00:00 | 02:05:48 | 00:00:00 | |
| DB0UT-7 | 2026-09-06 00:39:34 | 45.27942 | 9.27689 | 247° | 13km/h | 25907m | 4.3m/s | -51.6°C | 4.0% | 0hPa | 2.5V | 00:00:00 | 02:05:45 | 08:30:00 | |
| HARRO8 | 2026-09-06 00:39:32 | 45.27942 | 9.27698 | 311° | 9km/h | 25891m | 5.6m/s | -51.7°C | 1.2% | -1.0hPa | 2.5V | 00:00:00 | 00:00:00 | 00:00:00 | |
| OE5DRO-10 | 2026-09-06 00:39:28 | 45.27934 | 9.27709 | 311° | 13km/h | 25876m | 5.5m/s | -51.6°C | 4.0% | 0hPa | 2.5V | 00:00:00 | 00:00:00 | 00:00:00 | |
| DO3MHA-11 | 2026-09-06 00:39:24 | 45.27927 | 9.27732 | 275° | 9km/h | 25856m | 4.7m/s | -51.5°C | 3.9% | 0hPa | 2.5V | 00:00:00 | 02:05:35 | 00:00:00 | |
| IW2NTF | 2026-09-06 00:39:20 | 45.27942 | 9.27746 | 233° | 16km/h | 25812m | 4.5m/s | -51.7°C | 3.9% | 0hPa | 2.5V | 08:30:00 | 02:05:27 | 00:00:00 | |
| NBG1-10 | 2026-09-06 00:39:18 | 45.27939 | 9.27742 | 224° | 15km/h | 25817m | 4.4m/s | -51.6°C | 3.9% | 0hPa | 2.5V | 00:00:00 | 02:05:28 | 08:30:00 | |
| DB0ND-19 | 2026-09-06 00:39:14 | 45.27946 | 9.27759 | 255° | 9km/h | 25796m | 5.1m/s | -51.9°C | 1.2% | -1.0hPa | 2.5V | 00:00:00 | 00:00:00 | 00:00:00 | |
| IW2NTF | 2026-09-06 00:39:07 | 45.27966 | 9.27788 | 224° | 13km/h | 25754m | 5.5m/s | -52.3°C | 4.1% | 0hPa | 2.5V | 08:30:00 | 02:05:16 | 00:00:00 | |
| DO3MHA-11 | 2026-09-06 00:39:04 | 45.27968 | 9.27791 | 229° | 18km/h | 25749m | 4.7m/s | -52.3°C | 4.1% | 0hPa | 2.6V | 00:00:00 | 02:05:15 | 00:00:00 | |
| HARRO8 | 2026-09-06 00:39:00 | 45.27981 | 9.27805 | 208° | 22km/h | 25728m | 4.9m/s | -52.3°C | 1.3% | -1.0hPa | 2.6V | 00:00:00 | 00:00:00 | 00:00:00 | |
| IW2NTF | 2026-09-06 00:38:57 | 45.28010 | 9.27808 | 165° | 20km/h | 25695m | 6m/s | -52.2°C | 4.1% | 0hPa | 2.6V | 08:30:00 | 02:05:05 | 00:00:00 | |
| DO3MHA-11 | 2026-09-06 00:38:54 | 45.28010 | 9.27808 | 166° | 13km/h | 25696m | 5.9m/s | -52.2°C | 4.1% | 0hPa | 2.5V | 00:00:00 | 02:05:05 | 00:00:00 | |
| DO3MHA-11 | 2026-09-06 00:38:44 | 45.28038 | 9.27812 | 212° | 13km/h | 25645m | 4.3m/s | -52.1°C | 4.1% | 0hPa | 2.5V | 00:00:00 | 02:04:55 | 00:00:00 | |
| DB0ND-19 | 2026-09-06 00:38:43 | 45.28045 | 9.27815 | 189° | 11km/h | 25634m | 5.3m/s | -52.1°C | 1.3% | -1.0hPa | 2.5V | 00:00:00 | 00:00:00 | 00:00:00 | |
| DO3MHA-11 | 2026-09-06 00:38:34 | 45.28065 | 9.27816 | 268° | 9km/h | 25593m | 5.7m/s | -51.9°C | 4.0% | 0hPa | 2.5V | 00:00:00 | 02:04:45 | 00:00:00 | |
| HARRO8 | 2026-09-06 00:38:29 | 45.28069 | 9.27821 | 172° | 11km/h | 25569m | 4.8m/s | -52.0°C | 1.3% | -1.0hPa | 2.5V | 00:00:00 | 00:00:00 | 00:00:00 | |
| DO3MHA-11 | 2026-09-06 00:38:24 | 45.28084 | 9.27807 | 153° | 7km/h | 25545m | 5.6m/s | -51.8°C | 3.9% | 0hPa | 2.5V | 00:00:00 | 02:04:35 | 00:00:00 | |
| DO3MHA-11 | 2026-09-06 00:38:14 | 45.28090 | 9.27793 | 141° | 13km/h | 25496m | 4.2m/s | -52.1°C | 4.0% | 0hPa | 2.5V | 00:00:00 | 02:04:25 | 08:30:00 | |
| DB0ND-19 | 2026-09-06 00:38:12 | 45.28098 | 9.27781 | 124° | 15km/h | 25480m | 4.6m/s | -52.2°C | 1.3% | -1.0hPa | 2.5V | 00:00:00 | 00:00:00 | 00:00:00 | |
| NBG1-10 | 2026-09-06 00:38:09 | 45.28102 | 9.27773 | 131° | 11km/h | 25471m | 5.1m/s | -52.1°C | 4.1% | 0hPa | 2.5V | 00:00:00 | 02:04:20 | 00:00:00 | |
| DB0UT-7 | 2026-09-06 00:38:04 | 45.28101 | 9.27756 | 56° | 13km/h | 25446m | 4.1m/s | -52.1°C | 4.0% | 0hPa | 2.5V | 00:00:00 | 00:00:00 | 00:00:00 | |
| DO3MHA-11 | 2026-09-06 00:38:03 | 45.28099 | 9.27751 | 62° | 9km/h | 25441m | 5.2m/s | -52.1°C | 4.1% | 0hPa | 2.5V | 00:00:00 | 02:04:14 | 00:00:00 | |
| HARRO8 | 2026-09-06 00:37:59 | 45.28096 | 9.27728 | 87° | 9km/h | 25416m | 4.5m/s | 0°C | -1.0% | -1.0hPa | 2.5V | 00:00:00 | 00:00:00 | 00:00:00 | |
| DO3MHA-11 | 2026-09-06 00:37:53 | 45.28094 | 9.27720 | 13° | 15km/h | 25392m | 5.7m/s | -52.0°C | 4.0% | 0hPa | 2.5V | 00:00:00 | 02:04:04 | 00:00:00 | |
| IW2NTF | 2026-09-06 00:37:49 | 45.28068 | 9.27698 | 52° | 13km/h | 25349m | 5m/s | -52.1°C | 3.9% | 0hPa | 2.5V | 08:30:00 | 02:03:55 | 00:00:00 | |
| DO3MHA-11 | 2026-09-06 00:37:43 | 45.28066 | 9.27694 | 53° | 15km/h | 25344m | 4.5m/s | -52.0°C | 3.9% | 0hPa | 2.5V | 00:00:00 | 02:03:54 | 00:00:00 | |
| DB0ND-19 | 2026-09-06 00:37:41 | 45.28063 | 9.27689 | 351° | 2km/h | 25329m | 4.5m/s | -52.0°C | 1.3% | -1.0hPa | 2.6V | 00:00:00 | 00:00:00 | 00:00:00 | |
| OE5DRO-10 | 2026-09-06 00:37:40 | 45.28062 | 9.27689 | 352° | 7km/h | 25329m | 4.4m/s | -52.0°C | 4.0% | 0hPa | 2.6V | 00:00:00 | 00:00:00 | 00:00:00 | |
| IW2NTF | 2026-09-06 00:37:38 | 45.28030 | 9.27698 | 354° | 20km/h | 25295m | 5.3m/s | -52.3°C | 4% | 0hPa | 2.6V | 08:30:00 | 02:03:44 | 00:00:00 | |
| NBG1-10 | 2026-09-06 00:37:36 | 45.28049 | 9.27695 | 351° | 11km/h | 25309m | 4.6m/s | -52.1°C | 3.9% | 0hPa | 2.5V | 00:00:00 | 02:03:47 | 00:00:00 | |
| DB0UT-7 | 2026-09-06 00:37:34 | 45.28036 | 9.27697 | 355° | 11km/h | 25300m | 5.0m/s | -52.2°C | 4.0% | 0hPa | 2.5V | 00:00:00 | 02:03:45 | 00:00:00 | |
| DO3MHA-11 | 2026-09-06 00:37:33 | 45.28030 | 9.27698 | 355° | 9km/h | 25295m | 5.2m/s | -52.2°C | 4.0% | 0hPa | 2.5V | 00:00:00 | 02:03:44 | 00:00:00 | |
| IW2NTF | 2026-09-06 00:37:28 | 45.28014 | 9.27706 | 345° | 7km/h | 25245m | 5.6m/s | -52.5°C | 4% | 0hPa | 2.5V | 08:30:00 | 02:03:34 | 00:00:00 | |
| HARRO8 | 2026-09-06 00:37:27 | 45.28015 | 9.27702 | 290° | 2km/h | 25265m | 4.9m/s | 0°C | -1.0% | -1.0hPa | 2.5V | 00:00:00 | 00:00:00 | 00:00:00 | |
| DO3MHA-11 | 2026-09-06 00:37:23 | 45.28014 | 9.27706 | 346° | 13km/h | 25246m | 5.6m/s | -52.5°C | 4.0% | 0hPa | 2.5V | 00:00:00 | 02:03:34 | 00:00:00 | |
| IW2NTF | 2026-09-06 00:37:19 | 45.27987 | 9.27716 | 299° | 13km/h | 25197m | 4.6m/s | -52.9°C | 4.1% | 0hPa | 2.5V | 08:30:00 | 02:03:24 | 00:00:00 | |
| DO3MHA-11 | 2026-09-06 00:37:12 | 45.27985 | 9.27719 | 300° | 9km/h | 25192m | 4.6m/s | -52.9°C | 4.1% | 0hPa | 2.6V | 00:00:00 | 02:03:23 | 00:00:00 | |
| DB0ND-19 | 2026-09-06 00:37:10 | 45.27983 | 9.27729 | 278° | 5km/h | 25176m | 4.6m/s | -53.0°C | 1.3% | -1.0hPa | 2.5V | 00:00:00 | 00:00:00 | 00:00:00 | |
| IW2NTF | 2026-09-06 00:37:08 | 45.27973 | 9.27743 | 297° | 11km/h | 25146m | 5.9m/s | -53.5°C | 4.2% | 0hPa | 2.5V | 08:30:00 | 02:03:14 | 00:00:00 | |
| OE5DRO-10 | 2026-09-06 00:37:06 | 45.27979 | 9.27734 | 327° | 7km/h | 25162m | 5.4m/s | -53.2°C | 4.1% | 0hPa | 2.6V | 00:00:00 | 00:00:00 | 00:00:00 | |
| DB0UT-7 | 2026-09-06 00:37:04 | 45.27974 | 9.27740 | 315° | 9km/h | 25152m | 4.5m/s | -53.4°C | 4.2% | 0hPa | 2.6V | 00:00:00 | 00:00:00 | 00:00:00 | |
| NBG1-10 | 2026-09-06 00:37:03 | 45.27973 | 9.27743 | 298° | 9km/h | 25147m | 5.9m/s | -53.4°C | 4.2% | 0hPa | 2.6V | 00:00:00 | 02:03:14 | 00:00:00 | |
| DO3MHA-11 | 2026-09-06 00:37:02 | 45.27972 | 9.27746 | 273° | 9km/h | 25141m | 5.3m/s | -53.5°C | 4.3% | 0hPa | 2.6V | 00:00:00 | 02:03:13 | 00:00:00 | |
| IW2NTF | 2026-09-06 00:36:58 | 45.27978 | 9.27777 | 214° | 5km/h | 25095m | 4.6m/s | -53.7°C | 4.3% | 0hPa | 2.6V | 08:30:00 | 02:03:04 | 00:00:00 | |
| DO3MHA-11 | 2026-09-06 00:36:49 | 45.27977 | 9.27780 | 327° | 9km/h | 25076m | 5.2m/s | -53.6°C | 4.3% | 0hPa | 2.5V | 00:00:00 | 02:03:00 | 00:00:00 | |
| IW2NTF | 2026-09-06 00:36:47 | 45.27979 | 9.27794 | 246° | 11km/h | 25039m | 5.3m/s | -53.8°C | 4.3% | 0hPa | 2.5V | 08:30:00 | 02:02:53 | 00:00:00 | |
| OE5DRO-10 | 2026-09-06 00:36:47 | 45.27977 | 9.27781 | 229° | 9km/h | 25065m | 5.2m/s | -53.7°C | 4.3% | 0hPa | 2.5V | 00:00:00 | 00:00:00 | 00:00:00 | |
| DB0ND-19 | 2026-09-06 00:36:39 | 45.27989 | 9.27806 | 217° | 13km/h | 25016m | 5.9m/s | -53.9°C | -1.0% | -1.0hPa | 2.6V | 00:00:00 | 00:00:00 | 00:00:00 | |
| IW2NTF | 2026-09-06 00:36:38 | 45.28002 | 9.27814 | 195° | 7km/h | 24985m | 4.8m/s | -54°C | 4.4% | 0hPa | 2.6V | 08:30:00 | 02:02:43 | 00:00:00 | |
| DO3MHA-11 | 2026-09-06 00:36:35 | 45.27995 | 9.27813 | 201° | 7km/h | 25002m | 5.7m/s | -53.9°C | 4.4% | 0hPa | 2.5V | 00:00:00 | 02:02:46 | 08:30:00 | |
| DB0UT-7 | 2026-09-06 00:36:34 | 45.27997 | 9.27814 | 187° | 7km/h | 24996m | 5.8m/s | -53.9°C | 4.3% | 0hPa | 2.5V | 00:00:00 | 02:02:45 | 00:00:00 | |
| NBG1-10 | 2026-09-06 00:36:30 | 45.28004 | 9.27817 | 270° | 7km/h | 24974m | 5.1m/s | -53.9°C | 4.4% | 0hPa | 2.6V | 00:00:00 | 02:02:41 | 00:00:00 | |
| IW2NTF | 2026-09-06 00:36:28 | 45.28012 | 9.27827 | 208° | 9km/h | 24932m | 5.3m/s | -54.1°C | 4.4% | 0hPa | 2.6V | 08:30:00 | 02:02:33 | 00:00:00 | |
| DO3MHA-11 | 2026-09-06 00:36:25 | 45.28006 | 9.27825 | 182° | 7km/h | 24949m | 4.7m/s | -54.0°C | 4.4% | 0hPa | 2.5V | 00:00:00 | 02:02:36 | 00:00:00 | |
| IW2NTF | 2026-09-06 00:36:15 | 45.28016 | 9.27837 | 63° | 4km/h | 24870m | 5.4m/s | -54°C | 4.4% | 0hPa | 2.5V | 08:30:00 | 02:02:21 | 00:00:00 | |
| DO3MHA-11 | 2026-09-06 00:36:15 | 45.28021 | 9.27835 | 318° | 5km/h | 24895m | 4.8m/s | -54.0°C | 4.4% | 0hPa | 2.5V | 00:00:00 | 02:02:26 | 00:00:00 | |
| OE5DRO-10 | 2026-09-06 00:36:09 | 45.28016 | 9.27836 | 49° | 5km/h | 24864m | 5.9m/s | -54.0°C | 4.4% | 0hPa | 2.5V | 00:00:00 | 00:00:00 | 00:00:00 | |
| DB0ND-19 | 2026-09-06 00:36:08 | 45.28014 | 9.27831 | 91° | 4km/h | 24849m | 6.0m/s | 0°C | -1.0% | -1.0hPa | 2.5V | 00:00:00 | 00:00:00 | 00:00:00 | |
| IW2NTF | 2026-09-06 00:36:06 | 45.28009 | 9.27827 | 352° | 13km/h | 24817m | 4.2m/s | -54°C | 4.4% | 0hPa | 2.5V | 08:30:00 | 02:02:11 | 00:00:00 | |
| DO3MHA-11 | 2026-09-06 00:36:05 | 45.28014 | 9.27830 | 119° | 7km/h | 24843m | 5.5m/s | -53.9°C | 4.5% | 0hPa | 2.6V | 00:00:00 | 02:02:16 | 00:00:00 | |
| DB0UT-7 | 2026-09-06 00:36:04 | 45.28014 | 9.27828 | 114° | 5km/h | 24838m | 4.5m/s | -53.9°C | 4.4% | 0hPa | 2.6V | 00:00:00 | 00:00:00 | 00:00:00 | |
| NBG1-10 | 2026-09-06 00:35:57 | 45.28001 | 9.27829 | 336° | 5km/h | 24801m | 5.2m/s | -54.0°C | 4.5% | 0hPa | 2.6V | 00:00:00 | 02:02:08 | 00:00:00 | |
| DO3MHA-11 | 2026-09-06 00:35:55 | 45.27999 | 9.27831 | 335° | 5km/h | 24791m | 6.3m/s | -54.0°C | 4.5% | 0hPa | 2.6V | 00:00:00 | 02:02:06 | 00:00:00 | |
| OE5DRO-10 | 2026-09-06 00:35:50 | 45.27995 | 9.27833 | 151° | 5km/h | 24763m | 4.7m/s | -53.9°C | 4.5% | 0hPa | 2.6V | 00:00:00 | 00:00:00 | 08:30:00 | |
| IW2NTF | 2026-09-06 00:35:46 | 45.27987 | 9.27828 | 23° | 7km/h | 24731m | 5.7m/s | -53.6°C | 4.4% | 0hPa | 2.6V | 08:30:00 | 02:01:55 | 00:00:00 | |
| DO3MHA-11 | 2026-09-06 00:35:45 | 45.27989 | 9.27829 | 18° | 5km/h | 24737m | 5.8m/s | -53.6°C | 4.4% | 0hPa | 2.5V | 00:00:00 | 02:01:56 | 00:00:00 | |
| IW2NTF | 2026-09-06 00:35:37 | 45.27978 | 9.27831 | 327° | 4km/h | 24676m | 5.7m/s | -53.6°C | 4.4% | 0hPa | 2.5V | 08:30:00 | 02:01:45 | 00:00:00 | |
| DO3MHA-11 | 2026-09-06 00:35:35 | 45.27978 | 9.27831 | 305° | 5km/h | 24682m | 6.0m/s | -53.5°C | 4.4% | 0hPa | 2.5V | 00:00:00 | 02:01:46 | 00:00:00 | |
| DB0UT-7 | 2026-09-06 00:35:34 | 45.27978 | 9.27831 | 328° | 11km/h | 24676m | 5.7m/s | -53.5°C | 4.4% | 0hPa | 2.6V | 00:00:00 | 02:01:45 | 00:00:00 | |
| OE5DRO-10 | 2026-09-06 00:35:31 | 45.27974 | 9.27834 | 332° | 11km/h | 24661m | 5.9m/s | -53.5°C | 4.4% | 0hPa | 2.6V | 00:00:00 | 00:00:00 | 00:00:00 | |
| IW2NTF | 2026-09-06 00:35:27 | 45.27961 | 9.27853 | 353° | 11km/h | 24613m | 4.4m/s | -53.3°C | 4.3% | 0hPa | 2.6V | 08:30:00 | 02:01:33 | 00:00:00 | |
| DO3MHA-11 | 2026-09-06 00:35:25 | 45.27969 | 9.27847 | 317° | 15km/h | 24629m | 4.9m/s | -53.3°C | 4.3% | 0hPa | 2.5V | 00:00:00 | 02:01:36 | 00:00:00 | |
| NBG1-10 | 2026-09-06 00:35:24 | 45.27966 | 9.27850 | 326° | 15km/h | 24624m | 6.1m/s | -53.3°C | 4.3% | 0hPa | 2.5V | 00:00:00 | 02:01:35 | 00:00:00 | |
| IW2NTF | 2026-09-06 00:35:17 | 45.27930 | 9.27869 | 307° | 16km/h | 24560m | 5.3m/s | -53.4°C | 4.3% | 0hPa | 2.5V | 08:30:00 | 02:01:23 | 00:00:00 | |
| DO3MHA-11 | 2026-09-06 00:35:15 | 45.27936 | 9.27859 | 324° | 13km/h | 24576m | 4.3m/s | -53.4°C | 4.2% | 0hPa | 2.6V | 00:00:00 | 02:01:26 | 00:00:00 | |
| OE5DRO-10 | 2026-09-06 00:35:12 | 45.27930 | 9.27869 | 308° | 16km/h | 24560m | 5.3m/s | -53.4°C | 4.3% | 0hPa | 2.6V | 00:00:00 | 00:00:00 | 00:00:00 | |
| IW2NTF | 2026-09-06 00:35:08 | 45.27901 | 9.27897 | 305° | 24km/h | 24511m | 4.7m/s | -53.3°C | 4.2% | 0hPa | 2.6V | 08:30:00 | 02:01:13 | 00:00:00 | |
| DO3MHA-11 | 2026-09-06 00:35:05 | 45.27912 | 9.27886 | 351° | 16km/h | 24526m | 5.4m/s | -53.3°C | 4.2% | 0hPa | 2.5V | 00:00:00 | 02:01:16 | 08:30:00 | |
| DB0UT-7 | 2026-09-06 00:35:04 | 45.27909 | 9.27888 | 336° | 16km/h | 24521m | 5.2m/s | -53.3°C | 4.2% | 0hPa | 2.5V | 00:00:00 | 00:00:00 | 08:30:00 | |
| IW2NTF | 2026-09-06 00:34:58 | 45.27884 | 9.27951 | 302° | 11km/h | 24462m | 5.5m/s | -53.5°C | 4.4% | 0hPa | 2.5V | 08:30:00 | 02:01:03 | 00:00:00 | |
| DO3MHA-11 | 2026-09-06 00:34:54 | 45.27888 | 9.27944 | 317° | 13km/h | 24472m | 4.3m/s | -53.5°C | 4.4% | 0hPa | 2.5V | 00:00:00 | 02:01:05 | 00:00:00 | |
| OE5DRO-10 | 2026-09-06 00:34:53 | 45.27886 | 9.27947 | 313° | 15km/h | 24468m | 5.0m/s | -53.5°C | 4.4% | 0hPa | 2.5V | 00:00:00 | 00:00:00 | 00:00:00 | |
| IW2NTF | 2026-09-06 00:34:46 | 45.27872 | 9.28008 | 281° | 18km/h | 24407m | 5.5m/s | -53.3°C | 4.4% | 0hPa | 2.5V | 08:30:00 | 02:00:52 | 00:00:00 | |
| DO3MHA-11 | 2026-09-06 00:34:43 | 45.27872 | 9.27995 | 269° | 11km/h | 24417m | 3.8m/s | -53.3°C | 4.4% | 0hPa | 2.5V | 00:00:00 | 02:00:54 | 00:00:00 | |
| IW2NTF | 2026-09-06 00:34:37 | 45.27872 | 9.28057 | 290° | 7km/h | 24358m | 4.3m/s | -53.1°C | 4.3% | 0hPa | 2.5V | 08:30:00 | 02:00:42 | 00:00:00 | |
| DB0UT-7 | 2026-09-06 00:34:34 | 45.27871 | 9.28046 | 250° | 7km/h | 24374m | 4.4m/s | -53.2°C | 4.3% | 0hPa | 2.5V | 00:00:00 | 02:00:45 | 00:00:00 | |
| DO3MHA-11 | 2026-09-06 00:34:22 | 45.27873 | 9.28088 | 274° | 5km/h | 24315m | 5.2m/s | -52.8°C | 4.3% | 0hPa | 2.5V | 00:00:00 | 02:00:33 | 00:00:00 | |
| NBG1-10 | 2026-09-06 00:34:18 | 45.27877 | 9.28092 | 189° | 7km/h | 24295m | 5.7m/s | -52.7°C | 4.2% | 0hPa | 2.6V | 00:00:00 | 02:00:29 | 08:30:00 | |
| OE5DRO-10 | 2026-09-06 00:34:15 | 45.27879 | 9.28092 | 187° | 9km/h | 24279m | 5.8m/s | -52.6°C | 4.2% | 0hPa | 2.5V | 00:00:00 | 00:00:00 | 00:00:00 | |
| DO3MHA-11 | 2026-09-06 00:34:12 | 45.27885 | 9.28095 | 209° | 9km/h | 24265m | 5.0m/s | -52.6°C | 4.1% | 0hPa | 2.5V | 00:00:00 | 02:00:23 | 00:00:00 | |
| DB0UT-7 | 2026-09-06 00:34:04 | 45.27899 | 9.28102 | 161° | 9km/h | 24227m | 5.2m/s | -52.5°C | 4.1% | 0hPa | 2.5V | 00:00:00 | 00:00:00 | 00:00:00 | |
| DO3MHA-11 | 2026-09-06 00:34:02 | 45.27903 | 9.28098 | 120° | 9km/h | 24216m | 4.6m/s | -52.5°C | 4.1% | 0hPa | 2.5V | 00:00:00 | 02:00:13 | 00:00:00 | |
| OE5DRO-10 | 2026-09-06 00:33:56 | 45.27910 | 9.28077 | 94° | 9km/h | 24187m | 5.7m/s | -52.5°C | 4.1% | 0hPa | 2.5V | 00:00:00 | 00:00:00 | 00:00:00 | |
| DO3MHA-11 | 2026-09-06 00:33:52 | 45.27909 | 9.28072 | 209° | 7km/h | 24167m | 4.4m/s | -52.5°C | 4.0% | 0hPa | 2.6V | 00:00:00 | 02:00:03 | 00:00:00 | |
| NBG1-10 | 2026-09-06 00:33:45 | 45.27905 | 9.28062 | 81° | 9km/h | 24132m | 4.3m/s | -52.8°C | 4.1% | 0hPa | 2.5V | 00:00:00 | 01:59:56 | 00:00:00 | |
| DO3MHA-11 | 2026-09-06 00:33:42 | 45.27901 | 9.28049 | 36° | 11km/h | 24118m | 5.6m/s | -53.0°C | 4.2% | 0hPa | 2.5V | 00:00:00 | 01:59:53 | 00:00:00 | |
| IW2NTF | 2026-09-06 00:33:40 | 45.27886 | 9.28048 | 329° | 13km/h | 24098m | 5.7m/s | -53.1°C | 4.2% | 0hPa | 2.5V | 08:30:00 | 01:59:49 | 00:00:00 | |
| OE5DRO-10 | 2026-09-06 00:33:37 | 45.27883 | 9.28051 | 317° | 9km/h | 24093m | 5.0m/s | -53.1°C | 4.1% | 0hPa | 2.5V | 00:00:00 | 00:00:00 | 00:00:00 | |
| DB0UT-7 | 2026-09-06 00:33:34 | 45.27878 | 9.28054 | 9° | 9km/h | 24077m | 4.6m/s | -53.1°C | 4.1% | 0hPa | 2.5V | 00:00:00 | 01:59:45 | 00:00:00 | |
| DO3MHA-11 | 2026-09-06 00:33:32 | 45.27874 | 9.28051 | 43° | 11km/h | 24069m | 4.5m/s | -53.1°C | 4.0% | 0hPa | 2.5V | 00:00:00 | 01:59:43 | 00:00:00 | |
| IW2NTF | 2026-09-06 00:33:30 | 45.27868 | 9.28042 | 9° | 7km/h | 24050m | 4.7m/s | -53.3°C | 4.1% | 0hPa | 2.5V | 08:30:00 | 01:59:39 | 00:00:00 | |
| DO3MHA-11 | 2026-09-06 00:33:22 | 45.27850 | 9.28051 | 316° | 4km/h | 24021m | 5.0m/s | -53.7°C | 4.2% | 0hPa | 2.5V | 00:00:00 | 01:59:33 | 08:30:00 | |
| IW2NTF | 2026-09-06 00:33:20 | 45.27847 | 9.28055 | 344° | 4km/h | 24001m | 4.7m/s | -53.9°C | 4.3% | 0hPa | 2.5V | 08:30:00 | 01:59:29 | 00:00:00 | |
| DO3MHA-11 | 2026-09-06 00:33:12 | 45.27848 | 9.28062 | 274° | 13km/h | 23971m | 5.6m/s | -53.9°C | 4.4% | 0hPa | 2.5V | 00:00:00 | 01:59:23 | 00:00:00 | |
| IW2NTF | 2026-09-06 00:33:10 | 45.27847 | 9.28085 | 259° | 16km/h | 23952m | 5.4m/s | -54°C | 4.3% | 0hPa | 2.5V | 08:30:00 | 01:59:19 | 00:00:00 | |
| DB0UT-7 | 2026-09-06 00:33:04 | 45.27853 | 9.28097 | 185° | 11km/h | 23932m | 5.1m/s | -54.0°C | 4.4% | 0hPa | 2.6V | 00:00:00 | 00:00:00 | 00:00:00 | |
| DO3MHA-11 | 2026-09-06 00:33:02 | 45.27855 | 9.28096 | 140° | 11km/h | 23922m | 5.3m/s | -54.1°C | 4.4% | 0hPa | 2.6V | 00:00:00 | 01:59:13 | 00:00:00 | |
| IW2NTF | 2026-09-06 00:32:59 | 45.27862 | 9.28093 | 212° | 4km/h | 23901m | 5.8m/s | -54.2°C | 4.4% | 0hPa | 2.6V | 08:30:00 | 01:59:09 | 00:00:00 | |
| OE5DRO-10 | 2026-09-06 00:32:59 | 45.27860 | 9.28092 | 176° | 13km/h | 23907m | 4.5m/s | -54.1°C | 4.4% | 0hPa | 2.6V | 00:00:00 | 00:00:00 | 08:30:00 | |
| DO3MHA-11 | 2026-09-06 00:32:52 | 45.27868 | 9.28120 | 246° | 13km/h | 23871m | 5.2m/s | -54.2°C | 4.4% | 0hPa | 2.5V | 00:00:00 | 01:59:03 | 00:00:00 | |
| IW2NTF | 2026-09-06 00:32:49 | 45.27876 | 9.28125 | 160° | 13km/h | 23851m | 5.8m/s | -54.2°C | 4.4% | 0hPa | 2.6V | 08:30:00 | 01:58:59 | 00:00:00 | |
| DO3MHA-11 | 2026-09-06 00:32:42 | 45.27897 | 9.28120 | 227° | 13km/h | 23822m | 4.1m/s | -54.4°C | 4.5% | 0hPa | 2.6V | 00:00:00 | 01:58:53 | 00:00:00 | |
| IW2NTF | 2026-09-06 00:32:40 | 45.27905 | 9.28134 | 212° | 15km/h | 23802m | 4.1m/s | -54.4°C | 4.5% | 0hPa | 2.6V | 08:30:00 | 01:58:49 | 00:00:00 | |
| NBG1-10 | 2026-09-06 00:32:38 | 45.27905 | 9.28134 | 213° | 11km/h | 23803m | 4.0m/s | -54.3°C | 4.5% | 0hPa | 2.6V | 00:00:00 | 01:58:49 | 00:00:00 | |
| DB0UT-7 | 2026-09-06 00:32:34 | 45.27915 | 9.28130 | 122° | 9km/h | 23783m | 4.2m/s | -54.2°C | 4.5% | 0hPa | 2.5V | 00:00:00 | 01:58:45 | 00:00:00 | |
| IW2NTF | 2026-09-06 00:32:30 | 45.27927 | 9.28114 | 162° | 4km/h | 23753m | 5.2m/s | -54.1°C | 4.5% | 0hPa | 2.5V | 08:30:00 | 01:58:39 | 00:00:00 | |
| IW2NTF | 2026-09-06 00:32:24 | 45.27946 | 9.28106 | 122° | 13km/h | 23706m | 4m/s | -53.7°C | 4.4% | 0hPa | 2.5V | 08:30:00 | 01:58:29 | 00:00:00 | |
| DO3MHA-11 | 2026-09-06 00:32:22 | 45.27939 | 9.28116 | 175° | 13km/h | 23726m | 4.2m/s | -53.9°C | 4.5% | 0hPa | 2.6V | 00:00:00 | 01:58:33 | 00:00:00 | |
| OE5DRO-10 | 2026-09-06 00:32:21 | 45.27941 | 9.28115 | 156° | 9km/h | 23720m | 5.8m/s | -53.8°C | 4.5% | 0hPa | 2.5V | 00:00:00 | 00:00:00 | 00:00:00 | |
| DO3MHA-11 | 2026-09-06 00:32:12 | 45.27967 | 9.28094 | 155° | 5km/h | 23677m | 5.2m/s | -53.4°C | 4.3% | 0hPa | 2.5V | 00:00:00 | 01:58:23 | 00:00:00 | |
| IW2NTF | 2026-09-06 00:32:10 | 45.27970 | 9.28089 | 310° | 2km/h | 23656m | 5.7m/s | -53.4°C | 4.3% | 0hPa | 2.5V | 08:30:00 | 01:58:19 | 00:00:00 | |
| DB0UT-7 | 2026-09-06 00:32:04 | 45.27972 | 9.28086 | 124° | 11km/h | 23636m | 4.9m/s | -53.4°C | 4.2% | 0hPa | 2.5V | 00:00:00 | 00:00:00 | 00:00:00 | |
| DO3MHA-11 | 2026-09-06 00:32:02 | 45.27976 | 9.28078 | 137° | 13km/h | 23627m | 5.2m/s | -53.4°C | 4.3% | 0hPa | 2.5V | 00:00:00 | 01:58:13 | 00:00:00 | |
| IW2NTF | 2026-09-06 00:32:00 | 45.27989 | 9.28069 | 154° | 13km/h | 23606m | 4.6m/s | -53.5°C | 4.3% | 0hPa | 2.5V | 08:30:00 | 01:58:09 | 00:00:00 | |
| NBG1-10 | 2026-09-06 00:31:59 | 45.27986 | 9.28071 | 163° | 11km/h | 23611m | 4.2m/s | -53.4°C | 4.3% | 0hPa | 2.5V | 00:00:00 | 01:58:10 | 00:00:00 | |
| DO3MHA-11 | 2026-09-06 00:31:52 | 45.27997 | 9.28051 | 106° | 11km/h | 23577m | 4.2m/s | -53.4°C | 4.3% | 0hPa | 2.5V | 00:00:00 | 01:58:03 | 08:30:00 | |
| IW2NTF | 2026-09-06 00:31:50 | 45.28001 | 9.28034 | 109° | 16km/h | 23557m | 4.6m/s | -53.5°C | 4.3% | 0hPa | 2.5V | 08:30:00 | 01:57:59 | 00:00:00 | |
| IW2NTF | 2026-09-06 00:31:43 | 45.28008 | 9.28001 | 63° | 7km/h | 23509m | 5.1m/s | -53.7°C | 4.3% | 0hPa | 2.6V | 08:30:00 | 01:57:49 | 00:00:00 | |
| OE5DRO-10 | 2026-09-06 00:31:43 | 45.28009 | 9.28018 | 122° | 11km/h | 23534m | 5.1m/s | 0°C | 0% | 0hPa | 2.6V | 00:00:00 | 00:00:00 | 00:00:00 | |
| DO3MHA-11 | 2026-09-06 00:31:42 | 45.28010 | 9.28015 | 95° | 9km/h | 23529m | 5.3m/s | -53.5°C | 4.2% | 0hPa | 2.6V | 00:00:00 | 01:57:53 | 00:00:00 | |
| DB0UT-7 | 2026-09-06 00:31:34 | 45.28003 | 9.27990 | 71° | 11km/h | 23489m | 4.6m/s | -53.5°C | 4.2% | 0hPa | 2.6V | 00:00:00 | 01:57:45 | 00:00:00 | |
| DO3MHA-11 | 2026-09-06 00:31:32 | 45.28002 | 9.27982 | 89° | 11km/h | 23479m | 5.5m/s | -53.5°C | 4.2% | 0hPa | 2.6V | 00:00:00 | 01:57:43 | 00:00:00 | |
| IW2NTF | 2026-09-06 00:31:30 | 45.28003 | 9.27967 | 82° | 13km/h | 23459m | 5.3m/s | -53.6°C | 4.2% | 0hPa | 2.6V | 08:30:00 | 01:57:39 | 00:00:00 | |
| NBG1-10 | 2026-09-06 00:31:26 | 45.28001 | 9.27959 | 48° | 9km/h | 23449m | 4.4m/s | -53.7°C | 4.3% | 0hPa | 2.6V | 00:00:00 | 01:57:37 | 00:00:00 | |
| OE5DRO-10 | 2026-09-06 00:31:24 | 45.27996 | 9.27956 | 7° | 11km/h | 23439m | 4.7m/s | 0°C | 0% | 0hPa | 2.6V | 00:00:00 | 00:00:00 | 00:00:00 | |
| IW2NTF | 2026-09-06 00:31:23 | 45.27976 | 9.27942 | 50° | 15km/h | 23411m | 5.3m/s | -54.1°C | 4.3% | 0hPa | 2.6V | 08:30:00 | 01:57:29 | 00:00:00 | |
| DO3MHA-11 | 2026-09-06 00:31:22 | 45.27990 | 9.27955 | 12° | 13km/h | 23431m | 4.7m/s | -53.9°C | 4.3% | 0hPa | 2.6V | 00:00:00 | 01:57:33 | 00:00:00 | |
| DO3MHA-11 | 2026-09-06 00:31:12 | 45.27968 | 9.27923 | 59° | 7km/h | 23382m | 4.2m/s | -54.4°C | 4.4% | 0hPa | 2.6V | 00:00:00 | 01:57:23 | 00:00:00 | |
| IW2NTF | 2026-09-06 00:31:07 | 45.27960 | 9.27912 | 21° | 11km/h | 23353m | 3.7m/s | -54.5°C | 4.4% | 0hPa | 2.6V | 08:30:00 | 01:57:17 | 00:00:00 | |
| OE5DRO-10 | 2026-09-06 00:31:05 | 45.27958 | 9.27910 | 19° | 7km/h | 23350m | 4.5m/s | 0°C | 0% | 0hPa | 2.6V | 00:00:00 | 00:00:00 | 00:00:00 | |
| DB0UT-7 | 2026-09-06 00:31:04 | 45.27956 | 9.27910 | 16° | 5km/h | 23345m | 5.3m/s | -54.5°C | 4.4% | 0hPa | 2.6V | 00:00:00 | 00:00:00 | 00:00:00 | |
| DO3MHA-11 | 2026-09-06 00:31:02 | 45.27953 | 9.27909 | 13° | 5km/h | 23335m | 4.4m/s | -54.5°C | 4.4% | 0hPa | 2.6V | 00:00:00 | 01:57:13 | 00:00:00 | |
| IW2NTF | 2026-09-06 00:30:58 | 45.27950 | 9.27898 | 104° | 5km/h | 23308m | 4.5m/s | -54.8°C | 4.5% | 0hPa | 2.6V | 08:30:00 | 01:57:07 | 00:00:00 | |
| NBG1-10 | 2026-09-06 00:30:53 | 45.27947 | 9.27897 | 336° | 9km/h | 23294m | 4.9m/s | -54.8°C | 4.5% | 0hPa | 2.5V | 00:00:00 | 01:57:04 | 00:00:00 | |
| DO3MHA-11 | 2026-09-06 00:30:52 | 45.27945 | 9.27899 | 327° | 7km/h | 23290m | 4.3m/s | -54.8°C | 4.4% | 0hPa | 2.5V | 00:00:00 | 01:57:03 | 00:00:00 | |
| IW2NTF | 2026-09-06 00:30:48 | 45.27939 | 9.27914 | 343° | 4km/h | 23262m | 5.3m/s | -55°C | 4.5% | 0hPa | 2.5V | 08:30:00 | 01:56:57 | 00:00:00 | |
| OE5DRO-10 | 2026-09-06 00:30:46 | 45.27939 | 9.27914 | 344° | 7km/h | 23262m | 5.3m/s | 0°C | 0% | 0hPa | 2.5V | 00:00:00 | 00:00:00 | 00:00:00 | |
| DO3MHA-11 | 2026-09-06 00:30:42 | 45.27934 | 9.27909 | 81° | 5km/h | 23243m | 5.3m/s | -55.0°C | 4.5% | 0hPa | 2.5V | 00:00:00 | 01:56:53 | 00:00:00 | |
| IW2NTF | 2026-09-06 00:30:38 | 45.27937 | 9.27905 | 189° | 5km/h | 23214m | 5.7m/s | -55.2°C | 4.6% | 0hPa | 2.5V | 08:30:00 | 01:56:47 | 00:00:00 | |
| DO3MHA-11 | 2026-09-06 00:30:32 | 45.27942 | 9.27900 | 85° | 13km/h | 23195m | 5.3m/s | -55.3°C | 4.6% | 0hPa | 2.6V | 00:00:00 | 01:56:43 | 00:00:00 | |
| IW2NTF | 2026-09-06 00:30:27 | 45.27939 | 9.27870 | 86° | 13km/h | 23166m | 5.3m/s | -55.4°C | 4.6% | 0hPa | 2.6V | 08:30:00 | 01:56:37 | 00:00:00 | |
| OE5DRO-10 | 2026-09-06 00:30:27 | 45.27939 | 9.27875 | 89° | 15km/h | 23171m | 4.2m/s | 0°C | 0% | 0hPa | 2.6V | 00:00:00 | 00:00:00 | 00:00:00 | |
| DO3MHA-11 | 2026-09-06 00:30:22 | 45.27943 | 9.27854 | 139° | 15km/h | 23147m | 5.8m/s | -55.4°C | 4.6% | 0hPa | 2.6V | 00:00:00 | 01:56:33 | 08:30:00 | |
| NBG1-10 | 2026-09-06 00:30:20 | 45.27949 | 9.27847 | 140° | 16km/h | 23138m | 3.6m/s | -55.4°C | 4.6% | 0hPa | 2.6V | 00:00:00 | 01:56:31 | 00:00:00 | |
| IW2NTF | 2026-09-06 00:30:18 | 45.27951 | 9.27831 | 63° | 15km/h | 23120m | 4m/s | -55.6°C | 4.6% | 0hPa | 2.6V | 08:30:00 | 01:56:27 | 00:00:00 | |
| DO3MHA-11 | 2026-09-06 00:30:12 | 45.27948 | 9.27810 | 97° | 16km/h | 23101m | 4.6m/s | -55.6°C | 4.7% | 0hPa | 2.6V | 00:00:00 | 01:56:23 | 00:00:00 | |
| IW2NTF | 2026-09-06 00:30:08 | 45.27958 | 9.27775 | 125° | 20km/h | 23072m | 4.3m/s | -55.8°C | 4.7% | 0hPa | 2.6V | 08:30:00 | 01:56:17 | 00:00:00 | |
| DB0UT-7 | 2026-09-06 00:30:04 | 45.27962 | 9.27764 | 112° | 18km/h | 23062m | 5.3m/s | -55.8°C | 4.7% | 0hPa | 2.5V | 00:00:00 | 00:00:00 | 00:00:00 | |
| IW2NTF | 2026-09-06 00:29:58 | 45.27960 | 9.27721 | 70° | 16km/h | 23024m | 5m/s | -55.9°C | 4.7% | 0hPa | 2.5V | 08:30:00 | 01:56:07 | 00:00:00 | |
| DO3MHA-11 | 2026-09-06 00:29:52 | 45.27959 | 9.27695 | 104° | 16km/h | 23005m | 5.0m/s | -55.8°C | 4.7% | 0hPa | 2.6V | 00:00:00 | 01:56:03 | 00:00:00 | |
| IW2NTF | 2026-09-06 00:29:47 | 45.27963 | 9.27655 | 97° | 15km/h | 22976m | 4.9m/s | -56.1°C | 4.9% | 0hPa | 2.6V | 08:30:00 | 01:55:57 | 00:00:00 | |
| NBG1-10 | 2026-09-06 00:29:47 | 45.27963 | 9.27660 | 95° | 13km/h | 22981m | 5.5m/s | -56.0°C | 4.9% | 0hPa | 2.6V | 00:00:00 | 01:55:58 | 00:00:00 | |
| DO3MHA-11 | 2026-09-06 00:29:42 | 45.27960 | 9.27639 | 45° | 22km/h | 22956m | 4.5m/s | -56.0°C | 4.9% | 0hPa | 2.6V | 00:00:00 | 01:55:53 | 00:00:00 | |
| IW2NTF | 2026-09-06 00:29:37 | 45.27951 | 9.27598 | 86° | 27km/h | 22928m | 5.2m/s | -55.9°C | 4.8% | 0hPa | 2.6V | 08:30:00 | 01:55:47 | 00:00:00 | |
| DB0UT-7 | 2026-09-06 00:29:34 | 45.27949 | 9.27579 | 73° | 15km/h | 22918m | 4.0m/s | -55.8°C | 4.8% | 0hPa | 2.5V | 00:00:00 | 01:55:45 | 00:00:00 | |
| DO3MHA-11 | 2026-09-06 00:29:32 | 45.27945 | 9.27565 | 67° | 16km/h | 22910m | 5.0m/s | -55.7°C | 4.8% | 0hPa | 2.5V | 00:00:00 | 01:55:43 | 00:00:00 | |
| IW2NTF | 2026-09-06 00:29:28 | 45.27935 | 9.27541 | 50° | 20km/h | 22881m | 4.2m/s | -55.5°C | 4.8% | 0hPa | 2.5V | 08:30:00 | 01:55:37 | 00:00:00 | |
| DO3MHA-11 | 2026-09-06 00:29:22 | 45.27928 | 9.27511 | 97° | 11km/h | 22863m | 4.3m/s | -55.3°C | 4.7% | 0hPa | 2.6V | 00:00:00 | 01:55:33 | 00:00:00 | |
| IW2NTF | 2026-09-06 00:29:18 | 45.27926 | 9.27496 | 20° | 11km/h | 22834m | 4.8m/s | -55.2°C | 4.7% | 0hPa | 2.5V | 08:30:00 | 01:55:27 | 00:00:00 | |
| NBG1-10 | 2026-09-06 00:29:14 | 45.27921 | 9.27490 | 52° | 9km/h | 22826m | 4.1m/s | -55.1°C | 4.6% | 0hPa | 2.6V | 00:00:00 | 01:55:25 | 08:30:00 | |
| DO3MHA-11 | 2026-09-06 00:29:12 | 45.27918 | 9.27481 | 85° | 9km/h | 22816m | 5.3m/s | -55.0°C | 4.6% | 0hPa | 2.5V | 00:00:00 | 01:55:23 | 00:00:00 | |
| IW2NTF | 2026-09-06 00:29:08 | 45.27917 | 9.27459 | 65° | 11km/h | 22787m | 4.2m/s | -55°C | 4.5% | 0hPa | 2.5V | 08:30:00 | 01:55:17 | 00:00:00 | |
| DB0UT-7 | 2026-09-06 00:29:04 | 45.27915 | 9.27453 | 74° | 7km/h | 22777m | 5.6m/s | -55.0°C | 4.5% | 0hPa | 2.6V | 00:00:00 | 00:00:00 | 00:00:00 | |
| DO3MHA-11 | 2026-09-06 00:29:02 | 45.27914 | 9.27449 | 57° | 7km/h | 22768m | 4.8m/s | -55.0°C | 4.5% | 0hPa | 2.5V | 00:00:00 | 01:55:13 | 00:00:00 | |
| IW2NTF | 2026-09-06 00:28:57 | 45.27906 | 9.27438 | 19° | 2km/h | 22736m | 4.8m/s | -55.2°C | 4.5% | 0hPa | 2.5V | 08:30:00 | 01:55:07 | 00:00:00 | |
| DO3MHA-11 | 2026-09-06 00:28:52 | 45.27900 | 9.27441 | 313° | 9km/h | 22716m | 5.8m/s | -55.4°C | 4.6% | 0hPa | 2.5V | 00:00:00 | 01:55:03 | 08:30:00 | |
| IW2NTF | 2026-09-06 00:28:47 | 45.27890 | 9.27453 | 329° | 9km/h | 22686m | 4.6m/s | -55.5°C | 4.7% | 0hPa | 2.5V | 08:30:00 | 01:54:57 | 00:00:00 | |
| DO3MHA-11 | 2026-09-06 00:28:42 | 45.27887 | 9.27462 | 286° | 7km/h | 22666m | 5.4m/s | -55.4°C | 4.6% | 0hPa | 2.5V | 00:00:00 | 01:54:53 | 00:00:00 | |
| NBG1-10 | 2026-09-06 00:28:41 | 45.27886 | 9.27466 | 286° | 7km/h | 22661m | 4.6m/s | -55.4°C | 4.7% | 0hPa | 2.5V | 00:00:00 | 01:54:52 | 00:00:00 | |
| IW2NTF | 2026-09-06 00:28:38 | 45.27886 | 9.27480 | 303° | 5km/h | 22634m | 5.7m/s | -55.5°C | 4.7% | 0hPa | 2.5V | 08:30:00 | 01:54:47 | 00:00:00 | |
| DB0UT-7 | 2026-09-06 00:28:34 | 45.27884 | 9.27481 | 22° | 7km/h | 22625m | 4.8m/s | -55.5°C | 4.8% | 0hPa | 2.6V | 00:00:00 | 01:54:45 | 00:00:00 | |
| DO3MHA-11 | 2026-09-06 00:28:32 | 45.27884 | 9.27480 | 129° | 7km/h | 22615m | 4.7m/s | -55.4°C | 4.7% | 0hPa | 2.6V | 00:00:00 | 01:54:43 | 00:00:00 | |
| IW2NTF | 2026-09-06 00:28:28 | 45.27887 | 9.27491 | 239° | 11km/h | 22583m | 5.7m/s | -55.4°C | 4.7% | 0hPa | 2.6V | 08:30:00 | 01:54:37 | 00:00:00 | |
| DO3MHA-11 | 2026-09-06 00:28:22 | 45.27892 | 9.27503 | 245° | 5km/h | 22563m | 4.3m/s | -55.3°C | 4.7% | 0hPa | 2.5V | 00:00:00 | 01:54:33 | 00:00:00 | |
| IW2NTF | 2026-09-06 00:28:18 | 45.27898 | 9.27505 | 279° | 2km/h | 22532m | 5.4m/s | -55.3°C | 4.7% | 0hPa | 2.6V | 08:30:00 | 01:54:27 | 00:00:00 | |
| DO3MHA-11 | 2026-09-06 00:28:12 | 45.27900 | 9.27514 | 238° | 9km/h | 22512m | 4.2m/s | -55.1°C | 4.7% | 0hPa | 2.5V | 00:00:00 | 01:54:23 | 00:00:00 | |
| IW2NTF | 2026-09-06 00:28:07 | 45.27909 | 9.27524 | 146° | 9km/h | 22482m | 5.2m/s | -54.9°C | 4.5% | 0hPa | 2.5V | 08:30:00 | 01:54:17 | 00:00:00 | |
| DB0UT-7 | 2026-09-06 00:28:04 | 45.27912 | 9.27520 | 119° | 5km/h | 22474m | 4.0m/s | -54.8°C | 4.5% | 0hPa | 2.5V | 00:00:00 | 00:00:00 | 00:00:00 | |
| DO3MHA-11 | 2026-09-06 00:28:02 | 45.27911 | 9.27517 | 1° | 5km/h | 22464m | 5.1m/s | -54.8°C | 4.5% | 0hPa | 2.5V | 00:00:00 | 01:54:13 | 00:00:00 | |
| IW2NTF | 2026-09-06 00:27:57 | 45.27909 | 9.27530 | 212° | 5km/h | 22435m | 4.5m/s | -54.9°C | 4.5% | 0hPa | 2.5V | 08:30:00 | 01:54:07 | 00:00:00 | |
| DO3MHA-11 | 2026-09-06 00:27:52 | 45.27910 | 9.27528 | 56° | 5km/h | 22417m | 5.3m/s | -54.8°C | 4.5% | 0hPa | 2.6V | 00:00:00 | 01:54:03 | 00:00:00 | |
| IW2NTF | 2026-09-06 00:27:48 | 45.27902 | 9.27521 | 15° | 9km/h | 22387m | 4.5m/s | -54.8°C | 4.4% | 0hPa | 2.6V | 08:30:00 | 01:53:57 | 00:00:00 | |
| DO3MHA-11 | 2026-09-06 00:27:42 | 45.27901 | 9.27523 | 222° | 2km/h | 22368m | 4.5m/s | -54.9°C | 4.4% | 0hPa | 2.6V | 00:00:00 | 01:53:53 | 00:00:00 | |
| IW2NTF | 2026-09-06 00:27:37 | 45.27901 | 9.27523 | 163° | 2km/h | 22338m | 4.7m/s | -55.1°C | 4.4% | 0hPa | 2.6V | 08:30:00 | 01:53:47 | 00:00:00 | |
| DO3MHA-11 | 2026-09-06 00:27:32 | 45.27903 | 9.27519 | 160° | 7km/h | 22319m | 5.1m/s | -55.4°C | 4.6% | 0hPa | 2.6V | 00:00:00 | 01:53:43 | 00:00:00 | |
| IW2NTF | 2026-09-06 00:27:27 | 45.27915 | 9.27518 | 175° | 7km/h | 22289m | 5.2m/s | -55.7°C | 4.7% | 0hPa | 2.6V | 08:30:00 | 01:53:37 | 00:00:00 | |
| DO3MHA-11 | 2026-09-06 00:27:22 | 45.27921 | 9.27519 | 157° | 9km/h | 22270m | 5.5m/s | -55.7°C | 4.7% | 0hPa | 2.5V | 00:00:00 | 01:53:33 | 08:30:00 | |
| IW2NTF | 2026-09-06 00:27:18 | 45.27933 | 9.27516 | 170° | 13km/h | 22241m | 5.4m/s | -55.8°C | 4.8% | 0hPa | 2.5V | 08:30:00 | 01:53:27 | 00:00:00 | |
| DO3MHA-11 | 2026-09-06 00:27:12 | 45.27944 | 9.27511 | 179° | 11km/h | 22222m | 5.3m/s | -55.6°C | 4.8% | 0hPa | 2.6V | 00:00:00 | 01:53:23 | 00:00:00 | |
| IW2NTF | 2026-09-06 00:27:08 | 45.27956 | 9.27510 | 145° | 13km/h | 22195m | 4.1m/s | -55.6°C | 4.7% | 0hPa | 2.6V | 08:30:00 | 01:53:17 | 00:00:00 | |
| DB0UT-7 | 2026-09-06 00:27:04 | 45.27962 | 9.27506 | 170° | 11km/h | 22186m | 4.5m/s | -55.5°C | 4.8% | 0hPa | 2.6V | 00:00:00 | 00:00:00 | 00:00:00 | |
| DO3MHA-11 | 2026-09-06 00:27:02 | 45.27971 | 9.27507 | 202° | 9km/h | 22178m | 4.4m/s | -55.4°C | 4.7% | 0hPa | 2.6V | 00:00:00 | 01:53:13 | 00:00:00 | |
| IW2NTF | 2026-09-06 00:26:58 | 45.27980 | 9.27523 | 236° | 11km/h | 22150m | 4.7m/s | -55.3°C | 4.7% | 0hPa | 2.6V | 08:30:00 | 01:53:07 | 00:00:00 | |
| DO3MHA-11 | 2026-09-06 00:26:52 | 45.27986 | 9.27530 | 179° | 13km/h | 22132m | 4.0m/s | -55.3°C | 4.6% | 0hPa | 2.5V | 00:00:00 | 01:53:03 | 00:00:00 | |
| IW2NTF | 2026-09-06 00:26:48 | 45.28009 | 9.27528 | 174° | 15km/h | 22103m | 5.1m/s | -55.2°C | 4.7% | 0hPa | 2.5V | 08:30:00 | 01:52:57 | 00:00:00 | |
| DO3MHA-11 | 2026-09-06 00:26:42 | 45.28017 | 9.27532 | 225° | 11km/h | 22085m | 4.6m/s | -55.1°C | 4.7% | 0hPa | 2.5V | 00:00:00 | 01:52:53 | 00:00:00 | |
| IW2NTF | 2026-09-06 00:26:37 | 45.28029 | 9.27540 | 181° | 11km/h | 22058m | 5.1m/s | -55°C | 4.5% | 0hPa | 2.5V | 08:30:00 | 01:52:47 | 00:00:00 | |
| DB0UT-7 | 2026-09-06 00:26:34 | 45.28036 | 9.27541 | 188° | 9km/h | 22048m | 4.3m/s | -55.0°C | 4.6% | 0hPa | 2.7V | 00:00:00 | 01:52:45 | 00:00:00 | |
| DO3MHA-11 | 2026-09-06 00:26:32 | 45.28043 | 9.27542 | 180° | 7km/h | 22038m | 5.0m/s | -55.0°C | 4.5% | 0hPa | 2.7V | 00:00:00 | 01:52:43 | 00:00:00 | |
| IW2NTF | 2026-09-06 00:26:27 | 45.28053 | 9.27550 | 282° | 2km/h | 22011m | 5.4m/s | -55.3°C | 4.5% | 0hPa | 2.7V | 08:30:00 | 01:52:37 | 00:00:00 | |
| DO3MHA-11 | 2026-09-06 00:26:22 | 45.28053 | 9.27547 | 171° | 11km/h | 21993m | 4.7m/s | -55.4°C | 4.6% | 0hPa | 2.5V | 00:00:00 | 01:52:33 | 00:00:00 | |
| IW2NTF | 2026-09-06 00:26:17 | 45.28070 | 9.27546 | 176° | 13km/h | 21965m | 4.7m/s | -55.4°C | 4.6% | 0hPa | 2.6V | 08:30:00 | 01:52:27 | 00:00:00 | |
| DO3MHA-11 | 2026-09-06 00:26:12 | 45.28082 | 9.27548 | 182° | 13km/h | 21948m | 5.4m/s | -55.4°C | 4.5% | 0hPa | 2.5V | 00:00:00 | 01:52:23 | 00:00:00 | |
| IW2NTF | 2026-09-06 00:26:08 | 45.28089 | 9.27542 | 172° | 9km/h | 21920m | 3.9m/s | -55.6°C | 4.8% | 0hPa | 2.5V | 08:30:00 | 01:52:17 | 00:00:00 | |
| DB0UT-7 | 2026-09-06 00:26:04 | 45.28095 | 9.27539 | 156° | 13km/h | 21911m | 5.2m/s | -55.6°C | 4.8% | 0hPa | 2.5V | 00:00:00 | 00:00:00 | 08:30:00 | |
| DO3MHA-11 | 2026-09-06 00:26:02 | 45.28104 | 9.27534 | 157° | 15km/h | 21901m | 4.5m/s | -55.5°C | 4.7% | 0hPa | 2.5V | 00:00:00 | 01:52:13 | 00:00:00 | |
| IW2NTF | 2026-09-06 00:25:57 | 45.28126 | 9.27520 | 148° | 11km/h | 21873m | 4.4m/s | -55.5°C | 4.7% | 0hPa | 2.5V | 08:30:00 | 01:52:07 | 00:00:00 | |
| DO3MHA-11 | 2026-09-06 00:25:52 | 45.28136 | 9.27513 | 152° | 16km/h | 21854m | 4.9m/s | -55.5°C | 4.7% | 0hPa | 2.6V | 00:00:00 | 01:52:03 | 08:30:00 | |
| IW2NTF | 2026-09-06 00:25:48 | 45.28161 | 9.27504 | 165° | 20km/h | 21826m | 4.3m/s | -55.5°C | 4.7% | 0hPa | 2.7V | 08:30:00 | 01:51:57 | 00:00:00 | |
| DB0ND-19 | 2026-09-06 00:25:47 | 45.28161 | 9.27504 | 165° | 20km/h | 21826m | 4.3m/s | 0°C | -1.0% | -1.0hPa | 2.6V | 00:00:00 | 00:00:00 | 00:00:00 | |
| DO3MHA-11 | 2026-09-06 00:25:42 | 45.28176 | 9.27498 | 177° | 7km/h | 21809m | 4.6m/s | -55.5°C | 4.7% | 0hPa | 2.6V | 00:00:00 | 01:51:53 | 00:00:00 | |
| IW2NTF | 2026-09-06 00:25:37 | 45.28183 | 9.27488 | 137° | 9km/h | 21782m | 5.4m/s | -55.6°C | 4.7% | 0hPa | 2.6V | 08:30:00 | 01:51:47 | 00:00:00 | |
| DB0UT-7 | 2026-09-06 00:25:34 | 45.28187 | 9.27485 | 167° | 9km/h | 21772m | 4.6m/s | -55.6°C | 4.7% | 0hPa | 2.5V | 00:00:00 | 01:51:45 | 00:00:00 | |
| NBG1-10 | 2026-09-06 00:25:32 | 45.28196 | 9.27484 | 202° | 9km/h | 21754m | 5.3m/s | -55.7°C | 4.6% | 0hPa | 2.5V | 00:00:00 | 01:51:41 | 00:00:00 | |
| IW2NTF | 2026-09-06 00:25:28 | 45.28197 | 9.27489 | 115° | 0km/h | 21736m | 4.6m/s | -55.9°C | 4.8% | 0hPa | 2.5V | 08:30:00 | 01:51:37 | 00:00:00 | |
| IW2NTF | 2026-09-06 00:25:17 | 45.28216 | 9.27468 | 121° | 9km/h | 21692m | 4.3m/s | -55.7°C | 4.7% | 0hPa | 2.5V | 08:30:00 | 01:51:27 | 00:00:00 | |
| DB0ND-19 | 2026-09-06 00:25:16 | 45.28217 | 9.27466 | 134° | 5km/h | 21687m | 5.4m/s | 0°C | -1.0% | -1.0hPa | 2.7V | 00:00:00 | 00:00:00 | 00:00:00 | |
| DO3MHA-11 | 2026-09-06 00:25:12 | 45.28221 | 9.27462 | 147° | 13km/h | 21673m | 5.2m/s | -55.5°C | 4.7% | 0hPa | 2.7V | 00:00:00 | 01:51:23 | 00:00:00 | |
| IW2NTF | 2026-09-06 00:25:07 | 45.28239 | 9.27452 | 157° | 16km/h | 21645m | 5.2m/s | -55.5°C | 4.5% | 0hPa | 2.7V | 08:30:00 | 01:51:17 | 00:00:00 | |
| DB0UT-7 | 2026-09-06 00:25:04 | 45.28246 | 9.27446 | 142° | 9km/h | 21636m | 4.2m/s | -55.4°C | 4.5% | 0hPa | 2.5V | 00:00:00 | 00:00:00 | 00:00:00 | |
| DO3MHA-11 | 2026-09-06 00:25:02 | 45.28250 | 9.27442 | 155° | 5km/h | 21626m | 5.2m/s | -55.4°C | 4.6% | 0hPa | 2.5V | 00:00:00 | 01:51:13 | 00:00:00 | |
| IW2NTF | 2026-09-06 00:24:57 | 45.28257 | 9.27439 | 183° | 5km/h | 21599m | 5m/s | -55.8°C | 4.8% | 0hPa | 2.5V | 08:30:00 | 01:51:07 | 00:00:00 | |
| NBG1-10 | 2026-09-06 00:24:57 | 45.28255 | 9.27439 | 154° | 9km/h | 21604m | 3.7m/s | -55.7°C | 4.8% | 0hPa | 2.5V | 00:00:00 | 01:51:08 | 00:00:00 | |
| DO3MHA-11 | 2026-09-06 00:24:52 | 45.28265 | 9.27444 | 197° | 7km/h | 21580m | 5.4m/s | -55.7°C | 4.7% | 0hPa | 2.5V | 00:00:00 | 01:51:03 | 00:00:00 | |
| IW2NTF | 2026-09-06 00:24:47 | 45.28276 | 9.27446 | 201° | 5km/h | 21552m | 4.1m/s | -55.9°C | 4.6% | 0hPa | 2.5V | 08:30:00 | 01:50:57 | 00:00:00 | |
| DO3MHA-11 | 2026-09-06 00:24:42 | 45.28282 | 9.27447 | 196° | 18km/h | 21535m | 4.8m/s | -55.9°C | 4.7% | 0hPa | 2.6V | 00:00:00 | 01:50:53 | 00:00:00 | |
| IW2NTF | 2026-09-06 00:24:37 | 45.28306 | 9.27453 | 154° | 18km/h | 21506m | 4.7m/s | -56°C | 4.7% | 0hPa | 2.6V | 08:30:00 | 01:50:47 | 00:00:00 | |
| DB0UT-7 | 2026-09-06 00:24:34 | 45.28314 | 9.27445 | 144° | 20km/h | 21498m | 4.5m/s | -56.0°C | 4.7% | 0hPa | 2.5V | 00:00:00 | 01:50:45 | 00:00:00 | |
| DO3MHA-11 | 2026-09-06 00:24:32 | 45.28322 | 9.27438 | 154° | 15km/h | 21488m | 4.7m/s | -56.0°C | 4.7% | 0hPa | 2.6V | 00:00:00 | 01:50:43 | 00:00:00 | |
| IW2NTF | 2026-09-06 00:24:27 | 45.28337 | 9.27425 | 148° | 15km/h | 21459m | 5.4m/s | -56.2°C | 4.7% | 0hPa | 2.6V | 08:30:00 | 01:50:37 | 00:00:00 | |
| NBG1-10 | 2026-09-06 00:24:23 | 45.28349 | 9.27413 | 136° | 13km/h | 21444m | 5.5m/s | -56.1°C | 4.7% | 0hPa | 2.5V | 00:00:00 | 01:50:34 | 00:00:00 | |
| DO3MHA-11 | 2026-09-06 00:24:22 | 45.28353 | 9.27407 | 132° | 20km/h | 21439m | 4.0m/s | -56.1°C | 4.7% | 0hPa | 2.5V | 00:00:00 | 01:50:33 | 08:30:00 | |
| IW2NTF | 2026-09-06 00:24:17 | 45.28374 | 9.27374 | 129° | 20km/h | 21409m | 4.7m/s | -56.5°C | 4.8% | 0hPa | 2.7V | 08:30:00 | 01:50:27 | 00:00:00 | |
| DO3MHA-11 | 2026-09-06 00:24:12 | 45.28389 | 9.27354 | 140° | 29km/h | 21391m | 4.3m/s | -56.7°C | 4.9% | 0hPa | 2.5V | 00:00:00 | 01:50:23 | 00:00:00 | |
| IW2NTF | 2026-09-06 00:24:07 | 45.28414 | 9.27306 | 124° | 29km/h | 21362m | 4.7m/s | -57°C | 5% | 0hPa | 2.5V | 08:30:00 | 01:50:17 | 00:00:00 | |
| DO3MHA-11 | 2026-09-06 00:24:02 | 45.28430 | 9.27270 | 120° | 26km/h | 21342m | 4.2m/s | -56.9°C | 5.0% | 0hPa | 2.5V | 00:00:00 | 01:50:13 | 00:00:00 | |
| IW2NTF | 2026-09-06 00:23:57 | 45.28450 | 9.27229 | 122° | 29km/h | 21313m | 4.2m/s | -56.8°C | 5% | 0hPa | 2.5V | 08:30:00 | 01:50:07 | 00:00:00 | |
| DO3MHA-11 | 2026-09-06 00:23:52 | 45.28466 | 9.27195 | 119° | 20km/h | 21296m | 3.9m/s | -56.6°C | 5.0% | 0hPa | 2.5V | 00:00:00 | 01:50:03 | 00:00:00 | |
| IW2NTF | 2026-09-06 00:23:47 | 45.28479 | 9.27153 | 133° | 18km/h | 21268m | 4.2m/s | -56.5°C | 5% | 0hPa | 2.5V | 08:30:00 | 01:49:57 | 00:00:00 | |
| DO3MHA-11 | 2026-09-06 00:23:42 | 45.28489 | 9.27134 | 117° | 18km/h | 21249m | 4.0m/s | -56.3°C | 4.9% | 0hPa | 2.5V | 00:00:00 | 01:49:53 | 00:00:00 | |
| IW2NTF | 2026-09-06 00:23:37 | 45.28504 | 9.27100 | 113° | 20km/h | 21220m | 3.9m/s | -56.2°C | 4.9% | 0hPa | 2.5V | 08:30:00 | 01:49:47 | 00:00:00 | |
| DO3MHA-11 | 2026-09-06 00:23:32 | 45.28515 | 9.27079 | 140° | 9km/h | 21202m | 4.4m/s | -56.0°C | 4.9% | 0hPa | 2.6V | 00:00:00 | 01:49:43 | 00:00:00 | |
| IW2NTF | 2026-09-06 00:23:27 | 45.28526 | 9.27063 | 126° | 5km/h | 21172m | 4.2m/s | -55.9°C | 4.9% | 0hPa | 2.6V | 08:30:00 | 01:49:37 | 00:00:00 | |
| DO3MHA-11 | 2026-09-06 00:23:22 | 45.28527 | 9.27052 | 107° | 7km/h | 21154m | 5.3m/s | -55.7°C | 4.7% | 0hPa | 2.7V | 00:00:00 | 01:49:33 | 00:00:00 | |
| IW2NTF | 2026-09-06 00:23:17 | 45.28533 | 9.27041 | 148° | 7km/h | 21125m | 5.5m/s | -55.6°C | 4.7% | 0hPa | 2.7V | 08:30:00 | 01:49:27 | 00:00:00 | |
| NBG1-10 | 2026-09-06 00:23:15 | 45.28535 | 9.27040 | 160° | 7km/h | 21120m | 4.8m/s | -55.6°C | 4.7% | 0hPa | 2.5V | 00:00:00 | 01:49:26 | 00:00:00 | |
| DO3MHA-11 | 2026-09-06 00:23:12 | 45.28539 | 9.27034 | 101° | 7km/h | 21106m | 4.8m/s | -55.5°C | 4.7% | 0hPa | 2.5V | 00:00:00 | 01:49:23 | 00:00:00 | |
| IW2NTF | 2026-09-06 00:23:07 | 45.28539 | 9.27020 | 84° | 5km/h | 21077m | 5m/s | -55.4°C | 4.6% | 0hPa | 2.5V | 08:30:00 | 01:49:17 | 00:00:00 | |
| DB0UT-7 | 2026-09-06 00:23:04 | 45.28539 | 9.27017 | 130° | 7km/h | 21069m | 4.4m/s | -55.3°C | 4.6% | 0hPa | 2.6V | 00:00:00 | 00:00:00 | 00:00:00 | |
| DO3MHA-11 | 2026-09-06 00:23:02 | 45.28541 | 9.27017 | 197° | 7km/h | 21059m | 4.3m/s | -55.5°C | 4.7% | 0hPa | 2.5V | 00:00:00 | 01:49:13 | 00:00:00 | |
| IW2NTF | 2026-09-06 00:22:57 | 45.28543 | 9.27013 | 20° | 7km/h | 21029m | 4.3m/s | -55.6°C | 4.7% | 0hPa | 2.5V | 08:30:00 | 01:49:07 | 00:00:00 | |
| IW2NTF | 2026-09-06 00:22:47 | 45.28527 | 9.27021 | 231° | 2km/h | 20981m | 5.3m/s | -55.6°C | 4.7% | 0hPa | 2.6V | 08:30:00 | 01:48:57 | 00:00:00 | |
| DO3MHA-11 | 2026-09-06 00:22:46 | 45.28527 | 9.27021 | 232° | 4km/h | 20982m | 5.3m/s | -55.6°C | 4.7% | 0hPa | 2.6V | 00:00:00 | 01:48:57 | 08:30:00 | |
| NBG1-10 | 2026-09-06 00:22:42 | 45.28527 | 9.27020 | 281° | 13km/h | 20961m | 4.3m/s | -55.5°C | 4.7% | 0hPa | 2.5V | 00:00:00 | 01:48:53 | 00:00:00 | |
| IW2NTF | 2026-09-06 00:22:37 | 45.28531 | 9.27032 | 244° | 13km/h | 20933m | 4.6m/s | -55.5°C | 4.6% | 0hPa | 2.7V | 08:30:00 | 01:48:47 | 00:00:00 | |
| DO3MHA-11 | 2026-09-06 00:22:36 | 45.28531 | 9.27032 | 245° | 13km/h | 20933m | 4.6m/s | -55.4°C | 4.6% | 0hPa | 2.5V | 00:00:00 | 01:48:47 | 00:00:00 | |
| DB0UT-7 | 2026-09-06 00:22:34 | 45.28533 | 9.27043 | 253° | 18km/h | 20923m | 4.2m/s | -55.7°C | 4.7% | 0hPa | 2.5V | 00:00:00 | 01:48:45 | 00:00:00 | |
| IW2NTF | 2026-09-06 00:22:27 | 45.28551 | 9.27067 | 192° | 5km/h | 20879m | 5m/s | -55.7°C | 4.8% | 0hPa | 2.5V | 08:30:00 | 01:48:37 | 00:00:00 | |
| DO3MHA-11 | 2026-09-06 00:22:25 | 45.28553 | 9.27067 | 185° | 20km/h | 20874m | 5.7m/s | -55.6°C | 4.8% | 0hPa | 2.6V | 00:00:00 | 01:48:36 | 00:00:00 | |
| IW2NTF | 2026-09-06 00:22:17 | 45.28598 | 9.27087 | 172° | 24km/h | 20833m | 3.3m/s | -55.5°C | 4.7% | 0hPa | 2.6V | 08:30:00 | 01:48:27 | 00:00:00 | |
| DO3MHA-11 | 2026-09-06 00:22:15 | 45.28603 | 9.27086 | 169° | 20km/h | 20829m | 4.5m/s | -55.4°C | 4.7% | 0hPa | 2.5V | 00:00:00 | 01:48:26 | 00:00:00 | |
| IW2NTF | 2026-09-06 00:22:07 | 45.28647 | 9.27090 | 182° | 26km/h | 20788m | 5.3m/s | -55.4°C | 4.7% | 0hPa | 2.5V | 08:30:00 | 01:48:17 | 00:00:00 | |
| DO3MHA-11 | 2026-09-06 00:22:05 | 45.28654 | 9.27091 | 185° | 27km/h | 20784m | 3.7m/s | -55.3°C | 4.6% | 0hPa | 2.5V | 00:00:00 | 01:48:16 | 00:00:00 | |
| DB0UT-7 | 2026-09-06 00:22:04 | 45.28660 | 9.27092 | 189° | 33km/h | 20779m | 4.5m/s | -55.3°C | 4.6% | 0hPa | 2.5V | 00:00:00 | 00:00:00 | 00:00:00 | |
| IW2NTF | 2026-09-06 00:21:57 | 45.28717 | 9.27094 | 171° | 33km/h | 20740m | 5m/s | -55.1°C | 4.6% | 0hPa | 2.5V | 08:30:00 | 01:48:07 | 00:00:00 | |
| DO3MHA-11 | 2026-09-06 00:21:55 | 45.28725 | 9.27092 | 172° | 33km/h | 20736m | 3.8m/s | -55.1°C | 4.5% | 0hPa | 2.6V | 00:00:00 | 01:48:06 | 00:00:00 | |
| IW2NTF | 2026-09-06 00:21:47 | 45.28801 | 9.27091 | 175° | 29km/h | 20692m | 3.8m/s | -55.1°C | 4.5% | 0hPa | 2.6V | 08:30:00 | 01:47:57 | 00:00:00 | |
| DO3MHA-11 | 2026-09-06 00:21:45 | 45.28808 | 9.27090 | 172° | 35km/h | 20688m | 4.4m/s | -55.1°C | 4.5% | 0hPa | 2.5V | 00:00:00 | 01:47:56 | 00:00:00 | |
| IW2NTF | 2026-09-06 00:21:37 | 45.28884 | 9.27066 | 164° | 37km/h | 20644m | 5.1m/s | -55.5°C | 4.6% | 0hPa | 2.7V | 08:30:00 | 01:47:47 | 00:00:00 | |
| DO3MHA-11 | 2026-09-06 00:21:35 | 45.28893 | 9.27062 | 164° | 35km/h | 20640m | 5.1m/s | -55.5°C | 4.6% | 0hPa | 2.5V | 00:00:00 | 01:47:46 | 00:00:00 | |
| DB0UT-7 | 2026-09-06 00:21:34 | 45.28901 | 9.27058 | 162° | 33km/h | 20635m | 4.1m/s | -55.5°C | 4.6% | 0hPa | 2.5V | 00:00:00 | 01:47:45 | 08:30:00 | |
| IW2NTF | 2026-09-06 00:21:27 | 45.28966 | 9.27027 | 160° | 33km/h | 20597m | 5.3m/s | -56°C | 4.6% | 0hPa | 2.5V | 08:30:00 | 01:47:37 | 00:00:00 | |
| DO3MHA-11 | 2026-09-06 00:21:25 | 45.28974 | 9.27023 | 162° | 33km/h | 20593m | 4.8m/s | -56.0°C | 4.6% | 0hPa | 2.5V | 00:00:00 | 01:47:36 | 00:00:00 | |
| IW2NTF | 2026-09-06 00:21:17 | 45.29045 | 9.26984 | 155° | 31km/h | 20550m | 4.4m/s | -56.5°C | 4.8% | 0hPa | 2.5V | 08:30:00 | 01:47:27 | 00:00:00 | |
| DO3MHA-11 | 2026-09-06 00:21:15 | 45.29051 | 9.26979 | 151° | 31km/h | 20545m | 5.6m/s | -56.4°C | 4.8% | 0hPa | 2.5V | 00:00:00 | 01:47:26 | 08:30:00 | |
| NBG1-10 | 2026-09-06 00:21:10 | 45.29080 | 9.26942 | 135° | 33km/h | 20521m | 4.4m/s | -56.5°C | 4.9% | 0hPa | 2.7V | 00:00:00 | 01:47:21 | 00:00:00 | |
| IW2NTF | 2026-09-06 00:21:07 | 45.29103 | 9.26908 | 135° | 31km/h | 20501m | 5.1m/s | -56.6°C | 4.9% | 0hPa | 2.7V | 08:30:00 | 01:47:17 | 00:00:00 | |
| DO3MHA-11 | 2026-09-06 00:21:05 | 45.29109 | 9.26901 | 139° | 31km/h | 20496m | 5.1m/s | -56.5°C | 4.9% | 0hPa | 2.5V | 00:00:00 | 01:47:16 | 00:00:00 | |
| DB0UT-7 | 2026-09-06 00:21:04 | 45.29116 | 9.26893 | 139° | 33km/h | 20492m | 3.9m/s | -56.6°C | 4.9% | 0hPa | 2.5V | 00:00:00 | 00:00:00 | 00:00:00 | |
| IW2NTF | 2026-09-06 00:20:57 | 45.29153 | 9.26822 | 121° | 37km/h | 20452m | 5.3m/s | -56.5°C | 4.8% | 0hPa | 2.5V | 08:30:00 | 01:47:07 | 00:00:00 | |
| DO3MHA-11 | 2026-09-06 00:20:55 | 45.29158 | 9.26811 | 121° | 35km/h | 20448m | 5.0m/s | -56.4°C | 4.7% | 0hPa | 2.5V | 00:00:00 | 01:47:06 | 00:00:00 | |
| IW2NTF | 2026-09-06 00:20:47 | 45.29195 | 9.26716 | 116° | 31km/h | 20404m | 5.2m/s | -56.5°C | 4.8% | 0hPa | 2.5V | 08:30:00 | 01:46:57 | 00:00:00 | |
| IW2NTF | 2026-09-06 00:20:37 | 45.29226 | 9.26606 | 109° | 35km/h | 20357m | 5.2m/s | -57.1°C | 4.9% | 0hPa | 2.5V | 08:30:00 | 01:46:47 | 00:00:00 | |
| NBG1-10 | 2026-09-06 00:20:37 | 45.29223 | 9.26618 | 113° | 33km/h | 20362m | 3.9m/s | -57.1°C | 4.9% | 0hPa | 2.6V | 00:00:00 | 01:46:48 | 08:30:00 | |
| DO3MHA-11 | 2026-09-06 00:20:35 | 45.29229 | 9.26594 | 105° | 29km/h | 20352m | 5.1m/s | -57.1°C | 4.9% | 0hPa | 2.5V | 00:00:00 | 01:46:46 | 00:00:00 | |
| DB0UT-7 | 2026-09-06 00:20:34 | 45.29231 | 9.26581 | 103° | 37km/h | 20347m | 4.5m/s | -57.1°C | 4.9% | 0hPa | 2.7V | 00:00:00 | 01:46:45 | 00:00:00 | |
| IW2NTF | 2026-09-06 00:20:27 | 45.29246 | 9.26468 | 97° | 37km/h | 20309m | 4.4m/s | -57.2°C | 4.8% | 0hPa | 2.7V | 08:30:00 | 01:46:37 | 00:00:00 | |
| IW2NTF | 2026-09-06 00:20:17 | 45.29245 | 9.26340 | 86° | 40km/h | 20262m | 4.2m/s | -57.5°C | 5.1% | 0hPa | 2.7V | 08:30:00 | 01:46:27 | 00:00:00 | |
| IW2NTF | 2026-09-06 00:20:07 | 45.29239 | 9.26210 | 81° | 24km/h | 20217m | 4m/s | -57.3°C | 4.9% | 0hPa | 2.5V | 08:30:00 | 01:46:17 | 00:00:00 | |
| DB0UT-7 | 2026-09-06 00:20:04 | 45.29236 | 9.26194 | 70° | 26km/h | 20208m | 5.0m/s | -57.2°C | 4.9% | 0hPa | 2.7V | 00:00:00 | 00:00:00 | 00:00:00 | |
| NBG1-10 | 2026-09-06 00:20:01 | 45.29232 | 9.26171 | 86° | 26km/h | 20193m | 4.7m/s | -57.1°C | 5.0% | 0hPa | 2.5V | 00:00:00 | 01:46:12 | 00:00:00 | |
| IW2NTF | 2026-09-06 00:20:00 | 45.29229 | 9.26117 | 79° | 33km/h | 20171m | 4.1m/s | -57.2°C | 5% | 0hPa | 2.5V | 08:30:00 | 01:46:07 | 00:00:00 | |
| DO3MHA-11 | 2026-09-06 00:19:57 | 45.29230 | 9.26128 | 83° | 27km/h | 20176m | 4.5m/s | -57.2°C | 5.1% | 0hPa | 2.5V | 00:00:00 | 01:46:08 | 00:00:00 | |
| IW2NTF | 2026-09-06 00:19:47 | 45.29224 | 9.26004 | 113° | 24km/h | 20118m | 4.5m/s | -57.2°C | 5.1% | 0hPa | 2.5V | 08:30:00 | 01:45:55 | 00:00:00 | |
| DO3MHA-11 | 2026-09-06 00:19:45 | 45.29222 | 9.26012 | 108° | 24km/h | 20123m | 4.7m/s | -57.2°C | 5.1% | 0hPa | 2.5V | 00:00:00 | 01:45:56 | 00:00:00 | |
| IW2NTF | 2026-09-06 00:19:36 | 45.29226 | 9.25922 | 92° | 27km/h | 20074m | 4.3m/s | -57°C | 4.9% | 0hPa | 2.5V | 08:30:00 | 01:45:45 | 00:00:00 | |
| DO3MHA-11 | 2026-09-06 00:19:35 | 45.29226 | 9.25932 | 88° | 24km/h | 20079m | 5.2m/s | -57.0°C | 4.9% | 0hPa | 2.5V | 00:00:00 | 01:45:46 | 00:00:00 | |
| DB0UT-7 | 2026-09-06 00:19:34 | 45.29226 | 9.25922 | 93° | 22km/h | 20074m | 4.3m/s | -56.9°C | 4.9% | 0hPa | 2.5V | 00:00:00 | 01:45:45 | 00:00:00 | |
| NBG1-10 | 2026-09-06 00:19:28 | 45.29239 | 9.25873 | 120° | 24km/h | 20046m | 4.9m/s | -56.8°C | 4.8% | 0hPa | 2.5V | 00:00:00 | 01:45:39 | 00:00:00 | |
| IW2NTF | 2026-09-06 00:19:24 | 45.29249 | 9.25847 | 116° | 18km/h | 20027m | 4.3m/s | -56.8°C | 4.8% | 0hPa | 2.5V | 08:30:00 | 01:45:35 | 00:00:00 | |
| IW2NTF | 2026-09-06 00:19:16 | 45.29269 | 9.25774 | 117° | 24km/h | 19981m | 4.6m/s | -57.5°C | 4.9% | 0hPa | 2.5V | 08:30:00 | 01:45:25 | 00:00:00 | |
| DO3MHA-11 | 2026-09-06 00:19:15 | 45.29267 | 9.25781 | 121° | 22km/h | 19986m | 5.0m/s | -57.3°C | 4.9% | 0hPa | 2.7V | 00:00:00 | 01:45:26 | 00:00:00 | |
| IW2NTF | 2026-09-06 00:19:09 | 45.29299 | 9.25710 | 151° | 22km/h | 19933m | 4.4m/s | -57.8°C | 5% | 0hPa | 2.7V | 08:30:00 | 01:45:15 | 00:00:00 | |
| DO3MHA-11 | 2026-09-06 00:19:05 | 45.29295 | 9.25714 | 143° | 27km/h | 19938m | 5.1m/s | -57.8°C | 5.0% | 0hPa | 2.7V | 00:00:00 | 01:45:16 | 08:30:00 | |
| DB0UT-7 | 2026-09-06 00:19:04 | 45.29299 | 9.25710 | 152° | 22km/h | 19933m | 4.4m/s | -57.8°C | 5.0% | 0hPa | 2.7V | 00:00:00 | 00:00:00 | 00:00:00 | |
| IW2NTF | 2026-09-06 00:18:58 | 45.29357 | 9.25657 | 144° | 22km/h | 19887m | 3.8m/s | -58.1°C | 5.3% | 0hPa | 2.7V | 08:30:00 | 01:45:05 | 00:00:00 | |
| DO3MHA-11 | 2026-09-06 00:18:55 | 45.29352 | 9.25662 | 145° | 20km/h | 19892m | 5.1m/s | -58.0°C | 5.3% | 0hPa | 2.5V | 00:00:00 | 01:45:06 | 00:00:00 | |
| IW2NTF | 2026-09-06 00:18:46 | 45.29403 | 9.25630 | 157° | 24km/h | 19840m | 4m/s | -58.2°C | 5.2% | 0hPa | 2.5V | 08:30:00 | 01:44:55 | 00:00:00 | |
| DO3MHA-11 | 2026-09-06 00:18:45 | 45.29398 | 9.25633 | 156° | 18km/h | 19845m | 4.8m/s | -58.2°C | 5.2% | 0hPa | 2.5V | 00:00:00 | 01:44:56 | 00:00:00 | |
| IW2NTF | 2026-09-06 00:18:39 | 45.29431 | 9.25594 | 94° | 9km/h | 19795m | 4m/s | -58°C | 5.2% | 0hPa | 2.5V | 08:30:00 | 01:44:45 | 00:00:00 | |
| DO3MHA-11 | 2026-09-06 00:18:35 | 45.29431 | 9.25597 | 88° | 15km/h | 19799m | 4.7m/s | -57.9°C | 5.2% | 0hPa | 2.5V | 00:00:00 | 01:44:46 | 00:00:00 | |
| DB0UT-7 | 2026-09-06 00:18:34 | 45.29431 | 9.25593 | 95° | 18km/h | 19795m | 3.9m/s | -57.9°C | 5.2% | 0hPa | 2.5V | 00:00:00 | 01:44:45 | 00:00:00 | |
| IW2NTF | 2026-09-06 00:18:26 | 45.29454 | 9.25546 | 109° | 16km/h | 19748m | 5.5m/s | -57.7°C | 5.1% | 0hPa | 2.5V | 08:30:00 | 01:44:35 | 00:00:00 | |
| DO3MHA-11 | 2026-09-06 00:18:25 | 45.29452 | 9.25552 | 121° | 16km/h | 19754m | 4.7m/s | -57.7°C | 5.1% | 0hPa | 2.7V | 00:00:00 | 01:44:36 | 00:00:00 | |
| NBG1-10 | 2026-09-06 00:18:22 | 45.29455 | 9.25535 | 95° | 20km/h | 19739m | 5.1m/s | -57.6°C | 5.1% | 0hPa | 2.7V | 00:00:00 | 01:44:33 | 00:00:00 | |
| IW2NTF | 2026-09-06 00:18:19 | 45.29461 | 9.25484 | 119° | 20km/h | 19703m | 5m/s | -57.6°C | 4.9% | 0hPa | 2.7V | 08:30:00 | 01:44:25 | 00:00:00 | |
| DO3MHA-11 | 2026-09-06 00:18:15 | 45.29459 | 9.25492 | 110° | 20km/h | 19708m | 5.0m/s | -57.6°C | 4.9% | 0hPa | 2.7V | 00:00:00 | 01:44:26 | 00:00:00 | |
| IW2NTF | 2026-09-06 00:18:06 | 45.29469 | 9.25416 | 89° | 24km/h | 19658m | 5.3m/s | -57.6°C | 4.9% | 0hPa | 2.7V | 08:30:00 | 01:44:15 | 00:00:00 | |
| DO3MHA-11 | 2026-09-06 00:18:06 | 45.29469 | 9.25424 | 86° | 22km/h | 19663m | 4.5m/s | -57.4°C | 4.9% | 0hPa | 2.5V | 00:00:00 | 01:44:16 | 00:00:00 | |
| DB0UT-7 | 2026-09-06 00:18:04 | 45.29469 | 9.25415 | 90° | 24km/h | 19658m | 5.3m/s | -57.5°C | 4.9% | 0hPa | 2.5V | 00:00:00 | 00:00:00 | 00:00:00 | |
| IW2NTF | 2026-09-06 00:17:59 | 45.29470 | 9.25336 | 78° | 24km/h | 19613m | 5.7m/s | -58°C | 5.2% | 0hPa | 2.5V | 08:30:00 | 01:44:05 | 00:00:00 | |
| DO3MHA-11 | 2026-09-06 00:17:55 | 45.29471 | 9.25344 | 80° | 26km/h | 19618m | 4.3m/s | -57.9°C | 5.2% | 0hPa | 2.5V | 00:00:00 | 01:44:06 | 00:00:00 | |
| NBG1-10 | 2026-09-06 00:17:49 | 45.29464 | 9.25291 | 86° | 20km/h | 19590m | 3.9m/s | -58.1°C | 5.2% | 0hPa | 2.5V | 00:00:00 | 01:44:00 | 00:00:00 | |
| IW2NTF | 2026-09-06 00:17:48 | 45.29460 | 9.25247 | 64° | 20km/h | 19569m | 5.2m/s | -58.1°C | 5.2% | 0hPa | 2.5V | 08:30:00 | 01:43:55 | 00:00:00 | |
| DO3MHA-11 | 2026-09-06 00:17:45 | 45.29461 | 9.25253 | 75° | 22km/h | 19574m | 3.7m/s | -58.1°C | 5.2% | 0hPa | 2.5V | 00:00:00 | 01:43:56 | 00:00:00 | |
| IW2NTF | 2026-09-06 00:17:36 | 45.29424 | 9.25183 | 72° | 24km/h | 19524m | 4.7m/s | -57.9°C | 5.1% | 0hPa | 2.5V | 08:30:00 | 01:43:45 | 00:00:00 | |
| DO3MHA-11 | 2026-09-06 00:17:35 | 45.29426 | 9.25192 | 70° | 18km/h | 19529m | 3.6m/s | -57.8°C | 5.1% | 0hPa | 2.5V | 00:00:00 | 01:43:46 | 08:30:00 | |
| DB0UT-7 | 2026-09-06 00:17:34 | 45.29424 | 9.25183 | 73° | 18km/h | 19524m | 4.6m/s | -57.8°C | 5.1% | 0hPa | 2.5V | 00:00:00 | 01:43:45 | 00:00:00 | |
| IW2NTF | 2026-09-06 00:17:29 | 45.29401 | 9.25133 | 57° | 20km/h | 19481m | 4.9m/s | -58°C | 5.1% | 0hPa | 2.5V | 08:30:00 | 01:43:35 | 00:00:00 | |
| DO3MHA-11 | 2026-09-06 00:17:25 | 45.29403 | 9.25139 | 53° | 20km/h | 19485m | 3.3m/s | -57.9°C | 5.1% | 0hPa | 2.7V | 00:00:00 | 01:43:36 | 00:00:00 | |
| IW2NTF | 2026-09-06 00:17:18 | 45.29386 | 9.25071 | 37° | 11km/h | 19435m | 5.4m/s | -58°C | 5.2% | 0hPa | 2.7V | 08:30:00 | 01:43:25 | 00:00:00 | |
| DO3MHA-11 | 2026-09-06 00:17:15 | 45.29388 | 9.25074 | 50° | 16km/h | 19440m | 4.1m/s | -58.0°C | 5.2% | 0hPa | 2.5V | 00:00:00 | 01:43:26 | 00:00:00 | |
| IW2NTF | 2026-09-06 00:17:07 | 45.29364 | 9.25013 | 67° | 11km/h | 19380m | 4.5m/s | -57.9°C | 5.2% | 0hPa | 2.5V | 08:30:00 | 01:43:13 | 00:00:00 | |
| DO3MHA-11 | 2026-09-06 00:17:05 | 45.29367 | 9.25028 | 81° | 13km/h | 19394m | 4.1m/s | -58.0°C | 5.2% | 0hPa | 2.5V | 00:00:00 | 01:43:16 | 00:00:00 | |
| DB0UT-7 | 2026-09-06 00:17:04 | 45.29366 | 9.25023 | 77° | 15km/h | 19389m | 5.1m/s | -57.9°C | 5.3% | 0hPa | 2.7V | 00:00:00 | 00:00:00 | 08:30:00 | |
| DO3MHA-11 | 2026-09-06 00:16:55 | 45.29356 | 9.24986 | 76° | 13km/h | 19348m | 5.4m/s | -57.8°C | 5.2% | 0hPa | 2.7V | 00:00:00 | 01:43:06 | 00:00:00 | |
| IW2NTF | 2026-09-06 00:16:54 | 45.29354 | 9.24967 | 87° | 18km/h | 19333m | 5.1m/s | -57.7°C | 5.2% | 0hPa | 2.7V | 08:30:00 | 01:43:03 | 00:00:00 | |
| IW2NTF | 2026-09-06 00:16:47 | 45.29356 | 9.24926 | 91° | 16km/h | 19288m | 5.2m/s | -57.4°C | 5% | 0hPa | 2.7V | 08:30:00 | 01:42:53 | 00:00:00 | |
| DO3MHA-11 | 2026-09-06 00:16:45 | 45.29357 | 9.24941 | 92° | 16km/h | 19302m | 4.9m/s | -57.4°C | 5.0% | 0hPa | 2.7V | 00:00:00 | 01:42:56 | 00:00:00 | |
| NBG1-10 | 2026-09-06 00:16:40 | 45.29357 | 9.24914 | 93° | 18km/h | 19279m | 4.1m/s | -57.3°C | 4.9% | 0hPa | 2.7V | 00:00:00 | 01:42:51 | 00:00:00 | |
| DO3MHA-11 | 2026-09-06 00:16:35 | 45.29356 | 9.24884 | 103° | 13km/h | 19255m | 4.8m/s | -57.4°C | 4.8% | 0hPa | 2.7V | 00:00:00 | 01:42:46 | 00:00:00 | |
| IW2NTF | 2026-09-06 00:16:34 | 45.29359 | 9.24870 | 107° | 11km/h | 19240m | 5m/s | -57.4°C | 4.8% | 0hPa | 2.5V | 08:30:00 | 01:42:43 | 00:00:00 | |
| DB0UT-7 | 2026-09-06 00:16:34 | 45.29357 | 9.24879 | 108° | 20km/h | 19250m | 4.2m/s | -57.3°C | 4.8% | 0hPa | 2.5V | 00:00:00 | 01:42:45 | 00:00:00 | |
| IW2NTF | 2026-09-06 00:16:27 | 45.29372 | 9.24827 | 126° | 16km/h | 19194m | 5.3m/s | -58.5°C | 5.1% | 0hPa | 2.5V | 08:30:00 | 01:42:33 | 00:00:00 | |
| DO3MHA-11 | 2026-09-06 00:16:25 | 45.29368 | 9.24843 | 98° | 15km/h | 19208m | 3.5m/s | -57.7°C | 4.8% | 0hPa | 2.5V | 00:00:00 | 01:42:36 | 00:00:00 | |
| DO3MHA-11 | 2026-09-06 00:16:15 | 45.29394 | 9.24802 | 152° | 26km/h | 19159m | 4.6m/s | -59.0°C | 5.5% | 0hPa | 2.5V | 00:00:00 | 01:42:26 | 00:00:00 | |
| IW2NTF | 2026-09-06 00:16:14 | 45.29409 | 9.24785 | 125° | 27km/h | 19143m | 5.8m/s | -59.1°C | 5.5% | 0hPa | 2.5V | 08:30:00 | 01:42:23 | 00:00:00 | |
| IW2NTF | 2026-09-06 00:16:07 | 45.29448 | 9.24695 | 137° | 27km/h | 19094m | 3.9m/s | -59°C | 5.5% | 0hPa | 2.7V | 08:30:00 | 01:42:13 | 00:00:00 | |
| NBG1-10 | 2026-09-06 00:16:07 | 45.29428 | 9.24734 | 117° | 33km/h | 19117m | 5.6m/s | -59.1°C | 5.6% | 0hPa | 2.5V | 00:00:00 | 01:42:18 | 00:00:00 | |
| DO3MHA-11 | 2026-09-06 00:16:05 | 45.29435 | 9.24716 | 121° | 31km/h | 19108m | 3.8m/s | -59.1°C | 5.6% | 0hPa | 2.5V | 00:00:00 | 01:42:16 | 08:30:00 | |
| DB0UT-7 | 2026-09-06 00:16:04 | 45.29439 | 9.24708 | 129° | 40km/h | 19104m | 5.3m/s | -59.0°C | 5.5% | 0hPa | 2.7V | 00:00:00 | 00:00:00 | 00:00:00 | |
| DO3MHA-11 | 2026-09-06 00:15:55 | 45.29478 | 9.24623 | 121° | 40km/h | 19060m | 5.0m/s | -58.8°C | 5.4% | 0hPa | 2.7V | 00:00:00 | 01:42:06 | 00:00:00 | |
| IW2NTF | 2026-09-06 00:15:54 | 45.29495 | 9.24586 | 120° | 40km/h | 19046m | 5.7m/s | -58.7°C | 5.4% | 0hPa | 2.7V | 08:30:00 | 01:42:03 | 00:00:00 | |
| IW2NTF | 2026-09-06 00:15:47 | 45.29544 | 9.24454 | 120° | 47km/h | 18996m | 4.7m/s | -58.6°C | 5.2% | 0hPa | 2.5V | 08:30:00 | 01:41:53 | 00:00:00 | |
| DO3MHA-11 | 2026-09-06 00:15:45 | 45.29528 | 9.24499 | 114° | 46km/h | 19010m | 4.4m/s | -58.5°C | 5.2% | 0hPa | 2.7V | 00:00:00 | 01:41:56 | 00:00:00 | |
| DO3MHA-11 | 2026-09-06 00:15:35 | 45.29586 | 9.24357 | 127° | 51km/h | 18962m | 3.9m/s | -58.8°C | 5.3% | 0hPa | 2.7V | 00:00:00 | 01:41:46 | 00:00:00 | |
| IW2NTF | 2026-09-06 00:15:34 | 45.29604 | 9.24314 | 113° | 51km/h | 18948m | 4.1m/s | -59°C | 5.3% | 0hPa | 2.5V | 08:30:00 | 01:41:43 | 00:00:00 | |
| DB0UT-7 | 2026-09-06 00:15:34 | 45.29592 | 9.24344 | 123° | 53km/h | 18958m | 4.8m/s | -58.9°C | 5.3% | 0hPa | 2.5V | 00:00:00 | 01:41:45 | 00:00:00 | |
| DO3MHA-11 | 2026-09-06 00:15:25 | 45.29644 | 9.24193 | 117° | 55km/h | 18916m | 4.1m/s | -59.4°C | 5.5% | 0hPa | 2.5V | 00:00:00 | 01:41:36 | 00:00:00 | |
| IW2NTF | 2026-09-06 00:15:23 | 45.29662 | 9.24147 | 118° | 51km/h | 18902m | 3.7m/s | -59.5°C | 5.5% | 0hPa | 2.5V | 08:30:00 | 01:41:33 | 00:00:00 | |
| DO3MHA-11 | 2026-09-06 00:15:15 | 45.29702 | 9.24012 | 115° | 55km/h | 18873m | 3.5m/s | -59.5°C | 5.6% | 0hPa | 2.5V | 00:00:00 | 01:41:26 | 00:00:00 | |
| IW2NTF | 2026-09-06 00:15:12 | 45.29727 | 9.23925 | 114° | 53km/h | 18850m | 4.7m/s | -59.6°C | 5.6% | 0hPa | 2.5V | 08:30:00 | 01:41:21 | 00:00:00 | |
| DO3MHA-11 | 2026-09-06 00:15:05 | 45.29754 | 9.23835 | 113° | 53km/h | 18827m | 5.0m/s | -59.5°C | 5.5% | 0hPa | 2.5V | 00:00:00 | 01:41:16 | 00:00:00 | |
| DB0UT-7 | 2026-09-06 00:15:04 | 45.29760 | 9.23818 | 115° | 53km/h | 18823m | 4.4m/s | -59.5°C | 5.6% | 0hPa | 2.5V | 00:00:00 | 00:00:00 | 00:00:00 | |
| IW2NTF | 2026-09-06 00:15:00 | 45.29778 | 9.23749 | 107° | 51km/h | 18806m | 3.9m/s | -59.8°C | 5.7% | 0hPa | 2.5V | 08:30:00 | 01:41:11 | 00:00:00 | |
| NBG1-10 | 2026-09-06 00:14:59 | 45.29782 | 9.23731 | 109° | 53km/h | 18802m | 4.6m/s | -59.8°C | 5.7% | 0hPa | 2.5V | 00:00:00 | 01:41:10 | 00:00:00 | |
| IW2NTF | 2026-09-06 00:14:55 | 45.29824 | 9.23562 | 108° | 57km/h | 18763m | 3.6m/s | -59.8°C | 5.5% | 0hPa | 2.5V | 08:30:00 | 01:41:01 | 00:00:00 | |
| DO3MHA-11 | 2026-09-06 00:14:55 | 45.29801 | 9.23658 | 109° | 57km/h | 18783m | 4.8m/s | -59.7°C | 5.7% | 0hPa | 2.5V | 00:00:00 | 01:41:06 | 00:00:00 | |
| DO3MHA-11 | 2026-09-06 00:14:45 | 45.29842 | 9.23468 | 108° | 53km/h | 18742m | 4.0m/s | -59.8°C | 5.5% | 0hPa | 2.5V | 00:00:00 | 01:40:56 | 00:00:00 | |
| IW2NTF | 2026-09-06 00:14:42 | 45.29869 | 9.23338 | 108° | 53km/h | 18713m | 2.8m/s | -59.9°C | 5.5% | 0hPa | 2.5V | 08:30:00 | 01:40:49 | 00:00:00 | |
| DO3MHA-11 | 2026-09-06 00:14:35 | 45.29880 | 9.23284 | 102° | 47km/h | 18701m | 3.6m/s | -60.1°C | 5.6% | 0hPa | 2.7V | 00:00:00 | 01:40:46 | 08:30:00 | |
| DB0UT-7 | 2026-09-06 00:14:34 | 45.29882 | 9.23267 | 103° | 38km/h | 18697m | 4.3m/s | -60.2°C | 5.6% | 0hPa | 2.5V | 00:00:00 | 01:40:45 | 00:00:00 | |
| IW2NTF | 2026-09-06 00:14:32 | 45.29904 | 9.23136 | 108° | 46km/h | 18664m | 3.9m/s | -60.6°C | 6% | 0hPa | 2.5V | 08:30:00 | 01:40:37 | 00:00:00 | |
| NBG1-10 | 2026-09-06 00:14:26 | 45.29904 | 9.23136 | 109° | 40km/h | 18664m | 3.9m/s | -60.6°C | 6.0% | 0hPa | 2.5V | 00:00:00 | 01:40:37 | 00:00:00 | |
| DO3MHA-11 | 2026-09-06 00:14:25 | 45.29907 | 9.23121 | 109° | 47km/h | 18661m | 3.2m/s | -60.6°C | 6.0% | 0hPa | 2.5V | 00:00:00 | 01:40:36 | 00:00:00 | |
| IW2NTF | 2026-09-06 00:14:19 | 45.29917 | 9.22970 | 85° | 47km/h | 18622m | 3.5m/s | -60.6°C | 6% | 0hPa | 2.5V | 08:30:00 | 01:40:27 | 00:00:00 | |
| DO3MHA-11 | 2026-09-06 00:14:15 | 45.29917 | 9.22953 | 89° | 38km/h | 18619m | 3.9m/s | -60.6°C | 6.0% | 0hPa | 2.5V | 00:00:00 | 01:40:26 | 00:00:00 | |
| IW2NTF | 2026-09-06 00:14:07 | 45.29937 | 9.22835 | 103° | 37km/h | 18581m | 4.5m/s | -60.3°C | 5.9% | 0hPa | 2.5V | 08:30:00 | 01:40:17 | 00:00:00 | |
| DO3MHA-11 | 2026-09-06 00:14:05 | 45.29938 | 9.22823 | 96° | 37km/h | 18577m | 4.8m/s | -60.2°C | 5.8% | 0hPa | 2.5V | 00:00:00 | 01:40:16 | 00:00:00 | |
| IW2NTF | 2026-09-06 00:13:57 | 45.29947 | 9.22705 | 108° | 37km/h | 18539m | 5m/s | -60.1°C | 5.8% | 0hPa | 2.7V | 08:30:00 | 01:40:07 | 00:00:00 | |
| DO3MHA-11 | 2026-09-06 00:13:55 | 45.29950 | 9.22693 | 109° | 33km/h | 18535m | 3.6m/s | -60.0°C | 5.8% | 0hPa | 2.5V | 00:00:00 | 01:40:06 | 00:00:00 | |
| NBG1-10 | 2026-09-06 00:13:53 | 45.29955 | 9.22669 | 102° | 31km/h | 18527m | 4.6m/s | -60.0°C | 5.8% | 0hPa | 2.5V | 00:00:00 | 01:40:04 | 00:00:00 | |
| DB0UT-7 | 2026-09-06 00:13:50 | 45.29958 | 9.22635 | 97° | 31km/h | 18513m | 4.2m/s | -59.9°C | 5.7% | 0hPa | 2.7V | 00:00:00 | 00:00:00 | 00:00:00 | |
| IW2NTF | 2026-09-06 00:13:47 | 45.29960 | 9.22589 | 92° | 29km/h | 18496m | 3.8m/s | -59.8°C | 5.7% | 0hPa | 2.7V | 08:30:00 | 01:39:57 | 00:00:00 | |
| DO3MHA-11 | 2026-09-06 00:13:45 | 45.29960 | 9.22579 | 99° | 31km/h | 18493m | 4.4m/s | -59.7°C | 5.7% | 0hPa | 2.5V | 00:00:00 | 01:39:56 | 00:00:00 | |
| IW2NTF | 2026-09-06 00:13:37 | 45.29975 | 9.22479 | 98° | 31km/h | 18455m | 3.8m/s | -59.5°C | 5.7% | 0hPa | 2.5V | 08:30:00 | 01:39:47 | 00:00:00 | |
| DO3MHA-11 | 2026-09-06 00:13:35 | 45.29976 | 9.22468 | 96° | 31km/h | 18452m | 3.6m/s | -59.4°C | 5.7% | 0hPa | 2.7V | 00:00:00 | 01:39:46 | 00:00:00 | |
| IW2NTF | 2026-09-06 00:13:27 | 45.29987 | 9.22371 | 106° | 27km/h | 18414m | 4m/s | -59.3°C | 5.7% | 0hPa | 2.5V | 08:30:00 | 01:39:37 | 00:00:00 | |
| DO3MHA-11 | 2026-09-06 00:13:25 | 45.29989 | 9.22361 | 110° | 29km/h | 18410m | 4.6m/s | -59.2°C | 5.6% | 0hPa | 2.5V | 00:00:00 | 01:39:36 | 00:00:00 | |
| DB0UT-7 | 2026-09-06 00:13:20 | 45.29993 | 9.22314 | 85° | 27km/h | 18390m | 3.8m/s | -59.0°C | 5.7% | 0hPa | 2.5V | 00:00:00 | 01:39:31 | 00:00:00 | |
| IW2NTF | 2026-09-06 00:13:17 | 45.29994 | 9.22271 | 96° | 29km/h | 18372m | 4.2m/s | -58.9°C | 5.6% | 0hPa | 2.5V | 08:30:00 | 01:39:27 | 00:00:00 | |
| DO3MHA-11 | 2026-09-06 00:13:15 | 45.29995 | 9.22261 | 94° | 26km/h | 18368m | 4.2m/s | -58.8°C | 5.6% | 0hPa | 2.7V | 00:00:00 | 01:39:26 | 00:00:00 | |
| IW2NTF | 2026-09-06 00:13:07 | 45.29994 | 9.22178 | 89° | 22km/h | 18330m | 4.1m/s | -58.5°C | 5.4% | 0hPa | 2.7V | 08:30:00 | 01:39:17 | 00:00:00 | |
| DO3MHA-11 | 2026-09-06 00:13:05 | 45.29994 | 9.22171 | 92° | 26km/h | 18326m | 3.4m/s | -58.5°C | 5.4% | 0hPa | 2.5V | 00:00:00 | 01:39:16 | 08:30:00 | |
| IW2NTF | 2026-09-06 00:12:57 | 45.29996 | 9.22092 | 81° | 31km/h | 18289m | 4.4m/s | -58.2°C | 5.3% | 0hPa | 2.7V | 08:30:00 | 01:39:07 | 00:00:00 | |
| DO3MHA-11 | 2026-09-06 00:12:55 | 45.29994 | 9.22081 | 78° | 27km/h | 18285m | 3.5m/s | -58.2°C | 5.3% | 0hPa | 2.6V | 00:00:00 | 01:39:06 | 00:00:00 | |
| DB0UT-7 | 2026-09-06 00:12:50 | 45.29992 | 9.22030 | 93° | 33km/h | 18265m | 5.3m/s | -58.1°C | 5.3% | 0hPa | 2.6V | 00:00:00 | 00:00:00 | 00:00:00 | |
| IW2NTF | 2026-09-06 00:12:47 | 45.29995 | 9.21995 | 105° | 26km/h | 18246m | 4.4m/s | -58.5°C | 5.5% | 0hPa | 2.6V | 08:30:00 | 01:38:57 | 00:00:00 | |
| NBG1-10 | 2026-09-06 00:12:47 | 45.29994 | 9.22004 | 101° | 26km/h | 18251m | 5.0m/s | -58.4°C | 5.4% | 0hPa | 2.5V | 00:00:00 | 01:38:58 | 00:00:00 | |
| DO3MHA-11 | 2026-09-06 00:12:45 | 45.29997 | 9.21986 | 103° | 26km/h | 18243m | 3.6m/s | -58.5°C | 5.4% | 0hPa | 2.5V | 00:00:00 | 01:38:56 | 00:00:00 | |
| IW2NTF | 2026-09-06 00:12:38 | 45.29998 | 9.21904 | 110° | 22km/h | 18202m | 5.5m/s | -58.4°C | 5.4% | 0hPa | 2.5V | 08:30:00 | 01:38:47 | 00:00:00 | |
| DO3MHA-11 | 2026-09-06 00:12:35 | 45.30000 | 9.21897 | 117° | 24km/h | 18197m | 5.3m/s | -58.4°C | 5.4% | 0hPa | 2.6V | 00:00:00 | 01:38:46 | 00:00:00 | |
| IW2NTF | 2026-09-06 00:12:31 | 45.30024 | 9.21832 | 135° | 27km/h | 18152m | 5.5m/s | -58.8°C | 5.4% | 0hPa | 2.5V | 08:30:00 | 01:38:37 | 00:00:00 | |
| DO3MHA-11 | 2026-09-06 00:12:25 | 45.30029 | 9.21825 | 144° | 26km/h | 18147m | 6.7m/s | -58.7°C | 5.4% | 0hPa | 2.7V | 00:00:00 | 01:38:36 | 00:00:00 | |
| IW2NTF | 2026-09-06 00:12:19 | 45.30074 | 9.21770 | 149° | 26km/h | 18101m | 4.2m/s | -59°C | 5.6% | 0hPa | 2.7V | 08:30:00 | 01:38:27 | 00:00:00 | |
| DO3MHA-11 | 2026-09-06 00:12:15 | 45.30080 | 9.21765 | 151° | 29km/h | 18097m | 3.8m/s | 0°C | 0% | 0hPa | 2.5V | 00:00:00 | 01:38:26 | 00:00:00 | |
| NBG1-10 | 2026-09-06 00:12:14 | 45.30086 | 9.21760 | 148° | 35km/h | 18093m | 4.6m/s | -59.0°C | 5.6% | 0hPa | 2.5V | 00:00:00 | 01:38:25 | 00:00:00 | |
| IW2NTF | 2026-09-06 00:12:08 | 45.30139 | 9.21721 | 148° | 31km/h | 18058m | 4m/s | -59°C | 5.3% | 0hPa | 2.7V | 08:30:00 | 01:38:17 | 00:00:00 | |
| DO3MHA-11 | 2026-09-06 00:12:05 | 45.30146 | 9.21714 | 149° | 33km/h | 18054m | 5.0m/s | -58.9°C | 5.3% | 0hPa | 2.7V | 00:00:00 | 01:38:16 | 00:00:00 | |
| IW2NTF | 2026-09-06 00:11:59 | 45.30205 | 9.21654 | 143° | 35km/h | 18015m | 4.7m/s | -60.1°C | 5.7% | 0hPa | 2.6V | 08:30:00 | 01:38:07 | 00:00:00 | |
| DO3MHA-11 | 2026-09-06 00:11:55 | 45.30212 | 9.21646 | 144° | 38km/h | 18010m | 4.0m/s | -60.2°C | 5.7% | 0hPa | 2.5V | 00:00:00 | 01:38:06 | 00:00:00 | |
| IW2NTF | 2026-09-06 00:11:48 | 45.30282 | 9.21575 | 136° | 35km/h | 17970m | 3.6m/s | -61.3°C | 6.2% | 0hPa | 2.5V | 08:30:00 | 01:37:57 | 00:00:00 | |
| DO3MHA-11 | 2026-09-06 00:11:45 | 45.30288 | 9.21566 | 134° | 42km/h | 17966m | 5.0m/s | -61.3°C | 6.2% | 0hPa | 2.5V | 00:00:00 | 01:37:56 | 00:00:00 | |
| NBG1-10 | 2026-09-06 00:11:41 | 45.30316 | 9.21530 | 146° | 42km/h | 17948m | 5.0m/s | -61.4°C | 6.4% | 0hPa | 2.5V | 00:00:00 | 01:37:52 | 00:00:00 | |
| IW2NTF | 2026-09-06 00:11:39 | 45.30364 | 9.21485 | 147° | 42km/h | 17924m | 5.2m/s | -61.7°C | 6.6% | 0hPa | 2.5V | 08:30:00 | 01:37:47 | 00:00:00 | |
| DB0UT-7 | 2026-09-06 00:11:38 | 45.30345 | 9.21503 | 147° | 40km/h | 17934m | 4.3m/s | -61.5°C | 6.4% | 0hPa | 2.7V | 00:00:00 | 01:37:49 | 08:30:00 | |
| DO3MHA-11 | 2026-09-06 00:11:35 | 45.30373 | 9.21477 | 148° | 40km/h | 17920m | 4.3m/s | -61.7°C | 6.6% | 0hPa | 2.6V | 00:00:00 | 01:37:46 | 08:30:00 | |
| IW2NTF | 2026-09-06 00:11:28 | 45.30446 | 9.21404 | 146° | 40km/h | 17880m | 4.2m/s | -61.6°C | 6.6% | 0hPa | 2.5V | 08:30:00 | 01:37:37 | 00:00:00 | |
| DO3MHA-11 | 2026-09-06 00:11:25 | 45.30454 | 9.21397 | 149° | 38km/h | 17876m | 4.3m/s | -61.6°C | 6.5% | 0hPa | 2.7V | 00:00:00 | 01:37:36 | 00:00:00 | |
| IW2NTF | 2026-09-06 00:11:21 | 45.30527 | 9.21334 | 151° | 42km/h | 17833m | 4.8m/s | -61.6°C | 6.6% | 0hPa | 2.7V | 08:30:00 | 01:37:27 | 00:00:00 | |
| DO3MHA-11 | 2026-09-06 00:11:15 | 45.30536 | 9.21327 | 154° | 40km/h | 17829m | 4.2m/s | -61.6°C | 6.6% | 0hPa | 2.7V | 00:00:00 | 01:37:26 | 00:00:00 | |
| IW2NTF | 2026-09-06 00:11:07 | 45.30618 | 9.21268 | 149° | 40km/h | 17784m | 5m/s | -61.4°C | 6.6% | 0hPa | 2.7V | 08:30:00 | 01:37:17 | 00:00:00 | |
| DO3MHA-11 | 2026-09-06 00:11:05 | 45.30627 | 9.21260 | 151° | 42km/h | 17779m | 5.8m/s | -61.4°C | 6.6% | 0hPa | 2.7V | 00:00:00 | 01:37:16 | 00:00:00 | |
| IW2NTF | 2026-09-06 00:11:01 | 45.30711 | 9.21194 | 150° | 38km/h | 17733m | 5.6m/s | -61.3°C | 6.2% | 0hPa | 2.6V | 08:30:00 | 01:37:07 | 00:00:00 | |
| DO3MHA-11 | 2026-09-06 00:10:55 | 45.30719 | 9.21187 | 148° | 42km/h | 17728m | 4.9m/s | -61.2°C | 6.2% | 0hPa | 2.6V | 00:00:00 | 01:37:06 | 00:00:00 | |
| IW2NTF | 2026-09-06 00:10:47 | 45.30798 | 9.21106 | 139° | 47km/h | 17681m | 4.8m/s | -61.4°C | 6.3% | 0hPa | 2.6V | 08:30:00 | 01:36:57 | 00:00:00 | |
| DO3MHA-11 | 2026-09-06 00:10:45 | 45.30807 | 9.21095 | 139° | 47km/h | 17676m | 4.6m/s | -61.3°C | 6.3% | 0hPa | 2.5V | 00:00:00 | 01:36:56 | 00:00:00 | |
| IW2NTF | 2026-09-06 00:10:41 | 45.30887 | 9.20997 | 134° | 47km/h | 17629m | 4.8m/s | -62.3°C | 6.8% | 0hPa | 2.5V | 08:30:00 | 01:36:47 | 00:00:00 | |
| DO3MHA-11 | 2026-09-06 00:10:35 | 45.30895 | 9.20985 | 137° | 46km/h | 17623m | 6.3m/s | -62.3°C | 6.8% | 0hPa | 2.6V | 00:00:00 | 01:36:46 | 00:00:00 | |
| IW2NTF | 2026-09-06 00:10:27 | 45.30956 | 9.20865 | 117° | 44km/h | 17573m | 5.9m/s | -62.1°C | 6.8% | 0hPa | 2.7V | 08:30:00 | 01:36:37 | 00:00:00 | |
| DO3MHA-11 | 2026-09-06 00:10:25 | 45.30961 | 9.20852 | 121° | 42km/h | 17568m | 4.6m/s | -62.1°C | 6.8% | 0hPa | 2.7V | 00:00:00 | 01:36:36 | 00:00:00 | |
| IW2NTF | 2026-09-06 00:10:21 | 45.31008 | 9.20735 | 112° | 38km/h | 17524m | 4.5m/s | -61.7°C | 6.6% | 0hPa | 2.7V | 08:30:00 | 01:36:27 | 00:00:00 | |
| DO3MHA-11 | 2026-09-06 00:10:15 | 45.31012 | 9.20722 | 111° | 38km/h | 17519m | 5.0m/s | -61.6°C | 6.6% | 0hPa | 2.6V | 00:00:00 | 01:36:26 | 00:00:00 | |
| IW2NTF | 2026-09-06 00:10:07 | 45.31050 | 9.20608 | 114° | 37km/h | 17475m | 5.7m/s | -61.4°C | 6.4% | 0hPa | 2.6V | 08:30:00 | 01:36:17 | 00:00:00 | |
| DO3MHA-11 | 2026-09-06 00:10:05 | 45.31053 | 9.20596 | 110° | 35km/h | 17470m | 4.2m/s | -61.4°C | 6.4% | 0hPa | 2.7V | 00:00:00 | 01:36:16 | 08:30:00 | |
| IW2NTF | 2026-09-06 00:09:57 | 45.31092 | 9.20467 | 124° | 42km/h | 17419m | 4.8m/s | -61.5°C | 6.5% | 0hPa | 2.7V | 08:30:00 | 01:36:05 | 00:00:00 | |
| DO3MHA-11 | 2026-09-06 00:09:55 | 45.31086 | 9.20480 | 124° | 35km/h | 17424m | 4.7m/s | -61.4°C | 6.4% | 0hPa | 2.6V | 00:00:00 | 01:36:06 | 00:00:00 | |
| IW2NTF | 2026-09-06 00:09:47 | 45.31121 | 9.20357 | 105° | 37km/h | 17374m | 3.9m/s | -61.6°C | 6.7% | 0hPa | 2.6V | 08:30:00 | 01:35:55 | 00:00:00 | |
| DO3MHA-11 | 2026-09-06 00:09:45 | 45.31119 | 9.20369 | 105° | 38km/h | 17379m | 4.5m/s | -61.6°C | 6.7% | 0hPa | 2.6V | 00:00:00 | 01:35:56 | 00:00:00 | |
| IW2NTF | 2026-09-06 00:09:37 | 45.31163 | 9.20226 | 116° | 29km/h | 17327m | 4.2m/s | -61.4°C | 6.5% | 0hPa | 2.6V | 08:30:00 | 01:35:44 | 00:00:00 | |
| DO3MHA-11 | 2026-09-06 00:09:35 | 45.31156 | 9.20244 | 120° | 37km/h | 17336m | 3.2m/s | -61.4°C | 6.4% | 0hPa | 2.6V | 00:00:00 | 01:35:46 | 00:00:00 | |
| NBG1-10 | 2026-09-06 00:09:29 | 45.31180 | 9.20182 | 118° | 42km/h | 17312m | 3.7m/s | -61.2°C | 6.5% | 0hPa | 2.6V | 00:00:00 | 01:35:40 | 00:00:00 | |
| IW2NTF | 2026-09-06 00:09:27 | 45.31205 | 9.20094 | 113° | 42km/h | 17287m | 3.8m/s | -61.1°C | 6.6% | 0hPa | 2.6V | 08:30:00 | 01:35:34 | 00:00:00 | |
| DO3MHA-11 | 2026-09-06 00:09:25 | 45.31197 | 9.20123 | 109° | 42km/h | 17296m | 3.9m/s | -61.1°C | 6.6% | 0hPa | 2.6V | 00:00:00 | 01:35:36 | 00:00:00 | |
| IW2NTF | 2026-09-06 00:09:18 | 45.31240 | 9.19941 | 107° | 42km/h | 17243m | 4.2m/s | -60.8°C | 6.4% | 0hPa | 2.6V | 08:30:00 | 01:35:23 | 00:00:00 | |
| DO3MHA-11 | 2026-09-06 00:09:15 | 45.31232 | 9.19982 | 107° | 44km/h | 17256m | 3.6m/s | -60.9°C | 6.5% | 0hPa | 2.7V | 00:00:00 | 01:35:26 | 00:00:00 | |
| DB0ND-19 | 2026-09-06 00:09:13 | 45.31237 | 9.19955 | 105° | 40km/h | 17247m | 3.9m/s | -60.8°C | 2.6% | -1.0hPa | 2.7V | 00:00:00 | 00:00:00 | 00:00:00 | |
| DO3MHA-11 | 2026-09-06 00:09:05 | 45.31264 | 9.19834 | 106° | 42km/h | 17215m | 4.4m/s | -60.7°C | 6.4% | 0hPa | 2.7V | 00:00:00 | 01:35:16 | 00:00:00 | |
| IW2NTF | 2026-09-06 00:09:01 | 45.31282 | 9.19732 | 105° | 42km/h | 17187m | 3.2m/s | -60.7°C | 6.4% | 0hPa | 2.7V | 08:30:00 | 01:35:09 | 00:00:00 | |
| NBG1-10 | 2026-09-06 00:08:56 | 45.31288 | 9.19701 | 103° | 49km/h | 17179m | 3.8m/s | -60.7°C | 6.4% | 0hPa | 2.6V | 00:00:00 | 01:35:07 | 00:00:00 | |
| DO3MHA-11 | 2026-09-06 00:08:55 | 45.31290 | 9.19685 | 103° | 49km/h | 17175m | 4.4m/s | -60.6°C | 6.3% | 0hPa | 2.7V | 00:00:00 | 01:35:06 | 00:00:00 | |
| IW2NTF | 2026-09-06 00:08:53 | 45.31310 | 9.19562 | 104° | 47km/h | 17148m | 2.7m/s | -60.5°C | 6.3% | 0hPa | 2.7V | 08:30:00 | 01:34:59 | 00:00:00 | |
| DO3MHA-11 | 2026-09-06 00:08:45 | 45.31316 | 9.19512 | 97° | 47km/h | 17137m | 3.7m/s | -60.5°C | 6.2% | 0hPa | 2.6V | 00:00:00 | 01:34:56 | 00:00:00 | |
| DB0ND-19 | 2026-09-06 00:08:42 | 45.31321 | 9.19462 | 99° | 46km/h | 17126m | 3.9m/s | -60.5°C | 2.5% | -1.0hPa | 2.6V | 00:00:00 | 00:00:00 | 00:00:00 | |
| IW2NTF | 2026-09-06 00:08:41 | 45.31329 | 9.19392 | 99° | 49km/h | 17111m | 3.1m/s | -60.8°C | 6.3% | 0hPa | 2.6V | 08:30:00 | 01:34:49 | 00:00:00 | |
| DO3MHA-11 | 2026-09-06 00:08:35 | 45.31335 | 9.19341 | 101° | 51km/h | 17101m | 3.2m/s | -61.1°C | 6.6% | 0hPa | 2.6V | 00:00:00 | 01:34:46 | 08:30:00 | |
| IW2NTF | 2026-09-06 00:08:33 | 45.31345 | 9.19215 | 95° | 53km/h | 17074m | 4.5m/s | -61.5°C | 6.8% | 0hPa | 2.6V | 08:30:00 | 01:34:39 | 00:00:00 | |
| DO3MHA-11 | 2026-09-06 00:08:25 | 45.31349 | 9.19157 | 95° | 53km/h | 17064m | 3.6m/s | -61.5°C | 6.8% | 0hPa | 2.6V | 00:00:00 | 01:34:36 | 00:00:00 | |
| NBG1-10 | 2026-09-06 00:08:23 | 45.31351 | 9.19119 | 97° | 46km/h | 17056m | 3.2m/s | -61.5°C | 6.7% | 0hPa | 2.6V | 00:00:00 | 01:34:34 | 00:00:00 | |
| IW2NTF | 2026-09-06 00:08:21 | 45.31357 | 9.19023 | 96° | 49km/h | 17037m | 3.8m/s | -61.4°C | 6.8% | 0hPa | 2.6V | 08:30:00 | 01:34:29 | 00:00:00 | |
| DO3MHA-11 | 2026-09-06 00:08:15 | 45.31362 | 9.18971 | 97° | 46km/h | 17026m | 4.0m/s | -61.3°C | 6.7% | 0hPa | 2.6V | 00:00:00 | 01:34:26 | 00:00:00 | |
| IW2NTF | 2026-09-06 00:08:13 | 45.31371 | 9.18853 | 94° | 44km/h | 16997m | 3.6m/s | -61.3°C | 6.6% | 0hPa | 2.6V | 08:30:00 | 01:34:19 | 00:00:00 | |
| DB0ND-19 | 2026-09-06 00:08:11 | 45.31368 | 9.18901 | 97° | 46km/h | 17010m | 3.8m/s | -61.3°C | 2.8% | -1.0hPa | 2.6V | 00:00:00 | 00:00:00 | 00:00:00 | |
| DO3MHA-11 | 2026-09-06 00:08:05 | 45.31374 | 9.18809 | 97° | 46km/h | 16986m | 3.1m/s | -61.3°C | 6.7% | 0hPa | 2.6V | 00:00:00 | 01:34:16 | 00:00:00 | |
| IW2NTF | 2026-09-06 00:08:03 | 45.31381 | 9.18697 | 97° | 49km/h | 16960m | 4.2m/s | -61.7°C | 7% | 0hPa | 2.7V | 08:30:00 | 01:34:09 | 00:00:00 | |
| DO3MHA-11 | 2026-09-06 00:07:55 | 45.31386 | 9.18644 | 102° | 47km/h | 16948m | 4.7m/s | -61.6°C | 7.0% | 0hPa | 2.7V | 00:00:00 | 01:34:06 | 00:00:00 | |
| IW2NTF | 2026-09-06 00:07:53 | 45.31395 | 9.18541 | 93° | 40km/h | 16920m | 4.1m/s | -61.7°C | 7.1% | 0hPa | 2.7V | 08:30:00 | 01:33:59 | 00:00:00 | |
| NBG1-10 | 2026-09-06 00:07:49 | 45.31395 | 9.18555 | 91° | 46km/h | 16925m | 3.9m/s | -61.6°C | 7.1% | 0hPa | 2.6V | 00:00:00 | 01:34:00 | 00:00:00 | |
| DB0UT-7 | 2026-09-06 00:07:45 | 45.31397 | 9.18494 | 95° | 42km/h | 16909m | 3.6m/s | -61.7°C | 7.1% | 0hPa | 2.6V | 00:00:00 | 00:00:00 | 00:00:00 | |
| IW2NTF | 2026-09-06 00:07:43 | 45.31409 | 9.18378 | 98° | 44km/h | 16880m | 4.7m/s | -61.6°C | 7.1% | 0hPa | 2.6V | 08:30:00 | 01:33:49 | 00:00:00 | |
| DO3MHA-11 | 2026-09-06 00:07:40 | 45.31406 | 9.18410 | 98° | 44km/h | 16888m | 3.8m/s | -61.6°C | 7.2% | 0hPa | 2.6V | 00:00:00 | 01:33:51 | 00:00:00 | |
| IW2NTF | 2026-09-06 00:07:33 | 45.31422 | 9.18222 | 96° | 49km/h | 16841m | 4.8m/s | -61.4°C | 7% | 0hPa | 2.6V | 08:30:00 | 01:33:39 | 00:00:00 | |
| DO3MHA-11 | 2026-09-06 00:07:30 | 45.31419 | 9.18256 | 100° | 47km/h | 16849m | 3.3m/s | -61.4°C | 7.0% | 0hPa | 2.7V | 00:00:00 | 01:33:41 | 00:00:00 | |
| IW2NTF | 2026-09-06 00:07:24 | 45.31430 | 9.18051 | 94° | 47km/h | 16800m | 3.3m/s | -61.3°C | 7.1% | 0hPa | 2.6V | 08:30:00 | 01:33:29 | 00:00:00 | |
| DO3MHA-11 | 2026-09-06 00:07:20 | 45.31428 | 9.18085 | 92° | 47km/h | 16809m | 3.6m/s | -61.3°C | 7.0% | 0hPa | 2.6V | 00:00:00 | 01:33:31 | 00:00:00 | |
| NBG1-10 | 2026-09-06 00:07:16 | 45.31430 | 9.18018 | 90° | 42km/h | 16792m | 4.8m/s | -61.3°C | 7.1% | 0hPa | 2.6V | 00:00:00 | 01:33:27 | 00:00:00 | |
| IW2NTF | 2026-09-06 00:07:11 | 45.31427 | 9.17854 | 90° | 42km/h | 16751m | 3.5m/s | -61.3°C | 7.1% | 0hPa | 2.6V | 08:30:00 | 01:33:17 | 00:00:00 | |
| DO3MHA-11 | 2026-09-06 00:07:10 | 45.31427 | 9.17918 | 90° | 44km/h | 16768m | 4.8m/s | -61.3°C | 7.1% | 0hPa | 2.6V | 00:00:00 | 01:33:21 | 00:00:00 | |
| DB0ND-19 | 2026-09-06 00:07:09 | 45.31427 | 9.17901 | 89° | 46km/h | 16763m | 3.9m/s | -61.3°C | -1.0% | -1.0hPa | 2.6V | 00:00:00 | 00:00:00 | 00:00:00 | |
| DO3MHA-11 | 2026-09-06 00:07:00 | 45.31419 | 9.17765 | 87° | 44km/h | 16727m | 3.6m/s | -61.5°C | 7.3% | 0hPa | 2.6V | 00:00:00 | 01:33:11 | 08:30:00 | |
| IW2NTF | 2026-09-06 00:06:55 | 45.31418 | 9.17670 | 91° | 42km/h | 16702m | 3.9m/s | -61.9°C | 7.4% | 0hPa | 2.6V | 08:30:00 | 01:33:05 | 00:00:00 | |
| DO3MHA-11 | 2026-09-06 00:06:50 | 45.31417 | 9.17611 | 87° | 38km/h | 16686m | 3.6m/s | -62.0°C | 7.5% | 0hPa | 2.6V | 00:00:00 | 01:33:01 | 00:00:00 | |
| IW2NTF | 2026-09-06 00:06:45 | 45.31417 | 9.17514 | 94° | 38km/h | 16657m | 4.4m/s | -62°C | 7.5% | 0hPa | 2.6V | 08:30:00 | 01:32:54 | 00:00:00 | |
| NBG1-10 | 2026-09-06 00:06:43 | 45.31417 | 9.17514 | 95° | 40km/h | 16657m | 4.4m/s | 0°C | 0% | 0hPa | 2.6V | 00:00:00 | 01:32:54 | 00:00:00 | |
| DO3MHA-11 | 2026-09-06 00:06:40 | 45.31420 | 9.17475 | 98° | 40km/h | 16645m | 4.7m/s | -62.0°C | 7.5% | 0hPa | 2.6V | 00:00:00 | 01:32:51 | 00:00:00 | |
| IW2NTF | 2026-09-06 00:06:38 | 45.31461 | 9.17201 | 102° | 46km/h | 16573m | 3.5m/s | -62.3°C | 7.9% | 0hPa | 2.6V | 08:30:00 | 01:32:32 | 00:00:00 | |
| DB0UT-7 | 2026-09-06 00:06:35 | 45.31428 | 9.17406 | 101° | 44km/h | 16626m | 4.5m/s | -62.1°C | 7.6% | 0hPa | 2.7V | 00:00:00 | 01:32:46 | 00:00:00 | |
| IW2NTF | 2026-09-06 00:06:31 | 45.31466 | 9.17171 | 99° | 42km/h | 16566m | 3m/s | -62.3°C | 7.8% | 0hPa | 2.7V | 08:30:00 | 01:32:30 | 00:00:00 | |
| DO3MHA-11 | 2026-09-06 00:06:30 | 45.31438 | 9.17335 | 104° | 42km/h | 16607m | 3.1m/s | -62.3°C | 7.8% | 0hPa | 2.7V | 00:00:00 | 01:32:41 | 00:00:00 | |
| DO3MHA-11 | 2026-09-06 00:06:21 | 45.31463 | 9.17186 | 102° | 44km/h | 16569m | 3.8m/s | -62.2°C | 7.8% | 0hPa | 2.6V | 00:00:00 | 01:32:31 | 00:00:00 | |
| IW2NTF | 2026-09-06 00:06:14 | 45.31487 | 9.16980 | 102° | 47km/h | 16522m | 3.7m/s | -62.4°C | 8.1% | 0hPa | 2.6V | 08:30:00 | 01:32:18 | 00:00:00 | |
| NBG1-10 | 2026-09-06 00:06:11 | 45.31479 | 9.17028 | 103° | 47km/h | 16533m | 3.3m/s | 0°C | 0% | 0hPa | 2.6V | 00:00:00 | 01:32:21 | 00:00:00 | |
| DO3MHA-11 | 2026-09-06 00:06:10 | 45.31479 | 9.17028 | 103° | 47km/h | 16533m | 3.3m/s | -62.2°C | 7.9% | 0hPa | 2.6V | 00:00:00 | 01:32:21 | 00:00:00 | |
| DB0UT-7 | 2026-09-06 00:06:06 | 45.31492 | 9.16944 | 97° | 49km/h | 16515m | 3.0m/s | -62.3°C | 8.1% | 0hPa | 2.6V | 00:00:00 | 00:00:00 | 00:00:00 | |
| IW2NTF | 2026-09-06 00:06:00 | 45.31499 | 9.16839 | 98° | 49km/h | 16493m | 3m/s | -62.2°C | 8.2% | 0hPa | 2.6V | 08:30:00 | 01:32:10 | 00:00:00 | |
| DO3MHA-11 | 2026-09-06 00:06:00 | 45.31497 | 9.16857 | 97° | 49km/h | 16497m | 3.9m/s | -62.2°C | 8.2% | 0hPa | 2.6V | 00:00:00 | 01:32:11 | 00:00:00 | |
| IW2NTF | 2026-09-06 00:05:55 | 45.31524 | 9.16670 | 96° | 46km/h | 16456m | 3.7m/s | -61.9°C | 8% | 0hPa | 2.6V | 08:30:00 | 01:32:00 | 00:00:00 | |
| DO3MHA-11 | 2026-09-06 00:05:50 | 45.31523 | 9.16686 | 99° | 47km/h | 16460m | 2.6m/s | -61.9°C | 8.0% | 0hPa | 2.7V | 00:00:00 | 01:32:01 | 00:00:00 | |
| IW2NTF | 2026-09-06 00:05:39 | 45.31544 | 9.16502 | 102° | 51km/h | 16419m | 4.1m/s | -61.5°C | 7.9% | 0hPa | 2.7V | 08:30:00 | 01:31:50 | 00:00:00 | |
| NBG1-10 | 2026-09-06 00:05:36 | 45.31556 | 9.16448 | 111° | 47km/h | 16409m | 3.2m/s | 0°C | 0% | 0hPa | 2.6V | 00:00:00 | 01:31:47 | 00:00:00 | |
| IW2NTF | 2026-09-06 00:05:34 | 45.31571 | 9.16339 | 99° | 47km/h | 16385m | 3.8m/s | -61.4°C | 8% | 0hPa | 2.6V | 08:30:00 | 01:31:40 | 00:00:00 | |
| DO3MHA-11 | 2026-09-06 00:05:30 | 45.31569 | 9.16356 | 97° | 47km/h | 16388m | 3.0m/s | -61.3°C | 7.9% | 0hPa | 2.6V | 00:00:00 | 01:31:41 | 08:30:00 | |
| IW2NTF | 2026-09-06 00:05:20 | 45.31606 | 9.16178 | 105° | 44km/h | 16349m | 4.6m/s | -61.6°C | 7.8% | 0hPa | 2.6V | 08:30:00 | 01:31:30 | 00:00:00 | |
| DO3MHA-11 | 2026-09-06 00:05:20 | 45.31603 | 9.16192 | 108° | 46km/h | 16353m | 2.8m/s | -61.5°C | 7.8% | 0hPa | 2.6V | 00:00:00 | 01:31:31 | 00:00:00 | |
| IW2NTF | 2026-09-06 00:05:13 | 45.31656 | 9.16024 | 122° | 49km/h | 16312m | 4m/s | -61.8°C | 8.2% | 0hPa | 2.6V | 08:30:00 | 01:31:20 | 00:00:00 | |
| DO3MHA-11 | 2026-09-06 00:05:10 | 45.31649 | 9.16040 | 121° | 49km/h | 16317m | 3.7m/s | -61.7°C | 8.2% | 0hPa | 2.7V | 00:00:00 | 01:31:21 | 00:00:00 | |
| IW2NTF | 2026-09-06 00:05:00 | 45.31715 | 9.15873 | 119° | 49km/h | 16279m | 4.1m/s | -62.2°C | 8.3% | 0hPa | 2.7V | 08:30:00 | 01:31:10 | 00:00:00 | |
| IW2NTF | 2026-09-06 00:04:54 | 45.31789 | 9.15721 | 124° | 57km/h | 16246m | 4m/s | -62.8°C | 8.8% | 0hPa | 2.7V | 08:30:00 | 01:31:00 | 00:00:00 | |
| DB0UT-7 | 2026-09-06 00:04:52 | 45.31764 | 9.15767 | 127° | 62km/h | 16256m | 3.8m/s | -62.7°C | 8.7% | 0hPa | 2.6V | 00:00:00 | 01:31:03 | 00:00:00 | |
| DO3MHA-11 | 2026-09-06 00:04:50 | 45.31780 | 9.15737 | 128° | 58km/h | 16249m | 3.1m/s | -62.7°C | 8.8% | 0hPa | 2.6V | 00:00:00 | 01:31:01 | 00:00:00 | |
| IW2NTF | 2026-09-06 00:04:41 | 45.31871 | 9.15545 | 125° | 62km/h | 16211m | 3.7m/s | -63°C | 9.1% | 0hPa | 2.6V | 08:30:00 | 01:30:50 | 00:00:00 | |
| DO3MHA-11 | 2026-09-06 00:04:40 | 45.31862 | 9.15564 | 124° | 64km/h | 16216m | 3.7m/s | -62.9°C | 9.0% | 0hPa | 2.6V | 00:00:00 | 01:30:51 | 00:00:00 | |
| IW2NTF | 2026-09-06 00:04:33 | 45.31955 | 9.15346 | 116° | 62km/h | 16177m | 3.5m/s | -63°C | 9.1% | 0hPa | 2.6V | 08:30:00 | 01:30:40 | 00:00:00 | |
| DO3MHA-11 | 2026-09-06 00:04:30 | 45.31947 | 9.15366 | 118° | 64km/h | 16181m | 4.4m/s | -62.9°C | 9.1% | 0hPa | 2.6V | 00:00:00 | 01:30:41 | 00:00:00 | |
| DB0UT-7 | 2026-09-06 00:04:22 | 45.32005 | 9.15203 | 115° | 66km/h | 16152m | 2.8m/s | -63.0°C | 9.0% | 0hPa | 2.7V | 00:00:00 | 00:00:00 | 00:00:00 | |
| IW2NTF | 2026-09-06 00:04:20 | 45.32027 | 9.15136 | 115° | 71km/h | 16141m | 3.7m/s | -63°C | 8.9% | 0hPa | 2.7V | 08:30:00 | 01:30:30 | 00:00:00 | |
| DO3MHA-11 | 2026-09-06 00:04:20 | 45.32020 | 9.15159 | 117° | 66km/h | 16145m | 3.3m/s | -63.0°C | 8.9% | 0hPa | 2.7V | 00:00:00 | 01:30:31 | 00:00:00 | |
| IW2NTF | 2026-09-06 00:04:15 | 45.32089 | 9.14922 | 112° | 64km/h | 16102m | 3.9m/s | -63.5°C | 9.2% | 0hPa | 2.7V | 08:30:00 | 01:30:20 | 00:00:00 | |
| DO3MHA-11 | 2026-09-06 00:04:10 | 45.32083 | 9.14942 | 112° | 66km/h | 16107m | 4.5m/s | -63.2°C | 9.0% | 0hPa | 2.6V | 00:00:00 | 01:30:21 | 00:00:00 | |
| IW2NTF | 2026-09-06 00:04:04 | 45.32148 | 9.14698 | 107° | 68km/h | 16062m | 4.5m/s | -64.6°C | 10% | 0hPa | 2.6V | 08:30:00 | 01:30:10 | 00:00:00 | |
| IW2NTF | 2026-09-06 00:03:55 | 45.32198 | 9.14485 | 104° | 57km/h | 16020m | 3.2m/s | -64.4°C | 10.2% | 0hPa | 2.6V | 08:30:00 | 01:30:00 | 00:00:00 | |
| DB0UT-7 | 2026-09-06 00:03:52 | 45.32185 | 9.14543 | 111° | 55km/h | 16032m | 3.5m/s | -64.5°C | 10.3% | 0hPa | 2.6V | 00:00:00 | 01:30:03 | 00:00:00 | |
| IW2NTF | 2026-09-06 00:03:41 | 45.32243 | 9.14296 | 108° | 53km/h | 15979m | 4.1m/s | -64°C | 10.2% | 0hPa | 2.6V | 08:30:00 | 01:29:50 | 00:00:00 | |
| DO3MHA-11 | 2026-09-06 00:03:40 | 45.32238 | 9.14314 | 110° | 53km/h | 15983m | 3.8m/s | -64.0°C | 10.3% | 0hPa | 2.6V | 00:00:00 | 01:29:51 | 00:00:00 | |
| IW2NTF | 2026-09-06 00:03:31 | 45.32292 | 9.14123 | 113° | 55km/h | 15935m | 4m/s | -63.8°C | 10.2% | 0hPa | 2.6V | 08:30:00 | 01:29:40 | 00:00:00 | |
| DO3MHA-11 | 2026-09-06 00:03:30 | 45.32287 | 9.14141 | 113° | 53km/h | 15940m | 5.4m/s | -63.7°C | 10.2% | 0hPa | 2.7V | 00:00:00 | 01:29:41 | 00:00:00 | |
| DB0UT-7 | 2026-09-06 00:03:24 | 45.32325 | 9.14000 | 117° | 46km/h | 15904m | 4.0m/s | -63.6°C | 10.2% | 0hPa | 2.6V | 00:00:00 | 00:00:00 | 08:30:00 | |
| IW2NTF | 2026-09-06 00:03:22 | 45.32347 | 9.13935 | 115° | 51km/h | 15886m | 4.9m/s | -63.5°C | 10% | 0hPa | 2.6V | 08:30:00 | 01:29:29 | 00:00:00 | |
| DO3MHA-11 | 2026-09-06 00:03:15 | 45.32380 | 9.13803 | 112° | 44km/h | 15850m | 3.9m/s | -63.3°C | 9.7% | 0hPa | 2.6V | 00:00:00 | 01:29:21 | 00:00:00 | |
| DB0ND-19 | 2026-09-06 00:03:10 | 45.32571 | 9.13345 | 127° | 51km/h | 15698m | 5.7m/s | -63.8°C | 6.1% | -1.0hPa | 2.6V | 00:00:00 | 00:00:00 | 00:00:00 | |
| DO3MHA-11 | 2026-09-06 00:03:08 | 45.32424 | 9.13655 | 110° | 44km/h | 15804m | 4.9m/s | -63.7°C | 10.4% | 0hPa | 2.6V | 00:00:00 | 01:29:11 | 00:00:00 | |
| IW2NTF | 2026-09-06 00:03:02 | 45.32424 | 9.13655 | 109° | 49km/h | 15804m | 4.9m/s | -63.8°C | 10.4% | 0hPa | 2.6V | 08:30:00 | 01:29:11 | 00:00:00 | |
| DO3MHA-11 | 2026-09-06 00:02:59 | 45.32477 | 9.13522 | 132° | 51km/h | 15757m | 5.4m/s | -64.1°C | 10.7% | 0hPa | 2.6V | 00:00:00 | 01:29:01 | 00:00:00 | |
| IW2NTF | 2026-09-06 00:02:52 | 45.32478 | 9.13522 | 131° | 46km/h | 15756m | 5.4m/s | -64.1°C | 10.7% | 0hPa | 2.6V | 08:30:00 | 01:29:01 | 00:00:00 | |
| DO3MHA-11 | 2026-09-06 00:02:50 | 45.32555 | 9.13374 | 129° | 55km/h | 15708m | 5.0m/s | -63.8°C | 10.9% | 0hPa | 2.6V | 00:00:00 | 01:28:51 | 00:00:00 | |
| IW2NTF | 2026-09-06 00:02:42 | 45.32555 | 9.13374 | 128° | 53km/h | 15708m | 5m/s | -63.8°C | 10.9% | 0hPa | 2.6V | 08:30:00 | 01:28:51 | 00:00:00 | |
| DB0ND-19 | 2026-09-06 00:02:34 | 45.32633 | 9.13214 | 123° | 55km/h | 15657m | 5.0m/s | -63.7°C | 6.3% | -1.0hPa | 2.6V | 00:00:00 | 00:00:00 | 00:00:00 | |
| DO3MHA-11 | 2026-09-06 00:02:33 | 45.32633 | 9.13214 | 124° | 55km/h | 15657m | 4.9m/s | -63.7°C | 11.1% | 0hPa | 2.6V | 00:00:00 | 01:28:41 | 08:30:00 | |
| IW2NTF | 2026-09-06 00:02:32 | 45.32633 | 9.13214 | 123° | 55km/h | 15657m | 5m/s | -63.7°C | 11.1% | 0hPa | 2.6V | 08:30:00 | 01:28:41 | 00:00:00 | |
| DB0UT-7 | 2026-09-06 00:02:23 | 45.32692 | 9.13084 | 121° | 64km/h | 15617m | 4.4m/s | -63.8°C | 11.5% | 0hPa | 2.7V | 00:00:00 | 00:00:00 | 00:00:00 | |
| IW2NTF | 2026-09-06 00:02:21 | 45.32732 | 9.12973 | 118° | 58km/h | 15587m | 4.5m/s | -63.7°C | 11.5% | 0hPa | 2.7V | 08:30:00 | 01:28:27 | 00:00:00 | |
| DO3MHA-11 | 2026-09-06 00:02:21 | 45.32706 | 9.13049 | 117° | 60km/h | 15607m | 5.7m/s | -63.8°C | 11.6% | 0hPa | 2.6V | 00:00:00 | 01:28:31 | 00:00:00 | |
| IW2NTF | 2026-09-06 00:02:12 | 45.32811 | 9.12777 | 119° | 64km/h | 15535m | 6m/s | -63.5°C | 11.5% | 0hPa | 2.6V | 08:30:00 | 01:28:17 | 00:00:00 | |
| DO3MHA-11 | 2026-09-06 00:02:11 | 45.32778 | 9.12859 | 122° | 66km/h | 15556m | 4.5m/s | -63.6°C | 11.6% | 0hPa | 2.7V | 00:00:00 | 01:28:21 | 00:00:00 | |
| IW2NTF | 2026-09-06 00:02:01 | 45.32893 | 9.12565 | 116° | 71km/h | 15482m | 4.1m/s | -63.5°C | 12% | 0hPa | 2.7V | 08:30:00 | 01:28:07 | 00:00:00 | |
| DB0ND-19 | 2026-09-06 00:02:00 | 45.32867 | 9.12633 | 119° | 69km/h | 15498m | 4.7m/s | -63.5°C | 7.0% | -1.0hPa | 2.6V | 00:00:00 | 00:00:00 | 00:00:00 | |
| DB0UT-7 | 2026-09-06 00:01:56 | 45.32924 | 9.12475 | 116° | 64km/h | 15462m | 5.2m/s | -63.7°C | 12.4% | 0hPa | 2.6V | 00:00:00 | 01:28:03 | 00:00:00 | |
| DO3MHA-11 | 2026-09-06 00:01:55 | 45.32938 | 9.12431 | 112° | 68km/h | 15452m | 4.4m/s | -63.7°C | 12.6% | 0hPa | 2.6V | 00:00:00 | 01:28:01 | 00:00:00 | |
| IW2NTF | 2026-09-06 00:01:53 | 45.32965 | 9.12343 | 115° | 69km/h | 15432m | 5.6m/s | -64°C | 12.5% | 0hPa | 2.6V | 08:30:00 | 01:27:57 | 00:00:00 | |
| DO3MHA-11 | 2026-09-06 00:01:45 | 45.33013 | 9.12213 | 118° | 62km/h | 15403m | 4.6m/s | -64.0°C | 13.0% | 0hPa | 2.6V | 00:00:00 | 01:27:51 | 00:00:00 | |
| IW2NTF | 2026-09-06 00:01:41 | 45.33043 | 9.12131 | 117° | 64km/h | 15384m | 3.7m/s | -64.1°C | 13.1% | 0hPa | 2.6V | 08:30:00 | 01:27:47 | 00:00:00 | |
| DO3MHA-11 | 2026-09-06 00:01:33 | 45.33082 | 9.12011 | 115° | 62km/h | 15358m | 4.0m/s | -64.0°C | 13.1% | 0hPa | 2.6V | 00:00:00 | 01:27:41 | 00:00:00 | |
| DB0ND-19 | 2026-09-06 00:01:32 | 45.33100 | 9.11951 | 111° | 60km/h | 15344m | 3.7m/s | -64.5°C | 8.6% | -1.0hPa | 2.6V | 00:00:00 | 00:00:00 | 00:00:00 | |
| IW2NTF | 2026-09-06 00:01:32 | 45.33106 | 9.11930 | 113° | 62km/h | 15340m | 5m/s | -64.6°C | 13.9% | 0hPa | 2.6V | 08:30:00 | 01:27:37 | 00:00:00 | |
| DB0UT-7 | 2026-09-06 00:01:25 | 45.33132 | 9.11848 | 113° | 58km/h | 15323m | 3.6m/s | -64.7°C | 14.7% | 0hPa | 2.6V | 00:00:00 | 00:00:00 | 00:00:00 | |
| IW2NTF | 2026-09-06 00:01:22 | 45.33166 | 9.11719 | 108° | 64km/h | 15298m | 3.9m/s | -65°C | 14.9% | 0hPa | 2.6V | 08:30:00 | 01:27:27 | 00:00:00 | |
| IW2NTF | 2026-09-06 00:01:12 | 45.33212 | 9.11520 | 110° | 55km/h | 15257m | 4m/s | -65.4°C | 15.7% | 0hPa | 2.6V | 08:30:00 | 01:27:17 | 00:00:00 | |
| DO3MHA-11 | 2026-09-06 00:01:12 | 45.33194 | 9.11594 | 108° | 57km/h | 15275m | 3.4m/s | -65.3°C | 15.5% | 0hPa | 2.7V | 00:00:00 | 01:27:21 | 00:00:00 | |
| IW2NTF | 2026-09-06 00:01:02 | 45.33266 | 9.11334 | 112° | 53km/h | 15219m | 3.2m/s | -65.6°C | 16.8% | 0hPa | 2.7V | 08:30:00 | 01:27:07 | 00:00:00 | |
| DO3MHA-11 | 2026-09-06 00:01:01 | 45.33244 | 9.11407 | 113° | 57km/h | 15234m | 3.5m/s | -65.5°C | 16.3% | 0hPa | 2.6V | 00:00:00 | 01:27:11 | 08:30:00 | |
| DB0ND-19 | 2026-09-06 00:00:59 | 45.33260 | 9.11352 | 112° | 53km/h | 15222m | 3.2m/s | -65.6°C | 10.9% | -1.0hPa | 2.6V | 00:00:00 | 00:00:00 | 00:00:00 | |
| IW2NTF | 2026-09-06 00:00:52 | 45.33336 | 9.11156 | 125° | 55km/h | 15181m | 3.6m/s | -65.8°C | 18.2% | 0hPa | 2.6V | 08:30:00 | 01:26:57 | 00:00:00 | |
| DO3MHA-11 | 2026-09-06 00:00:50 | 45.33304 | 9.11225 | 122° | 57km/h | 15196m | 3.8m/s | -65.7°C | 17.9% | 0hPa | 2.6V | 00:00:00 | 01:27:01 | 00:00:00 | |
| DO3MHA-11 | 2026-09-06 00:00:44 | 45.33380 | 9.11057 | 123° | 60km/h | 15161m | 2.7m/s | -65.6°C | 18.4% | 0hPa | 2.6V | 00:00:00 | 01:26:51 | 00:00:00 | |
| IW2NTF | 2026-09-06 00:00:41 | 45.33428 | 9.10950 | 121° | 62km/h | 15140m | 2.8m/s | -65.7°C | 18.9% | 0hPa | 2.6V | 08:30:00 | 01:26:45 | 00:00:00 | |
| DO3MHA-11 | 2026-09-06 00:00:30 | 45.33457 | 9.10872 | 118° | 60km/h | 15127m | 3.6m/s | -65.6°C | 19.4% | 0hPa | 2.7V | 00:00:00 | 01:26:41 | 00:00:00 | |
| IW2NTF | 2026-09-06 00:00:29 | 45.33511 | 9.10722 | 116° | 60km/h | 15102m | 3m/s | -65.7°C | 20.3% | 0hPa | 2.6V | 08:30:00 | 01:26:33 | 00:00:00 | |
| DB0ND-19 | 2026-09-06 00:00:27 | 45.33491 | 9.10779 | 116° | 58km/h | 15111m | 2.8m/s | -65.7°C | 13.8% | -1.0hPa | 2.6V | 00:00:00 | 00:00:00 | 00:00:00 | |
| DB0UT-7 | 2026-09-06 00:00:22 | 45.33511 | 9.10722 | 117° | 62km/h | 15102m | 2.9m/s | -65.7°C | 20.3% | 0hPa | 2.6V | 00:00:00 | 00:00:00 | 00:00:00 | |
| DO3MHA-11 | 2026-09-06 00:00:21 | 45.33525 | 9.10681 | 115° | 62km/h | 15095m | 2.5m/s | -65.7°C | 20.4% | 0hPa | 2.7V | 00:00:00 | 01:26:31 | 00:00:00 | |
| IW2NTF | 2026-09-06 00:00:16 | 45.33577 | 9.10517 | 115° | 58km/h | 15070m | 3.3m/s | -66°C | 21.7% | 0hPa | 2.7V | 08:30:00 | 01:26:23 | 00:00:00 | |
| DO3MHA-11 | 2026-09-06 00:00:11 | 45.33589 | 9.10479 | 115° | 60km/h | 15065m | 3.3m/s | -66.0°C | 21.8% | 0hPa | 2.7V | 00:00:00 | 01:26:21 | 00:00:00 | |
| IW2NTF | 2026-09-06 00:00:04 | 45.33639 | 9.10319 | 116° | 62km/h | 15039m | 3.9m/s | -66.2°C | 23.1% | 0hPa | 2.7V | 08:30:00 | 01:26:13 | 00:00:00 | |
| DO3MHA-11 | 2026-09-06 00:00:00 | 45.33653 | 9.10279 | 118° | 62km/h | 15034m | 2.6m/s | -66.4°C | 23.9% | 0hPa | 2.7V | 00:00:00 | 01:26:11 | 00:00:00 | |
| DB0ND-19 | 2026-09-05 23:59:55 | 45.33691 | 9.10158 | 109° | 60km/h | 15014m | 4.2m/s | -67.0°C | 19.1% | -1.0hPa | 2.6V | 00:00:00 | 00:00:00 | 00:00:00 | |
| IW2NTF | 2026-09-05 23:59:54 | 45.33701 | 9.10118 | 107° | 58km/h | 15008m | 3.2m/s | -67°C | 26.5% | 0hPa | 2.6V | 08:30:00 | 01:26:03 | 00:00:00 | |
| DB0UT-7 | 2026-09-05 23:59:52 | 45.33701 | 9.10117 | 108° | 58km/h | 15008m | 3.1m/s | -67.0°C | 26.5% | 0hPa | 2.6V | 00:00:00 | 01:26:03 | 00:00:00 | |
| DO3MHA-11 | 2026-09-05 23:59:50 | 45.33710 | 9.10077 | 111° | 58km/h | 15001m | 3.0m/s | -67.0°C | 26.7% | 0hPa | 2.6V | 00:00:00 | 01:26:01 | 00:00:00 | |
| IW2NTF | 2026-09-05 23:59:44 | 45.33756 | 9.09920 | 110° | 57km/h | 14973m | 4.2m/s | -67.3°C | 28.3% | 0hPa | 2.6V | 08:30:00 | 01:25:53 | 00:00:00 | |
| DO3MHA-11 | 2026-09-05 23:59:40 | 45.33766 | 9.09881 | 110° | 60km/h | 14966m | 3.9m/s | -67.3°C | 28.9% | 0hPa | 2.7V | 00:00:00 | 01:25:51 | 00:00:00 | |
| IW2NTF | 2026-09-05 23:59:34 | 45.33804 | 9.09715 | 105° | 64km/h | 14937m | 3.4m/s | -67.3°C | 30.1% | 0hPa | 2.7V | 08:30:00 | 01:25:43 | 00:00:00 | |
| DO3MHA-11 | 2026-09-05 23:59:30 | 45.33812 | 9.09672 | 105° | 57km/h | 14929m | 3.9m/s | -67.2°C | 30.6% | 0hPa | 2.6V | 00:00:00 | 01:25:41 | 08:30:00 | |
| DB0ND-19 | 2026-09-05 23:59:24 | 45.33833 | 9.09534 | 99° | 51km/h | 14902m | 3.4m/s | -67.1°C | -1.0% | -1.0hPa | 2.7V | 00:00:00 | 00:00:00 | 00:00:00 | |
| IW2NTF | 2026-09-05 23:59:23 | 45.33836 | 9.09515 | 101° | 53km/h | 14899m | 3.5m/s | -67°C | 31.6% | 0hPa | 2.7V | 08:30:00 | 01:25:33 | 00:00:00 | |
| DB0UT-7 | 2026-09-05 23:59:22 | 45.33836 | 9.09515 | 102° | 51km/h | 14899m | 3.4m/s | -67.0°C | 31.6% | 0hPa | 2.7V | 00:00:00 | 00:00:00 | 00:00:00 | |
| DO3MHA-11 | 2026-09-05 23:59:19 | 45.33847 | 9.09457 | 107° | 53km/h | 14887m | 3.6m/s | -66.9°C | 32.1% | 0hPa | 2.7V | 00:00:00 | 01:25:30 | 00:00:00 | |
| IW2NTF | 2026-09-05 23:59:13 | 45.33877 | 9.09330 | 107° | 49km/h | 14857m | 4.7m/s | -66.7°C | 33.1% | 0hPa | 2.7V | 08:30:00 | 01:25:23 | 00:00:00 | |
| DO3MHA-11 | 2026-09-05 23:59:09 | 45.33886 | 9.09279 | 104° | 51km/h | 14844m | 4.7m/s | -66.6°C | 33.7% | 0hPa | 2.7V | 00:00:00 | 01:25:20 | 00:00:00 | |
| IW2NTF | 2026-09-05 23:59:03 | 45.33909 | 9.09155 | 107° | 53km/h | 14814m | 4.2m/s | -66.5°C | 34.7% | 0hPa | 2.7V | 08:30:00 | 01:25:13 | 00:00:00 | |
| DO3MHA-11 | 2026-09-05 23:58:59 | 45.33921 | 9.09101 | 107° | 47km/h | 14801m | 3.6m/s | -66.4°C | 35.8% | 0hPa | 2.6V | 00:00:00 | 01:25:10 | 00:00:00 | |
| IW2NTF | 2026-09-05 23:58:54 | 45.33943 | 9.08984 | 103° | 47km/h | 14771m | 4.5m/s | -66.5°C | 38.5% | 0hPa | 2.7V | 08:30:00 | 01:25:03 | 00:00:00 | |
| DB0ND-19 | 2026-09-05 23:58:53 | 45.33943 | 9.08984 | 103° | 47km/h | 14771m | 4.5m/s | 0°C | -1.0% | -1.0hPa | 2.7V | 00:00:00 | 00:00:00 | 00:00:00 | |
| DB0UT-7 | 2026-09-05 23:58:52 | 45.33943 | 9.08984 | 104° | 42km/h | 14771m | 4.4m/s | -66.4°C | 38.5% | 0hPa | 2.7V | 00:00:00 | 01:25:03 | 08:30:00 | |
| DO3MHA-11 | 2026-09-05 23:58:49 | 45.33951 | 9.08935 | 105° | 46km/h | 14758m | 4.8m/s | -66.3°C | 39.2% | 0hPa | 2.7V | 00:00:00 | 01:25:00 | 00:00:00 | |
| IW2NTF | 2026-09-05 23:58:43 | 45.33970 | 9.08822 | 97° | 42km/h | 14728m | 4.1m/s | -66.7°C | 40% | 0hPa | 2.7V | 08:30:00 | 01:24:53 | 00:00:00 | |
| DO3MHA-11 | 2026-09-05 23:58:39 | 45.33975 | 9.08778 | 102° | 42km/h | 14715m | 4.0m/s | -66.7°C | 40.8% | 0hPa | 2.8V | 00:00:00 | 01:24:50 | 00:00:00 | |
| IW2NTF | 2026-09-05 23:58:33 | 45.33996 | 9.08674 | 110° | 42km/h | 14683m | 4m/s | -66.9°C | 43.1% | 0hPa | 2.8V | 08:30:00 | 01:24:43 | 00:00:00 | |
| DO3MHA-11 | 2026-09-05 23:58:29 | 45.34008 | 9.08633 | 111° | 42km/h | 14670m | 4.2m/s | -67.0°C | 44.2% | 0hPa | 2.6V | 00:00:00 | 01:24:40 | 00:00:00 | |
| IW2NTF | 2026-09-05 23:58:24 | 45.34033 | 9.08534 | 109° | 42km/h | 14639m | 4m/s | -67.5°C | 46.1% | 0hPa | 2.7V | 08:30:00 | 01:24:33 | 00:00:00 | |
| DO3MHA-11 | 2026-09-05 23:58:19 | 45.34044 | 9.08495 | 117° | 38km/h | 14625m | 4.2m/s | -67.8°C | 47.8% | 0hPa | 2.7V | 00:00:00 | 01:24:30 | 00:00:00 | |
| IW2NTF | 2026-09-05 23:58:14 | 45.34076 | 9.08409 | 117° | 38km/h | 14593m | 5.1m/s | -68.7°C | 51.4% | 0hPa | 2.7V | 08:30:00 | 01:24:23 | 00:00:00 | |
| DO3MHA-11 | 2026-09-05 23:58:09 | 45.34090 | 9.08373 | 123° | 42km/h | 14579m | 5.4m/s | -68.7°C | 52.3% | 0hPa | 2.6V | 00:00:00 | 01:24:20 | 00:00:00 | |
| IW2NTF | 2026-09-05 23:58:03 | 45.34134 | 9.08290 | 127° | 44km/h | 14546m | 4.8m/s | -68.9°C | 52.9% | 0hPa | 2.6V | 08:30:00 | 01:24:13 | 00:00:00 | |
| DB0UT-7 | 2026-09-05 23:58:00 | 45.34147 | 9.08265 | 124° | 46km/h | 14536m | 5.1m/s | -68.9°C | 52.8% | 0hPa | 2.7V | 00:00:00 | 00:00:00 | 00:00:00 | |
| DO3MHA-11 | 2026-09-05 23:57:59 | 45.34153 | 9.08252 | 125° | 44km/h | 14531m | 4.5m/s | -68.9°C | 52.8% | 0hPa | 2.7V | 00:00:00 | 01:24:10 | 08:30:00 | |
| IW2NTF | 2026-09-05 23:57:53 | 45.34193 | 9.08160 | 121° | 46km/h | 14499m | 4.9m/s | -69.5°C | 55.9% | 0hPa | 2.6V | 08:30:00 | 01:24:03 | 00:00:00 | |
| DO3MHA-11 | 2026-09-05 23:57:49 | 45.34212 | 9.08120 | 126° | 46km/h | 14485m | 5.3m/s | -69.5°C | 56.3% | 0hPa | 2.7V | 00:00:00 | 01:24:00 | 00:00:00 | |
| IW2NTF | 2026-09-05 23:57:47 | 45.34258 | 9.08026 | 119° | 47km/h | 14452m | 4.9m/s | -69.5°C | 56.1% | 0hPa | 2.7V | 08:30:00 | 01:23:53 | 00:00:00 | |
| DO3MHA-11 | 2026-09-05 23:57:39 | 45.34275 | 9.07982 | 122° | 47km/h | 14438m | 4.5m/s | -69.5°C | 55.8% | 0hPa | 2.8V | 00:00:00 | 01:23:50 | 00:00:00 | |
| IW2NTF | 2026-09-05 23:57:33 | 45.34323 | 9.07882 | 125° | 46km/h | 14407m | 3.7m/s | -69.5°C | 55.2% | 0hPa | 2.8V | 08:30:00 | 01:23:43 | 00:00:00 | |
| DB0UT-7 | 2026-09-05 23:57:30 | 45.34335 | 9.07853 | 119° | 49km/h | 14397m | 4.7m/s | -69.3°C | 55.2% | 0hPa | 2.6V | 00:00:00 | 01:23:41 | 00:00:00 | |
| DO3MHA-11 | 2026-09-05 23:57:29 | 45.34341 | 9.07838 | 117° | 49km/h | 14392m | 4.7m/s | -69.3°C | 55.1% | 0hPa | 2.6V | 00:00:00 | 01:23:40 | 00:00:00 | |
| IW2NTF | 2026-09-05 23:57:23 | 45.34381 | 9.07727 | 122° | 49km/h | 14361m | 3.5m/s | -69.1°C | 53.4% | 0hPa | 2.6V | 08:30:00 | 01:23:33 | 00:00:00 | |
| DO3MHA-11 | 2026-09-05 23:57:19 | 45.34401 | 9.07680 | 122° | 51km/h | 14349m | 4.1m/s | -69.1°C | 53.3% | 0hPa | 2.6V | 00:00:00 | 01:23:30 | 00:00:00 | |
| IW2NTF | 2026-09-05 23:57:13 | 45.34445 | 9.07569 | 112° | 49km/h | 14319m | 4.3m/s | -69.1°C | 53.1% | 0hPa | 2.6V | 08:30:00 | 01:23:23 | 00:00:00 | |
| DO3MHA-11 | 2026-09-05 23:57:09 | 45.34458 | 9.07518 | 110° | 49km/h | 14307m | 4.7m/s | -69.0°C | 52.7% | 0hPa | 2.6V | 00:00:00 | 01:23:20 | 00:00:00 | |
| IW2NTF | 2026-09-05 23:57:04 | 45.34492 | 9.07406 | 114° | 46km/h | 14282m | 3.8m/s | -68.9°C | 51.5% | 0hPa | 2.6V | 08:30:00 | 01:23:13 | 00:00:00 | |
| DB0UT-7 | 2026-09-05 23:57:00 | 45.34501 | 9.07374 | 115° | 53km/h | 14275m | 3.5m/s | -68.8°C | 51.1% | 0hPa | 2.7V | 00:00:00 | 00:00:00 | 00:00:00 | |
| DO3MHA-11 | 2026-09-05 23:56:59 | 45.34507 | 9.07358 | 116° | 53km/h | 14271m | 4.3m/s | -68.8°C | 51.1% | 0hPa | 2.7V | 00:00:00 | 01:23:10 | 00:00:00 | |
| IW2NTF | 2026-09-05 23:56:54 | 45.34545 | 9.07232 | 112° | 53km/h | 14245m | 3m/s | -68.7°C | 50.2% | 0hPa | 2.7V | 08:30:00 | 01:23:03 | 00:00:00 | |
| DO3MHA-11 | 2026-09-05 23:56:49 | 45.34559 | 9.07180 | 110° | 53km/h | 14234m | 3.6m/s | -68.6°C | 49.5% | 0hPa | 2.6V | 00:00:00 | 01:23:00 | 00:00:00 | |
| IW2NTF | 2026-09-05 23:56:43 | 45.34591 | 9.07059 | 109° | 53km/h | 14211m | 2.5m/s | -68.4°C | 48.7% | 0hPa | 2.6V | 08:30:00 | 01:22:53 | 00:00:00 | |
| DO3MHA-11 | 2026-09-05 23:56:39 | 45.34608 | 9.07003 | 113° | 55km/h | 14202m | 2.7m/s | -68.3°C | 47.8% | 0hPa | 2.8V | 00:00:00 | 01:22:50 | 00:00:00 | |
| IW2NTF | 2026-09-05 23:56:33 | 45.34640 | 9.06869 | 108° | 49km/h | 14183m | 2.5m/s | -68.2°C | 46.2% | 0hPa | 2.8V | 08:30:00 | 01:22:43 | 00:00:00 | |
| DB0UT-7 | 2026-09-05 23:56:30 | 45.34647 | 9.06835 | 105° | 57km/h | 14178m | 2.6m/s | -68.2°C | 45.9% | 0hPa | 2.6V | 00:00:00 | 01:22:41 | 00:00:00 | |
| DO3MHA-11 | 2026-09-05 23:56:29 | 45.34650 | 9.06818 | 106° | 55km/h | 14175m | 2.4m/s | -68.2°C | 45.7% | 0hPa | 2.6V | 00:00:00 | 01:22:40 | 08:30:00 | |
| IW2NTF | 2026-09-05 23:56:23 | 45.34678 | 9.06687 | 107° | 58km/h | 14156m | 2.8m/s | -68.5°C | 45.9% | 0hPa | 2.6V | 08:30:00 | 01:22:33 | 00:00:00 | |
| DO3MHA-11 | 2026-09-05 23:56:19 | 45.34690 | 9.06627 | 106° | 53km/h | 14148m | 2.0m/s | -68.5°C | 47.3% | 0hPa | 2.8V | 00:00:00 | 01:22:30 | 00:00:00 | |
| IW2NTF | 2026-09-05 23:56:13 | 45.34715 | 9.06502 | 109° | 57km/h | 14129m | 3.6m/s | -68.6°C | 47.4% | 0hPa | 2.8V | 08:30:00 | 01:22:23 | 00:00:00 | |
| DO3MHA-11 | 2026-09-05 23:56:09 | 45.34731 | 9.06441 | 112° | 58km/h | 14121m | 3.6m/s | -68.5°C | 44.9% | 0hPa | 2.6V | 00:00:00 | 01:22:20 | 00:00:00 | |
| IW2NTF | 2026-09-05 23:56:03 | 45.34766 | 9.06285 | 105° | 53km/h | 14090m | 5.2m/s | -68.3°C | 47% | 0hPa | 2.6V | 08:30:00 | 01:22:13 | 00:00:00 | |
| DB0UT-7 | 2026-09-05 23:56:00 | 45.34771 | 9.06248 | 95° | 64km/h | 14080m | 6.0m/s | -68.1°C | 47.7% | 0hPa | 2.6V | 00:00:00 | 00:00:00 | 00:00:00 | |
| DO3MHA-11 | 2026-09-05 23:55:59 | 45.34771 | 9.06227 | 92° | 68km/h | 14074m | 5.2m/s | -68.1°C | 47.3% | 0hPa | 2.6V | 00:00:00 | 01:22:10 | 00:00:00 | |
| IW2NTF | 2026-09-05 23:55:54 | 45.34786 | 9.06058 | 106° | 71km/h | 14030m | 3.9m/s | -67.8°C | 42.9% | 0hPa | 2.8V | 08:30:00 | 01:22:03 | 00:00:00 | |
| DO3MHA-11 | 2026-09-05 23:55:49 | 45.34792 | 9.05988 | 85° | 53km/h | 14017m | 5.9m/s | -67.7°C | 42.7% | 0hPa | 2.6V | 00:00:00 | 01:22:00 | 00:00:00 | |
| IW2NTF | 2026-09-05 23:55:43 | 45.34765 | 9.05860 | 83° | 46km/h | 13987m | 4.5m/s | -67.5°C | 42.2% | 0hPa | 2.6V | 08:30:00 | 01:21:53 | 00:00:00 | |
| DO3MHA-11 | 2026-09-05 23:55:39 | 45.34761 | 9.05803 | 83° | 68km/h | 13973m | 3.7m/s | -67.3°C | 42.7% | 0hPa | 2.8V | 00:00:00 | 01:21:50 | 00:00:00 | |
| IW2NTF | 2026-09-05 23:55:33 | 45.34734 | 9.05625 | 86° | 62km/h | 13947m | 3m/s | -67.1°C | 41% | 0hPa | 2.8V | 08:30:00 | 01:21:43 | 00:00:00 | |
| DB0UT-7 | 2026-09-05 23:55:30 | 45.34734 | 9.05584 | 92° | 58km/h | 13938m | 7.3m/s | -67.0°C | 39.3% | 0hPa | 2.6V | 00:00:00 | 01:21:41 | 00:00:00 | |
| DO3MHA-11 | 2026-09-05 23:55:29 | 45.34734 | 9.05567 | 91° | 60km/h | 13929m | 9.0m/s | -67.0°C | 39.5% | 0hPa | 2.6V | 00:00:00 | 01:21:40 | 00:00:00 | |
| IW2NTF | 2026-09-05 23:55:23 | 45.34719 | 9.05426 | 81° | 71km/h | 13890m | 5.1m/s | -67°C | 40.2% | 0hPa | 2.8V | 08:30:00 | 01:21:33 | 00:00:00 | |
| DO3MHA-11 | 2026-09-05 23:55:19 | 45.34712 | 9.05353 | 81° | 62km/h | 13878m | 4.2m/s | -66.9°C | 40.1% | 0hPa | 2.6V | 00:00:00 | 01:21:30 | 00:00:00 | |
| IW2NTF | 2026-09-05 23:55:13 | 45.34692 | 9.05195 | 85° | 55km/h | 13846m | 3.8m/s | -66.8°C | 40.6% | 0hPa | 2.6V | 08:30:00 | 01:21:23 | 00:00:00 | |
| DO3MHA-11 | 2026-09-05 23:55:09 | 45.34686 | 9.05140 | 76° | 53km/h | 13833m | 4.1m/s | -66.7°C | 39.6% | 0hPa | 2.8V | 00:00:00 | 01:21:20 | 00:00:00 | |
| IW2NTF | 2026-09-05 23:55:07 | 45.34666 | 9.05004 | 86° | 53km/h | 13804m | 3.6m/s | -66.5°C | 39% | 0hPa | 2.8V | 08:30:00 | 01:21:13 | 00:00:00 | |
| DB0UT-7 | 2026-09-05 23:55:00 | 45.34664 | 9.04966 | 85° | 53km/h | 13796m | 3.5m/s | -66.4°C | 39.2% | 0hPa | 2.7V | 00:00:00 | 00:00:00 | 00:00:00 | |
| DO3MHA-11 | 2026-09-05 23:54:57 | 45.34662 | 9.04911 | 87° | 53km/h | 13785m | 3.0m/s | -66.3°C | 39.2% | 0hPa | 2.7V | 00:00:00 | 01:21:08 | 08:30:00 | |
| IW2NTF | 2026-09-05 23:54:53 | 45.34652 | 9.04816 | 82° | 57km/h | 13768m | 4m/s | -66.2°C | 38.8% | 0hPa | 2.6V | 08:30:00 | 01:21:03 | 00:00:00 | |
| DO3MHA-11 | 2026-09-05 23:54:47 | 45.34649 | 9.04720 | 88° | 53km/h | 13752m | 3.0m/s | -66.0°C | 38.5% | 0hPa | 2.6V | 00:00:00 | 01:20:58 | 00:00:00 | |
| IW2NTF | 2026-09-05 23:54:43 | 45.34645 | 9.04627 | 80° | 51km/h | 13733m | 3.6m/s | -66°C | 38.2% | 0hPa | 2.6V | 08:30:00 | 01:20:53 | 00:00:00 | |
| DO3MHA-11 | 2026-09-05 23:54:37 | 45.34636 | 9.04531 | 86° | 55km/h | 13717m | 3.3m/s | -65.9°C | 38.0% | 0hPa | 2.6V | 00:00:00 | 01:20:48 | 00:00:00 | |
| IW2NTF | 2026-09-05 23:54:33 | 45.34634 | 9.04434 | 86° | 53km/h | 13699m | 4m/s | -65.8°C | 38% | 0hPa | 2.6V | 08:30:00 | 01:20:43 | 00:00:00 | |
| DB0UT-7 | 2026-09-05 23:54:30 | 45.34631 | 9.04395 | 84° | 53km/h | 13692m | 3.4m/s | -65.7°C | 37.8% | 0hPa | 2.8V | 00:00:00 | 01:20:41 | 00:00:00 | |
| IW2NTF | 2026-09-05 23:54:26 | 45.34619 | 9.04242 | 84° | 55km/h | 13663m | 3.1m/s | -65.7°C | 38.4% | 0hPa | 2.8V | 08:30:00 | 01:20:33 | 00:00:00 | |
| DO3MHA-11 | 2026-09-05 23:54:17 | 45.34613 | 9.04146 | 91° | 51km/h | 13646m | 3.5m/s | -65.7°C | 38.8% | 0hPa | 2.8V | 00:00:00 | 01:20:28 | 00:00:00 | |
| IW2NTF | 2026-09-05 23:54:13 | 45.34610 | 9.04056 | 85° | 47km/h | 13628m | 3.9m/s | -65.7°C | 38.2% | 0hPa | 2.8V | 08:30:00 | 01:20:23 | 00:00:00 | |
| IW2NTF | 2026-09-05 23:54:07 | 45.34613 | 9.03860 | 93° | 53km/h | 13592m | 3.9m/s | -65.4°C | 38.8% | 0hPa | 2.8V | 08:30:00 | 01:20:13 | 00:00:00 | |
| DB0UT-7 | 2026-09-05 23:54:00 | 45.34615 | 9.03822 | 95° | 47km/h | 13585m | 3.2m/s | -65.3°C | 38.8% | 0hPa | 2.7V | 00:00:00 | 00:00:00 | 08:30:00 | |
| DO3MHA-11 | 2026-09-05 23:53:57 | 45.34616 | 9.03767 | 90° | 47km/h | 13572m | 2.5m/s | -65.2°C | 39.6% | 0hPa | 2.7V | 00:00:00 | 01:20:08 | 00:00:00 | |
| IW2NTF | 2026-09-05 23:53:53 | 45.34621 | 9.03682 | 93° | 49km/h | 13554m | 4.9m/s | -65.2°C | 39.2% | 0hPa | 2.8V | 08:30:00 | 01:20:03 | 00:00:00 | |
| DO3MHA-11 | 2026-09-05 23:53:47 | 45.34624 | 9.03598 | 104° | 47km/h | 13534m | 4.4m/s | -65.2°C | 39.8% | 0hPa | 2.7V | 00:00:00 | 01:19:58 | 00:00:00 | |
| IW2NTF | 2026-09-05 23:53:45 | 45.34641 | 9.03517 | 98° | 49km/h | 13514m | 4.2m/s | -65.3°C | 39.8% | 0hPa | 2.7V | 08:30:00 | 01:19:53 | 00:00:00 | |
| DO3MHA-11 | 2026-09-05 23:53:37 | 45.34648 | 9.03429 | 103° | 46km/h | 13497m | 2.4m/s | -65.2°C | 40.6% | 0hPa | 2.8V | 00:00:00 | 01:19:48 | 00:00:00 | |
| IW2NTF | 2026-09-05 23:53:33 | 45.34663 | 9.03350 | 109° | 44km/h | 13481m | 3.5m/s | -65.1°C | 41.4% | 0hPa | 2.8V | 08:30:00 | 01:19:43 | 00:00:00 | |
| DB0UT-7 | 2026-09-05 23:53:30 | 45.34671 | 9.03320 | 107° | 49km/h | 13476m | 3.4m/s | -65.0°C | 41.3% | 0hPa | 2.7V | 00:00:00 | 01:19:41 | 00:00:00 | |
| DO3MHA-11 | 2026-09-05 23:53:27 | 45.34678 | 9.03273 | 102° | 47km/h | 13467m | 3.4m/s | -65.0°C | 41.7% | 0hPa | 2.7V | 00:00:00 | 01:19:38 | 08:30:00 | |
| IW2NTF | 2026-09-05 23:53:24 | 45.34692 | 9.03192 | 105° | 44km/h | 13452m | 3m/s | -65°C | 42.2% | 0hPa | 2.7V | 08:30:00 | 01:19:33 | 00:00:00 | |
| IW2NTF | 2026-09-05 23:53:17 | 45.34723 | 9.03020 | 102° | 49km/h | 13422m | 3.2m/s | -64.9°C | 44.7% | 0hPa | 2.7V | 08:30:00 | 01:19:23 | 00:00:00 | |
| DO3MHA-11 | 2026-09-05 23:53:17 | 45.34707 | 9.03110 | 102° | 51km/h | 13437m | 2.2m/s | -64.9°C | 43.7% | 0hPa | 2.7V | 00:00:00 | 01:19:28 | 00:00:00 | |
| DO3MHA-11 | 2026-09-05 23:53:07 | 45.34737 | 9.02935 | 104° | 53km/h | 13407m | 3.3m/s | -65.0°C | 46.0% | 0hPa | 2.7V | 00:00:00 | 01:19:18 | 00:00:00 | |
| IW2NTF | 2026-09-05 23:53:05 | 45.34754 | 9.02842 | 102° | 55km/h | 13392m | 2.5m/s | -64.9°C | 47.3% | 0hPa | 2.7V | 08:30:00 | 01:19:13 | 00:00:00 | |
| DB0UT-7 | 2026-09-05 23:53:00 | 45.34760 | 9.02805 | 106° | 51km/h | 13387m | 3.1m/s | -64.8°C | 47.8% | 0hPa | 2.8V | 00:00:00 | 00:00:00 | 00:00:00 | |
| IW2NTF | 2026-09-05 23:52:58 | 45.34787 | 9.02675 | 107° | 46km/h | 13364m | 2.7m/s | -64.8°C | 48.5% | 0hPa | 2.8V | 08:30:00 | 01:19:03 | 00:00:00 | |
| DO3MHA-11 | 2026-09-05 23:52:57 | 45.34771 | 9.02754 | 106° | 47km/h | 13378m | 3.9m/s | -64.8°C | 48.4% | 0hPa | 2.6V | 00:00:00 | 01:19:08 | 00:00:00 | |
| DO3MHA-11 | 2026-09-05 23:52:47 | 45.34799 | 9.02588 | 101° | 51km/h | 13347m | 2.7m/s | -64.6°C | 48.6% | 0hPa | 2.7V | 00:00:00 | 01:18:58 | 00:00:00 | |
| IW2NTF | 2026-09-05 23:52:44 | 45.34811 | 9.02499 | 101° | 51km/h | 13331m | 2.8m/s | -64.6°C | 49.1% | 0hPa | 2.7V | 08:30:00 | 01:18:53 | 00:00:00 | |
| DO3MHA-11 | 2026-09-05 23:52:37 | 45.34824 | 9.02410 | 105° | 53km/h | 13317m | 3.8m/s | -64.4°C | 48.6% | 0hPa | 2.8V | 00:00:00 | 01:18:48 | 00:00:00 | |
| IW2NTF | 2026-09-05 23:52:33 | 45.34842 | 9.02316 | 104° | 55km/h | 13301m | 3.6m/s | -64.4°C | 47.9% | 0hPa | 2.8V | 08:30:00 | 01:18:43 | 00:00:00 | |
| DB0UT-7 | 2026-09-05 23:52:30 | 45.34849 | 9.02278 | 105° | 53km/h | 13295m | 3.6m/s | -64.3°C | 47.3% | 0hPa | 2.7V | 00:00:00 | 01:18:41 | 00:00:00 | |
| IW2NTF | 2026-09-05 23:52:28 | 45.34871 | 9.02133 | 102° | 53km/h | 13268m | 3.6m/s | -64.1°C | 46.5% | 0hPa | 2.7V | 08:30:00 | 01:18:33 | 00:00:00 | |
| DO3MHA-11 | 2026-09-05 23:52:27 | 45.34857 | 9.02224 | 102° | 53km/h | 13285m | 3.3m/s | -64.2°C | 46.8% | 0hPa | 2.7V | 00:00:00 | 01:18:38 | 00:00:00 | |
| DO3MHA-11 | 2026-09-05 23:52:17 | 45.34889 | 9.02038 | 109° | 53km/h | 13251m | 2.4m/s | -63.9°C | 46.8% | 0hPa | 2.8V | 00:00:00 | 01:18:28 | 00:00:00 | |
| IW2NTF | 2026-09-05 23:52:14 | 45.34911 | 9.01946 | 103° | 51km/h | 13234m | 3.6m/s | -63.8°C | 47% | 0hPa | 2.8V | 08:30:00 | 01:18:23 | 00:00:00 | |
| IW2NTF | 2026-09-05 23:52:07 | 45.34941 | 9.01760 | 108° | 57km/h | 13198m | 3.5m/s | -63.5°C | 46.1% | 0hPa | 2.8V | 08:30:00 | 01:18:13 | 00:00:00 | |
| DO3MHA-11 | 2026-09-05 23:52:07 | 45.34924 | 9.01853 | 103° | 55km/h | 13216m | 3.2m/s | -63.7°C | 47.0% | 0hPa | 2.7V | 00:00:00 | 01:18:18 | 00:00:00 | |
| DB0UT-7 | 2026-09-05 23:52:00 | 45.34951 | 9.01722 | 113° | 51km/h | 13190m | 4.5m/s | -63.4°C | 45.6% | 0hPa | 2.7V | 00:00:00 | 00:00:00 | 00:00:00 | |
| DO3MHA-11 | 2026-09-05 23:51:57 | 45.34967 | 9.01670 | 112° | 51km/h | 13179m | 4.5m/s | -63.3°C | 44.8% | 0hPa | 2.7V | 00:00:00 | 01:18:08 | 08:30:00 | |
| IW2NTF | 2026-09-05 23:51:54 | 45.34985 | 9.01584 | 102° | 49km/h | 13160m | 3.5m/s | -63.2°C | 44.4% | 0hPa | 2.7V | 08:30:00 | 01:18:03 | 00:00:00 | |
| IW2NTF | 2026-09-05 23:51:47 | 45.35020 | 9.01400 | 113° | 55km/h | 13123m | 2.5m/s | -62.8°C | 44.9% | 0hPa | 2.8V | 08:30:00 | 01:17:53 | 00:00:00 | |
| DO3MHA-11 | 2026-09-05 23:51:47 | 45.35000 | 9.01491 | 104° | 53km/h | 13142m | 3.6m/s | 0°C | 0% | 0hPa | 2.8V | 00:00:00 | 01:17:58 | 00:00:00 | |
| DO3MHA-11 | 2026-09-05 23:51:36 | 45.35043 | 9.01293 | 105° | 49km/h | 13100m | 4.2m/s | 0°C | 0% | 0hPa | 2.8V | 00:00:00 | 01:17:47 | 00:00:00 | |
| IW2NTF | 2026-09-05 23:51:32 | 45.35065 | 9.01189 | 102° | 47km/h | 13076m | 5m/s | -62.4°C | 43.9% | 0hPa | 2.8V | 08:30:00 | 01:17:41 | 00:00:00 | |
| DB0UT-7 | 2026-09-05 23:51:30 | 45.35065 | 9.01189 | 103° | 51km/h | 13077m | 5.0m/s | -62.3°C | 43.9% | 0hPa | 2.8V | 00:00:00 | 01:17:41 | 00:00:00 | |
| DO3MHA-11 | 2026-09-05 23:51:26 | 45.35077 | 9.01121 | 110° | 53km/h | 13059m | 4.4m/s | 0°C | 0% | 0hPa | 2.8V | 00:00:00 | 01:17:37 | 00:00:00 | |
| IW2NTF | 2026-09-05 23:51:21 | 45.35105 | 9.01015 | 113° | 53km/h | 13032m | 4.2m/s | -62.1°C | 44.6% | 0hPa | 2.8V | 08:30:00 | 01:17:31 | 00:00:00 | |
| DO3MHA-11 | 2026-09-05 23:51:16 | 45.35123 | 9.00944 | 108° | 51km/h | 13016m | 4.3m/s | 0°C | 0% | 0hPa | 2.8V | 00:00:00 | 01:17:27 | 00:00:00 | |
| IW2NTF | 2026-09-05 23:51:13 | 45.35159 | 9.00811 | 112° | 51km/h | 12982m | 4.6m/s | -61.7°C | 44.8% | 0hPa | 2.8V | 08:30:00 | 01:17:19 | 00:00:00 | |
| DO3MHA-11 | 2026-09-05 23:51:06 | 45.35169 | 9.00776 | 111° | 49km/h | 12974m | 3.6m/s | 0°C | 0% | 0hPa | 2.7V | 00:00:00 | 01:17:17 | 00:00:00 | |
| IW2NTF | 2026-09-05 23:51:01 | 45.35209 | 9.00644 | 114° | 47km/h | 12939m | 4.3m/s | -61.4°C | 45.7% | 0hPa | 2.7V | 08:30:00 | 01:17:09 | 00:00:00 | |
| DB0UT-7 | 2026-09-05 23:51:00 | 45.35198 | 9.00676 | 114° | 49km/h | 12948m | 3.2m/s | 0°C | 0% | 0hPa | 2.7V | 00:00:00 | 00:00:00 | 00:00:00 | |
| DO3MHA-11 | 2026-09-05 23:50:56 | 45.35218 | 9.00612 | 111° | 49km/h | 12930m | 4.5m/s | 0°C | 0% | 0hPa | 2.7V | 00:00:00 | 01:17:07 | 00:00:00 | |
| IW2NTF | 2026-09-05 23:50:47 | 45.35275 | 9.00434 | 116° | 53km/h | 12883m | 4.6m/s | -60.9°C | 45.4% | 0hPa | 2.7V | 08:30:00 | 01:16:56 | 00:00:00 | |
| DO3MHA-11 | 2026-09-05 23:50:46 | 45.35268 | 9.00451 | 120° | 51km/h | 12888m | 4.0m/s | 0°C | 0% | 0hPa | 2.7V | 00:00:00 | 01:16:57 | 00:00:00 | |
| IW2NTF | 2026-09-05 23:50:40 | 45.35323 | 9.00267 | 113° | 49km/h | 12839m | 3.9m/s | -60.6°C | 45% | 0hPa | 2.7V | 08:30:00 | 01:16:46 | 00:00:00 | |
| DO3MHA-11 | 2026-09-05 23:50:36 | 45.35318 | 9.00283 | 112° | 51km/h | 12843m | 3.6m/s | 0°C | 0% | 0hPa | 2.8V | 00:00:00 | 01:16:47 | 00:00:00 | |
| DB0UT-7 | 2026-09-05 23:50:30 | 45.35351 | 9.00184 | 118° | 51km/h | 12817m | 4.5m/s | 0°C | 0% | 0hPa | 2.8V | 00:00:00 | 01:16:41 | 00:00:00 | |
| IW2NTF | 2026-09-05 23:50:28 | 45.35380 | 9.00099 | 114° | 49km/h | 12795m | 3.7m/s | -60.2°C | 45.3% | 0hPa | 2.8V | 08:30:00 | 01:16:36 | 00:00:00 | |
| DO3MHA-11 | 2026-09-05 23:50:26 | 45.35375 | 9.00115 | 115° | 51km/h | 12799m | 4.7m/s | 0°C | 0% | 0hPa | 2.8V | 00:00:00 | 01:16:37 | 00:00:00 | |
| IW2NTF | 2026-09-05 23:50:17 | 45.35432 | 8.99936 | 117° | 49km/h | 12751m | 5.5m/s | -59.8°C | 45.1% | 0hPa | 2.8V | 08:30:00 | 01:16:26 | 00:00:00 | |
| IW2NTF | 2026-09-05 23:50:08 | 45.35488 | 8.99775 | 115° | 51km/h | 12706m | 5.1m/s | -59.5°C | 46.4% | 0hPa | 2.8V | 08:30:00 | 01:16:16 | 00:00:00 | |
| DB0UT-7 | 2026-09-05 23:50:00 | 45.35519 | 8.99691 | 118° | 53km/h | 12683m | 5.5m/s | 0°C | 0% | 0hPa | 2.7V | 00:00:00 | 00:00:00 | 00:00:00 | |
| IW2NTF | 2026-09-05 23:49:58 | 45.35548 | 8.99609 | 114° | 51km/h | 12661m | 4.8m/s | -59.3°C | 50.1% | 0hPa | 2.7V | 08:30:00 | 01:16:06 | 00:00:00 | |
| IW2NTF | 2026-09-05 23:49:47 | 45.35608 | 8.99442 | 115° | 55km/h | 12618m | 3.8m/s | -59.1°C | 52.9% | 0hPa | 2.7V | 08:30:00 | 01:15:56 | 00:00:00 | |
| IW2NTF | 2026-09-05 23:49:37 | 45.35664 | 8.99284 | 118° | 49km/h | 12575m | 4.5m/s | -58.9°C | 57% | 0hPa | 2.7V | 08:30:00 | 01:15:46 | 00:00:00 | |
| IW2NTF | 2026-09-05 23:49:27 | 45.35726 | 8.99130 | 120° | 44km/h | 12531m | 4.8m/s | -58.5°C | 59.4% | 0hPa | 2.7V | 08:30:00 | 01:15:36 | 00:00:00 | |
| IW2NTF | 2026-09-05 23:49:18 | 45.35784 | 8.98987 | 120° | 46km/h | 12488m | 4.7m/s | -58.1°C | 63.3% | 0hPa | 2.7V | 08:30:00 | 01:15:26 | 00:00:00 | |
| IW2NTF | 2026-09-05 23:49:07 | 45.35846 | 8.98849 | 118° | 51km/h | 12445m | 4m/s | -57.7°C | 63.5% | 0hPa | 2.7V | 08:30:00 | 01:15:16 | 00:00:00 | |
| IW2NTF | 2026-09-05 23:48:57 | 45.35909 | 8.98706 | 122° | 44km/h | 12401m | 3.9m/s | -57.3°C | 60.6% | 0hPa | 2.7V | 08:30:00 | 01:15:06 | 00:00:00 | |
| IW2NTF | 2026-09-05 23:48:50 | 45.35976 | 8.98556 | 121° | 46km/h | 12358m | 4.7m/s | -56.9°C | 59.1% | 0hPa | 2.7V | 08:30:00 | 01:14:56 | 00:00:00 | |
| IW2NTF | 2026-09-05 23:48:38 | 45.36042 | 8.98414 | 121° | 55km/h | 12317m | 4.6m/s | -56.5°C | 58.3% | 0hPa | 2.8V | 08:30:00 | 01:14:46 | 00:00:00 | |
| IW2NTF | 2026-09-05 23:48:26 | 45.36110 | 8.98258 | 122° | 49km/h | 12273m | 4.3m/s | -56.1°C | 59.7% | 0hPa | 2.8V | 08:30:00 | 01:14:36 | 00:00:00 | |
| IW2NTF | 2026-09-05 23:48:15 | 45.36177 | 8.98100 | 116° | 51km/h | 12229m | 5.2m/s | -55.7°C | 56.4% | 0hPa | 2.8V | 08:30:00 | 01:14:26 | 00:00:00 | |
| IW2NTF | 2026-09-05 23:48:10 | 45.36240 | 8.97942 | 119° | 53km/h | 12186m | 4.9m/s | -55.3°C | 56% | 0hPa | 2.7V | 08:30:00 | 01:14:16 | 00:00:00 | |
| IW2NTF | 2026-09-05 23:47:55 | 45.36298 | 8.97787 | 120° | 47km/h | 12144m | 4.5m/s | -54.9°C | 53.5% | 0hPa | 2.8V | 08:30:00 | 01:14:06 | 00:00:00 | |
| IW2NTF | 2026-09-05 23:47:44 | 45.36369 | 8.97599 | 120° | 47km/h | 12094m | 4.4m/s | -54.5°C | 52.9% | 0hPa | 2.7V | 08:30:00 | 01:13:54 | 00:00:00 | |
| IW2NTF | 2026-09-05 23:47:34 | 45.36435 | 8.97441 | 117° | 47km/h | 12052m | 5m/s | -54.1°C | 50.3% | 0hPa | 2.8V | 08:30:00 | 01:13:44 | 00:00:00 | |
| IW2NTF | 2026-09-05 23:47:24 | 45.36500 | 8.97286 | 119° | 53km/h | 12007m | 4.3m/s | -53.7°C | 48% | 0hPa | 2.8V | 08:30:00 | 01:13:34 | 00:00:00 | |
| IW2NTF | 2026-09-05 23:47:18 | 45.36570 | 8.97125 | 119° | 55km/h | 11962m | 4.4m/s | -53.3°C | 46.6% | 0hPa | 2.8V | 08:30:00 | 01:13:24 | 00:00:00 | |
| DB0UT-7 | 2026-09-05 23:47:10 | 45.36591 | 8.97073 | 121° | 57km/h | 11949m | 4.1m/s | 0°C | 0% | 0hPa | 2.7V | 00:00:00 | 01:13:21 | 00:00:00 | |
| IW2NTF | 2026-09-05 23:47:06 | 45.36640 | 8.96955 | 119° | 51km/h | 11917m | 4.9m/s | -53.2°C | 41.4% | 0hPa | 2.7V | 08:30:00 | 01:13:14 | 00:00:00 | |
| IW2NTF | 2026-09-05 23:46:59 | 45.36705 | 8.96784 | 117° | 57km/h | 11873m | 4.6m/s | -53°C | 36.2% | 0hPa | 2.8V | 08:30:00 | 01:13:04 | 00:00:00 | |
| IW2NTF | 2026-09-05 23:46:42 | 45.36784 | 8.96585 | 114° | 58km/h | 11825m | 3.5m/s | -52.6°C | 33.5% | 0hPa | 2.7V | 08:30:00 | 01:12:53 | 00:00:00 | |
| IW2NTF | 2026-09-05 23:46:32 | 45.36848 | 8.96409 | 116° | 49km/h | 11782m | 4.2m/s | -52.2°C | 31.3% | 0hPa | 2.8V | 08:30:00 | 01:12:43 | 00:00:00 | |
| IW2NTF | 2026-09-05 23:46:22 | 45.36908 | 8.96233 | 114° | 57km/h | 11739m | 4.7m/s | -51.8°C | 28.6% | 0hPa | 2.7V | 08:30:00 | 01:12:33 | 00:00:00 | |
| IW2NTF | 2026-09-05 23:46:13 | 45.36963 | 8.96044 | 114° | 55km/h | 11695m | 5m/s | -51.4°C | 25.2% | 0hPa | 2.8V | 08:30:00 | 01:12:23 | 00:00:00 | |
| IW2NTF | 2026-09-05 23:46:06 | 45.37023 | 8.95872 | 113° | 55km/h | 11652m | 3.8m/s | -51°C | 23% | 0hPa | 2.7V | 08:30:00 | 01:12:13 | 00:00:00 | |
| IW2NTF | 2026-09-05 23:45:55 | 45.37078 | 8.95684 | 112° | 57km/h | 11608m | 4.8m/s | -50.6°C | 22% | 0hPa | 2.8V | 08:30:00 | 01:12:03 | 00:00:00 | |
| IW2NTF | 2026-09-05 23:45:44 | 45.37135 | 8.95499 | 113° | 57km/h | 11564m | 4.8m/s | -50.3°C | 21.9% | 0hPa | 2.8V | 08:30:00 | 01:11:53 | 00:00:00 | |
| IW2NTF | 2026-09-05 23:45:33 | 45.37196 | 8.95320 | 114° | 57km/h | 11519m | 4.5m/s | -49.9°C | 21.6% | 0hPa | 2.8V | 08:30:00 | 01:11:43 | 00:00:00 | |
| IW2NTF | 2026-09-05 23:45:22 | 45.37251 | 8.95138 | 117° | 58km/h | 11473m | 3.9m/s | -49.5°C | 22.1% | 0hPa | 2.8V | 08:30:00 | 01:11:33 | 00:00:00 | |
| IW2NTF | 2026-09-05 23:45:17 | 45.37312 | 8.94960 | 114° | 55km/h | 11429m | 4.5m/s | -49.1°C | 22% | 0hPa | 2.8V | 08:30:00 | 01:11:23 | 00:00:00 | |
| IW2NTF | 2026-09-05 23:45:07 | 45.37372 | 8.94782 | 116° | 53km/h | 11384m | 4.2m/s | -48.8°C | 22.3% | 0hPa | 2.8V | 08:30:00 | 01:11:13 | 00:00:00 | |
| IW2NTF | 2026-09-05 23:44:54 | 45.37432 | 8.94601 | 116° | 51km/h | 11341m | 4.7m/s | -48.5°C | 22.1% | 0hPa | 2.8V | 08:30:00 | 01:11:03 | 00:00:00 | |
| IW2NTF | 2026-09-05 23:44:47 | 45.37492 | 8.94432 | 114° | 57km/h | 11296m | 4.2m/s | -48.1°C | 20.9% | 0hPa | 2.8V | 08:30:00 | 01:10:53 | 00:00:00 | |
| IW2NTF | 2026-09-05 23:44:35 | 45.37545 | 8.94263 | 113° | 51km/h | 11251m | 4.4m/s | -47.6°C | 20.2% | 0hPa | 2.8V | 08:30:00 | 01:10:43 | 00:00:00 | |
| IW2NTF | 2026-09-05 23:44:27 | 45.37602 | 8.94092 | 112° | 51km/h | 11206m | 4.6m/s | -47.2°C | 19.3% | 0hPa | 2.8V | 08:30:00 | 01:10:33 | 00:00:00 | |
| IW2NTF | 2026-09-05 23:44:13 | 45.37656 | 8.93919 | 119° | 51km/h | 11162m | 4.3m/s | -46.8°C | 19.3% | 0hPa | 2.7V | 08:30:00 | 01:10:23 | 00:00:00 | |
| IW2NTF | 2026-09-05 23:44:07 | 45.37718 | 8.93750 | 112° | 51km/h | 11119m | 4.7m/s | -46.4°C | 18.7% | 0hPa | 2.7V | 08:30:00 | 01:10:13 | 00:00:00 | |
| IW2NTF | 2026-09-05 23:43:52 | 45.37778 | 8.93589 | 118° | 53km/h | 11077m | 3.6m/s | -46.1°C | 18.2% | 0hPa | 2.8V | 08:30:00 | 01:10:03 | 00:00:00 | |
| IW2NTF | 2026-09-05 23:43:47 | 45.37843 | 8.93423 | 119° | 49km/h | 11037m | 3.7m/s | -45.7°C | 17.3% | 0hPa | 2.8V | 08:30:00 | 01:09:53 | 00:00:00 | |
| IW2NTF | 2026-09-05 23:43:38 | 45.37904 | 8.93260 | 115° | 53km/h | 10994m | 3.6m/s | -45.3°C | 17.5% | 0hPa | 2.8V | 08:30:00 | 01:09:43 | 00:00:00 | |
| IW2NTF | 2026-09-05 23:43:27 | 45.37967 | 8.93096 | 115° | 53km/h | 10954m | 3.7m/s | -44.9°C | 16.8% | 0hPa | 2.8V | 08:30:00 | 01:09:33 | 00:00:00 | |
| IW2NTF | 2026-09-05 23:43:17 | 45.38023 | 8.92925 | 117° | 53km/h | 10915m | 3.7m/s | -44.6°C | 16.5% | 0hPa | 2.8V | 08:30:00 | 01:09:23 | 00:00:00 | |
| IW2NTF | 2026-09-05 23:43:02 | 45.38081 | 8.92763 | 113° | 53km/h | 10876m | 4.6m/s | -44.2°C | 16.4% | 0hPa | 2.8V | 08:30:00 | 01:09:13 | 00:00:00 | |
| IW2NTF | 2026-09-05 23:42:57 | 45.38137 | 8.92595 | 117° | 49km/h | 10836m | 2.8m/s | -43.9°C | 16.5% | 0hPa | 2.8V | 08:30:00 | 01:09:03 | 00:00:00 | |
| IW2NTF | 2026-09-05 23:42:48 | 45.38192 | 8.92426 | 118° | 47km/h | 10796m | 3.3m/s | -43.5°C | 15.6% | 0hPa | 2.7V | 08:30:00 | 01:08:53 | 00:00:00 | |
| IW2NTF | 2026-09-05 23:42:37 | 45.38261 | 8.92264 | 117° | 53km/h | 10759m | 3.7m/s | -43.2°C | 14.9% | 0hPa | 2.7V | 08:30:00 | 01:08:43 | 00:00:00 | |
| IW2NTF | 2026-09-05 23:42:22 | 45.38327 | 8.92109 | 119° | 51km/h | 10723m | 3.6m/s | -42.9°C | 14.8% | 0hPa | 2.8V | 08:30:00 | 01:08:33 | 00:00:00 | |
| IW2NTF | 2026-09-05 23:42:17 | 45.38387 | 8.91930 | 117° | 51km/h | 10684m | 4.5m/s | -42.5°C | 14.9% | 0hPa | 2.8V | 08:30:00 | 01:08:22 | 00:00:00 | |
| IW2NTF | 2026-09-05 23:42:02 | 45.38448 | 8.91776 | 118° | 47km/h | 10648m | 3.6m/s | -42.2°C | 15.1% | 0hPa | 2.8V | 08:30:00 | 01:08:12 | 00:00:00 | |
| IW2NTF | 2026-09-05 23:41:56 | 45.38511 | 8.91617 | 117° | 47km/h | 10612m | 4.1m/s | -41.9°C | 14.7% | 0hPa | 2.9V | 08:30:00 | 01:08:02 | 00:00:00 | |
| IW2NTF | 2026-09-05 23:41:46 | 45.38573 | 8.91459 | 122° | 55km/h | 10576m | 4.1m/s | -41.6°C | 14.4% | 0hPa | 2.9V | 08:30:00 | 01:07:52 | 00:00:00 | |
| IW2NTF | 2026-09-05 23:41:34 | 45.38632 | 8.91304 | 119° | 51km/h | 10542m | 4m/s | -41.3°C | 14.6% | 0hPa | 2.7V | 08:30:00 | 01:07:42 | 00:00:00 | |
| IW2NTF | 2026-09-05 23:41:26 | 45.38699 | 8.91144 | 116° | 47km/h | 10510m | 2.9m/s | -41°C | 15.1% | 0hPa | 2.8V | 08:30:00 | 01:07:32 | 00:00:00 | |
| IW2NTF | 2026-09-05 23:41:13 | 45.38760 | 8.90988 | 120° | 55km/h | 10476m | 3.4m/s | -40.8°C | 14.8% | 0hPa | 2.9V | 08:30:00 | 01:07:22 | 00:00:00 | |
| IW2NTF | 2026-09-05 23:41:07 | 45.38826 | 8.90841 | 121° | 51km/h | 10441m | 3.6m/s | -40.5°C | 14% | 0hPa | 2.9V | 08:30:00 | 01:07:12 | 00:00:00 | |
| IW2NTF | 2026-09-05 23:40:53 | 45.38902 | 8.90683 | 124° | 53km/h | 10410m | 3.3m/s | -40.3°C | 15% | 0hPa | 2.7V | 08:30:00 | 01:07:02 | 00:00:00 | |
| IW2NTF | 2026-09-05 23:40:46 | 45.38977 | 8.90529 | 128° | 57km/h | 10379m | 2.7m/s | -40.1°C | 14.9% | 0hPa | 2.9V | 08:30:00 | 01:06:52 | 00:00:00 | |
| IW2NTF | 2026-09-05 23:40:36 | 45.39051 | 8.90376 | 123° | 53km/h | 10348m | 2.7m/s | -39.8°C | 13.9% | 0hPa | 2.9V | 08:30:00 | 01:06:42 | 00:00:00 | |
| IW2NTF | 2026-09-05 23:40:27 | 45.39122 | 8.90216 | 123° | 51km/h | 10317m | 3.5m/s | -39.5°C | 13.6% | 0hPa | 2.7V | 08:30:00 | 01:06:32 | 00:00:00 | |
| IW2NTF | 2026-09-05 23:40:16 | 45.39195 | 8.90059 | 124° | 58km/h | 10287m | 2.8m/s | -39.3°C | 14% | 0hPa | 2.9V | 08:30:00 | 01:06:22 | 00:00:00 | |
| IW2NTF | 2026-09-05 23:40:06 | 45.39274 | 8.89900 | 124° | 49km/h | 10258m | 3.4m/s | -39.1°C | 15% | 0hPa | 2.9V | 08:30:00 | 01:06:12 | 00:00:00 | |
| IW2NTF | 2026-09-05 23:39:57 | 45.39351 | 8.89740 | 123° | 51km/h | 10227m | 2.2m/s | -38.9°C | 16% | 0hPa | 2.7V | 08:30:00 | 01:06:02 | 00:00:00 | |
| IW2NTF | 2026-09-05 23:39:47 | 45.39423 | 8.89583 | 122° | 53km/h | 10197m | 2.5m/s | -38.6°C | 16.1% | 0hPa | 2.9V | 08:30:00 | 01:05:52 | 00:00:00 | |
| IW2NTF | 2026-09-05 23:39:36 | 45.39494 | 8.89422 | 121° | 51km/h | 10167m | 3m/s | -38.4°C | 16.4% | 0hPa | 2.9V | 08:30:00 | 01:05:42 | 00:00:00 | |
| IW2NTF | 2026-09-05 23:39:26 | 45.39618 | 8.89126 | 120° | 53km/h | 10114m | 2.9m/s | -37.9°C | 16.1% | 0hPa | 2.9V | 08:30:00 | 01:05:24 | 00:00:00 | |
| IW2NTF | 2026-09-05 23:39:20 | 45.39631 | 8.89092 | 117° | 53km/h | 10108m | 2.8m/s | -37.9°C | 16.2% | 0hPa | 2.9V | 08:30:00 | 01:05:22 | 00:00:00 | |
| IW2NTF | 2026-09-05 23:39:01 | 45.39699 | 8.88921 | 120° | 58km/h | 10079m | 3.6m/s | -37.6°C | 16.1% | 0hPa | 2.9V | 08:30:00 | 01:05:12 | 00:00:00 | |
| IW2NTF | 2026-09-05 23:38:56 | 45.39759 | 8.88746 | 119° | 53km/h | 10050m | 2.1m/s | -37.4°C | 16.5% | 0hPa | 2.9V | 08:30:00 | 01:05:02 | 00:00:00 | |
| IW2NTF | 2026-09-05 23:38:41 | 45.39819 | 8.88576 | 114° | 57km/h | 10022m | 2.5m/s | -37.3°C | 19.5% | 0hPa | 2.9V | 08:30:00 | 01:04:52 | 00:00:00 | |
| IW2NTF | 2026-09-05 23:38:33 | 45.39877 | 8.88401 | 112° | 49km/h | 9992m | 3.2m/s | -37.2°C | 22.3% | 0hPa | 2.7V | 08:30:00 | 01:04:42 | 00:00:00 | |
| IW2NTF | 2026-09-05 23:38:21 | 45.39933 | 8.88238 | 114° | 44km/h | 9961m | 2.6m/s | -37.1°C | 23.9% | 0hPa | 2.9V | 08:30:00 | 01:04:32 | 00:00:00 | |
| IW2NTF | 2026-09-05 23:38:11 | 45.39978 | 8.88098 | 117° | 42km/h | 9933m | 3.1m/s | -36.9°C | 23.1% | 0hPa | 2.8V | 08:30:00 | 01:04:22 | 00:00:00 | |
| IW2NTF | 2026-09-05 23:38:01 | 45.40028 | 8.87955 | 113° | 46km/h | 9903m | 3.6m/s | -36.6°C | 22.7% | 0hPa | 2.9V | 08:30:00 | 01:04:12 | 00:00:00 | |
| IW2NTF | 2026-09-05 23:37:52 | 45.40083 | 8.87818 | 117° | 44km/h | 9872m | 2.8m/s | -36.3°C | 22.2% | 0hPa | 2.8V | 08:30:00 | 01:04:02 | 00:00:00 | |
| IW2NTF | 2026-09-05 23:37:41 | 45.40137 | 8.87668 | 124° | 46km/h | 9840m | 3.6m/s | -36°C | 21.2% | 0hPa | 2.9V | 08:30:00 | 01:03:52 | 00:00:00 | |
| IW2NTF | 2026-09-05 23:37:31 | 45.40193 | 8.87523 | 116° | 49km/h | 9806m | 4m/s | -35.7°C | 20.7% | 0hPa | 2.8V | 08:30:00 | 01:03:42 | 00:00:00 | |
| IW2NTF | 2026-09-05 23:37:26 | 45.40249 | 8.87377 | 121° | 46km/h | 9772m | 2.6m/s | -35.3°C | 20.3% | 0hPa | 2.9V | 08:30:00 | 01:03:32 | 00:00:00 | |
| IW2NTF | 2026-09-05 23:37:16 | 45.40307 | 8.87231 | 115° | 44km/h | 9736m | 4.4m/s | -35°C | 19.6% | 0hPa | 2.8V | 08:30:00 | 01:03:22 | 00:00:00 | |
| IW2NTF | 2026-09-05 23:37:06 | 45.40368 | 8.87088 | 118° | 49km/h | 9701m | 3.2m/s | -34.6°C | 19.2% | 0hPa | 2.9V | 08:30:00 | 01:03:12 | 00:00:00 | |
| IW2NTF | 2026-09-05 23:36:49 | 45.40440 | 8.86917 | 120° | 46km/h | 9659m | 3.8m/s | -34.2°C | 18.4% | 0hPa | 2.9V | 08:30:00 | 01:03:00 | 00:00:00 | |
| IW2NTF | 2026-09-05 23:36:44 | 45.40496 | 8.86765 | 117° | 53km/h | 9625m | 4.2m/s | -34°C | 19% | 0hPa | 2.9V | 08:30:00 | 01:02:50 | 00:00:00 | |
| IW2NTF | 2026-09-05 23:36:33 | 45.40560 | 8.86607 | 117° | 49km/h | 9587m | 2.9m/s | -33.7°C | 18.8% | 0hPa | 2.9V | 08:30:00 | 01:02:39 | 00:00:00 | |
| IW2NTF | 2026-09-05 23:36:19 | 45.40623 | 8.86460 | 121° | 46km/h | 9551m | 3.4m/s | -33.4°C | 18.7% | 0hPa | 2.9V | 08:30:00 | 01:02:29 | 00:00:00 | |
| IW2NTF | 2026-09-05 23:36:13 | 45.40697 | 8.86317 | 120° | 47km/h | 9516m | 4m/s | -33.1°C | 18.1% | 0hPa | 2.8V | 08:30:00 | 01:02:19 | 00:00:00 | |
| IW2NTF | 2026-09-05 23:35:59 | 45.40761 | 8.86183 | 126° | 44km/h | 9483m | 3.4m/s | -32.8°C | 18% | 0hPa | 2.9V | 08:30:00 | 01:02:09 | 00:00:00 | |
| IW2NTF | 2026-09-05 23:35:53 | 45.40831 | 8.86039 | 127° | 46km/h | 9448m | 3.8m/s | -32.5°C | 18.3% | 0hPa | 2.9V | 08:30:00 | 01:01:59 | 00:00:00 | |
| IW2NTF | 2026-09-05 23:35:39 | 45.40899 | 8.85895 | 123° | 51km/h | 9411m | 4m/s | -32.2°C | 18.9% | 0hPa | 2.9V | 08:30:00 | 01:01:49 | 00:00:00 | |
| IW2NTF | 2026-09-05 23:35:33 | 45.40982 | 8.85731 | 122° | 51km/h | 9368m | 4.4m/s | -31.9°C | 19.8% | 0hPa | 2.9V | 08:30:00 | 01:01:37 | 00:00:00 | |
| IW2NTF | 2026-09-05 23:35:20 | 45.41057 | 8.85574 | 124° | 47km/h | 9327m | 4.3m/s | -31.6°C | 20.6% | 0hPa | 2.9V | 08:30:00 | 01:01:26 | 00:00:00 | |
| IW2NTF | 2026-09-05 23:35:05 | 45.41128 | 8.85415 | 122° | 51km/h | 9291m | 4.1m/s | -31.3°C | 20.8% | 0hPa | 2.9V | 08:30:00 | 01:01:16 | 00:00:00 | |
| IW2NTF | 2026-09-05 23:34:56 | 45.41193 | 8.85268 | 121° | 49km/h | 9253m | 4.5m/s | -31°C | 22.2% | 0hPa | 2.8V | 08:30:00 | 01:01:06 | 00:00:00 | |
| IW2NTF | 2026-09-05 23:34:45 | 45.41257 | 8.85113 | 119° | 53km/h | 9213m | 4.3m/s | -30.7°C | 22% | 0hPa | 2.9V | 08:30:00 | 01:00:56 | 00:00:00 | |
| IW2NTF | 2026-09-05 23:34:35 | 45.41340 | 8.84895 | 116° | 55km/h | 9163m | 4.2m/s | -30.2°C | 21.8% | 0hPa | 2.8V | 08:30:00 | 01:00:43 | 00:00:00 | |
| IW2NTF | 2026-09-05 23:34:25 | 45.41409 | 8.84732 | 117° | 55km/h | 9125m | 3.5m/s | -30°C | 22.5% | 0hPa | 2.9V | 08:30:00 | 01:00:33 | 00:00:00 | |
| IW2NTF | 2026-09-05 23:34:15 | 45.41478 | 8.84561 | 120° | 53km/h | 9086m | 4.3m/s | -29.7°C | 22.7% | 0hPa | 2.9V | 08:30:00 | 01:00:23 | 00:00:00 | |
| IW2NTF | 2026-09-05 23:34:05 | 45.41542 | 8.84396 | 120° | 53km/h | 9046m | 4.5m/s | -29.4°C | 22.1% | 0hPa | 2.9V | 08:30:00 | 01:00:13 | 00:00:00 | |
| IW2NTF | 2026-09-05 23:33:55 | 45.41609 | 8.84224 | 114° | 55km/h | 9006m | 3.7m/s | -29°C | 22% | 0hPa | 2.8V | 08:30:00 | 01:00:03 | 00:00:00 | |
| IW2NTF | 2026-09-05 23:33:47 | 45.41670 | 8.84047 | 118° | 53km/h | 8966m | 3.7m/s | -28.7°C | 21.3% | 0hPa | 2.9V | 08:30:00 | 00:59:53 | 00:00:00 | |
| IW2NTF | 2026-09-05 23:33:38 | 45.41730 | 8.83870 | 115° | 51km/h | 8928m | 4.4m/s | -28.4°C | 21.8% | 0hPa | 2.9V | 08:30:00 | 00:59:43 | 00:00:00 | |
| IW2NTF | 2026-09-05 23:33:27 | 45.41794 | 8.83695 | 117° | 57km/h | 8889m | 4.4m/s | -28.1°C | 22% | 0hPa | 2.8V | 08:30:00 | 00:59:33 | 00:00:00 | |
| IW2NTF | 2026-09-05 23:33:17 | 45.41855 | 8.83519 | 113° | 57km/h | 8850m | 4m/s | -27.7°C | 22.1% | 0hPa | 2.9V | 08:30:00 | 00:59:23 | 00:00:00 | |
| IW2NTF | 2026-09-05 23:33:03 | 45.41919 | 8.83335 | 114° | 55km/h | 8809m | 3.2m/s | -27.4°C | 22.3% | 0hPa | 2.9V | 08:30:00 | 00:59:13 | 00:00:00 | |
| IW2NTF | 2026-09-05 23:32:53 | 45.41980 | 8.83146 | 115° | 57km/h | 8766m | 4.7m/s | -27.1°C | 22.7% | 0hPa | 2.9V | 08:30:00 | 00:59:03 | 00:00:00 | |
| IW2NTF | 2026-09-05 23:32:43 | 45.42044 | 8.82959 | 115° | 58km/h | 8725m | 4.5m/s | -26.7°C | 22.1% | 0hPa | 2.9V | 08:30:00 | 00:58:53 | 00:00:00 | |
| IW2NTF | 2026-09-05 23:32:34 | 45.42113 | 8.82766 | 119° | 62km/h | 8683m | 5.3m/s | -26.3°C | 21.4% | 0hPa | 2.9V | 08:30:00 | 00:58:43 | 00:00:00 | |
| IW2NTF | 2026-09-05 23:32:23 | 45.42178 | 8.82584 | 114° | 60km/h | 8643m | 3.5m/s | -25.9°C | 21.3% | 0hPa | 2.9V | 08:30:00 | 00:58:33 | 00:00:00 | |
| IW2NTF | 2026-09-05 23:32:13 | 45.42242 | 8.82396 | 117° | 55km/h | 8604m | 4.9m/s | -25.6°C | 21.7% | 0hPa | 2.9V | 08:30:00 | 00:58:23 | 00:00:00 | |
| IW2NTF | 2026-09-05 23:32:03 | 45.42313 | 8.82208 | 117° | 58km/h | 8562m | 4.1m/s | -25.3°C | 22.2% | 0hPa | 2.9V | 08:30:00 | 00:58:13 | 00:00:00 | |
| IW2NTF | 2026-09-05 23:31:53 | 45.42387 | 8.82025 | 118° | 58km/h | 8520m | 3.8m/s | -25.1°C | 21.9% | 0hPa | 2.9V | 08:30:00 | 00:58:03 | 00:00:00 | |
| IW2NTF | 2026-09-05 23:31:43 | 45.42456 | 8.81845 | 118° | 60km/h | 8479m | 3.3m/s | -24.9°C | 26.2% | 0hPa | 2.9V | 08:30:00 | 00:57:53 | 00:00:00 | |
| IW2NTF | 2026-09-05 23:31:34 | 45.42536 | 8.81664 | 123° | 57km/h | 8437m | 4.5m/s | -24.6°C | 29.7% | 0hPa | 2.9V | 08:30:00 | 00:57:43 | 00:00:00 | |
| IW2NTF | 2026-09-05 23:31:23 | 45.42615 | 8.81493 | 124° | 57km/h | 8396m | 3.7m/s | -24.2°C | 29.7% | 0hPa | 2.9V | 08:30:00 | 00:57:33 | 00:00:00 | |
| IW2NTF | 2026-09-05 23:31:13 | 45.42696 | 8.81331 | 126° | 55km/h | 8355m | 3.7m/s | -24°C | 28.1% | 0hPa | 2.9V | 08:30:00 | 00:57:23 | 00:00:00 | |
| IW2NTF | 2026-09-05 23:31:03 | 45.42784 | 8.81164 | 123° | 55km/h | 8315m | 3.9m/s | -23.8°C | 35.2% | 0hPa | 2.9V | 08:30:00 | 00:57:13 | 00:00:00 | |
| IW2NTF | 2026-09-05 23:30:53 | 45.42867 | 8.80997 | 123° | 58km/h | 8274m | 3.9m/s | -23.5°C | 35.9% | 0hPa | 2.8V | 08:30:00 | 00:57:03 | 00:00:00 | |
| IW2NTF | 2026-09-05 23:30:44 | 45.42956 | 8.80835 | 126° | 57km/h | 8235m | 3.7m/s | -23.1°C | 33.6% | 0hPa | 2.8V | 08:30:00 | 00:56:53 | 00:00:00 | |
| IW2NTF | 2026-09-05 23:30:34 | 45.43040 | 8.80670 | 129° | 57km/h | 8195m | 4.2m/s | -22.7°C | 33.8% | 0hPa | 2.8V | 08:30:00 | 00:56:43 | 00:00:00 | |
| IW2NTF | 2026-09-05 23:30:23 | 45.43122 | 8.80500 | 125° | 55km/h | 8153m | 4.5m/s | -22.4°C | 33.1% | 0hPa | 2.8V | 08:30:00 | 00:56:33 | 00:00:00 | |
| IW2NTF | 2026-09-05 23:30:13 | 45.43204 | 8.80336 | 123° | 60km/h | 8113m | 3.5m/s | -22°C | 31.6% | 0hPa | 2.9V | 08:30:00 | 00:56:23 | 00:00:00 | |
| IW2NTF | 2026-09-05 23:30:03 | 45.43286 | 8.80173 | 125° | 53km/h | 8075m | 3.6m/s | -21.6°C | 30.1% | 0hPa | 2.9V | 08:30:00 | 00:56:13 | 00:00:00 | |
| IW2NTF | 2026-09-05 23:29:57 | 45.43367 | 8.79999 | 126° | 53km/h | 8037m | 3.4m/s | -21.2°C | 29.5% | 0hPa | 2.9V | 08:30:00 | 00:56:03 | 00:00:00 | |
| IW2NTF | 2026-09-05 23:29:47 | 45.43450 | 8.79837 | 122° | 58km/h | 7999m | 3.8m/s | -20.9°C | 28.6% | 0hPa | 2.9V | 08:30:00 | 00:55:53 | 00:00:00 | |
| IW2NTF | 2026-09-05 23:29:37 | 45.43530 | 8.79665 | 120° | 58km/h | 7960m | 4.2m/s | -20.5°C | 28.3% | 0hPa | 2.9V | 08:30:00 | 00:55:43 | 00:00:00 | |
| IW2NTF | 2026-09-05 23:29:28 | 45.43610 | 8.79491 | 126° | 57km/h | 7921m | 3.3m/s | -20.2°C | 28.1% | 0hPa | 2.9V | 08:30:00 | 00:55:33 | 00:00:00 | |
| IW2NTF | 2026-09-05 23:29:15 | 45.43693 | 8.79322 | 121° | 53km/h | 7882m | 3.6m/s | -20°C | 36.4% | 0hPa | 2.9V | 08:30:00 | 00:55:23 | 00:00:00 | |
| IW2NTF | 2026-09-05 23:29:06 | 45.43769 | 8.79149 | 122° | 57km/h | 7844m | 4m/s | -19.7°C | 37.4% | 0hPa | 2.9V | 08:30:00 | 00:55:13 | 00:00:00 | |
| IW2NTF | 2026-09-05 23:28:55 | 45.43839 | 8.78974 | 118° | 53km/h | 7807m | 3.3m/s | -19.4°C | 37% | 0hPa | 2.9V | 08:30:00 | 00:55:03 | 00:00:00 | |
| IW2NTF | 2026-09-05 23:28:43 | 45.43904 | 8.78803 | 116° | 53km/h | 7768m | 3.3m/s | -19.2°C | 35.3% | 0hPa | 2.9V | 08:30:00 | 00:54:53 | 00:00:00 | |
| IW2NTF | 2026-09-05 23:28:37 | 45.43963 | 8.78639 | 111° | 51km/h | 7732m | 2.7m/s | -19.1°C | 35.5% | 0hPa | 2.9V | 08:30:00 | 00:54:43 | 00:00:00 | |
| IW2NTF | 2026-09-05 23:28:23 | 45.44023 | 8.78464 | 117° | 53km/h | 7697m | 4m/s | -19°C | 40.8% | 0hPa | 2.9V | 08:30:00 | 00:54:33 | 00:00:00 | |
| IW2NTF | 2026-09-05 23:28:13 | 45.44075 | 8.78287 | 114° | 55km/h | 7662m | 3.5m/s | -18.9°C | 43.2% | 0hPa | 2.9V | 08:30:00 | 00:54:23 | 00:00:00 | |
| IW2NTF | 2026-09-05 23:28:02 | 45.44127 | 8.78109 | 109° | 53km/h | 7625m | 3.7m/s | -18.5°C | 42.7% | 0hPa | 2.9V | 08:30:00 | 00:54:13 | 00:00:00 | |
| IW2NTF | 2026-09-05 23:27:57 | 45.44174 | 8.77939 | 114° | 49km/h | 7590m | 3.1m/s | -18.2°C | 42.2% | 0hPa | 2.8V | 08:30:00 | 00:54:03 | 00:00:00 | |
| IW2NTF | 2026-09-05 23:27:47 | 45.44216 | 8.77770 | 108° | 53km/h | 7554m | 4.2m/s | -17.9°C | 41.1% | 0hPa | 2.9V | 08:30:00 | 00:53:53 | 00:00:00 | |
| IW2NTF | 2026-09-05 23:27:34 | 45.44268 | 8.77590 | 109° | 47km/h | 7511m | 4.3m/s | -17.6°C | 42.6% | 0hPa | 2.9V | 08:30:00 | 00:53:43 | 00:00:00 | |
| IW2NTF | 2026-09-05 23:27:24 | 45.44324 | 8.77384 | 120° | 53km/h | 7456m | 2.5m/s | -17.2°C | 41.2% | 0hPa | 2.9V | 08:30:00 | 00:53:31 | 00:00:00 | |
| IW2NTF | 2026-09-05 23:27:15 | 45.44388 | 8.77218 | 117° | 53km/h | 7417m | 4.8m/s | -17°C | 44% | 0hPa | 2.9V | 08:30:00 | 00:53:21 | 00:00:00 | |
| IW2NTF | 2026-09-05 23:27:05 | 45.44447 | 8.77051 | 120° | 53km/h | 7378m | 4.5m/s | -16.6°C | 44.3% | 0hPa | 2.9V | 08:30:00 | 00:53:11 | 00:00:00 | |
| IW2NTF | 2026-09-05 23:26:55 | 45.44510 | 8.76873 | 113° | 49km/h | 7340m | 4.2m/s | -16.4°C | 44.1% | 0hPa | 2.9V | 08:30:00 | 00:53:01 | 00:00:00 | |
| IW2NTF | 2026-09-05 23:26:44 | 45.44575 | 8.76699 | 111° | 55km/h | 7301m | 4.9m/s | -16°C | 43.9% | 0hPa | 2.9V | 08:30:00 | 00:52:51 | 00:00:00 | |
| IW2NTF | 2026-09-05 23:26:34 | 45.44633 | 8.76513 | 112° | 51km/h | 7255m | 5.7m/s | -15.7°C | 45.2% | 0hPa | 2.9V | 08:30:00 | 00:52:41 | 00:00:00 | |
| IW2NTF | 2026-09-05 23:26:24 | 45.44690 | 8.76339 | 115° | 58km/h | 7215m | 4m/s | -15.4°C | 45.3% | 0hPa | 2.9V | 08:30:00 | 00:52:31 | 00:00:00 | |
| IW2NTF | 2026-09-05 23:26:13 | 45.44740 | 8.76169 | 117° | 47km/h | 7175m | 5.5m/s | -15.1°C | 45.1% | 0hPa | 2.9V | 08:30:00 | 00:52:21 | 00:00:00 | |
| IW2NTF | 2026-09-05 23:26:03 | 45.44789 | 8.75990 | 105° | 58km/h | 7134m | 5.1m/s | -14.7°C | 44.7% | 0hPa | 2.8V | 08:30:00 | 00:52:11 | 00:00:00 | |
| IW2NTF | 2026-09-05 23:25:51 | 45.44842 | 8.75815 | 108° | 60km/h | 7094m | 5.4m/s | -14.3°C | 43.8% | 0hPa | 2.9V | 08:30:00 | 00:52:01 | 00:00:00 | |
| IW2NTF | 2026-09-05 23:25:41 | 45.44885 | 8.75629 | 112° | 51km/h | 7049m | 5.6m/s | -13.9°C | 43.7% | 0hPa | 2.9V | 08:30:00 | 00:51:51 | 00:00:00 | |
| IW2NTF | 2026-09-05 23:25:31 | 45.44932 | 8.75452 | 106° | 53km/h | 7003m | 4.2m/s | -13.5°C | 41.6% | 0hPa | 2.9V | 08:30:00 | 00:51:41 | 00:00:00 | |
| IW2NTF | 2026-09-05 23:25:21 | 45.44976 | 8.75277 | 111° | 53km/h | 6962m | 4.4m/s | -13.1°C | 40.9% | 0hPa | 2.9V | 08:30:00 | 00:51:31 | 00:00:00 | |
| IW2NTF | 2026-09-05 23:25:11 | 45.45029 | 8.75100 | 119° | 49km/h | 6920m | 4.5m/s | -12.8°C | 42.3% | 0hPa | 2.9V | 08:30:00 | 00:51:21 | 00:00:00 | |
| IW2NTF | 2026-09-05 23:25:01 | 45.45081 | 8.74942 | 118° | 49km/h | 6878m | 3.5m/s | -12.5°C | 42.9% | 0hPa | 2.8V | 08:30:00 | 00:51:11 | 00:00:00 | |
| IW2NTF | 2026-09-05 23:24:51 | 45.45143 | 8.74784 | 115° | 51km/h | 6837m | 4.1m/s | -12.1°C | 41.8% | 0hPa | 2.9V | 08:30:00 | 00:51:01 | 00:00:00 | |
| IW2NTF | 2026-09-05 23:24:41 | 45.45196 | 8.74626 | 116° | 51km/h | 6803m | 3.3m/s | -11.8°C | 41% | 0hPa | 2.9V | 08:30:00 | 00:50:51 | 00:00:00 | |
| IW2NTF | 2026-09-05 23:24:31 | 45.45254 | 8.74478 | 115° | 46km/h | 6768m | 3.5m/s | -11.5°C | 40.6% | 0hPa | 2.9V | 08:30:00 | 00:50:41 | 00:00:00 | |
| IW2NTF | 2026-09-05 23:24:25 | 45.45313 | 8.74317 | 118° | 44km/h | 6732m | 2.7m/s | -11.2°C | 40.3% | 0hPa | 2.9V | 08:30:00 | 00:50:31 | 00:00:00 | |
| IW2NTF | 2026-09-05 23:24:15 | 45.45367 | 8.74168 | 118° | 53km/h | 6696m | 4.2m/s | -11°C | 41% | 0hPa | 3V | 08:30:00 | 00:50:21 | 00:00:00 | |
| IW2NTF | 2026-09-05 23:24:05 | 45.45426 | 8.74008 | 116° | 47km/h | 6660m | 2.7m/s | -10.7°C | 40.9% | 0hPa | 3V | 08:30:00 | 00:50:11 | 00:00:00 | |
| IW2NTF | 2026-09-05 23:23:55 | 45.45491 | 8.73849 | 119° | 51km/h | 6628m | 3.9m/s | -10.4°C | 40.4% | 0hPa | 2.9V | 08:30:00 | 00:50:01 | 00:00:00 | |
| IW2NTF | 2026-09-05 23:23:45 | 45.45556 | 8.73692 | 119° | 55km/h | 6592m | 3.2m/s | -10.2°C | 40.1% | 0hPa | 3V | 08:30:00 | 00:49:51 | 00:00:00 | |
| IW2NTF | 2026-09-05 23:23:35 | 45.45623 | 8.73539 | 121° | 51km/h | 6557m | 2.7m/s | -9.8°C | 39.7% | 0hPa | 3V | 08:30:00 | 00:49:41 | 00:00:00 | |
| IW2NTF | 2026-09-05 23:23:25 | 45.45687 | 8.73388 | 119° | 47km/h | 6524m | 2.7m/s | -9.5°C | 38.7% | 0hPa | 3V | 08:30:00 | 00:49:31 | 00:00:00 | |
| IW2NTF | 2026-09-05 23:23:15 | 45.45760 | 8.73236 | 122° | 51km/h | 6489m | 4.1m/s | -9.2°C | 37.9% | 0hPa | 2.8V | 08:30:00 | 00:49:21 | 00:00:00 | |
| IW2NTF | 2026-09-05 23:23:05 | 45.45824 | 8.73086 | 125° | 53km/h | 6457m | 3m/s | -8.9°C | 37.7% | 0hPa | 2.9V | 08:30:00 | 00:49:11 | 00:00:00 | |
| IW2NTF | 2026-09-05 23:22:55 | 45.45891 | 8.72933 | 121° | 47km/h | 6422m | 4m/s | -8.7°C | 37.6% | 0hPa | 3V | 08:30:00 | 00:49:01 | 00:00:00 | |
| IW2NTF | 2026-09-05 23:22:45 | 45.45963 | 8.72780 | 118° | 47km/h | 6384m | 3.2m/s | -8.5°C | 38.4% | 0hPa | 3V | 08:30:00 | 00:48:51 | 00:00:00 | |
| IW2NTF | 2026-09-05 23:22:35 | 45.46027 | 8.72623 | 121° | 46km/h | 6343m | 4.3m/s | -8.2°C | 39.1% | 0hPa | 3V | 08:30:00 | 00:48:41 | 00:00:00 | |
| IW2NTF | 2026-09-05 23:22:23 | 45.46117 | 8.72456 | 127° | 44km/h | 6291m | 4.5m/s | -8°C | 40.9% | 0hPa | 3V | 08:30:00 | 00:48:29 | 00:00:00 | |
| IW2NTF | 2026-09-05 23:22:13 | 45.46198 | 8.72305 | 128° | 53km/h | 6255m | 3.5m/s | -7.7°C | 40.2% | 0hPa | 3V | 08:30:00 | 00:48:19 | 00:00:00 | |
| IW2NTF | 2026-09-05 23:22:03 | 45.46281 | 8.72165 | 130° | 49km/h | 6221m | 4.2m/s | -7.4°C | 40.1% | 0hPa | 3V | 08:30:00 | 00:48:09 | 00:00:00 | |
| IW2NTF | 2026-09-05 23:21:53 | 45.46362 | 8.72019 | 130° | 49km/h | 6183m | 3.4m/s | -7.1°C | 39.2% | 0hPa | 3V | 08:30:00 | 00:47:59 | 00:00:00 | |
| IW2NTF | 2026-09-05 23:21:43 | 45.46444 | 8.71877 | 131° | 53km/h | 6147m | 3.5m/s | -6.8°C | 38.6% | 0hPa | 3V | 08:30:00 | 00:47:49 | 00:00:00 | |
| IW2NTF | 2026-09-05 23:21:33 | 45.46538 | 8.71733 | 135° | 51km/h | 6111m | 2.9m/s | -6.5°C | 38.9% | 0hPa | 3V | 08:30:00 | 00:47:39 | 00:00:00 | |
| IW2NTF | 2026-09-05 23:21:23 | 45.46626 | 8.71597 | 130° | 55km/h | 6078m | 2.6m/s | -6.4°C | 39.2% | 0hPa | 3V | 08:30:00 | 00:47:29 | 00:00:00 | |
| IW2NTF | 2026-09-05 23:21:13 | 45.46717 | 8.71465 | 136° | 49km/h | 6043m | 4.2m/s | -6.2°C | 39.5% | 0hPa | 3V | 08:30:00 | 00:47:19 | 00:00:00 | |
| IW2NTF | 2026-09-05 23:21:03 | 45.46810 | 8.71336 | 138° | 53km/h | 6009m | 4.1m/s | -6°C | 40.3% | 0hPa | 3V | 08:30:00 | 00:47:09 | 00:00:00 | |
| IW2NTF | 2026-09-05 23:20:53 | 45.46906 | 8.71210 | 135° | 49km/h | 5973m | 3.6m/s | -5.9°C | 41.8% | 0hPa | 3V | 08:30:00 | 00:46:59 | 00:00:00 | |
| IW2NTF | 2026-09-05 23:20:43 | 45.47000 | 8.71081 | 131° | 51km/h | 5936m | 3.1m/s | -5.7°C | 41.9% | 0hPa | 3V | 08:30:00 | 00:46:49 | 00:00:00 | |
| IW2NTF | 2026-09-05 23:20:33 | 45.47091 | 8.70948 | 139° | 49km/h | 5902m | 3m/s | -5.5°C | 43.5% | 0hPa | 3V | 08:30:00 | 00:46:39 | 00:00:00 | |
| IW2NTF | 2026-09-05 23:20:23 | 45.47190 | 8.70816 | 132° | 57km/h | 5865m | 3.4m/s | -5.5°C | 45.5% | 0hPa | 3V | 08:30:00 | 00:46:29 | 00:00:00 | |
| IW2NTF | 2026-09-05 23:20:13 | 45.47285 | 8.70683 | 137° | 55km/h | 5827m | 3.5m/s | -5.2°C | 45.4% | 0hPa | 3V | 08:30:00 | 00:46:19 | 00:00:00 | |
| IW2NTF | 2026-09-05 23:20:03 | 45.47379 | 8.70555 | 133° | 55km/h | 5790m | 3.5m/s | -5°C | 46.6% | 0hPa | 3V | 08:30:00 | 00:46:09 | 00:00:00 | |
| IW2NTF | 2026-09-05 23:19:54 | 45.47479 | 8.70406 | 130° | 51km/h | 5754m | 3.8m/s | -4.8°C | 47% | 0hPa | 3V | 08:30:00 | 00:45:59 | 00:00:00 | |
| IW2NTF | 2026-09-05 23:19:42 | 45.47582 | 8.70256 | 135° | 51km/h | 5711m | 3.1m/s | -4.5°C | 45.9% | 0hPa | 3V | 08:30:00 | 00:45:48 | 00:00:00 | |
| IW2NTF | 2026-09-05 23:19:32 | 45.47673 | 8.70127 | 131° | 57km/h | 5669m | 4.7m/s | -4.2°C | 44.4% | 0hPa | 3V | 08:30:00 | 00:45:38 | 00:00:00 | |
| IW2NTF | 2026-09-05 23:19:22 | 45.47774 | 8.69992 | 135° | 53km/h | 5625m | 5.4m/s | -3.9°C | 46% | 0hPa | 3V | 08:30:00 | 00:45:28 | 00:00:00 | |
| IW2NTF | 2026-09-05 23:19:12 | 45.47867 | 8.69859 | 140° | 55km/h | 5581m | 5.8m/s | -3.6°C | 45.3% | 0hPa | 3V | 08:30:00 | 00:45:18 | 00:00:00 | |
| IW2NTF | 2026-09-05 23:19:02 | 45.47964 | 8.69729 | 143° | 51km/h | 5527m | 4.3m/s | -3.4°C | 47.3% | 0hPa | 3V | 08:30:00 | 00:45:08 | 00:00:00 | |
| IW2NTF | 2026-09-05 23:18:52 | 45.48070 | 8.69592 | 136° | 53km/h | 5481m | 4.6m/s | -3.2°C | 47% | 0hPa | 3V | 08:30:00 | 00:44:58 | 00:00:00 | |
| IW2NTF | 2026-09-05 23:18:42 | 45.48171 | 8.69468 | 142° | 55km/h | 5439m | 3.7m/s | -3°C | 48.2% | 0hPa | 3V | 08:30:00 | 00:44:48 | 00:00:00 | |
| IW2NTF | 2026-09-05 23:18:32 | 45.48272 | 8.69346 | 143° | 57km/h | 5398m | 4.1m/s | -2.6°C | 48% | 0hPa | 3V | 08:30:00 | 00:44:38 | 00:00:00 | |
| IW2NTF | 2026-09-05 23:18:22 | 45.48381 | 8.69248 | 146° | 57km/h | 5336m | 7.6m/s | -2.1°C | 45.8% | 0hPa | 3V | 08:30:00 | 00:44:28 | 00:00:00 | |
| IW2NTF | 2026-09-05 23:18:12 | 45.48496 | 8.69139 | 151° | 49km/h | 5285m | 3.4m/s | -1.8°C | 46.4% | 0hPa | 2.9V | 08:30:00 | 00:44:18 | 00:00:00 | |
| IW2NTF | 2026-09-05 23:18:02 | 45.48611 | 8.69023 | 145° | 57km/h | 5232m | 6.2m/s | -1.6°C | 47.6% | 0hPa | 3V | 08:30:00 | 00:44:08 | 00:00:00 | |
| IW2NTF | 2026-09-05 23:17:52 | 45.48724 | 8.68926 | 148° | 47km/h | 5176m | 5.2m/s | -1.3°C | 50.5% | 0hPa | 3V | 08:30:00 | 00:43:58 | 00:00:00 | |
| IW2NTF | 2026-09-05 23:17:42 | 45.48838 | 8.68834 | 153° | 53km/h | 5125m | 5.9m/s | -1°C | 47.6% | 0hPa | 3V | 08:30:00 | 00:43:48 | 00:00:00 | |
| IW2NTF | 2026-09-05 23:17:32 | 45.48952 | 8.68737 | 152° | 49km/h | 5066m | 6.4m/s | -0.7°C | 48% | 0hPa | 3V | 08:30:00 | 00:43:38 | 00:00:00 | |
| IW2NTF | 2026-09-05 23:17:22 | 45.49106 | 8.68600 | 140° | 53km/h | 4994m | 6.4m/s | -0.2°C | 48.2% | 0hPa | 3V | 08:30:00 | 00:43:24 | 00:00:00 | |
| IW2NTF | 2026-09-05 23:17:16 | 45.49125 | 8.68578 | 143° | 46km/h | 4983m | 5m/s | -0.2°C | 48.1% | 0hPa | 3V | 08:30:00 | 00:43:22 | 00:00:00 | |
| IW2NTF | 2026-09-05 23:17:16 | 45.49259 | 8.68455 | 144° | 47km/h | 4916m | 6m/s | 0.2°C | 47.4% | 0hPa | 3V | 08:30:00 | 00:43:10 | 00:00:00 | |
| IW2NTF | 2026-09-05 23:17:05 | 45.49319 | 8.68398 | 149° | 53km/h | 4883m | 4.9m/s | 0.4°C | 50% | 0hPa | 3V | 08:30:00 | 00:43:04 | 00:00:00 | |
| IW2NTF | 2026-09-05 23:16:52 | 45.49386 | 8.68341 | 147° | 47km/h | 4851m | 5.8m/s | 0.5°C | 49.5% | 0hPa | 3V | 08:30:00 | 00:42:58 | 00:00:00 | |
| IW2NTF | 2026-09-05 23:16:46 | 45.49455 | 8.68279 | 143° | 57km/h | 4820m | 4.9m/s | 0.7°C | 50.6% | 0hPa | 3V | 08:30:00 | 00:42:52 | 00:00:00 | |
| IW2NTF | 2026-09-05 23:16:40 | 45.49527 | 8.68210 | 146° | 57km/h | 4792m | 4.3m/s | 0.7°C | 52.9% | 0hPa | 3V | 08:30:00 | 00:42:46 | 00:00:00 | |
| IW2NTF | 2026-09-05 23:16:34 | 45.49594 | 8.68155 | 154° | 55km/h | 4761m | 4.2m/s | 0.8°C | 52.5% | 0hPa | 3V | 08:30:00 | 00:42:40 | 00:00:00 | |
| IW2NTF | 2026-09-05 23:16:28 | 45.49663 | 8.68099 | 145° | 46km/h | 4732m | 6.4m/s | 0.8°C | 53.9% | 0hPa | 3V | 08:30:00 | 00:42:34 | 00:00:00 | |
| IW2NTF | 2026-09-05 23:16:22 | 45.49728 | 8.68038 | 152° | 55km/h | 4696m | 4.6m/s | 0.9°C | 53.2% | 0hPa | 3V | 08:30:00 | 00:42:28 | 00:00:00 | |
| IW2NTF | 2026-09-05 23:16:16 | 45.49798 | 8.67994 | 150° | 47km/h | 4664m | 5.3m/s | 1.1°C | 52.5% | 0hPa | 3V | 08:30:00 | 00:42:22 | 00:00:00 | |
| IW2NTF | 2026-09-05 23:16:10 | 45.49866 | 8.67935 | 148° | 55km/h | 4636m | 4.7m/s | 1.3°C | 51.8% | 0hPa | 3V | 08:30:00 | 00:42:16 | 00:00:00 | |
| IW2NTF | 2026-09-05 23:16:04 | 45.49931 | 8.67885 | 156° | 46km/h | 4604m | 4.7m/s | 1.5°C | 50.3% | 0hPa | 3V | 08:30:00 | 00:42:10 | 00:00:00 | |
| IW2NTF | 2026-09-05 23:15:58 | 45.49995 | 8.67838 | 149° | 46km/h | 4571m | 6.5m/s | 1.7°C | 49.3% | 0hPa | 3V | 08:30:00 | 00:42:04 | 00:00:00 | |
| IW2NTF | 2026-09-05 23:15:52 | 45.50056 | 8.67787 | 150° | 46km/h | 4535m | 5.9m/s | 2°C | 48.2% | 0hPa | 3V | 08:30:00 | 00:41:58 | 00:00:00 | |
| IW2NTF | 2026-09-05 23:15:46 | 45.50118 | 8.67730 | 147° | 47km/h | 4506m | 3.8m/s | 2.1°C | 47.9% | 0hPa | 3V | 08:30:00 | 00:41:52 | 00:00:00 | |
| IW2NTF | 2026-09-05 23:15:40 | 45.50180 | 8.67682 | 150° | 46km/h | 4481m | 3.2m/s | 2°C | 51.7% | 0hPa | 3V | 08:30:00 | 00:41:46 | 00:00:00 | |
| IW2NTF | 2026-09-05 23:15:35 | 45.50233 | 8.67637 | 145° | 37km/h | 4458m | 2.6m/s | 2.1°C | 52.1% | 0hPa | 3V | 08:30:00 | 00:41:40 | 00:00:00 | |
| IW2NTF | 2026-09-05 23:15:23 | 45.50280 | 8.67603 | 157° | 40km/h | 4435m | 5.5m/s | 2.3°C | 52.1% | 0hPa | 3V | 08:30:00 | 00:41:34 | 00:00:00 | |
| IW2NTF | 2026-09-05 23:15:23 | 45.50338 | 8.67551 | 146° | 44km/h | 4403m | 5.5m/s | 2.6°C | 51% | 0hPa | 3V | 08:30:00 | 00:41:28 | 00:00:00 | |
| IW2NTF | 2026-09-05 23:15:17 | 45.50394 | 8.67518 | 152° | 40km/h | 4372m | 3.5m/s | 2.8°C | 51.3% | 0hPa | 3V | 08:30:00 | 00:41:22 | 00:00:00 | |
| IW2NTF | 2026-09-05 23:15:10 | 45.50453 | 8.67471 | 153° | 44km/h | 4344m | 5.7m/s | 3°C | 51% | 0hPa | 3V | 08:30:00 | 00:41:16 | 00:00:00 | |
| IW2NTF | 2026-09-05 23:15:04 | 45.50505 | 8.67428 | 148° | 37km/h | 4316m | 3.8m/s | 3.2°C | 51.4% | 0hPa | 3V | 08:30:00 | 00:41:10 | 00:00:00 | |
| IW2NTF | 2026-09-05 23:14:58 | 45.50557 | 8.67384 | 155° | 46km/h | 4290m | 4m/s | 3.3°C | 52.1% | 0hPa | 3V | 08:30:00 | 00:41:04 | 00:00:00 | |
| IW2NTF | 2026-09-05 23:14:52 | 45.50615 | 8.67333 | 142° | 44km/h | 4262m | 5.2m/s | 3.5°C | 53.1% | 0hPa | 3V | 08:30:00 | 00:40:58 | 00:00:00 | |
| IW2NTF | 2026-09-05 23:14:41 | 45.50666 | 8.67291 | 162° | 40km/h | 4236m | 5.2m/s | 3.4°C | 54.9% | 0hPa | 3V | 08:30:00 | 00:40:52 | 00:00:00 | |
| IW2NTF | 2026-09-05 23:14:41 | 45.50721 | 8.67251 | 135° | 40km/h | 4208m | 4.1m/s | 3.6°C | 54.1% | 0hPa | 3V | 08:30:00 | 00:40:46 | 00:00:00 | |
| IW2NTF | 2026-09-05 23:14:35 | 45.50775 | 8.67203 | 159° | 46km/h | 4184m | 4.8m/s | 3.8°C | 53.2% | 0hPa | 3V | 08:30:00 | 00:40:40 | 00:00:00 | |
| IW2NTF | 2026-09-05 23:14:29 | 45.50838 | 8.67160 | 151° | 49km/h | 4155m | 5.2m/s | 4°C | 53.1% | 0hPa | 3V | 08:30:00 | 00:40:34 | 00:00:00 | |
| IW2NTF | 2026-09-05 23:14:23 | 45.50899 | 8.67110 | 148° | 42km/h | 4131m | 4.5m/s | 4.1°C | 52.7% | 0hPa | 3V | 08:30:00 | 00:40:28 | 00:00:00 | |
| IW2NTF | 2026-09-05 23:14:16 | 45.50950 | 8.67057 | 146° | 38km/h | 4107m | 2.8m/s | 4°C | 54.1% | 0hPa | 3V | 08:30:00 | 00:40:22 | 00:00:00 | |
| IW2NTF | 2026-09-05 23:14:10 | 45.51000 | 8.67013 | 145° | 46km/h | 4090m | 3.1m/s | 3.9°C | 56.7% | 0hPa | 3V | 08:30:00 | 00:40:16 | 00:00:00 | |
| IW2NTF | 2026-09-05 23:14:04 | 45.51051 | 8.66953 | 147° | 40km/h | 4073m | 2.6m/s | 3.9°C | 56.9% | 0hPa | 3V | 08:30:00 | 00:40:10 | 00:00:00 | |
| IW2NTF | 2026-09-05 23:13:58 | 45.51107 | 8.66906 | 138° | 47km/h | 4055m | 3.7m/s | 4°C | 56.1% | 0hPa | 3V | 08:30:00 | 00:40:04 | 00:00:00 | |
| IW2NTF | 2026-09-05 23:13:52 | 45.51141 | 8.66842 | 141° | 27km/h | 4025m | 5.5m/s | 4.3°C | 55.2% | 0hPa | 3V | 08:30:00 | 00:39:58 | 00:00:00 | |
| IW2NTF | 2026-09-05 23:13:47 | 45.51182 | 8.66805 | 128° | 29km/h | 3994m | 4.6m/s | 4.5°C | 54.4% | 0hPa | 3V | 08:30:00 | 00:39:52 | 00:00:00 | |
| IW2NTF | 2026-09-05 23:13:40 | 45.51217 | 8.66747 | 146° | 42km/h | 3968m | 5.8m/s | 4.8°C | 53.3% | 0hPa | 3V | 08:30:00 | 00:39:46 | 00:00:00 | |
| IW2NTF | 2026-09-05 23:13:34 | 45.51258 | 8.66713 | 125° | 33km/h | 3936m | 5.6m/s | 5.1°C | 52.6% | 0hPa | 3V | 08:30:00 | 00:39:40 | 00:00:00 | |
| IW2NTF | 2026-09-05 23:13:28 | 45.51300 | 8.66648 | 143° | 38km/h | 3901m | 6.3m/s | 5.3°C | 51.1% | 0hPa | 3V | 08:30:00 | 00:39:34 | 00:00:00 | |
| IW2NTF | 2026-09-05 23:13:22 | 45.51324 | 8.66606 | 122° | 29km/h | 3864m | 4.7m/s | 5.7°C | 50.6% | 0hPa | 3V | 08:30:00 | 00:39:28 | 00:00:00 | |
| IW2NTF | 2026-09-05 23:13:16 | 45.51358 | 8.66567 | 133° | 18km/h | 3829m | 5.5m/s | 6°C | 49.6% | 0hPa | 3V | 08:30:00 | 00:39:22 | 00:00:00 | |
| IW2NTF | 2026-09-05 23:13:08 | 45.51392 | 8.66496 | 142° | 33km/h | 3791m | 5.3m/s | 6.1°C | 48.9% | 0hPa | 3V | 08:30:00 | 00:39:14 | 00:00:00 | |
| IW2NTF | 2026-09-05 23:13:02 | 45.51420 | 8.66455 | 113° | 24km/h | 3763m | 5.9m/s | 5.6°C | 50.5% | 0hPa | 3V | 08:30:00 | 00:39:08 | 00:00:00 | |
| IW2NTF | 2026-09-05 23:12:56 | 45.51424 | 8.66423 | 156° | 4km/h | 3722m | 7.1m/s | 5.9°C | 49.2% | 0hPa | 3V | 08:30:00 | 00:39:02 | 00:00:00 | |
| IW2NTF | 2026-09-05 23:12:50 | 45.51442 | 8.66430 | 178° | 13km/h | 3691m | 4.2m/s | 5.9°C | 45.1% | 0hPa | 3V | 08:30:00 | 00:38:56 | 00:00:00 | |
| IW2NTF | 2026-09-05 23:12:44 | 45.51459 | 8.66429 | 200° | 16km/h | 3660m | 2.9m/s | 6.1°C | 44% | 0hPa | 3V | 08:30:00 | 00:38:50 | 00:00:00 | |
| IW2NTF | 2026-09-05 23:12:38 | 45.51468 | 8.66432 | 76° | 11km/h | 3635m | 5m/s | 6.3°C | 43.4% | 0hPa | 3V | 08:30:00 | 00:38:44 | 00:00:00 | |
| IW2NTF | 2026-09-05 23:12:32 | 45.51470 | 8.66418 | 185° | 15km/h | 3605m | 5.8m/s | 6.6°C | 42.9% | 0hPa | 3V | 08:30:00 | 00:38:38 | 00:00:00 | |
| IW2NTF | 2026-09-05 23:12:26 | 45.51492 | 8.66421 | 146° | 13km/h | 3575m | 4.1m/s | 6.4°C | 43.7% | 0hPa | 3V | 08:30:00 | 00:38:32 | 00:00:00 | |
| IW2NTF | 2026-09-05 23:12:20 | 45.51518 | 8.66387 | 146° | 27km/h | 3541m | 4.7m/s | 6°C | 44.6% | 0hPa | 3V | 08:30:00 | 00:38:26 | 00:00:00 | |
| IW2NTF | 2026-09-05 23:12:14 | 45.51536 | 8.66354 | 118° | 18km/h | 3504m | 3.7m/s | 6°C | 45.8% | 0hPa | 3V | 08:30:00 | 00:38:20 | 00:00:00 | |
| IW2NTF | 2026-09-05 23:12:08 | 45.51564 | 8.66305 | 132° | 29km/h | 3482m | 3.3m/s | 6.2°C | 44.2% | 0hPa | 3V | 08:30:00 | 00:38:14 | 00:00:00 | |
| IW2NTF | 2026-09-05 23:12:02 | 45.51574 | 8.66265 | 80° | 20km/h | 3451m | 6.4m/s | 6.4°C | 46.1% | 0hPa | 3V | 08:30:00 | 00:38:08 | 00:00:00 | |
| IW2NTF | 2026-09-05 23:11:56 | 45.51587 | 8.66207 | 111° | 38km/h | 3418m | 4.5m/s | 6.6°C | 46.7% | 0hPa | 3V | 08:30:00 | 00:38:02 | 00:00:00 | |
| IW2NTF | 2026-09-05 23:11:50 | 45.51600 | 8.66150 | 114° | 20km/h | 3395m | 4.1m/s | 6.5°C | 52.7% | 0hPa | 3V | 08:30:00 | 00:37:56 | 00:00:00 | |
| IW2NTF | 2026-09-05 23:11:45 | 45.51621 | 8.66112 | 107° | 29km/h | 3372m | 4.7m/s | 6.8°C | 50.7% | 0hPa | 3V | 08:30:00 | 00:37:50 | 00:00:00 | |
| IW2NTF | 2026-09-05 23:11:38 | 45.51632 | 8.66030 | 106° | 37km/h | 3338m | 3.3m/s | 6.8°C | 55.1% | 0hPa | 3V | 08:30:00 | 00:37:44 | 00:00:00 | |
| IW2NTF | 2026-09-05 23:11:32 | 45.51649 | 8.65973 | 108° | 16km/h | 3307m | 6.1m/s | 6.9°C | 58.2% | 0hPa | 3V | 08:30:00 | 00:37:38 | 00:00:00 | |
| IW2NTF | 2026-09-05 23:11:26 | 45.51648 | 8.65941 | 86° | 16km/h | 3272m | 5.1m/s | 7.2°C | 59% | 0hPa | 3V | 08:30:00 | 00:37:32 | 00:00:00 | |
| IW2NTF | 2026-09-05 23:11:20 | 45.51648 | 8.65896 | 79° | 29km/h | 3239m | 5.3m/s | 7.4°C | 59% | 0hPa | 3V | 08:30:00 | 00:37:26 | 00:00:00 | |
| IW2NTF | 2026-09-05 23:11:14 | 45.51637 | 8.65840 | 76° | 18km/h | 3210m | 5.2m/s | 7.5°C | 62.3% | 0hPa | 3V | 08:30:00 | 00:37:20 | 00:00:00 | |
| IW2NTF | 2026-09-05 23:11:08 | 45.51630 | 8.65799 | 64° | 20km/h | 3180m | 5m/s | 7.3°C | 70.4% | 0hPa | 3V | 08:30:00 | 00:37:14 | 00:00:00 | |
| IW2NTF | 2026-09-05 23:11:02 | 45.51624 | 8.65753 | 77° | 24km/h | 3150m | 3.5m/s | 7.4°C | 71.5% | 0hPa | 3V | 08:30:00 | 00:37:08 | 00:00:00 | |
| IW2NTF | 2026-09-05 23:10:56 | 45.51612 | 8.65708 | 64° | 24km/h | 3128m | 3.1m/s | 7.6°C | 70.9% | 0hPa | 3V | 08:30:00 | 00:37:02 | 00:00:00 | |
| IW2NTF | 2026-09-05 23:10:50 | 45.51598 | 8.65666 | 72° | 20km/h | 3106m | 3.3m/s | 7.7°C | 70.1% | 0hPa | 3V | 08:30:00 | 00:36:56 | 00:00:00 | |
| IW2NTF | 2026-09-05 23:10:44 | 45.51591 | 8.65627 | 72° | 18km/h | 3086m | 3.7m/s | 7.7°C | 68.3% | 0hPa | 3V | 08:30:00 | 00:36:50 | 00:00:00 | |
| IW2NTF | 2026-09-05 23:10:38 | 45.51568 | 8.65589 | 53° | 27km/h | 3065m | 2.8m/s | 7.8°C | 68.5% | 0hPa | 3V | 08:30:00 | 00:36:44 | 00:00:00 | |
| IW2NTF | 2026-09-05 23:10:32 | 45.51545 | 8.65533 | 48° | 24km/h | 3039m | 4.4m/s | 7.9°C | 72.3% | 0hPa | 3V | 08:30:00 | 00:36:38 | 00:00:00 | |
| IW2NTF | 2026-09-05 23:10:27 | 45.51527 | 8.65519 | 3° | 9km/h | 3005m | 7.5m/s | 8.1°C | 75.1% | 0hPa | 3V | 08:30:00 | 00:36:32 | 00:00:00 | |
| IW2NTF | 2026-09-05 23:10:20 | 45.51501 | 8.65501 | 40° | 24km/h | 2973m | 5.7m/s | 8.4°C | 74.1% | 0hPa | 3V | 08:30:00 | 00:36:26 | 00:00:00 | |
| IW2NTF | 2026-09-05 23:10:14 | 45.51476 | 8.65474 | 29° | 15km/h | 2945m | 5m/s | 8.6°C | 70.5% | 0hPa | 3V | 08:30:00 | 00:36:20 | 00:00:00 | |
| IW2NTF | 2026-09-05 23:10:08 | 45.51453 | 8.65449 | 34° | 22km/h | 2921m | 3.6m/s | 8.8°C | 68.4% | 0hPa | 3V | 08:30:00 | 00:36:14 | 00:00:00 | |
| IW2NTF | 2026-09-05 23:10:02 | 45.51435 | 8.65423 | 28° | 7km/h | 2898m | 4.2m/s | 9.1°C | 65.7% | 0hPa | 3V | 08:30:00 | 00:36:08 | 00:00:00 | |
| IW2NTF | 2026-09-05 23:09:56 | 45.51426 | 8.65424 | 54° | 7km/h | 2876m | 4.9m/s | 9.3°C | 63.8% | 0hPa | 3V | 08:30:00 | 00:36:02 | 00:00:00 | |
| IW2NTF | 2026-09-05 23:09:50 | 45.51413 | 8.65402 | 24° | 15km/h | 2843m | 4.4m/s | 9.5°C | 64.5% | 0hPa | 3V | 08:30:00 | 00:35:56 | 00:00:00 | |
| IW2NTF | 2026-09-05 23:09:44 | 45.51400 | 8.65389 | 24° | 13km/h | 2816m | 4.6m/s | 9.7°C | 65.2% | 0hPa | 3V | 08:30:00 | 00:35:50 | 00:00:00 | |
| IW2NTF | 2026-09-05 23:09:38 | 45.51383 | 8.65374 | 32° | 13km/h | 2793m | 4.6m/s | 9.9°C | 65.9% | 0hPa | 3V | 08:30:00 | 00:35:44 | 00:00:00 | |
| IW2NTF | 2026-09-05 23:09:32 | 45.51369 | 8.65353 | 28° | 15km/h | 2772m | 3.4m/s | 10.1°C | 64.4% | 0hPa | 3V | 08:30:00 | 00:35:38 | 00:00:00 | |
| IW2NTF | 2026-09-05 23:09:26 | 45.51349 | 8.65338 | 56° | 20km/h | 2752m | 3.4m/s | 10.3°C | 63.4% | 0hPa | 3V | 08:30:00 | 00:35:32 | 00:00:00 | |
| IW2NTF | 2026-09-05 23:09:18 | 45.51337 | 8.65297 | 43° | 9km/h | 2720m | 6.8m/s | 10.6°C | 64.3% | 0hPa | 3V | 08:30:00 | 00:35:24 | 00:00:00 | |
| IW2NTF | 2026-09-05 23:09:12 | 45.51312 | 8.65271 | 29° | 22km/h | 2684m | 3.4m/s | 10.9°C | 63.7% | 0hPa | 3V | 08:30:00 | 00:35:18 | 00:00:00 | |
| IW2NTF | 2026-09-05 23:09:06 | 45.51280 | 8.65260 | 358° | 18km/h | 2659m | 4.9m/s | 11.2°C | 63% | 0hPa | 3V | 08:30:00 | 00:35:12 | 00:00:00 | |
| IW2NTF | 2026-09-05 23:09:00 | 45.51265 | 8.65255 | 55° | 13km/h | 2631m | 5.1m/s | 11.4°C | 61.7% | 0hPa | 3V | 08:30:00 | 00:35:06 | 00:00:00 | |
| IW2NTF | 2026-09-05 23:08:54 | 45.51246 | 8.65232 | 29° | 13km/h | 2608m | 2.4m/s | 11.6°C | 61.7% | 0hPa | 3V | 08:30:00 | 00:35:00 | 00:00:00 | |
| IW2NTF | 2026-09-05 23:08:48 | 45.51231 | 8.65221 | 3° | 9km/h | 2588m | 3.1m/s | 11.8°C | 58.4% | 0hPa | 3V | 08:30:00 | 00:34:54 | 00:00:00 | |
| IW2NTF | 2026-09-05 23:08:38 | 45.51225 | 8.65213 | 47° | 13km/h | 2570m | 3m/s | 12°C | 57.9% | 0hPa | 3V | 08:30:00 | 00:34:48 | 00:00:00 | |
| IW2NTF | 2026-09-05 23:08:38 | 45.51216 | 8.65187 | 103° | 2km/h | 2539m | 5m/s | 12.3°C | 57.1% | 0hPa | 3V | 08:30:00 | 00:34:42 | 00:00:00 | |
| IW2NTF | 2026-09-05 23:08:31 | 45.51200 | 8.65195 | 15° | 18km/h | 2508m | 5m/s | 12.6°C | 55.9% | 0hPa | 3V | 08:30:00 | 00:34:36 | 00:00:00 | |
| IW2NTF | 2026-09-05 23:08:25 | 45.51185 | 8.65169 | 52° | 7km/h | 2480m | 4.8m/s | 12.9°C | 54.6% | 0hPa | 3V | 08:30:00 | 00:34:30 | 00:00:00 | |
| IW2NTF | 2026-09-05 23:08:19 | 45.51170 | 8.65169 | 19° | 7km/h | 2449m | 6.2m/s | 13.2°C | 53% | 0hPa | 3V | 08:30:00 | 00:34:24 | 00:00:00 | |
| IW2NTF | 2026-09-05 23:08:13 | 45.51170 | 8.65160 | 83° | 9km/h | 2422m | 3.4m/s | 13.3°C | 51.4% | 0hPa | 3V | 08:30:00 | 00:34:18 | 00:00:00 | |
| IW2NTF | 2026-09-05 23:08:03 | 45.51162 | 8.65137 | 359° | 9km/h | 2393m | 5m/s | 13.5°C | 50.8% | 0hPa | 3V | 08:30:00 | 00:34:12 | 00:00:00 | |
| IW2NTF | 2026-09-05 23:08:03 | 45.51138 | 8.65154 | 353° | 16km/h | 2368m | 4.2m/s | 13.7°C | 51.7% | 0hPa | 3V | 08:30:00 | 00:34:06 | 00:00:00 | |
| IW2NTF | 2026-09-05 23:07:56 | 45.51128 | 8.65147 | 16° | 7km/h | 2344m | 3.7m/s | 13.9°C | 51.1% | 0hPa | 3V | 08:30:00 | 00:34:00 | 00:00:00 | |
| IW2NTF | 2026-09-05 23:07:50 | 45.51110 | 8.65145 | 347° | 11km/h | 2318m | 3.2m/s | 14.2°C | 50.4% | 0hPa | 3V | 08:30:00 | 00:33:54 | 00:00:00 | |
| IW2NTF | 2026-09-05 23:07:39 | 45.51093 | 8.65153 | 353° | 15km/h | 2298m | 3.8m/s | 14.3°C | 49.7% | 0hPa | 3V | 08:30:00 | 00:33:48 | 00:00:00 | |
| IW2NTF | 2026-09-05 23:07:39 | 45.51077 | 8.65156 | 340° | 7km/h | 2278m | 2.2m/s | 14.2°C | 52.3% | 0hPa | 3V | 08:30:00 | 00:33:42 | 00:00:00 | |
| IW2NTF | 2026-09-05 23:07:32 | 45.51073 | 8.65168 | 302° | 11km/h | 2259m | 3.4m/s | 14.4°C | 51.3% | 0hPa | 3V | 08:30:00 | 00:33:36 | 00:00:00 | |
| IW2NTF | 2026-09-05 23:07:25 | 45.51054 | 8.65176 | 19° | 13km/h | 2234m | 7.1m/s | 14.6°C | 51.3% | 0hPa | 3V | 08:30:00 | 00:33:30 | 00:00:00 | |
| IW2NTF | 2026-09-05 23:07:19 | 45.51046 | 8.65176 | 337° | 13km/h | 2203m | 4.2m/s | 14.8°C | 51.5% | 0hPa | 3V | 08:30:00 | 00:33:24 | 00:00:00 | |
| IW2NTF | 2026-09-05 23:07:11 | 45.51021 | 8.65177 | 308° | 11km/h | 2162m | 4.6m/s | 15°C | 51.8% | 0hPa | 3V | 08:30:00 | 00:33:16 | 00:00:00 | |
| IW2NTF | 2026-09-05 23:07:05 | 45.51010 | 8.65192 | 227° | 2km/h | 2138m | 4.8m/s | 15.2°C | 51.4% | 0hPa | 3V | 08:30:00 | 00:33:10 | 00:00:00 | |
| IW2NTF | 2026-09-05 23:06:59 | 45.51012 | 8.65202 | 325° | 9km/h | 2104m | 6.5m/s | 15.5°C | 48.7% | 0hPa | 3V | 08:30:00 | 00:33:04 | 00:00:00 | |
| IW2NTF | 2026-09-05 23:06:53 | 45.51009 | 8.65206 | 242° | 5km/h | 2071m | 6.1m/s | 15.8°C | 48.1% | 0hPa | 3V | 08:30:00 | 00:32:58 | 00:00:00 | |
| IW2NTF | 2026-09-05 23:06:47 | 45.51006 | 8.65225 | 252° | 9km/h | 2049m | 3.6m/s | 16°C | 47.7% | 0hPa | 3V | 08:30:00 | 00:32:52 | 00:00:00 | |
| IW2NTF | 2026-09-05 23:06:41 | 45.51021 | 8.65221 | 110° | 9km/h | 2024m | 3.3m/s | 16.3°C | 46.4% | 0hPa | 3V | 08:30:00 | 00:32:46 | 00:00:00 | |
| IW2NTF | 2026-09-05 23:06:33 | 45.51012 | 8.65222 | 328° | 13km/h | 1997m | 3.1m/s | 16.5°C | 45.1% | 0hPa | 3V | 08:30:00 | 00:32:40 | 00:00:00 | |
| IW2NTF | 2026-09-05 23:06:33 | 45.51006 | 8.65228 | 316° | 11km/h | 1991m | 3.6m/s | 16.6°C | 44.8% | 0hPa | 3V | 08:30:00 | 00:32:38 | 00:00:00 | |
| IW2NTF | 2026-09-05 23:06:26 | 45.51001 | 8.65232 | 347° | 9km/h | 1985m | 3.1m/s | 16.6°C | 44.4% | 0hPa | 3V | 08:30:00 | 00:32:36 | 00:00:00 | |
| IW2NTF | 2026-09-05 23:06:26 | 45.50997 | 8.65233 | 330° | 4km/h | 1976m | 5.8m/s | 16.7°C | 44.1% | 0hPa | 3V | 08:30:00 | 00:32:34 | 00:00:00 | |
| IW2NTF | 2026-09-05 23:06:26 | 45.51006 | 8.65238 | 205° | 16km/h | 1955m | 7m/s | 16.9°C | 43.1% | 0hPa | 3V | 08:30:00 | 00:32:30 | 00:00:00 | |
| IW2NTF | 2026-09-05 23:06:20 | 45.51011 | 8.65245 | 242° | 15km/h | 1943m | 5.1m/s | 17°C | 42.9% | 0hPa | 3V | 08:30:00 | 00:32:28 | 00:00:00 | |
| IW2NTF | 2026-09-05 23:06:20 | 45.51013 | 8.65264 | 288° | 9km/h | 1921m | 5.3m/s | 17.2°C | 42.2% | 0hPa | 3V | 08:30:00 | 00:32:24 | 00:00:00 | |
| IW2NTF | 2026-09-05 23:06:14 | 45.51013 | 8.65266 | 145° | 4km/h | 1912m | 4.2m/s | 17.4°C | 42.2% | 0hPa | 3V | 08:30:00 | 00:32:22 | 00:00:00 | |
| IW2NTF | 2026-09-05 23:06:14 | 45.51017 | 8.65263 | 163° | 11km/h | 1901m | 6.5m/s | 17.5°C | 41.9% | 0hPa | 3V | 08:30:00 | 00:32:20 | 00:00:00 | |
| IW2NTF | 2026-09-05 23:06:14 | 45.51024 | 8.65264 | 200° | 18km/h | 1891m | 5.2m/s | 17.6°C | 41.7% | 0hPa | 3V | 08:30:00 | 00:32:18 | 00:00:00 | |
| IW2NTF | 2026-09-05 23:06:07 | 45.51032 | 8.65273 | 225° | 18km/h | 1881m | 3.9m/s | 17.6°C | 41.4% | 0hPa | 3V | 08:30:00 | 00:32:16 | 00:00:00 | |
| IW2NTF | 2026-09-05 23:06:07 | 45.51039 | 8.65284 | 235° | 18km/h | 1872m | 4.2m/s | 17.7°C | 41.2% | 0hPa | 3V | 08:30:00 | 00:32:14 | 00:00:00 | |
| IW2NTF | 2026-09-05 23:06:07 | 45.51046 | 8.65294 | 222° | 20km/h | 1864m | 4.6m/s | 17.8°C | 41% | 0hPa | 3V | 08:30:00 | 00:32:12 | 00:00:00 | |
| IW2NTF | 2026-09-05 23:06:01 | 45.51055 | 8.65300 | 194° | 18km/h | 1856m | 3.4m/s | 17.9°C | 40.9% | 0hPa | 3V | 08:30:00 | 00:32:10 | 00:00:00 | |
| IW2NTF | 2026-09-05 23:06:01 | 45.51062 | 8.65299 | 156° | 13km/h | 1848m | 4.2m/s | 17.9°C | 40.8% | 0hPa | 3V | 08:30:00 | 00:32:08 | 00:00:00 | |
| IW2NTF | 2026-09-05 23:06:01 | 45.51067 | 8.65294 | 125° | 9km/h | 1839m | 5.3m/s | 18.1°C | 40.5% | 0hPa | 3V | 08:30:00 | 00:32:06 | 00:00:00 | |
| IW2NTF | 2026-09-05 23:05:55 | 45.51067 | 8.65292 | 1° | 4km/h | 1829m | 4m/s | 18.1°C | 40.3% | 0hPa | 3V | 08:30:00 | 00:32:04 | 00:00:00 | |
| IW2NTF | 2026-09-05 23:05:55 | 45.51065 | 8.65295 | 283° | 11km/h | 1822m | 3.8m/s | 18.2°C | 40.3% | 0hPa | 3V | 08:30:00 | 00:32:02 | 00:00:00 | |
| IW2NTF | 2026-09-05 23:05:55 | 45.51064 | 8.65304 | 271° | 13km/h | 1813m | 4.9m/s | 18.3°C | 40.1% | 0hPa | 3V | 08:30:00 | 00:32:00 | 00:00:00 | |
| IW2NTF | 2026-09-05 23:05:49 | 45.51065 | 8.65315 | 257° | 18km/h | 1804m | 5.2m/s | 18.4°C | 39.9% | 0hPa | 3V | 08:30:00 | 00:31:58 | 00:00:00 | |
| IW2NTF | 2026-09-05 23:05:49 | 45.51074 | 8.65337 | 212° | 20km/h | 1787m | 4.2m/s | 18.6°C | 39.4% | 0hPa | 3V | 08:30:00 | 00:31:54 | 00:00:00 | |
| IW2NTF | 2026-09-05 23:05:43 | 45.51082 | 8.65341 | 182° | 15km/h | 1778m | 5m/s | 18.6°C | 39.2% | 0hPa | 3V | 08:30:00 | 00:31:52 | 00:00:00 | |
| IW2NTF | 2026-09-05 23:05:43 | 45.51088 | 8.65341 | 154° | 9km/h | 1769m | 4.6m/s | 18.7°C | 39% | 0hPa | 3V | 08:30:00 | 00:31:50 | 00:00:00 | |
| IW2NTF | 2026-09-05 23:05:43 | 45.51089 | 8.65339 | 34° | 2km/h | 1761m | 4.5m/s | 18.8°C | 38.9% | 0hPa | 3V | 08:30:00 | 00:31:48 | 00:00:00 | |
| IW2NTF | 2026-09-05 23:05:37 | 45.51087 | 8.65340 | 322° | 7km/h | 1753m | 3.3m/s | 18.9°C | 38.7% | 0hPa | 3V | 08:30:00 | 00:31:46 | 00:00:00 | |
| IW2NTF | 2026-09-05 23:05:37 | 45.51086 | 8.65345 | 265° | 11km/h | 1747m | 4.1m/s | 18.9°C | 38.7% | 0hPa | 3V | 08:30:00 | 00:31:44 | 00:00:00 | |
| IW2NTF | 2026-09-05 23:05:37 | 45.51090 | 8.65354 | 215° | 18km/h | 1737m | 4.9m/s | 19°C | 38.4% | 0hPa | 3V | 08:30:00 | 00:31:42 | 00:00:00 | |
| IW2NTF | 2026-09-05 23:05:31 | 45.51099 | 8.65358 | 186° | 20km/h | 1728m | 5.8m/s | 19.1°C | 38.3% | 0hPa | 3V | 08:30:00 | 00:31:40 | 00:00:00 | |
| IW2NTF | 2026-09-05 23:05:31 | 45.51108 | 8.65356 | 148° | 15km/h | 1717m | 4.5m/s | 19.2°C | 38.1% | 0hPa | 3V | 08:30:00 | 00:31:38 | 00:00:00 | |
| IW2NTF | 2026-09-05 23:05:31 | 45.51112 | 8.65350 | 120° | 9km/h | 1706m | 6.1m/s | 19.3°C | 37.8% | 0hPa | 3V | 08:30:00 | 00:31:36 | 00:00:00 | |
| IW2NTF | 2026-09-05 23:05:25 | 45.51112 | 8.65347 | 35° | 4km/h | 1696m | 4.6m/s | 19.4°C | 37.8% | 0hPa | 3V | 08:30:00 | 00:31:34 | 00:00:00 | |
| IW2NTF | 2026-09-05 23:05:25 | 45.51112 | 8.65347 | 329° | 2km/h | 1688m | 4.3m/s | 19.4°C | 37.7% | 0hPa | 3V | 08:30:00 | 00:31:32 | 00:00:00 | |
| IW2NTF | 2026-09-05 23:05:25 | 45.51110 | 8.65346 | 80° | 5km/h | 1678m | 4.7m/s | 19.5°C | 37.4% | 0hPa | 3V | 08:30:00 | 00:31:30 | 00:00:00 | |
| IW2NTF | 2026-09-05 23:05:18 | 45.51112 | 8.65341 | 143° | 11km/h | 1671m | 3.9m/s | 19.6°C | 37.4% | 0hPa | 3V | 08:30:00 | 00:31:28 | 00:00:00 | |
| IW2NTF | 2026-09-05 23:05:18 | 45.51119 | 8.65339 | 186° | 18km/h | 1662m | 5.3m/s | 19.7°C | 37.3% | 0hPa | 3V | 08:30:00 | 00:31:26 | 00:00:00 | |
| IW2NTF | 2026-09-05 23:05:18 | 45.51133 | 8.65355 | 242° | 16km/h | 1641m | 4.9m/s | 19.9°C | 37% | 0hPa | 3V | 08:30:00 | 00:31:22 | 00:00:00 | |
| IW2NTF | 2026-09-05 23:05:11 | 45.51136 | 8.65365 | 245° | 11km/h | 1629m | 7.3m/s | 20°C | 36.8% | 0hPa | 3V | 08:30:00 | 00:31:20 | 00:00:00 | |
| IW2NTF | 2026-09-05 23:05:11 | 45.51139 | 8.65368 | 162° | 5km/h | 1618m | 5.1m/s | 20.1°C | 36.7% | 0hPa | 3V | 08:30:00 | 00:31:18 | 00:00:00 | |
| IW2NTF | 2026-09-05 23:05:11 | 45.51142 | 8.65365 | 150° | 7km/h | 1605m | 7.7m/s | 20.2°C | 36.6% | 0hPa | 3V | 08:30:00 | 00:31:16 | 00:00:00 | |
| IW2NTF | 2026-09-05 23:05:05 | 45.51148 | 8.65365 | 192° | 16km/h | 1591m | 6.2m/s | 20.3°C | 36.4% | 0hPa | 3V | 08:30:00 | 00:31:14 | 00:00:00 | |
| IW2NTF | 2026-09-05 23:05:05 | 45.51158 | 8.65369 | 191° | 22km/h | 1579m | 6.8m/s | 20.4°C | 36.2% | 0hPa | 3V | 08:30:00 | 00:31:12 | 00:00:00 | |
| IW2NTF | 2026-09-05 23:05:05 | 45.51178 | 8.65364 | 146° | 13km/h | 1557m | 4.7m/s | 20.5°C | 36.2% | 0hPa | 3V | 08:30:00 | 00:31:08 | 00:00:00 | |
| IW2NTF | 2026-09-05 23:04:58 | 45.51182 | 8.65362 | 195° | 5km/h | 1548m | 4.8m/s | 20.5°C | 36.3% | 0hPa | 3V | 08:30:00 | 00:31:06 | 00:00:00 | |
| IW2NTF | 2026-09-05 23:04:58 | 45.51186 | 8.65368 | 225° | 16km/h | 1539m | 5m/s | 20.6°C | 36.1% | 0hPa | 3V | 08:30:00 | 00:31:04 | 00:00:00 | |
| IW2NTF | 2026-09-05 23:04:58 | 45.51194 | 8.65378 | 217° | 24km/h | 1527m | 6.3m/s | 20.7°C | 36.1% | 0hPa | 3V | 08:30:00 | 00:31:02 | 00:00:00 | |
| IW2NTF | 2026-09-05 23:04:49 | 45.51215 | 8.65386 | 174° | 15km/h | 1507m | 4.8m/s | 20.8°C | 35.8% | 0hPa | 3V | 08:30:00 | 00:30:58 | 00:00:00 | |
| IW2NTF | 2026-09-05 23:04:49 | 45.51220 | 8.65387 | 215° | 11km/h | 1497m | 5.5m/s | 20.9°C | 35.7% | 0hPa | 3V | 08:30:00 | 00:30:56 | 00:00:00 | |
| IW2NTF | 2026-09-05 23:04:49 | 45.51226 | 8.65396 | 228° | 20km/h | 1486m | 6.1m/s | 21°C | 35.6% | 0hPa | 3V | 08:30:00 | 00:30:54 | 00:00:00 | |
| IW2NTF | 2026-09-05 23:04:43 | 45.51235 | 8.65407 | 212° | 27km/h | 1475m | 4.5m/s | 21.1°C | 35.4% | 0hPa | 3V | 08:30:00 | 00:30:52 | 00:00:00 | |
| IW2NTF | 2026-09-05 23:04:43 | 45.51248 | 8.65414 | 188° | 26km/h | 1465m | 5.1m/s | 21.2°C | 35.3% | 0hPa | 3V | 08:30:00 | 00:30:50 | 00:00:00 | |
| IW2NTF | 2026-09-05 23:04:43 | 45.51260 | 8.65413 | 165° | 22km/h | 1456m | 5.2m/s | 21.3°C | 35.2% | 0hPa | 3V | 08:30:00 | 00:30:48 | 00:00:00 | |
| IW2NTF | 2026-09-05 23:04:37 | 45.51268 | 8.65410 | 167° | 13km/h | 1444m | 5.5m/s | 21.4°C | 34.9% | 0hPa | 3V | 08:30:00 | 00:30:46 | 00:00:00 | |
| IW2NTF | 2026-09-05 23:04:37 | 45.51274 | 8.65412 | 216° | 16km/h | 1435m | 3.2m/s | 21.5°C | 34.8% | 0hPa | 3V | 08:30:00 | 00:30:44 | 00:00:00 | |
| IW2NTF | 2026-09-05 23:04:37 | 45.51282 | 8.65422 | 226° | 24km/h | 1426m | 5.9m/s | 21.5°C | 34.7% | 0hPa | 3V | 08:30:00 | 00:30:42 | 00:00:00 | |
| IW2NTF | 2026-09-05 23:04:31 | 45.51294 | 8.65435 | 206° | 33km/h | 1415m | 5.2m/s | 21.6°C | 34.6% | 0hPa | 3V | 08:30:00 | 00:30:40 | 00:00:00 | |
| IW2NTF | 2026-09-05 23:04:31 | 45.51310 | 8.65442 | 189° | 31km/h | 1405m | 4.5m/s | 21.7°C | 34.6% | 0hPa | 3V | 08:30:00 | 00:30:38 | 00:00:00 | |
| IW2NTF | 2026-09-05 23:04:31 | 45.51325 | 8.65442 | 175° | 29km/h | 1397m | 4.6m/s | 21.7°C | 34.4% | 0hPa | 3V | 08:30:00 | 00:30:36 | 00:00:00 | |
| IW2NTF | 2026-09-05 23:04:25 | 45.51339 | 8.65440 | 168° | 24km/h | 1388m | 3.5m/s | 21.8°C | 34.3% | 0hPa | 3V | 00:00:00 | 00:30:34 | 00:00:00 | |
| IW2NTF | 2026-09-05 23:04:25 | 45.51350 | 8.65437 | 164° | 26km/h | 1381m | 4.4m/s | 21.9°C | 34.1% | 0hPa | 3V | 00:00:00 | 00:30:32 | 00:00:00 | |
| IW2NTF | 2026-09-05 23:04:25 | 45.51364 | 8.65433 | 170° | 29km/h | 1373m | 3.9m/s | 21.9°C | 33.9% | 0hPa | 3V | 00:00:00 | 00:30:30 | 00:00:00 | |
| IW2NTF | 2026-09-05 23:04:17 | 45.51395 | 8.65432 | 188° | 35km/h | 1356m | 5.5m/s | 22.1°C | 33.3% | 0hPa | 3V | 00:00:00 | 00:30:26 | 00:00:00 | |
| IW2NTF | 2026-09-05 23:04:17 | 45.51413 | 8.65439 | 202° | 35km/h | 1346m | 3.8m/s | 22.2°C | 32.8% | 0hPa | 3V | 00:00:00 | 00:30:24 | 00:00:00 | |
| IW2NTF | 2026-09-05 23:04:17 | 45.51429 | 8.65451 | 211° | 38km/h | 1338m | 3.4m/s | 22.3°C | 32.9% | 0hPa | 3V | 00:00:00 | 00:30:22 | 00:00:00 | |
| IW2NTF | 2026-09-05 23:04:11 | 45.51446 | 8.65465 | 209° | 38km/h | 1330m | 5m/s | 22.4°C | 32.8% | 0hPa | 3V | 00:00:00 | 00:30:20 | 00:00:00 | |
| IW2NTF | 2026-09-05 23:04:11 | 45.51463 | 8.65477 | 197° | 37km/h | 1321m | 3.5m/s | 22.4°C | 32.6% | 0hPa | 3V | 00:00:00 | 00:30:18 | 00:00:00 | |
| IW2NTF | 2026-09-05 23:04:11 | 45.51481 | 8.65484 | 185° | 37km/h | 1313m | 4.2m/s | 22.5°C | 32.4% | 0hPa | 3V | 00:00:00 | 00:30:16 | 00:00:00 | |
| IW2NTF | 2026-09-05 23:04:05 | 45.51500 | 8.65487 | 185° | 37km/h | 1305m | 3.5m/s | 22.6°C | 32.3% | 0hPa | 3V | 00:00:00 | 00:30:14 | 00:00:00 | |
| IW2NTF | 2026-09-05 23:04:05 | 45.51517 | 8.65488 | 182° | 35km/h | 1298m | 3.8m/s | 22.6°C | 32.1% | 0hPa | 3V | 00:00:00 | 00:30:12 | 00:00:00 | |
| IW2NTF | 2026-09-05 23:04:05 | 45.51534 | 8.65490 | 190° | 31km/h | 1290m | 4.6m/s | 22.7°C | 32% | 0hPa | 3V | 00:00:00 | 00:30:10 | 00:00:00 | |
| IW2NTF | 2026-09-05 23:03:59 | 45.51549 | 8.65497 | 205° | 29km/h | 1280m | 5.5m/s | 22.8°C | 31.9% | 0hPa | 3V | 00:00:00 | 00:30:08 | 00:00:00 | |
| IW2NTF | 2026-09-05 23:03:59 | 45.51562 | 8.65508 | 211° | 29km/h | 1270m | 5.3m/s | 22.9°C | 31.5% | 0hPa | 3V | 00:00:00 | 00:30:06 | 00:00:00 | |
| IW2NTF | 2026-09-05 23:03:59 | 45.51575 | 8.65517 | 202° | 27km/h | 1261m | 4m/s | 23°C | 0% | 0hPa | 3V | 00:00:00 | 00:30:04 | 00:00:00 | |
| IW2NTF | 2026-09-05 23:03:53 | 45.51586 | 8.65522 | 184° | 20km/h | 1254m | 3.4m/s | 23.1°C | 0% | 0hPa | 3V | 00:00:00 | 00:30:02 | 00:00:00 | |
| IW2NTF | 2026-09-05 23:03:53 | 45.51595 | 8.65523 | 177° | 16km/h | 1247m | 4m/s | 23.1°C | 0% | 0hPa | 3V | 00:00:00 | 00:30:00 | 00:00:00 | |
| IW2NTF | 2026-09-05 23:03:53 | 45.51603 | 8.65526 | 208° | 15km/h | 1241m | 3.2m/s | 23.2°C | 0% | 0hPa | 3V | 00:00:00 | 00:29:58 | 00:00:00 | |
| IW2NTF | 2026-09-05 23:03:47 | 45.51609 | 8.65533 | 227° | 18km/h | 1233m | 5.4m/s | 23.3°C | 0% | 0hPa | 3V | 00:00:00 | 00:29:56 | 00:00:00 | |
| IW2NTF | 2026-09-05 23:03:47 | 45.51616 | 8.65546 | 228° | 26km/h | 1222m | 4.8m/s | 23.4°C | 0% | 0hPa | 3V | 00:00:00 | 00:29:54 | 00:00:00 | |
| IW2NTF | 2026-09-05 23:03:47 | 45.51625 | 8.65560 | 225° | 27km/h | 1215m | 3.7m/s | 23.4°C | 0% | 0hPa | 3V | 00:00:00 | 00:29:52 | 00:00:00 | |
| IW2NTF | 2026-09-05 23:03:41 | 45.51635 | 8.65572 | 217° | 22km/h | 1206m | 6.2m/s | 0°C | 0% | 0hPa | 3V | 00:00:00 | 00:29:50 | 00:00:00 | |
| IW2NTF | 2026-09-05 23:03:41 | 45.51642 | 8.65578 | 190° | 15km/h | 1196m | 3.9m/s | 0°C | 0% | 0hPa | 3V | 00:00:00 | 00:29:48 | 00:00:00 | |
| IW2NTF | 2026-09-05 23:03:41 | 45.51651 | 8.65579 | 174° | 20km/h | 1187m | 4.7m/s | 0°C | 0% | 0hPa | 3V | 00:00:00 | 00:29:46 | 00:00:00 | |
| IW2NTF | 2026-09-05 23:03:35 | 45.51664 | 8.65579 | 186° | 29km/h | 1179m | 4m/s | 0°C | 0% | 0hPa | 3V | 00:00:00 | 00:29:44 | 00:00:00 | |
| IW2NTF | 2026-09-05 23:03:35 | 45.51680 | 8.65584 | 198° | 33km/h | 1171m | 4.1m/s | 0°C | 0% | 0hPa | 3V | 00:00:00 | 00:29:42 | 00:00:00 | |
| IW2NTF | 2026-09-05 23:03:35 | 45.51693 | 8.65594 | 217° | 27km/h | 1164m | 3.6m/s | 0°C | 0% | 0hPa | 3V | 00:00:00 | 00:29:40 | 00:00:00 | |
| IW2NTF | 2026-09-05 23:03:29 | 45.51711 | 8.65610 | 186° | 15km/h | 1145m | 4.3m/s | 0°C | 0% | 0hPa | 3V | 00:00:00 | 00:29:36 | 00:00:00 | |
| IW2NTF | 2026-09-05 23:03:29 | 45.51719 | 8.65610 | 177° | 15km/h | 1135m | 7.1m/s | 0°C | 0% | 0hPa | 3V | 00:00:00 | 00:29:34 | 00:00:00 | |
| IW2NTF | 2026-09-05 23:03:23 | 45.51724 | 8.65613 | 224° | 13km/h | 1122m | 5.4m/s | 0°C | 0% | 0hPa | 3V | 00:00:00 | 00:29:32 | 00:00:00 | |
| IW2NTF | 2026-09-05 23:03:23 | 45.51730 | 8.65625 | 236° | 24km/h | 1113m | 5.9m/s | 0°C | 0% | 0hPa | 3V | 00:00:00 | 00:29:30 | 00:00:00 | |
| IW2NTF | 2026-09-05 23:03:23 | 45.51740 | 8.65640 | 217° | 35km/h | 1102m | 5.5m/s | 0°C | 0% | 0hPa | 3V | 00:00:00 | 00:29:28 | 00:00:00 | |
| IW2NTF | 2026-09-05 23:03:17 | 45.51756 | 8.65653 | 201° | 40km/h | 1092m | 4.7m/s | 0°C | 0% | 0hPa | 3V | 00:00:00 | 00:29:26 | 00:00:00 | |
| IW2NTF | 2026-09-05 23:03:17 | 45.51775 | 8.65662 | 196° | 40km/h | 1082m | 4.7m/s | 0°C | 0% | 0hPa | 3V | 00:00:00 | 00:29:24 | 00:00:00 | |
| IW2NTF | 2026-09-05 23:03:17 | 45.51793 | 8.65672 | 208° | 37km/h | 1075m | 4.2m/s | 0°C | 0% | 0hPa | 3V | 00:00:00 | 00:29:22 | 00:00:00 | |
| IW2NTF | 2026-09-05 23:03:09 | 45.51816 | 8.65696 | 214° | 22km/h | 1058m | 3.5m/s | 0°C | 0% | 0hPa | 3V | 00:00:00 | 00:29:18 | 00:00:00 | |
| IW2NTF | 2026-09-05 23:03:09 | 45.51826 | 8.65702 | 193° | 26km/h | 1051m | 4.3m/s | 0°C | 0% | 0hPa | 3V | 00:00:00 | 00:29:16 | 00:00:00 | |
| IW2NTF | 2026-09-05 23:03:09 | 45.51857 | 8.65720 | 213° | 35km/h | 1032m | 4.5m/s | 0°C | 0% | 0hPa | 3V | 00:00:00 | 00:29:12 | 00:00:00 | |
| IW2NTF | 2026-09-05 23:03:02 | 45.51870 | 8.65732 | 213° | 24km/h | 1023m | 3.8m/s | 0°C | 0% | 0hPa | 3V | 00:00:00 | 00:29:10 | 00:00:00 | |
| IW2NTF | 2026-09-05 23:03:02 | 45.51880 | 8.65738 | 191° | 18km/h | 1013m | 6.3m/s | 0°C | 0% | 0hPa | 3V | 00:00:00 | 00:29:08 | 00:00:00 | |
| IW2NTF | 2026-09-05 23:03:02 | 45.51889 | 8.65740 | 187° | 18km/h | 1002m | 6m/s | 0°C | 0% | 0hPa | 3V | 00:00:00 | 00:29:06 | 00:00:00 | |
| IW2NTF | 2026-09-05 23:02:55 | 45.51897 | 8.65747 | 224° | 26km/h | 992m | 4.9m/s | 0°C | 0% | 0hPa | 3V | 00:00:00 | 00:29:04 | 00:00:00 | |
| IW2NTF | 2026-09-05 23:02:55 | 45.51907 | 8.65764 | 235° | 33km/h | 981m | 6m/s | 0°C | 0% | 0hPa | 3V | 00:00:00 | 00:29:02 | 00:00:00 | |
| IW2NTF | 2026-09-05 23:02:55 | 45.51918 | 8.65786 | 225° | 40km/h | 971m | 3.6m/s | 0°C | 0% | 0hPa | 3V | 00:00:00 | 00:29:00 | 00:00:00 | |
| IW2NTF | 2026-09-05 23:02:49 | 45.51935 | 8.65805 | 214° | 44km/h | 964m | 4.3m/s | 0°C | 0% | 0hPa | 3V | 00:00:00 | 00:28:58 | 00:00:00 | |
| IW2NTF | 2026-09-05 23:02:49 | 45.51955 | 8.65819 | 200° | 40km/h | 955m | 5.5m/s | 0°C | 0% | 0hPa | 3V | 00:00:00 | 00:28:56 | 00:00:00 | |
| IW2NTF | 2026-09-05 23:02:49 | 45.51972 | 8.65826 | 192° | 29km/h | 945m | 4.2m/s | 0°C | 0% | 0hPa | 3V | 00:00:00 | 00:28:54 | 00:00:00 | |
| IW2NTF | 2026-09-05 23:02:43 | 45.51983 | 8.65832 | 211° | 18km/h | 936m | 5.3m/s | 0°C | 0% | 0hPa | 3V | 00:00:00 | 00:28:52 | 00:00:00 | |
| IW2NTF | 2026-09-05 23:02:43 | 45.51991 | 8.65844 | 228° | 29km/h | 926m | 4.6m/s | 0°C | 0% | 0hPa | 3V | 00:00:00 | 00:28:50 | 00:00:00 | |
| IW2NTF | 2026-09-05 23:02:43 | 45.52024 | 8.65876 | 198° | 44km/h | 907m | 6m/s | 0°C | 0% | 0hPa | 3V | 00:00:00 | 00:28:46 | 00:00:00 | |
| IW2NTF | 2026-09-05 23:02:37 | 45.52044 | 8.65881 | 184° | 33km/h | 898m | 3.9m/s | 0°C | 0% | 0hPa | 3V | 00:00:00 | 00:28:44 | 00:00:00 | |
| IW2NTF | 2026-09-05 23:02:37 | 45.52066 | 8.65892 | 225° | 26km/h | 881m | 4.6m/s | 0°C | 0% | 0hPa | 3V | 00:00:00 | 00:28:40 | 00:00:00 | |
| IW2NTF | 2026-09-05 23:02:29 | 45.52078 | 8.65909 | 219° | 38km/h | 872m | 6.4m/s | 0°C | 0% | 0hPa | 3V | 00:00:00 | 00:28:38 | 00:00:00 | |
| IW2NTF | 2026-09-05 23:02:29 | 45.52098 | 8.65922 | 197° | 46km/h | 862m | 4.5m/s | 0°C | 0% | 0hPa | 3V | 00:00:00 | 00:28:36 | 00:00:00 | |
| IW2NTF | 2026-09-05 23:02:29 | 45.52117 | 8.65928 | 190° | 37km/h | 853m | 4.1m/s | 0°C | 0% | 0hPa | 3V | 00:00:00 | 00:28:34 | 00:00:00 | |
| IW2NTF | 2026-09-05 23:02:23 | 45.52132 | 8.65932 | 190° | 26km/h | 845m | 3.9m/s | 0°C | 0% | 0hPa | 3V | 00:00:00 | 00:28:32 | 00:00:00 | |
| IW2NTF | 2026-09-05 23:02:23 | 45.52143 | 8.65941 | 220° | 26km/h | 836m | 5m/s | 0°C | 0% | 0hPa | 3V | 00:00:00 | 00:28:30 | 00:00:00 | |
| IW2NTF | 2026-09-05 23:02:23 | 45.52153 | 8.65957 | 231° | 37km/h | 827m | 4m/s | 0°C | 0% | 0hPa | 3V | 00:00:00 | 00:28:28 | 00:00:00 |